<?xml version="1.0" encoding="UTF-8" standalone="no" ?>
<gpx xmlns="http://www.topografix.com/GPX/1/1" xmlns:xsi="http://www.w3.org/2001/XMLSchema-instance" xsi:schemaLocation="http://www.topografix.com/GPX/1/1 http://www.topografix.com/GPX/1/1/gpx.xsd" version="1.1" creator="VisuGPX - https://www.visugpx.com">
  <metadata>
    <name>Vers l\'Etang de la Porte Baudet (78)</name>
    <desc><![CDATA[Un bel étang avec des nénuphars, et un super petit sentier, sur lequel on ne peut pas faire demi-tour !]]></desc>
  </metadata>
  <trk>
    <name><![CDATA[Untitled]]></name>
    <trkseg>
      <trkpt lat="48.70833" lon="1.75892">
        <ele>173.39999389648</ele>
        <time>2011-07-01T08:14:05.000Z</time>
      </trkpt>
      <trkpt lat="48.70826" lon="1.75889">
        <ele>173.19999694824</ele>
        <time>2011-07-01T08:14:09.000Z</time>
      </trkpt>
      <trkpt lat="48.70822" lon="1.75887">
        <ele>173.19999694824</ele>
        <time>2011-07-01T08:14:15.000Z</time>
      </trkpt>
      <trkpt lat="48.70796" lon="1.75865">
        <ele>172.80000305176</ele>
        <time>2011-07-01T08:14:49.000Z</time>
      </trkpt>
      <trkpt lat="48.70789" lon="1.75857">
        <ele>172.80000305176</ele>
        <time>2011-07-01T08:14:55.000Z</time>
      </trkpt>
      <trkpt lat="48.70785" lon="1.75852">
        <ele>172.60000610352</ele>
        <time>2011-07-01T08:14:59.000Z</time>
      </trkpt>
      <trkpt lat="48.70778" lon="1.75843">
        <ele>172.60000610352</ele>
        <time>2011-07-01T08:15:07.000Z</time>
      </trkpt>
      <trkpt lat="48.70772" lon="1.75836">
        <ele>172.60000610352</ele>
        <time>2011-07-01T08:15:13.000Z</time>
      </trkpt>
      <trkpt lat="48.70766" lon="1.75826">
        <ele>172.80000305176</ele>
        <time>2011-07-01T08:15:20.000Z</time>
      </trkpt>
      <trkpt lat="48.70759" lon="1.75816">
        <ele>173</ele>
        <time>2011-07-01T08:15:27.000Z</time>
      </trkpt>
      <trkpt lat="48.70755" lon="1.7581">
        <ele>173.19999694824</ele>
        <time>2011-07-01T08:15:32.000Z</time>
      </trkpt>
      <trkpt lat="48.7075" lon="1.75803">
        <ele>173.19999694824</ele>
        <time>2011-07-01T08:15:37.000Z</time>
      </trkpt>
      <trkpt lat="48.70745" lon="1.75795">
        <ele>173.39999389648</ele>
        <time>2011-07-01T08:15:43.000Z</time>
      </trkpt>
      <trkpt lat="48.70743" lon="1.75792">
        <ele>173.39999389648</ele>
        <time>2011-07-01T08:15:45.000Z</time>
      </trkpt>
      <trkpt lat="48.70736" lon="1.75781">
        <ele>173.39999389648</ele>
        <time>2011-07-01T08:15:53.000Z</time>
      </trkpt>
      <trkpt lat="48.70728" lon="1.75769">
        <ele>173.60000610352</ele>
        <time>2011-07-01T08:16:03.000Z</time>
      </trkpt>
      <trkpt lat="48.70722" lon="1.75762">
        <ele>173.80000305176</ele>
        <time>2011-07-01T08:16:09.000Z</time>
      </trkpt>
      <trkpt lat="48.7072" lon="1.75757">
        <ele>173.80000305176</ele>
        <time>2011-07-01T08:16:14.000Z</time>
      </trkpt>
      <trkpt lat="48.70711" lon="1.75746">
        <ele>173.80000305176</ele>
        <time>2011-07-01T08:16:24.000Z</time>
      </trkpt>
      <trkpt lat="48.70704" lon="1.75736">
        <ele>174</ele>
        <time>2011-07-01T08:16:32.000Z</time>
      </trkpt>
      <trkpt lat="48.707" lon="1.75729">
        <ele>174</ele>
        <time>2011-07-01T08:16:37.000Z</time>
      </trkpt>
      <trkpt lat="48.70692" lon="1.75719">
        <ele>174</ele>
        <time>2011-07-01T08:16:45.000Z</time>
      </trkpt>
      <trkpt lat="48.70683" lon="1.7571">
        <ele>174.19999694824</ele>
        <time>2011-07-01T08:16:53.000Z</time>
      </trkpt>
      <trkpt lat="48.70674" lon="1.757">
        <ele>174.39999389648</ele>
        <time>2011-07-01T08:17:03.000Z</time>
      </trkpt>
      <trkpt lat="48.70665" lon="1.75688">
        <ele>174.80000305176</ele>
        <time>2011-07-01T08:17:13.000Z</time>
      </trkpt>
      <trkpt lat="48.70663" lon="1.75685">
        <ele>175.19999694824</ele>
        <time>2011-07-01T08:17:20.000Z</time>
      </trkpt>
      <trkpt lat="48.70655" lon="1.75682">
        <ele>176</ele>
        <time>2011-07-01T08:17:27.000Z</time>
      </trkpt>
      <trkpt lat="48.70653" lon="1.75681">
        <ele>176.19999694824</ele>
        <time>2011-07-01T08:17:30.000Z</time>
      </trkpt>
      <trkpt lat="48.70647" lon="1.75684">
        <ele>176.80000305176</ele>
        <time>2011-07-01T08:17:36.000Z</time>
      </trkpt>
      <trkpt lat="48.70642" lon="1.75687">
        <ele>177.19999694824</ele>
        <time>2011-07-01T08:17:40.000Z</time>
      </trkpt>
      <trkpt lat="48.70639" lon="1.75695">
        <ele>177.39999389648</ele>
        <time>2011-07-01T08:17:46.000Z</time>
      </trkpt>
      <trkpt lat="48.70636" lon="1.757">
        <ele>177.39999389648</ele>
        <time>2011-07-01T08:17:50.000Z</time>
      </trkpt>
      <trkpt lat="48.70632" lon="1.7571">
        <ele>177.39999389648</ele>
        <time>2011-07-01T08:17:56.000Z</time>
      </trkpt>
      <trkpt lat="48.70628" lon="1.7572">
        <ele>177.39999389648</ele>
        <time>2011-07-01T08:18:02.000Z</time>
      </trkpt>
      <trkpt lat="48.70628" lon="1.75721">
        <ele>177.39999389648</ele>
        <time>2011-07-01T08:18:05.000Z</time>
      </trkpt>
      <trkpt lat="48.70626" lon="1.75724">
        <ele>177.39999389648</ele>
        <time>2011-07-01T08:18:12.000Z</time>
      </trkpt>
      <trkpt lat="48.70625" lon="1.75727">
        <ele>177.39999389648</ele>
        <time>2011-07-01T08:18:13.000Z</time>
      </trkpt>
      <trkpt lat="48.70624" lon="1.75733">
        <ele>177.19999694824</ele>
        <time>2011-07-01T08:18:17.000Z</time>
      </trkpt>
      <trkpt lat="48.70621" lon="1.7574">
        <ele>177.19999694824</ele>
        <time>2011-07-01T08:18:23.000Z</time>
      </trkpt>
      <trkpt lat="48.70616" lon="1.75747">
        <ele>177</ele>
        <time>2011-07-01T08:18:29.000Z</time>
      </trkpt>
      <trkpt lat="48.70612" lon="1.75755">
        <ele>177</ele>
        <time>2011-07-01T08:18:35.000Z</time>
      </trkpt>
      <trkpt lat="48.70606" lon="1.75763">
        <ele>177</ele>
        <time>2011-07-01T08:18:42.000Z</time>
      </trkpt>
      <trkpt lat="48.70602" lon="1.7577">
        <ele>177.19999694824</ele>
        <time>2011-07-01T08:18:48.000Z</time>
      </trkpt>
      <trkpt lat="48.70598" lon="1.75778">
        <ele>177</ele>
        <time>2011-07-01T08:18:54.000Z</time>
      </trkpt>
      <trkpt lat="48.70592" lon="1.75789">
        <ele>177</ele>
        <time>2011-07-01T08:19:01.000Z</time>
      </trkpt>
      <trkpt lat="48.70587" lon="1.75799">
        <ele>177</ele>
        <time>2011-07-01T08:19:07.000Z</time>
      </trkpt>
      <trkpt lat="48.7058" lon="1.75812">
        <ele>177</ele>
        <time>2011-07-01T08:19:14.000Z</time>
      </trkpt>
      <trkpt lat="48.70578" lon="1.75818">
        <ele>176.80000305176</ele>
        <time>2011-07-01T08:19:20.000Z</time>
      </trkpt>
      <trkpt lat="48.70575" lon="1.75828">
        <ele>176.80000305176</ele>
        <time>2011-07-01T08:19:27.000Z</time>
      </trkpt>
      <trkpt lat="48.70573" lon="1.75832">
        <ele>177</ele>
        <time>2011-07-01T08:19:31.000Z</time>
      </trkpt>
      <trkpt lat="48.70571" lon="1.75836">
        <ele>177</ele>
        <time>2011-07-01T08:19:33.000Z</time>
      </trkpt>
      <trkpt lat="48.70569" lon="1.75841">
        <ele>177.19999694824</ele>
        <time>2011-07-01T08:19:37.000Z</time>
      </trkpt>
      <trkpt lat="48.70564" lon="1.75852">
        <ele>177.60000610352</ele>
        <time>2011-07-01T08:19:44.000Z</time>
      </trkpt>
      <trkpt lat="48.70561" lon="1.75861">
        <ele>177.80000305176</ele>
        <time>2011-07-01T08:19:50.000Z</time>
      </trkpt>
      <trkpt lat="48.70557" lon="1.75871">
        <ele>178.19999694824</ele>
        <time>2011-07-01T08:19:56.000Z</time>
      </trkpt>
      <trkpt lat="48.70552" lon="1.75883">
        <ele>178.39999389648</ele>
        <time>2011-07-01T08:20:03.000Z</time>
      </trkpt>
      <trkpt lat="48.70548" lon="1.75891">
        <ele>178.60000610352</ele>
        <time>2011-07-01T08:20:09.000Z</time>
      </trkpt>
      <trkpt lat="48.70545" lon="1.75897">
        <ele>178.80000305176</ele>
        <time>2011-07-01T08:20:13.000Z</time>
      </trkpt>
      <trkpt lat="48.70539" lon="1.75909">
        <ele>179.19999694824</ele>
        <time>2011-07-01T08:20:20.000Z</time>
      </trkpt>
      <trkpt lat="48.70536" lon="1.75916">
        <ele>179.39999389648</ele>
        <time>2011-07-01T08:20:24.000Z</time>
      </trkpt>
      <trkpt lat="48.70532" lon="1.7592">
        <ele>179.39999389648</ele>
        <time>2011-07-01T08:20:29.000Z</time>
      </trkpt>
      <trkpt lat="48.70532" lon="1.7592">
        <ele>179.39999389648</ele>
        <time>2011-07-01T08:20:31.000Z</time>
      </trkpt>
      <trkpt lat="48.70531" lon="1.75925">
        <ele>179.39999389648</ele>
        <time>2011-07-01T08:20:38.000Z</time>
      </trkpt>
      <trkpt lat="48.70524" lon="1.75932">
        <ele>179.60000610352</ele>
        <time>2011-07-01T08:20:43.000Z</time>
      </trkpt>
      <trkpt lat="48.70518" lon="1.7594">
        <ele>179.60000610352</ele>
        <time>2011-07-01T08:20:50.000Z</time>
      </trkpt>
      <trkpt lat="48.70518" lon="1.7594">
        <ele>179.60000610352</ele>
        <time>2011-07-01T08:20:51.000Z</time>
      </trkpt>
      <trkpt lat="48.70516" lon="1.75942">
        <ele>179.60000610352</ele>
        <time>2011-07-01T08:20:53.000Z</time>
      </trkpt>
      <trkpt lat="48.70515" lon="1.75947">
        <ele>179.39999389648</ele>
        <time>2011-07-01T08:20:56.000Z</time>
      </trkpt>
      <trkpt lat="48.70506" lon="1.75959">
        <ele>179.39999389648</ele>
        <time>2011-07-01T08:21:03.000Z</time>
      </trkpt>
      <trkpt lat="48.70504" lon="1.75965">
        <ele>179.19999694824</ele>
        <time>2011-07-01T08:21:08.000Z</time>
      </trkpt>
      <trkpt lat="48.70501" lon="1.75968">
        <ele>179.39999389648</ele>
        <time>2011-07-01T08:21:15.000Z</time>
      </trkpt>
      <trkpt lat="48.70503" lon="1.7597">
        <ele>179.19999694824</ele>
        <time>2011-07-01T08:21:21.000Z</time>
      </trkpt>
      <trkpt lat="48.70502" lon="1.7597">
        <ele>179.19999694824</ele>
        <time>2011-07-01T08:21:22.000Z</time>
      </trkpt>
      <trkpt lat="48.70497" lon="1.7597">
        <ele>179.39999389648</ele>
        <time>2011-07-01T08:21:28.000Z</time>
      </trkpt>
      <trkpt lat="48.70498" lon="1.75971">
        <ele>179.39999389648</ele>
        <time>2011-07-01T08:21:33.000Z</time>
      </trkpt>
      <trkpt lat="48.70496" lon="1.75972">
        <ele>179.39999389648</ele>
        <time>2011-07-01T08:21:36.000Z</time>
      </trkpt>
      <trkpt lat="48.70492" lon="1.75981">
        <ele>179</ele>
        <time>2011-07-01T08:21:43.000Z</time>
      </trkpt>
      <trkpt lat="48.70493" lon="1.75985">
        <ele>178.80000305176</ele>
        <time>2011-07-01T08:21:48.000Z</time>
      </trkpt>
      <trkpt lat="48.70491" lon="1.75989">
        <ele>178.80000305176</ele>
        <time>2011-07-01T08:21:53.000Z</time>
      </trkpt>
      <trkpt lat="48.7049" lon="1.75993">
        <ele>178.60000610352</ele>
        <time>2011-07-01T08:21:57.000Z</time>
      </trkpt>
      <trkpt lat="48.70487" lon="1.76">
        <ele>178.39999389648</ele>
        <time>2011-07-01T08:22:01.000Z</time>
      </trkpt>
      <trkpt lat="48.70484" lon="1.76009">
        <ele>178</ele>
        <time>2011-07-01T08:22:08.000Z</time>
      </trkpt>
      <trkpt lat="48.70483" lon="1.76017">
        <ele>177.60000610352</ele>
        <time>2011-07-01T08:22:13.000Z</time>
      </trkpt>
      <trkpt lat="48.70482" lon="1.76024">
        <ele>177.19999694824</ele>
        <time>2011-07-01T08:22:17.000Z</time>
      </trkpt>
      <trkpt lat="48.70479" lon="1.76037">
        <ele>176.60000610352</ele>
        <time>2011-07-01T08:22:24.000Z</time>
      </trkpt>
      <trkpt lat="48.70479" lon="1.7604">
        <ele>176.39999389648</ele>
        <time>2011-07-01T08:22:26.000Z</time>
      </trkpt>
      <trkpt lat="48.70479" lon="1.76042">
        <ele>176.19999694824</ele>
        <time>2011-07-01T08:22:28.000Z</time>
      </trkpt>
      <trkpt lat="48.70475" lon="1.76053">
        <ele>175.80000305176</ele>
        <time>2011-07-01T08:22:34.000Z</time>
      </trkpt>
      <trkpt lat="48.70473" lon="1.7606">
        <ele>175.39999389648</ele>
        <time>2011-07-01T08:22:38.000Z</time>
      </trkpt>
      <trkpt lat="48.70472" lon="1.7607">
        <ele>175</ele>
        <time>2011-07-01T08:22:43.000Z</time>
      </trkpt>
      <trkpt lat="48.70471" lon="1.76074">
        <ele>174.80000305176</ele>
        <time>2011-07-01T08:22:46.000Z</time>
      </trkpt>
      <trkpt lat="48.70468" lon="1.7609">
        <ele>174.39999389648</ele>
        <time>2011-07-01T08:22:54.000Z</time>
      </trkpt>
      <trkpt lat="48.70463" lon="1.76098">
        <ele>174.39999389648</ele>
        <time>2011-07-01T08:23:00.000Z</time>
      </trkpt>
      <trkpt lat="48.7046" lon="1.76102">
        <ele>174.60000610352</ele>
        <time>2011-07-01T08:23:03.000Z</time>
      </trkpt>
      <trkpt lat="48.7046" lon="1.76109">
        <ele>174.60000610352</ele>
        <time>2011-07-01T08:23:06.000Z</time>
      </trkpt>
      <trkpt lat="48.70458" lon="1.76115">
        <ele>174.60000610352</ele>
        <time>2011-07-01T08:23:10.000Z</time>
      </trkpt>
      <trkpt lat="48.70458" lon="1.76124">
        <ele>174.39999389648</ele>
        <time>2011-07-01T08:23:15.000Z</time>
      </trkpt>
      <trkpt lat="48.70458" lon="1.76134">
        <ele>174.39999389648</ele>
        <time>2011-07-01T08:23:20.000Z</time>
      </trkpt>
      <trkpt lat="48.70457" lon="1.76137">
        <ele>174.39999389648</ele>
        <time>2011-07-01T08:23:23.000Z</time>
      </trkpt>
      <trkpt lat="48.70457" lon="1.76148">
        <ele>174.19999694824</ele>
        <time>2011-07-01T08:23:29.000Z</time>
      </trkpt>
      <trkpt lat="48.70457" lon="1.76158">
        <ele>174</ele>
        <time>2011-07-01T08:23:33.000Z</time>
      </trkpt>
      <trkpt lat="48.70458" lon="1.76166">
        <ele>174</ele>
        <time>2011-07-01T08:23:37.000Z</time>
      </trkpt>
      <trkpt lat="48.70459" lon="1.7617">
        <ele>173.80000305176</ele>
        <time>2011-07-01T08:23:40.000Z</time>
      </trkpt>
      <trkpt lat="48.70459" lon="1.76174">
        <ele>173.60000610352</ele>
        <time>2011-07-01T08:23:42.000Z</time>
      </trkpt>
      <trkpt lat="48.7046" lon="1.76176">
        <ele>173.60000610352</ele>
        <time>2011-07-01T08:23:44.000Z</time>
      </trkpt>
      <trkpt lat="48.70462" lon="1.76188">
        <ele>173.19999694824</ele>
        <time>2011-07-01T08:23:50.000Z</time>
      </trkpt>
      <trkpt lat="48.70463" lon="1.76192">
        <ele>173</ele>
        <time>2011-07-01T08:23:52.000Z</time>
      </trkpt>
      <trkpt lat="48.70464" lon="1.76204">
        <ele>172.80000305176</ele>
        <time>2011-07-01T08:23:59.000Z</time>
      </trkpt>
      <trkpt lat="48.70465" lon="1.76209">
        <ele>172.60000610352</ele>
        <time>2011-07-01T08:24:03.000Z</time>
      </trkpt>
      <trkpt lat="48.70464" lon="1.76219">
        <ele>172.39999389648</ele>
        <time>2011-07-01T08:24:07.000Z</time>
      </trkpt>
      <trkpt lat="48.70464" lon="1.76225">
        <ele>172.19999694824</ele>
        <time>2011-07-01T08:24:10.000Z</time>
      </trkpt>
      <trkpt lat="48.70464" lon="1.76237">
        <ele>172</ele>
        <time>2011-07-01T08:24:15.000Z</time>
      </trkpt>
      <trkpt lat="48.70463" lon="1.76244">
        <ele>171.80000305176</ele>
        <time>2011-07-01T08:24:19.000Z</time>
      </trkpt>
      <trkpt lat="48.70461" lon="1.76252">
        <ele>171.80000305176</ele>
        <time>2011-07-01T08:24:23.000Z</time>
      </trkpt>
      <trkpt lat="48.70456" lon="1.7626">
        <ele>172</ele>
        <time>2011-07-01T08:24:27.000Z</time>
      </trkpt>
      <trkpt lat="48.70454" lon="1.76269">
        <ele>172.19999694824</ele>
        <time>2011-07-01T08:24:32.000Z</time>
      </trkpt>
      <trkpt lat="48.70452" lon="1.76277">
        <ele>172.39999389648</ele>
        <time>2011-07-01T08:24:37.000Z</time>
      </trkpt>
      <trkpt lat="48.70452" lon="1.76278">
        <ele>172.39999389648</ele>
        <time>2011-07-01T08:24:38.000Z</time>
      </trkpt>
      <trkpt lat="48.70451" lon="1.76293">
        <ele>172.39999389648</ele>
        <time>2011-07-01T08:24:47.000Z</time>
      </trkpt>
      <trkpt lat="48.70451" lon="1.76302">
        <ele>172.60000610352</ele>
        <time>2011-07-01T08:24:52.000Z</time>
      </trkpt>
      <trkpt lat="48.70451" lon="1.76304">
        <ele>172.60000610352</ele>
        <time>2011-07-01T08:24:53.000Z</time>
      </trkpt>
      <trkpt lat="48.70449" lon="1.76315">
        <ele>172.60000610352</ele>
        <time>2011-07-01T08:24:59.000Z</time>
      </trkpt>
      <trkpt lat="48.70449" lon="1.76317">
        <ele>172.60000610352</ele>
        <time>2011-07-01T08:25:01.000Z</time>
      </trkpt>
      <trkpt lat="48.70449" lon="1.76323">
        <ele>172.60000610352</ele>
        <time>2011-07-01T08:25:04.000Z</time>
      </trkpt>
      <trkpt lat="48.70454" lon="1.76336">
        <ele>172.60000610352</ele>
        <time>2011-07-01T08:25:11.000Z</time>
      </trkpt>
      <trkpt lat="48.70455" lon="1.76337">
        <ele>172.60000610352</ele>
        <time>2011-07-01T08:25:12.000Z</time>
      </trkpt>
      <trkpt lat="48.70455" lon="1.76352">
        <ele>173.39999389648</ele>
        <time>2011-07-01T08:25:19.000Z</time>
      </trkpt>
      <trkpt lat="48.70455" lon="1.76357">
        <ele>173.60000610352</ele>
        <time>2011-07-01T08:25:23.000Z</time>
      </trkpt>
      <trkpt lat="48.70458" lon="1.76365">
        <ele>174</ele>
        <time>2011-07-01T08:25:28.000Z</time>
      </trkpt>
      <trkpt lat="48.70458" lon="1.76377">
        <ele>174.60000610352</ele>
        <time>2011-07-01T08:25:36.000Z</time>
      </trkpt>
      <trkpt lat="48.70463" lon="1.76396">
        <ele>175.19999694824</ele>
        <time>2011-07-01T08:26:04.000Z</time>
      </trkpt>
      <trkpt lat="48.70464" lon="1.76397">
        <ele>175.19999694824</ele>
        <time>2011-07-01T08:26:05.000Z</time>
      </trkpt>
      <trkpt lat="48.70467" lon="1.76407">
        <ele>175.60000610352</ele>
        <time>2011-07-01T08:26:10.000Z</time>
      </trkpt>
      <trkpt lat="48.70466" lon="1.76424">
        <ele>176.19999694824</ele>
        <time>2011-07-01T08:26:18.000Z</time>
      </trkpt>
      <trkpt lat="48.70465" lon="1.76437">
        <ele>176.60000610352</ele>
        <time>2011-07-01T08:26:24.000Z</time>
      </trkpt>
      <trkpt lat="48.70465" lon="1.76442">
        <ele>176.80000305176</ele>
        <time>2011-07-01T08:26:27.000Z</time>
      </trkpt>
      <trkpt lat="48.70465" lon="1.76444">
        <ele>176.80000305176</ele>
        <time>2011-07-01T08:26:29.000Z</time>
      </trkpt>
      <trkpt lat="48.70463" lon="1.76454">
        <ele>177</ele>
        <time>2011-07-01T08:26:34.000Z</time>
      </trkpt>
      <trkpt lat="48.70463" lon="1.76458">
        <ele>177.19999694824</ele>
        <time>2011-07-01T08:26:36.000Z</time>
      </trkpt>
      <trkpt lat="48.70461" lon="1.76471">
        <ele>177.60000610352</ele>
        <time>2011-07-01T08:26:43.000Z</time>
      </trkpt>
      <trkpt lat="48.7046" lon="1.76476">
        <ele>177.80000305176</ele>
        <time>2011-07-01T08:26:46.000Z</time>
      </trkpt>
      <trkpt lat="48.70457" lon="1.76483">
        <ele>178</ele>
        <time>2011-07-01T08:26:50.000Z</time>
      </trkpt>
      <trkpt lat="48.70456" lon="1.76487">
        <ele>178.19999694824</ele>
        <time>2011-07-01T08:26:52.000Z</time>
      </trkpt>
      <trkpt lat="48.70454" lon="1.765">
        <ele>178.60000610352</ele>
        <time>2011-07-01T08:26:58.000Z</time>
      </trkpt>
      <trkpt lat="48.7045" lon="1.76508">
        <ele>179</ele>
        <time>2011-07-01T08:27:04.000Z</time>
      </trkpt>
      <trkpt lat="48.7045" lon="1.76512">
        <ele>179</ele>
        <time>2011-07-01T08:27:06.000Z</time>
      </trkpt>
      <trkpt lat="48.70449" lon="1.76523">
        <ele>179</ele>
        <time>2011-07-01T08:27:11.000Z</time>
      </trkpt>
      <trkpt lat="48.70442" lon="1.7653">
        <ele>179.39999389648</ele>
        <time>2011-07-01T08:27:19.000Z</time>
      </trkpt>
      <trkpt lat="48.70441" lon="1.76536">
        <ele>179.60000610352</ele>
        <time>2011-07-01T08:27:25.000Z</time>
      </trkpt>
      <trkpt lat="48.70441" lon="1.76543">
        <ele>179.60000610352</ele>
        <time>2011-07-01T08:27:30.000Z</time>
      </trkpt>
      <trkpt lat="48.70441" lon="1.76549">
        <ele>179.60000610352</ele>
        <time>2011-07-01T08:27:33.000Z</time>
      </trkpt>
      <trkpt lat="48.7044" lon="1.76557">
        <ele>179.60000610352</ele>
        <time>2011-07-01T08:27:38.000Z</time>
      </trkpt>
      <trkpt lat="48.70441" lon="1.7656">
        <ele>179.60000610352</ele>
        <time>2011-07-01T08:27:40.000Z</time>
      </trkpt>
      <trkpt lat="48.70439" lon="1.76572">
        <ele>179.80000305176</ele>
        <time>2011-07-01T08:27:47.000Z</time>
      </trkpt>
      <trkpt lat="48.70439" lon="1.76573">
        <ele>179.80000305176</ele>
        <time>2011-07-01T08:27:48.000Z</time>
      </trkpt>
      <trkpt lat="48.70435" lon="1.7658">
        <ele>180</ele>
        <time>2011-07-01T08:27:52.000Z</time>
      </trkpt>
      <trkpt lat="48.70428" lon="1.76583">
        <ele>180.39999389648</ele>
        <time>2011-07-01T08:27:58.000Z</time>
      </trkpt>
      <trkpt lat="48.70427" lon="1.76583">
        <ele>180.39999389648</ele>
        <time>2011-07-01T08:27:59.000Z</time>
      </trkpt>
      <trkpt lat="48.70418" lon="1.76589">
        <ele>180.80000305176</ele>
        <time>2011-07-01T08:28:05.000Z</time>
      </trkpt>
      <trkpt lat="48.70411" lon="1.76594">
        <ele>180.60000610352</ele>
        <time>2011-07-01T08:28:11.000Z</time>
      </trkpt>
      <trkpt lat="48.70409" lon="1.76595">
        <ele>180.60000610352</ele>
        <time>2011-07-01T08:28:13.000Z</time>
      </trkpt>
      <trkpt lat="48.70403" lon="1.76599">
        <ele>180.39999389648</ele>
        <time>2011-07-01T08:28:17.000Z</time>
      </trkpt>
      <trkpt lat="48.70396" lon="1.76604">
        <ele>180.19999694824</ele>
        <time>2011-07-01T08:28:23.000Z</time>
      </trkpt>
      <trkpt lat="48.70391" lon="1.76607">
        <ele>180</ele>
        <time>2011-07-01T08:28:27.000Z</time>
      </trkpt>
      <trkpt lat="48.70389" lon="1.76608">
        <ele>180</ele>
        <time>2011-07-01T08:28:29.000Z</time>
      </trkpt>
      <trkpt lat="48.70384" lon="1.76611">
        <ele>179.80000305176</ele>
        <time>2011-07-01T08:28:34.000Z</time>
      </trkpt>
      <trkpt lat="48.70375" lon="1.76613">
        <ele>179.60000610352</ele>
        <time>2011-07-01T08:28:41.000Z</time>
      </trkpt>
      <trkpt lat="48.70373" lon="1.76614">
        <ele>179.39999389648</ele>
        <time>2011-07-01T08:28:42.000Z</time>
      </trkpt>
      <trkpt lat="48.70365" lon="1.76618">
        <ele>179.19999694824</ele>
        <time>2011-07-01T08:28:50.000Z</time>
      </trkpt>
      <trkpt lat="48.70361" lon="1.7662">
        <ele>179.19999694824</ele>
        <time>2011-07-01T08:28:54.000Z</time>
      </trkpt>
      <trkpt lat="48.70356" lon="1.76626">
        <ele>179</ele>
        <time>2011-07-01T08:29:00.000Z</time>
      </trkpt>
      <trkpt lat="48.70353" lon="1.76628">
        <ele>178.80000305176</ele>
        <time>2011-07-01T08:29:02.000Z</time>
      </trkpt>
      <trkpt lat="48.70349" lon="1.76629">
        <ele>178.80000305176</ele>
        <time>2011-07-01T08:29:07.000Z</time>
      </trkpt>
      <trkpt lat="48.70346" lon="1.76632">
        <ele>178.60000610352</ele>
        <time>2011-07-01T08:29:11.000Z</time>
      </trkpt>
      <trkpt lat="48.70339" lon="1.76628">
        <ele>178.60000610352</ele>
        <time>2011-07-01T08:30:28.000Z</time>
      </trkpt>
      <trkpt lat="48.70335" lon="1.76633">
        <ele>178.39999389648</ele>
        <time>2011-07-01T08:30:42.000Z</time>
      </trkpt>
      <trkpt lat="48.70335" lon="1.76632">
        <ele>178.39999389648</ele>
        <time>2011-07-01T08:30:44.000Z</time>
      </trkpt>
      <trkpt lat="48.70335" lon="1.76639">
        <ele>178.19999694824</ele>
        <time>2011-07-01T08:31:35.000Z</time>
      </trkpt>
      <trkpt lat="48.70333" lon="1.76642">
        <ele>178.19999694824</ele>
        <time>2011-07-01T08:31:41.000Z</time>
      </trkpt>
      <trkpt lat="48.70327" lon="1.76689">
        <ele>178</ele>
        <time>2011-07-01T08:32:45.000Z</time>
      </trkpt>
      <trkpt lat="48.70327" lon="1.76702">
        <ele>178</ele>
        <time>2011-07-01T08:32:51.000Z</time>
      </trkpt>
      <trkpt lat="48.70328" lon="1.76725">
        <ele>178</ele>
        <time>2011-07-01T08:33:02.000Z</time>
      </trkpt>
      <trkpt lat="48.70327" lon="1.76738">
        <ele>178</ele>
        <time>2011-07-01T08:33:08.000Z</time>
      </trkpt>
      <trkpt lat="48.70327" lon="1.76751">
        <ele>178</ele>
        <time>2011-07-01T08:33:15.000Z</time>
      </trkpt>
      <trkpt lat="48.70328" lon="1.76752">
        <ele>178</ele>
        <time>2011-07-01T08:33:16.000Z</time>
      </trkpt>
      <trkpt lat="48.7033" lon="1.76764">
        <ele>178.19999694824</ele>
        <time>2011-07-01T08:33:23.000Z</time>
      </trkpt>
      <trkpt lat="48.7033" lon="1.76766">
        <ele>178.19999694824</ele>
        <time>2011-07-01T08:33:24.000Z</time>
      </trkpt>
      <trkpt lat="48.7033" lon="1.76774">
        <ele>178.19999694824</ele>
        <time>2011-07-01T08:33:29.000Z</time>
      </trkpt>
      <trkpt lat="48.7033" lon="1.76781">
        <ele>178.39999389648</ele>
        <time>2011-07-01T08:33:34.000Z</time>
      </trkpt>
      <trkpt lat="48.7033" lon="1.76785">
        <ele>178.39999389648</ele>
        <time>2011-07-01T08:33:36.000Z</time>
      </trkpt>
      <trkpt lat="48.70329" lon="1.76797">
        <ele>178.60000610352</ele>
        <time>2011-07-01T08:33:44.000Z</time>
      </trkpt>
      <trkpt lat="48.70328" lon="1.76809">
        <ele>178.60000610352</ele>
        <time>2011-07-01T08:33:52.000Z</time>
      </trkpt>
      <trkpt lat="48.70329" lon="1.76823">
        <ele>178.80000305176</ele>
        <time>2011-07-01T08:34:00.000Z</time>
      </trkpt>
      <trkpt lat="48.7033" lon="1.76836">
        <ele>179</ele>
        <time>2011-07-01T08:34:07.000Z</time>
      </trkpt>
      <trkpt lat="48.70331" lon="1.76849">
        <ele>179</ele>
        <time>2011-07-01T08:34:14.000Z</time>
      </trkpt>
      <trkpt lat="48.70334" lon="1.76864">
        <ele>179.19999694824</ele>
        <time>2011-07-01T08:34:22.000Z</time>
      </trkpt>
      <trkpt lat="48.70333" lon="1.76881">
        <ele>179.39999389648</ele>
        <time>2011-07-01T08:34:31.000Z</time>
      </trkpt>
      <trkpt lat="48.70333" lon="1.76894">
        <ele>179.60000610352</ele>
        <time>2011-07-01T08:34:38.000Z</time>
      </trkpt>
      <trkpt lat="48.70336" lon="1.76909">
        <ele>179.80000305176</ele>
        <time>2011-07-01T08:34:46.000Z</time>
      </trkpt>
      <trkpt lat="48.70336" lon="1.76922">
        <ele>180</ele>
        <time>2011-07-01T08:34:52.000Z</time>
      </trkpt>
      <trkpt lat="48.70335" lon="1.76936">
        <ele>180.39999389648</ele>
        <time>2011-07-01T08:34:59.000Z</time>
      </trkpt>
      <trkpt lat="48.70336" lon="1.76947">
        <ele>180.60000610352</ele>
        <time>2011-07-01T08:35:06.000Z</time>
      </trkpt>
      <trkpt lat="48.70338" lon="1.76958">
        <ele>180.80000305176</ele>
        <time>2011-07-01T08:35:13.000Z</time>
      </trkpt>
      <trkpt lat="48.70341" lon="1.76975">
        <ele>181.19999694824</ele>
        <time>2011-07-01T08:35:23.000Z</time>
      </trkpt>
      <trkpt lat="48.70343" lon="1.76992">
        <ele>181.39999389648</ele>
        <time>2011-07-01T08:35:32.000Z</time>
      </trkpt>
      <trkpt lat="48.70344" lon="1.77004">
        <ele>181.39999389648</ele>
        <time>2011-07-01T08:35:39.000Z</time>
      </trkpt>
      <trkpt lat="48.70346" lon="1.77018">
        <ele>181.19999694824</ele>
        <time>2011-07-01T08:35:47.000Z</time>
      </trkpt>
      <trkpt lat="48.70345" lon="1.77032">
        <ele>181.39999389648</ele>
        <time>2011-07-01T08:35:55.000Z</time>
      </trkpt>
      <trkpt lat="48.70346" lon="1.77045">
        <ele>181.19999694824</ele>
        <time>2011-07-01T08:36:02.000Z</time>
      </trkpt>
      <trkpt lat="48.70347" lon="1.77058">
        <ele>181.19999694824</ele>
        <time>2011-07-01T08:36:09.000Z</time>
      </trkpt>
      <trkpt lat="48.70349" lon="1.77075">
        <ele>181.19999694824</ele>
        <time>2011-07-01T08:36:18.000Z</time>
      </trkpt>
      <trkpt lat="48.70351" lon="1.77092">
        <ele>181</ele>
        <time>2011-07-01T08:36:27.000Z</time>
      </trkpt>
      <trkpt lat="48.70353" lon="1.77107">
        <ele>181</ele>
        <time>2011-07-01T08:36:35.000Z</time>
      </trkpt>
      <trkpt lat="48.70355" lon="1.77126">
        <ele>181</ele>
        <time>2011-07-01T08:36:44.000Z</time>
      </trkpt>
      <trkpt lat="48.70356" lon="1.7713">
        <ele>181</ele>
        <time>2011-07-01T08:36:46.000Z</time>
      </trkpt>
      <trkpt lat="48.70355" lon="1.77146">
        <ele>181</ele>
        <time>2011-07-01T08:36:54.000Z</time>
      </trkpt>
      <trkpt lat="48.70359" lon="1.77158">
        <ele>181</ele>
        <time>2011-07-01T08:37:01.000Z</time>
      </trkpt>
      <trkpt lat="48.70361" lon="1.77169">
        <ele>180.80000305176</ele>
        <time>2011-07-01T08:37:07.000Z</time>
      </trkpt>
      <trkpt lat="48.70361" lon="1.77181">
        <ele>180.80000305176</ele>
        <time>2011-07-01T08:37:13.000Z</time>
      </trkpt>
      <trkpt lat="48.70362" lon="1.77185">
        <ele>180.80000305176</ele>
        <time>2011-07-01T08:37:15.000Z</time>
      </trkpt>
      <trkpt lat="48.70363" lon="1.77199">
        <ele>180.60000610352</ele>
        <time>2011-07-01T08:37:23.000Z</time>
      </trkpt>
      <trkpt lat="48.70364" lon="1.77215">
        <ele>180.39999389648</ele>
        <time>2011-07-01T08:37:31.000Z</time>
      </trkpt>
      <trkpt lat="48.70366" lon="1.77226">
        <ele>180.39999389648</ele>
        <time>2011-07-01T08:37:37.000Z</time>
      </trkpt>
      <trkpt lat="48.70368" lon="1.77246">
        <ele>180.39999389648</ele>
        <time>2011-07-01T08:37:46.000Z</time>
      </trkpt>
      <trkpt lat="48.70369" lon="1.77264">
        <ele>180.60000610352</ele>
        <time>2011-07-01T08:37:55.000Z</time>
      </trkpt>
      <trkpt lat="48.70371" lon="1.7728">
        <ele>180.80000305176</ele>
        <time>2011-07-01T08:38:03.000Z</time>
      </trkpt>
      <trkpt lat="48.70377" lon="1.77285">
        <ele>181</ele>
        <time>2011-07-01T08:38:09.000Z</time>
      </trkpt>
      <trkpt lat="48.70386" lon="1.77277">
        <ele>181</ele>
        <time>2011-07-01T08:38:17.000Z</time>
      </trkpt>
      <trkpt lat="48.70387" lon="1.77276">
        <ele>181</ele>
        <time>2011-07-01T08:38:18.000Z</time>
      </trkpt>
      <trkpt lat="48.70399" lon="1.77269">
        <ele>181</ele>
        <time>2011-07-01T08:38:26.000Z</time>
      </trkpt>
      <trkpt lat="48.70411" lon="1.7726">
        <ele>181</ele>
        <time>2011-07-01T08:38:35.000Z</time>
      </trkpt>
      <trkpt lat="48.70421" lon="1.77251">
        <ele>181</ele>
        <time>2011-07-01T08:38:44.000Z</time>
      </trkpt>
      <trkpt lat="48.70435" lon="1.77243">
        <ele>181</ele>
        <time>2011-07-01T08:38:54.000Z</time>
      </trkpt>
      <trkpt lat="48.70449" lon="1.77235">
        <ele>181</ele>
        <time>2011-07-01T08:39:05.000Z</time>
      </trkpt>
      <trkpt lat="48.70461" lon="1.77234">
        <ele>181</ele>
        <time>2011-07-01T08:39:14.000Z</time>
      </trkpt>
      <trkpt lat="48.70467" lon="1.77234">
        <ele>181.19999694824</ele>
        <time>2011-07-01T08:39:20.000Z</time>
      </trkpt>
      <trkpt lat="48.70473" lon="1.77236">
        <ele>181.39999389648</ele>
        <time>2011-07-01T08:39:25.000Z</time>
      </trkpt>
      <trkpt lat="48.70484" lon="1.77236">
        <ele>181.39999389648</ele>
        <time>2011-07-01T08:39:33.000Z</time>
      </trkpt>
      <trkpt lat="48.70488" lon="1.77237">
        <ele>181.60000610352</ele>
        <time>2011-07-01T08:39:36.000Z</time>
      </trkpt>
      <trkpt lat="48.70492" lon="1.77236">
        <ele>181.60000610352</ele>
        <time>2011-07-01T08:39:39.000Z</time>
      </trkpt>
      <trkpt lat="48.70506" lon="1.77237">
        <ele>181.60000610352</ele>
        <time>2011-07-01T08:39:49.000Z</time>
      </trkpt>
      <trkpt lat="48.70515" lon="1.77237">
        <ele>181.39999389648</ele>
        <time>2011-07-01T08:39:56.000Z</time>
      </trkpt>
      <trkpt lat="48.70524" lon="1.77237">
        <ele>181.19999694824</ele>
        <time>2011-07-01T08:40:03.000Z</time>
      </trkpt>
      <trkpt lat="48.70525" lon="1.77237">
        <ele>181.19999694824</ele>
        <time>2011-07-01T08:40:04.000Z</time>
      </trkpt>
      <trkpt lat="48.70534" lon="1.77238">
        <ele>181.19999694824</ele>
        <time>2011-07-01T08:40:11.000Z</time>
      </trkpt>
      <trkpt lat="48.70542" lon="1.77238">
        <ele>181</ele>
        <time>2011-07-01T08:40:17.000Z</time>
      </trkpt>
      <trkpt lat="48.70549" lon="1.77238">
        <ele>180.80000305176</ele>
        <time>2011-07-01T08:40:24.000Z</time>
      </trkpt>
      <trkpt lat="48.70556" lon="1.7724">
        <ele>180.80000305176</ele>
        <time>2011-07-01T08:40:30.000Z</time>
      </trkpt>
      <trkpt lat="48.70564" lon="1.7724">
        <ele>180.60000610352</ele>
        <time>2011-07-01T08:40:37.000Z</time>
      </trkpt>
      <trkpt lat="48.70568" lon="1.77239">
        <ele>180.39999389648</ele>
        <time>2011-07-01T08:40:40.000Z</time>
      </trkpt>
      <trkpt lat="48.70579" lon="1.7724">
        <ele>180.19999694824</ele>
        <time>2011-07-01T08:40:49.000Z</time>
      </trkpt>
      <trkpt lat="48.70589" lon="1.77243">
        <ele>180.19999694824</ele>
        <time>2011-07-01T08:40:56.000Z</time>
      </trkpt>
      <trkpt lat="48.70591" lon="1.77243">
        <ele>180</ele>
        <time>2011-07-01T08:40:58.000Z</time>
      </trkpt>
      <trkpt lat="48.70593" lon="1.77242">
        <ele>180</ele>
        <time>2011-07-01T08:41:02.000Z</time>
      </trkpt>
      <trkpt lat="48.70599" lon="1.77243">
        <ele>179.80000305176</ele>
        <time>2011-07-01T08:41:13.000Z</time>
      </trkpt>
      <trkpt lat="48.70603" lon="1.77244">
        <ele>179.60000610352</ele>
        <time>2011-07-01T08:41:16.000Z</time>
      </trkpt>
      <trkpt lat="48.70613" lon="1.77245">
        <ele>179.19999694824</ele>
        <time>2011-07-01T08:41:23.000Z</time>
      </trkpt>
      <trkpt lat="48.70624" lon="1.77248">
        <ele>178.80000305176</ele>
        <time>2011-07-01T08:41:33.000Z</time>
      </trkpt>
      <trkpt lat="48.70625" lon="1.77248">
        <ele>178.80000305176</ele>
        <time>2011-07-01T08:41:34.000Z</time>
      </trkpt>
      <trkpt lat="48.70639" lon="1.77248">
        <ele>178.19999694824</ele>
        <time>2011-07-01T08:41:44.000Z</time>
      </trkpt>
      <trkpt lat="48.70649" lon="1.7725">
        <ele>177.80000305176</ele>
        <time>2011-07-01T08:41:51.000Z</time>
      </trkpt>
      <trkpt lat="48.7066" lon="1.77251">
        <ele>177.19999694824</ele>
        <time>2011-07-01T08:42:00.000Z</time>
      </trkpt>
      <trkpt lat="48.70668" lon="1.77253">
        <ele>177</ele>
        <time>2011-07-01T08:42:07.000Z</time>
      </trkpt>
      <trkpt lat="48.70675" lon="1.77254">
        <ele>176.80000305176</ele>
        <time>2011-07-01T08:42:13.000Z</time>
      </trkpt>
      <trkpt lat="48.70687" lon="1.77256">
        <ele>176.80000305176</ele>
        <time>2011-07-01T08:42:22.000Z</time>
      </trkpt>
      <trkpt lat="48.70696" lon="1.77257">
        <ele>176.60000610352</ele>
        <time>2011-07-01T08:42:30.000Z</time>
      </trkpt>
      <trkpt lat="48.70704" lon="1.77256">
        <ele>176.60000610352</ele>
        <time>2011-07-01T08:42:36.000Z</time>
      </trkpt>
      <trkpt lat="48.70714" lon="1.77256">
        <ele>176.39999389648</ele>
        <time>2011-07-01T08:42:43.000Z</time>
      </trkpt>
      <trkpt lat="48.70727" lon="1.77255">
        <ele>176.19999694824</ele>
        <time>2011-07-01T08:42:51.000Z</time>
      </trkpt>
      <trkpt lat="48.70739" lon="1.77256">
        <ele>176</ele>
        <time>2011-07-01T08:42:59.000Z</time>
      </trkpt>
      <trkpt lat="48.70747" lon="1.77254">
        <ele>176</ele>
        <time>2011-07-01T08:43:06.000Z</time>
      </trkpt>
      <trkpt lat="48.70752" lon="1.77252">
        <ele>175.80000305176</ele>
        <time>2011-07-01T08:43:12.000Z</time>
      </trkpt>
      <trkpt lat="48.70759" lon="1.77251">
        <ele>175.80000305176</ele>
        <time>2011-07-01T08:43:17.000Z</time>
      </trkpt>
      <trkpt lat="48.70767" lon="1.77251">
        <ele>175.60000610352</ele>
        <time>2011-07-01T08:43:23.000Z</time>
      </trkpt>
      <trkpt lat="48.70772" lon="1.7725">
        <ele>175.60000610352</ele>
        <time>2011-07-01T08:43:29.000Z</time>
      </trkpt>
      <trkpt lat="48.70781" lon="1.77251">
        <ele>175.60000610352</ele>
        <time>2011-07-01T08:43:36.000Z</time>
      </trkpt>
      <trkpt lat="48.7079" lon="1.7725">
        <ele>175.39999389648</ele>
        <time>2011-07-01T08:43:43.000Z</time>
      </trkpt>
      <trkpt lat="48.70795" lon="1.77249">
        <ele>175.39999389648</ele>
        <time>2011-07-01T08:43:46.000Z</time>
      </trkpt>
      <trkpt lat="48.70802" lon="1.77248">
        <ele>175.19999694824</ele>
        <time>2011-07-01T08:43:52.000Z</time>
      </trkpt>
      <trkpt lat="48.70809" lon="1.77248">
        <ele>175.19999694824</ele>
        <time>2011-07-01T08:43:58.000Z</time>
      </trkpt>
      <trkpt lat="48.70814" lon="1.77248">
        <ele>175</ele>
        <time>2011-07-01T08:44:01.000Z</time>
      </trkpt>
      <trkpt lat="48.70819" lon="1.77247">
        <ele>175</ele>
        <time>2011-07-01T08:44:06.000Z</time>
      </trkpt>
      <trkpt lat="48.7083" lon="1.77246">
        <ele>174.80000305176</ele>
        <time>2011-07-01T08:44:14.000Z</time>
      </trkpt>
      <trkpt lat="48.70837" lon="1.77246">
        <ele>174.80000305176</ele>
        <time>2011-07-01T08:44:19.000Z</time>
      </trkpt>
      <trkpt lat="48.70845" lon="1.77249">
        <ele>175</ele>
        <time>2011-07-01T08:44:25.000Z</time>
      </trkpt>
      <trkpt lat="48.70855" lon="1.77249">
        <ele>175.19999694824</ele>
        <time>2011-07-01T08:44:33.000Z</time>
      </trkpt>
      <trkpt lat="48.70866" lon="1.77249">
        <ele>175.19999694824</ele>
        <time>2011-07-01T08:44:41.000Z</time>
      </trkpt>
      <trkpt lat="48.70878" lon="1.7725">
        <ele>175.39999389648</ele>
        <time>2011-07-01T08:44:49.000Z</time>
      </trkpt>
      <trkpt lat="48.70881" lon="1.7726">
        <ele>175.60000610352</ele>
        <time>2011-07-01T08:44:58.000Z</time>
      </trkpt>
      <trkpt lat="48.70884" lon="1.77274">
        <ele>176</ele>
        <time>2011-07-01T08:45:15.000Z</time>
      </trkpt>
      <trkpt lat="48.70889" lon="1.77284">
        <ele>176.19999694824</ele>
        <time>2011-07-01T08:45:20.000Z</time>
      </trkpt>
      <trkpt lat="48.70889" lon="1.77285">
        <ele>176.19999694824</ele>
        <time>2011-07-01T08:45:21.000Z</time>
      </trkpt>
      <trkpt lat="48.70894" lon="1.77293">
        <ele>176.60000610352</ele>
        <time>2011-07-01T08:45:26.000Z</time>
      </trkpt>
      <trkpt lat="48.70897" lon="1.77308">
        <ele>177</ele>
        <time>2011-07-01T08:45:32.000Z</time>
      </trkpt>
      <trkpt lat="48.70904" lon="1.77322">
        <ele>177.39999389648</ele>
        <time>2011-07-01T08:45:37.000Z</time>
      </trkpt>
      <trkpt lat="48.70917" lon="1.77351">
        <ele>177.19999694824</ele>
        <time>2011-07-01T08:45:46.000Z</time>
      </trkpt>
      <trkpt lat="48.70931" lon="1.77377">
        <ele>176.39999389648</ele>
        <time>2011-07-01T08:45:54.000Z</time>
      </trkpt>
      <trkpt lat="48.70941" lon="1.77395">
        <ele>176</ele>
        <time>2011-07-01T08:46:01.000Z</time>
      </trkpt>
      <trkpt lat="48.70949" lon="1.77412">
        <ele>175.80000305176</ele>
        <time>2011-07-01T08:46:08.000Z</time>
      </trkpt>
      <trkpt lat="48.70961" lon="1.77436">
        <ele>175.39999389648</ele>
        <time>2011-07-01T08:46:15.000Z</time>
      </trkpt>
      <trkpt lat="48.70977" lon="1.7747">
        <ele>174.80000305176</ele>
        <time>2011-07-01T08:46:24.000Z</time>
      </trkpt>
      <trkpt lat="48.70987" lon="1.77496">
        <ele>174</ele>
        <time>2011-07-01T08:46:31.000Z</time>
      </trkpt>
      <trkpt lat="48.70995" lon="1.77515">
        <ele>173.60000610352</ele>
        <time>2011-07-01T08:46:36.000Z</time>
      </trkpt>
      <trkpt lat="48.71004" lon="1.77533">
        <ele>173</ele>
        <time>2011-07-01T08:46:41.000Z</time>
      </trkpt>
      <trkpt lat="48.71013" lon="1.77556">
        <ele>172.60000610352</ele>
        <time>2011-07-01T08:46:47.000Z</time>
      </trkpt>
      <trkpt lat="48.71019" lon="1.77573">
        <ele>172.19999694824</ele>
        <time>2011-07-01T08:46:51.000Z</time>
      </trkpt>
      <trkpt lat="48.71026" lon="1.77585">
        <ele>171.80000305176</ele>
        <time>2011-07-01T08:46:55.000Z</time>
      </trkpt>
      <trkpt lat="48.71035" lon="1.77603">
        <ele>171.60000610352</ele>
        <time>2011-07-01T08:47:00.000Z</time>
      </trkpt>
      <trkpt lat="48.71042" lon="1.77624">
        <ele>171.39999389648</ele>
        <time>2011-07-01T08:47:05.000Z</time>
      </trkpt>
      <trkpt lat="48.7105" lon="1.77643">
        <ele>171</ele>
        <time>2011-07-01T08:47:10.000Z</time>
      </trkpt>
      <trkpt lat="48.7106" lon="1.77668">
        <ele>170.39999389648</ele>
        <time>2011-07-01T08:47:16.000Z</time>
      </trkpt>
      <trkpt lat="48.71071" lon="1.77695">
        <ele>169.80000305176</ele>
        <time>2011-07-01T08:47:23.000Z</time>
      </trkpt>
      <trkpt lat="48.71081" lon="1.77718">
        <ele>169.39999389648</ele>
        <time>2011-07-01T08:47:29.000Z</time>
      </trkpt>
      <trkpt lat="48.71088" lon="1.77732">
        <ele>169.19999694824</ele>
        <time>2011-07-01T08:47:33.000Z</time>
      </trkpt>
      <trkpt lat="48.71091" lon="1.77746">
        <ele>169</ele>
        <time>2011-07-01T08:47:37.000Z</time>
      </trkpt>
      <trkpt lat="48.71096" lon="1.77751">
        <ele>169</ele>
        <time>2011-07-01T08:47:40.000Z</time>
      </trkpt>
      <trkpt lat="48.71101" lon="1.77749">
        <ele>169.19999694824</ele>
        <time>2011-07-01T08:47:43.000Z</time>
      </trkpt>
      <trkpt lat="48.7111" lon="1.77747">
        <ele>169.19999694824</ele>
        <time>2011-07-01T08:47:50.000Z</time>
      </trkpt>
      <trkpt lat="48.71121" lon="1.77743">
        <ele>169.39999389648</ele>
        <time>2011-07-01T08:47:57.000Z</time>
      </trkpt>
      <trkpt lat="48.71128" lon="1.77741">
        <ele>169.39999389648</ele>
        <time>2011-07-01T08:48:02.000Z</time>
      </trkpt>
      <trkpt lat="48.71134" lon="1.77744">
        <ele>169.60000610352</ele>
        <time>2011-07-01T08:48:06.000Z</time>
      </trkpt>
      <trkpt lat="48.71143" lon="1.77749">
        <ele>169.60000610352</ele>
        <time>2011-07-01T08:48:12.000Z</time>
      </trkpt>
      <trkpt lat="48.71145" lon="1.7775">
        <ele>169.60000610352</ele>
        <time>2011-07-01T08:48:13.000Z</time>
      </trkpt>
      <trkpt lat="48.71153" lon="1.77755">
        <ele>169.80000305176</ele>
        <time>2011-07-01T08:48:20.000Z</time>
      </trkpt>
      <trkpt lat="48.71161" lon="1.77759">
        <ele>169.80000305176</ele>
        <time>2011-07-01T08:48:25.000Z</time>
      </trkpt>
      <trkpt lat="48.7117" lon="1.77763">
        <ele>170</ele>
        <time>2011-07-01T08:48:31.000Z</time>
      </trkpt>
      <trkpt lat="48.71179" lon="1.7777">
        <ele>170.19999694824</ele>
        <time>2011-07-01T08:48:39.000Z</time>
      </trkpt>
      <trkpt lat="48.71184" lon="1.77774">
        <ele>170.39999389648</ele>
        <time>2011-07-01T08:48:44.000Z</time>
      </trkpt>
      <trkpt lat="48.7119" lon="1.77777">
        <ele>170.60000610352</ele>
        <time>2011-07-01T08:48:50.000Z</time>
      </trkpt>
      <trkpt lat="48.712" lon="1.77782">
        <ele>171</ele>
        <time>2011-07-01T08:48:57.000Z</time>
      </trkpt>
      <trkpt lat="48.71207" lon="1.77789">
        <ele>171.39999389648</ele>
        <time>2011-07-01T08:49:05.000Z</time>
      </trkpt>
      <trkpt lat="48.71213" lon="1.77792">
        <ele>171.60000610352</ele>
        <time>2011-07-01T08:49:10.000Z</time>
      </trkpt>
      <trkpt lat="48.71216" lon="1.77795">
        <ele>171.80000305176</ele>
        <time>2011-07-01T08:49:14.000Z</time>
      </trkpt>
      <trkpt lat="48.71217" lon="1.77796">
        <ele>171.80000305176</ele>
        <time>2011-07-01T08:49:15.000Z</time>
      </trkpt>
      <trkpt lat="48.71226" lon="1.77798">
        <ele>172.19999694824</ele>
        <time>2011-07-01T08:49:22.000Z</time>
      </trkpt>
      <trkpt lat="48.71229" lon="1.77799">
        <ele>172.19999694824</ele>
        <time>2011-07-01T08:49:25.000Z</time>
      </trkpt>
      <trkpt lat="48.71237" lon="1.77805">
        <ele>172.60000610352</ele>
        <time>2011-07-01T08:49:32.000Z</time>
      </trkpt>
      <trkpt lat="48.71239" lon="1.77809">
        <ele>172.80000305176</ele>
        <time>2011-07-01T08:49:36.000Z</time>
      </trkpt>
      <trkpt lat="48.71245" lon="1.77812">
        <ele>173.19999694824</ele>
        <time>2011-07-01T08:49:40.000Z</time>
      </trkpt>
      <trkpt lat="48.71252" lon="1.77816">
        <ele>173.39999389648</ele>
        <time>2011-07-01T08:49:44.000Z</time>
      </trkpt>
      <trkpt lat="48.71265" lon="1.77818">
        <ele>173.39999389648</ele>
        <time>2011-07-01T08:49:52.000Z</time>
      </trkpt>
      <trkpt lat="48.7127" lon="1.7782">
        <ele>173.39999389648</ele>
        <time>2011-07-01T08:49:56.000Z</time>
      </trkpt>
      <trkpt lat="48.71278" lon="1.77822">
        <ele>173.39999389648</ele>
        <time>2011-07-01T08:50:03.000Z</time>
      </trkpt>
      <trkpt lat="48.71286" lon="1.77821">
        <ele>173.19999694824</ele>
        <time>2011-07-01T08:50:09.000Z</time>
      </trkpt>
      <trkpt lat="48.71295" lon="1.77822">
        <ele>173.19999694824</ele>
        <time>2011-07-01T08:50:16.000Z</time>
      </trkpt>
      <trkpt lat="48.71298" lon="1.77821">
        <ele>173.19999694824</ele>
        <time>2011-07-01T08:50:20.000Z</time>
      </trkpt>
      <trkpt lat="48.71309" lon="1.77817">
        <ele>173</ele>
        <time>2011-07-01T08:50:27.000Z</time>
      </trkpt>
      <trkpt lat="48.71322" lon="1.77817">
        <ele>172.80000305176</ele>
        <time>2011-07-01T08:50:35.000Z</time>
      </trkpt>
      <trkpt lat="48.71333" lon="1.77814">
        <ele>172.60000610352</ele>
        <time>2011-07-01T08:50:42.000Z</time>
      </trkpt>
      <trkpt lat="48.71344" lon="1.77812">
        <ele>172.60000610352</ele>
        <time>2011-07-01T08:50:50.000Z</time>
      </trkpt>
      <trkpt lat="48.71354" lon="1.77811">
        <ele>172.60000610352</ele>
        <time>2011-07-01T08:50:58.000Z</time>
      </trkpt>
      <trkpt lat="48.71362" lon="1.77809">
        <ele>172.60000610352</ele>
        <time>2011-07-01T08:51:05.000Z</time>
      </trkpt>
      <trkpt lat="48.71371" lon="1.77808">
        <ele>172.60000610352</ele>
        <time>2011-07-01T08:51:11.000Z</time>
      </trkpt>
      <trkpt lat="48.71381" lon="1.778">
        <ele>172.39999389648</ele>
        <time>2011-07-01T08:51:21.000Z</time>
      </trkpt>
      <trkpt lat="48.71393" lon="1.778">
        <ele>172.60000610352</ele>
        <time>2011-07-01T08:51:29.000Z</time>
      </trkpt>
      <trkpt lat="48.714" lon="1.77794">
        <ele>172.39999389648</ele>
        <time>2011-07-01T08:51:36.000Z</time>
      </trkpt>
      <trkpt lat="48.71408" lon="1.77788">
        <ele>172.39999389648</ele>
        <time>2011-07-01T08:51:43.000Z</time>
      </trkpt>
      <trkpt lat="48.71412" lon="1.77788">
        <ele>172.39999389648</ele>
        <time>2011-07-01T08:51:47.000Z</time>
      </trkpt>
      <trkpt lat="48.7142" lon="1.77789">
        <ele>172.60000610352</ele>
        <time>2011-07-01T08:51:54.000Z</time>
      </trkpt>
      <trkpt lat="48.71421" lon="1.7779">
        <ele>172.60000610352</ele>
        <time>2011-07-01T08:51:55.000Z</time>
      </trkpt>
      <trkpt lat="48.71425" lon="1.77797">
        <ele>172.80000305176</ele>
        <time>2011-07-01T08:52:00.000Z</time>
      </trkpt>
      <trkpt lat="48.71427" lon="1.778">
        <ele>173</ele>
        <time>2011-07-01T08:52:03.000Z</time>
      </trkpt>
      <trkpt lat="48.71435" lon="1.778">
        <ele>173.19999694824</ele>
        <time>2011-07-01T08:52:12.000Z</time>
      </trkpt>
      <trkpt lat="48.71439" lon="1.77793">
        <ele>173.39999389648</ele>
        <time>2011-07-01T08:52:18.000Z</time>
      </trkpt>
      <trkpt lat="48.7144" lon="1.77792">
        <ele>173.39999389648</ele>
        <time>2011-07-01T08:52:19.000Z</time>
      </trkpt>
      <trkpt lat="48.71441" lon="1.77783">
        <ele>173.19999694824</ele>
        <time>2011-07-01T08:52:24.000Z</time>
      </trkpt>
      <trkpt lat="48.71442" lon="1.7777">
        <ele>173.19999694824</ele>
        <time>2011-07-01T08:52:32.000Z</time>
      </trkpt>
      <trkpt lat="48.71446" lon="1.77758">
        <ele>173</ele>
        <time>2011-07-01T08:52:39.000Z</time>
      </trkpt>
      <trkpt lat="48.71452" lon="1.7775">
        <ele>173.19999694824</ele>
        <time>2011-07-01T08:52:45.000Z</time>
      </trkpt>
      <trkpt lat="48.71461" lon="1.77746">
        <ele>173.39999389648</ele>
        <time>2011-07-01T08:52:51.000Z</time>
      </trkpt>
      <trkpt lat="48.71471" lon="1.77739">
        <ele>173.60000610352</ele>
        <time>2011-07-01T08:52:59.000Z</time>
      </trkpt>
      <trkpt lat="48.7148" lon="1.77733">
        <ele>173.80000305176</ele>
        <time>2011-07-01T08:53:06.000Z</time>
      </trkpt>
      <trkpt lat="48.71489" lon="1.77728">
        <ele>174</ele>
        <time>2011-07-01T08:53:13.000Z</time>
      </trkpt>
      <trkpt lat="48.71494" lon="1.77723">
        <ele>174</ele>
        <time>2011-07-01T08:53:19.000Z</time>
      </trkpt>
      <trkpt lat="48.715" lon="1.77721">
        <ele>174.19999694824</ele>
        <time>2011-07-01T08:53:25.000Z</time>
      </trkpt>
      <trkpt lat="48.71509" lon="1.77718">
        <ele>174.60000610352</ele>
        <time>2011-07-01T08:53:32.000Z</time>
      </trkpt>
      <trkpt lat="48.71513" lon="1.77711">
        <ele>174.80000305176</ele>
        <time>2011-07-01T08:53:36.000Z</time>
      </trkpt>
      <trkpt lat="48.71523" lon="1.77704">
        <ele>175.39999389648</ele>
        <time>2011-07-01T08:53:44.000Z</time>
      </trkpt>
      <trkpt lat="48.71532" lon="1.77699">
        <ele>176</ele>
        <time>2011-07-01T08:53:52.000Z</time>
      </trkpt>
      <trkpt lat="48.71545" lon="1.77698">
        <ele>176.80000305176</ele>
        <time>2011-07-01T08:54:02.000Z</time>
      </trkpt>
      <trkpt lat="48.71555" lon="1.77701">
        <ele>177.39999389648</ele>
        <time>2011-07-01T08:54:10.000Z</time>
      </trkpt>
      <trkpt lat="48.71559" lon="1.77702">
        <ele>177.80000305176</ele>
        <time>2011-07-01T08:54:13.000Z</time>
      </trkpt>
      <trkpt lat="48.71563" lon="1.77704">
        <ele>178</ele>
        <time>2011-07-01T08:54:17.000Z</time>
      </trkpt>
      <trkpt lat="48.71572" lon="1.77706">
        <ele>178.60000610352</ele>
        <time>2011-07-01T08:54:24.000Z</time>
      </trkpt>
      <trkpt lat="48.71581" lon="1.77711">
        <ele>179.19999694824</ele>
        <time>2011-07-01T08:54:30.000Z</time>
      </trkpt>
      <trkpt lat="48.71593" lon="1.77718">
        <ele>179.39999389648</ele>
        <time>2011-07-01T08:54:39.000Z</time>
      </trkpt>
      <trkpt lat="48.71602" lon="1.77726">
        <ele>179.19999694824</ele>
        <time>2011-07-01T08:54:47.000Z</time>
      </trkpt>
      <trkpt lat="48.71611" lon="1.77733">
        <ele>179.39999389648</ele>
        <time>2011-07-01T08:54:55.000Z</time>
      </trkpt>
      <trkpt lat="48.71621" lon="1.77738">
        <ele>179.39999389648</ele>
        <time>2011-07-01T08:55:02.000Z</time>
      </trkpt>
      <trkpt lat="48.71627" lon="1.7774">
        <ele>179.39999389648</ele>
        <time>2011-07-01T08:55:06.000Z</time>
      </trkpt>
      <trkpt lat="48.71632" lon="1.77742">
        <ele>179.39999389648</ele>
        <time>2011-07-01T08:55:10.000Z</time>
      </trkpt>
      <trkpt lat="48.7164" lon="1.77747">
        <ele>179.60000610352</ele>
        <time>2011-07-01T08:55:18.000Z</time>
      </trkpt>
      <trkpt lat="48.71645" lon="1.77748">
        <ele>179.60000610352</ele>
        <time>2011-07-01T08:55:23.000Z</time>
      </trkpt>
      <trkpt lat="48.71652" lon="1.77755">
        <ele>179.80000305176</ele>
        <time>2011-07-01T08:55:31.000Z</time>
      </trkpt>
      <trkpt lat="48.71658" lon="1.77759">
        <ele>179.80000305176</ele>
        <time>2011-07-01T08:55:36.000Z</time>
      </trkpt>
      <trkpt lat="48.71665" lon="1.77762">
        <ele>179.80000305176</ele>
        <time>2011-07-01T08:55:42.000Z</time>
      </trkpt>
      <trkpt lat="48.71676" lon="1.77768">
        <ele>179.80000305176</ele>
        <time>2011-07-01T08:55:50.000Z</time>
      </trkpt>
      <trkpt lat="48.71686" lon="1.77773">
        <ele>179.80000305176</ele>
        <time>2011-07-01T08:55:57.000Z</time>
      </trkpt>
      <trkpt lat="48.71697" lon="1.77773">
        <ele>179.60000610352</ele>
        <time>2011-07-01T08:56:05.000Z</time>
      </trkpt>
      <trkpt lat="48.7171" lon="1.77769">
        <ele>179.39999389648</ele>
        <time>2011-07-01T08:56:15.000Z</time>
      </trkpt>
      <trkpt lat="48.71721" lon="1.77762">
        <ele>179</ele>
        <time>2011-07-01T08:56:24.000Z</time>
      </trkpt>
      <trkpt lat="48.7173" lon="1.77757">
        <ele>178.60000610352</ele>
        <time>2011-07-01T08:56:31.000Z</time>
      </trkpt>
      <trkpt lat="48.71742" lon="1.77749">
        <ele>178</ele>
        <time>2011-07-01T08:56:40.000Z</time>
      </trkpt>
      <trkpt lat="48.71752" lon="1.77741">
        <ele>177</ele>
        <time>2011-07-01T08:56:48.000Z</time>
      </trkpt>
      <trkpt lat="48.71763" lon="1.77733">
        <ele>177</ele>
        <time>2011-07-01T08:56:57.000Z</time>
      </trkpt>
      <trkpt lat="48.71774" lon="1.77721">
        <ele>176.60000610352</ele>
        <time>2011-07-01T08:57:06.000Z</time>
      </trkpt>
      <trkpt lat="48.71781" lon="1.77713">
        <ele>176.60000610352</ele>
        <time>2011-07-01T08:57:13.000Z</time>
      </trkpt>
      <trkpt lat="48.71788" lon="1.77703">
        <ele>176.60000610352</ele>
        <time>2011-07-01T08:57:20.000Z</time>
      </trkpt>
      <trkpt lat="48.71795" lon="1.77693">
        <ele>176.60000610352</ele>
        <time>2011-07-01T08:57:28.000Z</time>
      </trkpt>
      <trkpt lat="48.71802" lon="1.77682">
        <ele>176.60000610352</ele>
        <time>2011-07-01T08:57:35.000Z</time>
      </trkpt>
      <trkpt lat="48.71809" lon="1.77672">
        <ele>176.80000305176</ele>
        <time>2011-07-01T08:57:43.000Z</time>
      </trkpt>
      <trkpt lat="48.71818" lon="1.77664">
        <ele>177.60000610352</ele>
        <time>2011-07-01T08:57:51.000Z</time>
      </trkpt>
      <trkpt lat="48.71828" lon="1.77655">
        <ele>178.39999389648</ele>
        <time>2011-07-01T08:58:00.000Z</time>
      </trkpt>
      <trkpt lat="48.7184" lon="1.77644">
        <ele>178.60000610352</ele>
        <time>2011-07-01T08:58:10.000Z</time>
      </trkpt>
      <trkpt lat="48.71843" lon="1.77638">
        <ele>178.39999389648</ele>
        <time>2011-07-01T08:58:16.000Z</time>
      </trkpt>
      <trkpt lat="48.71844" lon="1.77638">
        <ele>178.39999389648</ele>
        <time>2011-07-01T08:58:17.000Z</time>
      </trkpt>
      <trkpt lat="48.71846" lon="1.77637">
        <ele>178.19999694824</ele>
        <time>2011-07-01T08:58:20.000Z</time>
      </trkpt>
      <trkpt lat="48.71849" lon="1.77635">
        <ele>178.19999694824</ele>
        <time>2011-07-01T08:58:21.000Z</time>
      </trkpt>
      <trkpt lat="48.71861" lon="1.77633">
        <ele>178.19999694824</ele>
        <time>2011-07-01T08:58:30.000Z</time>
      </trkpt>
      <trkpt lat="48.71869" lon="1.77638">
        <ele>178.60000610352</ele>
        <time>2011-07-01T08:58:37.000Z</time>
      </trkpt>
      <trkpt lat="48.71879" lon="1.77647">
        <ele>179.19999694824</ele>
        <time>2011-07-01T08:58:45.000Z</time>
      </trkpt>
      <trkpt lat="48.71883" lon="1.77646">
        <ele>179.19999694824</ele>
        <time>2011-07-01T08:58:50.000Z</time>
      </trkpt>
      <trkpt lat="48.71892" lon="1.77652">
        <ele>179.80000305176</ele>
        <time>2011-07-01T08:58:57.000Z</time>
      </trkpt>
      <trkpt lat="48.71901" lon="1.77663">
        <ele>180.39999389648</ele>
        <time>2011-07-01T08:59:06.000Z</time>
      </trkpt>
      <trkpt lat="48.7191" lon="1.77677">
        <ele>181</ele>
        <time>2011-07-01T08:59:15.000Z</time>
      </trkpt>
      <trkpt lat="48.71915" lon="1.77688">
        <ele>181.39999389648</ele>
        <time>2011-07-01T08:59:21.000Z</time>
      </trkpt>
      <trkpt lat="48.7192" lon="1.77699">
        <ele>181.39999389648</ele>
        <time>2011-07-01T08:59:27.000Z</time>
      </trkpt>
      <trkpt lat="48.71924" lon="1.77713">
        <ele>181.60000610352</ele>
        <time>2011-07-01T08:59:35.000Z</time>
      </trkpt>
      <trkpt lat="48.71928" lon="1.77724">
        <ele>181.60000610352</ele>
        <time>2011-07-01T08:59:41.000Z</time>
      </trkpt>
      <trkpt lat="48.71932" lon="1.77738">
        <ele>181.80000305176</ele>
        <time>2011-07-01T08:59:48.000Z</time>
      </trkpt>
      <trkpt lat="48.71933" lon="1.77744">
        <ele>182</ele>
        <time>2011-07-01T08:59:51.000Z</time>
      </trkpt>
      <trkpt lat="48.71935" lon="1.77762">
        <ele>182.39999389648</ele>
        <time>2011-07-01T09:00:00.000Z</time>
      </trkpt>
      <trkpt lat="48.71936" lon="1.77776">
        <ele>182.60000610352</ele>
        <time>2011-07-01T09:00:07.000Z</time>
      </trkpt>
      <trkpt lat="48.71937" lon="1.77797">
        <ele>183.19999694824</ele>
        <time>2011-07-01T09:00:16.000Z</time>
      </trkpt>
      <trkpt lat="48.7194" lon="1.77814">
        <ele>183.60000610352</ele>
        <time>2011-07-01T09:00:24.000Z</time>
      </trkpt>
      <trkpt lat="48.71943" lon="1.77828">
        <ele>183.80000305176</ele>
        <time>2011-07-01T09:00:31.000Z</time>
      </trkpt>
      <trkpt lat="48.71949" lon="1.77846">
        <ele>184</ele>
        <time>2011-07-01T09:00:40.000Z</time>
      </trkpt>
      <trkpt lat="48.71952" lon="1.77851">
        <ele>184.19999694824</ele>
        <time>2011-07-01T09:00:43.000Z</time>
      </trkpt>
      <trkpt lat="48.71959" lon="1.77861">
        <ele>184.19999694824</ele>
        <time>2011-07-01T09:00:50.000Z</time>
      </trkpt>
      <trkpt lat="48.71963" lon="1.77869">
        <ele>184.39999389648</ele>
        <time>2011-07-01T09:00:55.000Z</time>
      </trkpt>
      <trkpt lat="48.71968" lon="1.77868">
        <ele>184.19999694824</ele>
        <time>2011-07-01T09:01:00.000Z</time>
      </trkpt>
      <trkpt lat="48.7197" lon="1.77867">
        <ele>184</ele>
        <time>2011-07-01T09:01:02.000Z</time>
      </trkpt>
      <trkpt lat="48.71979" lon="1.77862">
        <ele>183.60000610352</ele>
        <time>2011-07-01T09:01:10.000Z</time>
      </trkpt>
      <trkpt lat="48.71986" lon="1.77855">
        <ele>183.19999694824</ele>
        <time>2011-07-01T09:01:16.000Z</time>
      </trkpt>
      <trkpt lat="48.71992" lon="1.77843">
        <ele>182.60000610352</ele>
        <time>2011-07-01T09:01:22.000Z</time>
      </trkpt>
      <trkpt lat="48.71993" lon="1.77839">
        <ele>182.39999389648</ele>
        <time>2011-07-01T09:01:24.000Z</time>
      </trkpt>
      <trkpt lat="48.71998" lon="1.77833">
        <ele>182</ele>
        <time>2011-07-01T09:01:28.000Z</time>
      </trkpt>
      <trkpt lat="48.72002" lon="1.77825">
        <ele>181.60000610352</ele>
        <time>2011-07-01T09:01:33.000Z</time>
      </trkpt>
      <trkpt lat="48.72006" lon="1.77814">
        <ele>181</ele>
        <time>2011-07-01T09:01:40.000Z</time>
      </trkpt>
      <trkpt lat="48.72009" lon="1.77808">
        <ele>180.60000610352</ele>
        <time>2011-07-01T09:01:44.000Z</time>
      </trkpt>
      <trkpt lat="48.72016" lon="1.77799">
        <ele>179.80000305176</ele>
        <time>2011-07-01T09:01:52.000Z</time>
      </trkpt>
      <trkpt lat="48.72023" lon="1.77784">
        <ele>178.80000305176</ele>
        <time>2011-07-01T09:01:59.000Z</time>
      </trkpt>
      <trkpt lat="48.72024" lon="1.77782">
        <ele>178.60000610352</ele>
        <time>2011-07-01T09:02:00.000Z</time>
      </trkpt>
      <trkpt lat="48.72029" lon="1.77777">
        <ele>178.19999694824</ele>
        <time>2011-07-01T09:02:03.000Z</time>
      </trkpt>
      <trkpt lat="48.72037" lon="1.77772">
        <ele>177.39999389648</ele>
        <time>2011-07-01T09:02:10.000Z</time>
      </trkpt>
      <trkpt lat="48.72043" lon="1.77772">
        <ele>177</ele>
        <time>2011-07-01T09:02:14.000Z</time>
      </trkpt>
      <trkpt lat="48.72053" lon="1.77773">
        <ele>176.39999389648</ele>
        <time>2011-07-01T09:02:21.000Z</time>
      </trkpt>
      <trkpt lat="48.72062" lon="1.77776">
        <ele>176</ele>
        <time>2011-07-01T09:02:27.000Z</time>
      </trkpt>
      <trkpt lat="48.72066" lon="1.77778">
        <ele>176</ele>
        <time>2011-07-01T09:02:30.000Z</time>
      </trkpt>
      <trkpt lat="48.72074" lon="1.77781">
        <ele>175.60000610352</ele>
        <time>2011-07-01T09:02:36.000Z</time>
      </trkpt>
      <trkpt lat="48.72086" lon="1.77783">
        <ele>175</ele>
        <time>2011-07-01T09:02:44.000Z</time>
      </trkpt>
      <trkpt lat="48.72097" lon="1.77788">
        <ele>174.60000610352</ele>
        <time>2011-07-01T09:02:51.000Z</time>
      </trkpt>
      <trkpt lat="48.7211" lon="1.77794">
        <ele>174.19999694824</ele>
        <time>2011-07-01T09:02:59.000Z</time>
      </trkpt>
      <trkpt lat="48.72118" lon="1.77796">
        <ele>173.80000305176</ele>
        <time>2011-07-01T09:03:05.000Z</time>
      </trkpt>
      <trkpt lat="48.7213" lon="1.77804">
        <ele>173.60000610352</ele>
        <time>2011-07-01T09:03:14.000Z</time>
      </trkpt>
      <trkpt lat="48.72143" lon="1.77812">
        <ele>173.39999389648</ele>
        <time>2011-07-01T09:03:23.000Z</time>
      </trkpt>
      <trkpt lat="48.72153" lon="1.77821">
        <ele>173.60000610352</ele>
        <time>2011-07-01T09:03:29.000Z</time>
      </trkpt>
      <trkpt lat="48.72164" lon="1.77831">
        <ele>173.80000305176</ele>
        <time>2011-07-01T09:03:35.000Z</time>
      </trkpt>
      <trkpt lat="48.72171" lon="1.77836">
        <ele>173.60000610352</ele>
        <time>2011-07-01T09:03:41.000Z</time>
      </trkpt>
      <trkpt lat="48.72181" lon="1.77844">
        <ele>173</ele>
        <time>2011-07-01T09:03:49.000Z</time>
      </trkpt>
      <trkpt lat="48.72193" lon="1.77852">
        <ele>172.39999389648</ele>
        <time>2011-07-01T09:03:58.000Z</time>
      </trkpt>
      <trkpt lat="48.72199" lon="1.77858">
        <ele>172.39999389648</ele>
        <time>2011-07-01T09:04:05.000Z</time>
      </trkpt>
      <trkpt lat="48.72201" lon="1.7786">
        <ele>172.19999694824</ele>
        <time>2011-07-01T09:04:07.000Z</time>
      </trkpt>
      <trkpt lat="48.72212" lon="1.77869">
        <ele>172</ele>
        <time>2011-07-01T09:04:15.000Z</time>
      </trkpt>
      <trkpt lat="48.72215" lon="1.77871">
        <ele>172</ele>
        <time>2011-07-01T09:04:17.000Z</time>
      </trkpt>
      <trkpt lat="48.72225" lon="1.77879">
        <ele>171.80000305176</ele>
        <time>2011-07-01T09:04:26.000Z</time>
      </trkpt>
      <trkpt lat="48.7223" lon="1.77883">
        <ele>171.80000305176</ele>
        <time>2011-07-01T09:04:31.000Z</time>
      </trkpt>
      <trkpt lat="48.72239" lon="1.77889">
        <ele>171.80000305176</ele>
        <time>2011-07-01T09:04:39.000Z</time>
      </trkpt>
      <trkpt lat="48.72248" lon="1.77895">
        <ele>171.80000305176</ele>
        <time>2011-07-01T09:04:47.000Z</time>
      </trkpt>
      <trkpt lat="48.72258" lon="1.77905">
        <ele>171.80000305176</ele>
        <time>2011-07-01T09:04:55.000Z</time>
      </trkpt>
      <trkpt lat="48.72266" lon="1.77921">
        <ele>172</ele>
        <time>2011-07-01T09:05:05.000Z</time>
      </trkpt>
      <trkpt lat="48.72274" lon="1.77937">
        <ele>171.39999389648</ele>
        <time>2011-07-01T09:05:14.000Z</time>
      </trkpt>
      <trkpt lat="48.72275" lon="1.77939">
        <ele>171.39999389648</ele>
        <time>2011-07-01T09:05:15.000Z</time>
      </trkpt>
      <trkpt lat="48.72275" lon="1.77956">
        <ele>171.80000305176</ele>
        <time>2011-07-01T09:05:24.000Z</time>
      </trkpt>
      <trkpt lat="48.72275" lon="1.77969">
        <ele>172</ele>
        <time>2011-07-01T09:05:31.000Z</time>
      </trkpt>
      <trkpt lat="48.72272" lon="1.77977">
        <ele>172.60000610352</ele>
        <time>2011-07-01T09:05:37.000Z</time>
      </trkpt>
      <trkpt lat="48.72268" lon="1.77989">
        <ele>173.39999389648</ele>
        <time>2011-07-01T09:05:44.000Z</time>
      </trkpt>
      <trkpt lat="48.72263" lon="1.77997">
        <ele>174.19999694824</ele>
        <time>2011-07-01T09:05:51.000Z</time>
      </trkpt>
      <trkpt lat="48.72253" lon="1.78003">
        <ele>175.39999389648</ele>
        <time>2011-07-01T09:05:59.000Z</time>
      </trkpt>
      <trkpt lat="48.72246" lon="1.78008">
        <ele>176</ele>
        <time>2011-07-01T09:06:05.000Z</time>
      </trkpt>
      <trkpt lat="48.72235" lon="1.78016">
        <ele>176.60000610352</ele>
        <time>2011-07-01T09:06:13.000Z</time>
      </trkpt>
      <trkpt lat="48.72225" lon="1.78019">
        <ele>177</ele>
        <time>2011-07-01T09:06:21.000Z</time>
      </trkpt>
      <trkpt lat="48.72219" lon="1.78024">
        <ele>177.39999389648</ele>
        <time>2011-07-01T09:06:26.000Z</time>
      </trkpt>
      <trkpt lat="48.72212" lon="1.7803">
        <ele>177.80000305176</ele>
        <time>2011-07-01T09:06:33.000Z</time>
      </trkpt>
      <trkpt lat="48.72208" lon="1.78036">
        <ele>178</ele>
        <time>2011-07-01T09:06:39.000Z</time>
      </trkpt>
      <trkpt lat="48.72207" lon="1.7805">
        <ele>178</ele>
        <time>2011-07-01T09:06:47.000Z</time>
      </trkpt>
      <trkpt lat="48.72205" lon="1.78068">
        <ele>177.80000305176</ele>
        <time>2011-07-01T09:06:54.000Z</time>
      </trkpt>
      <trkpt lat="48.72208" lon="1.7808">
        <ele>177.60000610352</ele>
        <time>2011-07-01T09:07:01.000Z</time>
      </trkpt>
      <trkpt lat="48.72208" lon="1.78096">
        <ele>177.39999389648</ele>
        <time>2011-07-01T09:07:09.000Z</time>
      </trkpt>
      <trkpt lat="48.72207" lon="1.78112">
        <ele>177.39999389648</ele>
        <time>2011-07-01T09:07:16.000Z</time>
      </trkpt>
      <trkpt lat="48.72203" lon="1.78123">
        <ele>177.80000305176</ele>
        <time>2011-07-01T09:07:22.000Z</time>
      </trkpt>
      <trkpt lat="48.72199" lon="1.78135">
        <ele>178</ele>
        <time>2011-07-01T09:07:29.000Z</time>
      </trkpt>
      <trkpt lat="48.72195" lon="1.78149">
        <ele>178.19999694824</ele>
        <time>2011-07-01T09:07:36.000Z</time>
      </trkpt>
      <trkpt lat="48.72191" lon="1.78166">
        <ele>178.39999389648</ele>
        <time>2011-07-01T09:07:44.000Z</time>
      </trkpt>
      <trkpt lat="48.72186" lon="1.78179">
        <ele>178.80000305176</ele>
        <time>2011-07-01T09:07:51.000Z</time>
      </trkpt>
      <trkpt lat="48.72182" lon="1.78191">
        <ele>179</ele>
        <time>2011-07-01T09:07:58.000Z</time>
      </trkpt>
      <trkpt lat="48.72176" lon="1.78206">
        <ele>179.39999389648</ele>
        <time>2011-07-01T09:08:06.000Z</time>
      </trkpt>
      <trkpt lat="48.72173" lon="1.78221">
        <ele>179.60000610352</ele>
        <time>2011-07-01T09:08:14.000Z</time>
      </trkpt>
      <trkpt lat="48.72169" lon="1.7823">
        <ele>179.80000305176</ele>
        <time>2011-07-01T09:08:19.000Z</time>
      </trkpt>
      <trkpt lat="48.72162" lon="1.78246">
        <ele>180</ele>
        <time>2011-07-01T09:08:27.000Z</time>
      </trkpt>
      <trkpt lat="48.72157" lon="1.78256">
        <ele>179.80000305176</ele>
        <time>2011-07-01T09:08:33.000Z</time>
      </trkpt>
      <trkpt lat="48.72152" lon="1.7827">
        <ele>179.60000610352</ele>
        <time>2011-07-01T09:08:40.000Z</time>
      </trkpt>
      <trkpt lat="48.72148" lon="1.78289">
        <ele>179.19999694824</ele>
        <time>2011-07-01T09:08:48.000Z</time>
      </trkpt>
      <trkpt lat="48.72144" lon="1.78305">
        <ele>178.80000305176</ele>
        <time>2011-07-01T09:08:56.000Z</time>
      </trkpt>
      <trkpt lat="48.72144" lon="1.78313">
        <ele>178.60000610352</ele>
        <time>2011-07-01T09:09:00.000Z</time>
      </trkpt>
      <trkpt lat="48.72142" lon="1.78328">
        <ele>178.39999389648</ele>
        <time>2011-07-01T09:09:07.000Z</time>
      </trkpt>
      <trkpt lat="48.72139" lon="1.78345">
        <ele>176.80000305176</ele>
        <time>2011-07-01T09:09:14.000Z</time>
      </trkpt>
      <trkpt lat="48.72136" lon="1.78365">
        <ele>174.19999694824</ele>
        <time>2011-07-01T09:09:22.000Z</time>
      </trkpt>
      <trkpt lat="48.72135" lon="1.78379">
        <ele>172.60000610352</ele>
        <time>2011-07-01T09:09:28.000Z</time>
      </trkpt>
      <trkpt lat="48.72134" lon="1.78393">
        <ele>170.80000305176</ele>
        <time>2011-07-01T09:09:34.000Z</time>
      </trkpt>
      <trkpt lat="48.72138" lon="1.78409">
        <ele>168.60000610352</ele>
        <time>2011-07-01T09:09:41.000Z</time>
      </trkpt>
      <trkpt lat="48.72143" lon="1.78424">
        <ele>167</ele>
        <time>2011-07-01T09:09:46.000Z</time>
      </trkpt>
      <trkpt lat="48.72145" lon="1.7843">
        <ele>166.60000610352</ele>
        <time>2011-07-01T09:09:48.000Z</time>
      </trkpt>
      <trkpt lat="48.72148" lon="1.78442">
        <ele>166</ele>
        <time>2011-07-01T09:09:54.000Z</time>
      </trkpt>
      <trkpt lat="48.72152" lon="1.78454">
        <ele>165.19999694824</ele>
        <time>2011-07-01T09:10:01.000Z</time>
      </trkpt>
      <trkpt lat="48.72158" lon="1.78468">
        <ele>164.39999389648</ele>
        <time>2011-07-01T09:10:09.000Z</time>
      </trkpt>
      <trkpt lat="48.72162" lon="1.78479">
        <ele>163.80000305176</ele>
        <time>2011-07-01T09:10:16.000Z</time>
      </trkpt>
      <trkpt lat="48.72165" lon="1.78483">
        <ele>163.60000610352</ele>
        <time>2011-07-01T09:10:19.000Z</time>
      </trkpt>
      <trkpt lat="48.72175" lon="1.78493">
        <ele>163.19999694824</ele>
        <time>2011-07-01T09:10:27.000Z</time>
      </trkpt>
      <trkpt lat="48.72177" lon="1.78494">
        <ele>163.19999694824</ele>
        <time>2011-07-01T09:10:29.000Z</time>
      </trkpt>
      <trkpt lat="48.72184" lon="1.78497">
        <ele>163</ele>
        <time>2011-07-01T09:10:35.000Z</time>
      </trkpt>
      <trkpt lat="48.72192" lon="1.78498">
        <ele>163</ele>
        <time>2011-07-01T09:10:41.000Z</time>
      </trkpt>
      <trkpt lat="48.72204" lon="1.78498">
        <ele>163</ele>
        <time>2011-07-01T09:10:50.000Z</time>
      </trkpt>
      <trkpt lat="48.72213" lon="1.78495">
        <ele>163.19999694824</ele>
        <time>2011-07-01T09:10:55.000Z</time>
      </trkpt>
      <trkpt lat="48.72226" lon="1.78495">
        <ele>163.19999694824</ele>
        <time>2011-07-01T09:11:00.000Z</time>
      </trkpt>
      <trkpt lat="48.72231" lon="1.78495">
        <ele>163.19999694824</ele>
        <time>2011-07-01T09:11:03.000Z</time>
      </trkpt>
      <trkpt lat="48.72237" lon="1.78495">
        <ele>163.19999694824</ele>
        <time>2011-07-01T09:11:07.000Z</time>
      </trkpt>
      <trkpt lat="48.72247" lon="1.78495">
        <ele>163.19999694824</ele>
        <time>2011-07-01T09:11:14.000Z</time>
      </trkpt>
      <trkpt lat="48.72254" lon="1.78495">
        <ele>163.39999389648</ele>
        <time>2011-07-01T09:11:21.000Z</time>
      </trkpt>
      <trkpt lat="48.72262" lon="1.78498">
        <ele>163.60000610352</ele>
        <time>2011-07-01T09:11:27.000Z</time>
      </trkpt>
      <trkpt lat="48.72271" lon="1.78503">
        <ele>164</ele>
        <time>2011-07-01T09:11:34.000Z</time>
      </trkpt>
      <trkpt lat="48.7228" lon="1.78513">
        <ele>165.19999694824</ele>
        <time>2011-07-01T09:11:41.000Z</time>
      </trkpt>
      <trkpt lat="48.72285" lon="1.7852">
        <ele>165.80000305176</ele>
        <time>2011-07-01T09:11:46.000Z</time>
      </trkpt>
      <trkpt lat="48.7229" lon="1.7853">
        <ele>166.60000610352</ele>
        <time>2011-07-01T09:11:52.000Z</time>
      </trkpt>
      <trkpt lat="48.72295" lon="1.78542">
        <ele>167.60000610352</ele>
        <time>2011-07-01T09:11:58.000Z</time>
      </trkpt>
      <trkpt lat="48.72302" lon="1.78553">
        <ele>168.19999694824</ele>
        <time>2011-07-01T09:12:02.000Z</time>
      </trkpt>
      <trkpt lat="48.7231" lon="1.78569">
        <ele>169.19999694824</ele>
        <time>2011-07-01T09:12:11.000Z</time>
      </trkpt>
      <trkpt lat="48.72313" lon="1.78575">
        <ele>169.60000610352</ele>
        <time>2011-07-01T09:12:15.000Z</time>
      </trkpt>
      <trkpt lat="48.72318" lon="1.78582">
        <ele>169.80000305176</ele>
        <time>2011-07-01T09:12:20.000Z</time>
      </trkpt>
      <trkpt lat="48.7232" lon="1.78585">
        <ele>170</ele>
        <time>2011-07-01T09:12:22.000Z</time>
      </trkpt>
      <trkpt lat="48.72321" lon="1.78586">
        <ele>170</ele>
        <time>2011-07-01T09:12:24.000Z</time>
      </trkpt>
      <trkpt lat="48.72328" lon="1.78595">
        <ele>170.39999389648</ele>
        <time>2011-07-01T09:12:31.000Z</time>
      </trkpt>
      <trkpt lat="48.72336" lon="1.78605">
        <ele>171.19999694824</ele>
        <time>2011-07-01T09:12:38.000Z</time>
      </trkpt>
      <trkpt lat="48.72344" lon="1.78615">
        <ele>172.19999694824</ele>
        <time>2011-07-01T09:12:45.000Z</time>
      </trkpt>
      <trkpt lat="48.72351" lon="1.78623">
        <ele>172.80000305176</ele>
        <time>2011-07-01T09:12:52.000Z</time>
      </trkpt>
      <trkpt lat="48.72359" lon="1.78632">
        <ele>173.60000610352</ele>
        <time>2011-07-01T09:13:00.000Z</time>
      </trkpt>
      <trkpt lat="48.72367" lon="1.78641">
        <ele>174.19999694824</ele>
        <time>2011-07-01T09:13:07.000Z</time>
      </trkpt>
      <trkpt lat="48.72374" lon="1.78649">
        <ele>174.60000610352</ele>
        <time>2011-07-01T09:13:13.000Z</time>
      </trkpt>
      <trkpt lat="48.72382" lon="1.78653">
        <ele>175</ele>
        <time>2011-07-01T09:13:20.000Z</time>
      </trkpt>
      <trkpt lat="48.72383" lon="1.78654">
        <ele>175</ele>
        <time>2011-07-01T09:13:21.000Z</time>
      </trkpt>
      <trkpt lat="48.72393" lon="1.78663">
        <ele>175.39999389648</ele>
        <time>2011-07-01T09:13:30.000Z</time>
      </trkpt>
      <trkpt lat="48.72394" lon="1.78664">
        <ele>175.39999389648</ele>
        <time>2011-07-01T09:13:34.000Z</time>
      </trkpt>
      <trkpt lat="48.72404" lon="1.78672">
        <ele>175.60000610352</ele>
        <time>2011-07-01T09:13:56.000Z</time>
      </trkpt>
      <trkpt lat="48.7241" lon="1.78677">
        <ele>175.80000305176</ele>
        <time>2011-07-01T09:14:01.000Z</time>
      </trkpt>
      <trkpt lat="48.72417" lon="1.78682">
        <ele>176</ele>
        <time>2011-07-01T09:14:08.000Z</time>
      </trkpt>
      <trkpt lat="48.72425" lon="1.78685">
        <ele>176</ele>
        <time>2011-07-01T09:14:15.000Z</time>
      </trkpt>
      <trkpt lat="48.72436" lon="1.78688">
        <ele>176.19999694824</ele>
        <time>2011-07-01T09:14:24.000Z</time>
      </trkpt>
      <trkpt lat="48.72448" lon="1.78691">
        <ele>176.60000610352</ele>
        <time>2011-07-01T09:14:32.000Z</time>
      </trkpt>
      <trkpt lat="48.72462" lon="1.78692">
        <ele>176.80000305176</ele>
        <time>2011-07-01T09:14:42.000Z</time>
      </trkpt>
      <trkpt lat="48.72478" lon="1.78693">
        <ele>177.19999694824</ele>
        <time>2011-07-01T09:14:53.000Z</time>
      </trkpt>
      <trkpt lat="48.72491" lon="1.78694">
        <ele>177.39999389648</ele>
        <time>2011-07-01T09:15:02.000Z</time>
      </trkpt>
      <trkpt lat="48.72498" lon="1.78695">
        <ele>177.60000610352</ele>
        <time>2011-07-01T09:15:07.000Z</time>
      </trkpt>
      <trkpt lat="48.72512" lon="1.78694">
        <ele>177.80000305176</ele>
        <time>2011-07-01T09:15:17.000Z</time>
      </trkpt>
      <trkpt lat="48.72524" lon="1.78694">
        <ele>178</ele>
        <time>2011-07-01T09:15:25.000Z</time>
      </trkpt>
      <trkpt lat="48.72537" lon="1.78694">
        <ele>178.19999694824</ele>
        <time>2011-07-01T09:15:34.000Z</time>
      </trkpt>
      <trkpt lat="48.72547" lon="1.78693">
        <ele>178.39999389648</ele>
        <time>2011-07-01T09:15:42.000Z</time>
      </trkpt>
      <trkpt lat="48.72559" lon="1.78692">
        <ele>178.60000610352</ele>
        <time>2011-07-01T09:15:51.000Z</time>
      </trkpt>
      <trkpt lat="48.72573" lon="1.78694">
        <ele>178.80000305176</ele>
        <time>2011-07-01T09:16:01.000Z</time>
      </trkpt>
      <trkpt lat="48.72585" lon="1.78691">
        <ele>179</ele>
        <time>2011-07-01T09:16:09.000Z</time>
      </trkpt>
      <trkpt lat="48.72595" lon="1.78693">
        <ele>179.19999694824</ele>
        <time>2011-07-01T09:16:17.000Z</time>
      </trkpt>
      <trkpt lat="48.72603" lon="1.78695">
        <ele>179.60000610352</ele>
        <time>2011-07-01T09:16:23.000Z</time>
      </trkpt>
      <trkpt lat="48.72614" lon="1.787">
        <ele>179.80000305176</ele>
        <time>2011-07-01T09:16:31.000Z</time>
      </trkpt>
      <trkpt lat="48.72625" lon="1.78706">
        <ele>180.19999694824</ele>
        <time>2011-07-01T09:16:38.000Z</time>
      </trkpt>
      <trkpt lat="48.72633" lon="1.78711">
        <ele>180.39999389648</ele>
        <time>2011-07-01T09:16:44.000Z</time>
      </trkpt>
      <trkpt lat="48.72635" lon="1.78712">
        <ele>180.39999389648</ele>
        <time>2011-07-01T09:16:45.000Z</time>
      </trkpt>
      <trkpt lat="48.72647" lon="1.7872">
        <ele>180.60000610352</ele>
        <time>2011-07-01T09:16:54.000Z</time>
      </trkpt>
      <trkpt lat="48.72657" lon="1.78725">
        <ele>181</ele>
        <time>2011-07-01T09:17:02.000Z</time>
      </trkpt>
      <trkpt lat="48.72667" lon="1.78732">
        <ele>181.19999694824</ele>
        <time>2011-07-01T09:17:10.000Z</time>
      </trkpt>
      <trkpt lat="48.72683" lon="1.78742">
        <ele>181.19999694824</ele>
        <time>2011-07-01T09:17:22.000Z</time>
      </trkpt>
      <trkpt lat="48.72698" lon="1.78751">
        <ele>181.19999694824</ele>
        <time>2011-07-01T09:17:33.000Z</time>
      </trkpt>
      <trkpt lat="48.7271" lon="1.78759">
        <ele>181.39999389648</ele>
        <time>2011-07-01T09:17:43.000Z</time>
      </trkpt>
      <trkpt lat="48.72719" lon="1.78766">
        <ele>181.39999389648</ele>
        <time>2011-07-01T09:17:51.000Z</time>
      </trkpt>
      <trkpt lat="48.72726" lon="1.78771">
        <ele>181.60000610352</ele>
        <time>2011-07-01T09:17:57.000Z</time>
      </trkpt>
      <trkpt lat="48.72734" lon="1.78777">
        <ele>181.60000610352</ele>
        <time>2011-07-01T09:18:03.000Z</time>
      </trkpt>
      <trkpt lat="48.72746" lon="1.78785">
        <ele>181.80000305176</ele>
        <time>2011-07-01T09:18:11.000Z</time>
      </trkpt>
      <trkpt lat="48.72748" lon="1.78785">
        <ele>181.80000305176</ele>
        <time>2011-07-01T09:18:12.000Z</time>
      </trkpt>
      <trkpt lat="48.72751" lon="1.78787">
        <ele>182</ele>
        <time>2011-07-01T09:18:17.000Z</time>
      </trkpt>
      <trkpt lat="48.72755" lon="1.7879">
        <ele>182</ele>
        <time>2011-07-01T09:18:24.000Z</time>
      </trkpt>
      <trkpt lat="48.72763" lon="1.78794">
        <ele>182</ele>
        <time>2011-07-01T09:18:29.000Z</time>
      </trkpt>
      <trkpt lat="48.72773" lon="1.78797">
        <ele>182.19999694824</ele>
        <time>2011-07-01T09:18:36.000Z</time>
      </trkpt>
      <trkpt lat="48.72788" lon="1.788">
        <ele>182.19999694824</ele>
        <time>2011-07-01T09:18:47.000Z</time>
      </trkpt>
      <trkpt lat="48.72803" lon="1.78801">
        <ele>182.39999389648</ele>
        <time>2011-07-01T09:18:58.000Z</time>
      </trkpt>
      <trkpt lat="48.72815" lon="1.78802">
        <ele>182.39999389648</ele>
        <time>2011-07-01T09:19:07.000Z</time>
      </trkpt>
      <trkpt lat="48.72828" lon="1.78803">
        <ele>182.60000610352</ele>
        <time>2011-07-01T09:19:17.000Z</time>
      </trkpt>
      <trkpt lat="48.72837" lon="1.78799">
        <ele>182.80000305176</ele>
        <time>2011-07-01T09:19:25.000Z</time>
      </trkpt>
      <trkpt lat="48.72842" lon="1.78796">
        <ele>182.80000305176</ele>
        <time>2011-07-01T09:19:29.000Z</time>
      </trkpt>
      <trkpt lat="48.72852" lon="1.78794">
        <ele>182.80000305176</ele>
        <time>2011-07-01T09:19:37.000Z</time>
      </trkpt>
      <trkpt lat="48.72861" lon="1.78792">
        <ele>183</ele>
        <time>2011-07-01T09:19:44.000Z</time>
      </trkpt>
      <trkpt lat="48.72871" lon="1.78788">
        <ele>183</ele>
        <time>2011-07-01T09:19:52.000Z</time>
      </trkpt>
      <trkpt lat="48.72877" lon="1.78785">
        <ele>183</ele>
        <time>2011-07-01T09:19:57.000Z</time>
      </trkpt>
      <trkpt lat="48.72886" lon="1.78782">
        <ele>183.19999694824</ele>
        <time>2011-07-01T09:20:04.000Z</time>
      </trkpt>
      <trkpt lat="48.7289" lon="1.78782">
        <ele>183.19999694824</ele>
        <time>2011-07-01T09:20:07.000Z</time>
      </trkpt>
      <trkpt lat="48.72897" lon="1.7878">
        <ele>183.19999694824</ele>
        <time>2011-07-01T09:20:12.000Z</time>
      </trkpt>
      <trkpt lat="48.72905" lon="1.78777">
        <ele>183.19999694824</ele>
        <time>2011-07-01T09:20:18.000Z</time>
      </trkpt>
      <trkpt lat="48.72913" lon="1.78776">
        <ele>183.19999694824</ele>
        <time>2011-07-01T09:20:24.000Z</time>
      </trkpt>
      <trkpt lat="48.72915" lon="1.78776">
        <ele>183.19999694824</ele>
        <time>2011-07-01T09:20:25.000Z</time>
      </trkpt>
      <trkpt lat="48.72922" lon="1.78775">
        <ele>183.19999694824</ele>
        <time>2011-07-01T09:20:29.000Z</time>
      </trkpt>
      <trkpt lat="48.72927" lon="1.78775">
        <ele>183.19999694824</ele>
        <time>2011-07-01T09:20:33.000Z</time>
      </trkpt>
      <trkpt lat="48.72939" lon="1.78775">
        <ele>183.19999694824</ele>
        <time>2011-07-01T09:20:42.000Z</time>
      </trkpt>
      <trkpt lat="48.72946" lon="1.78775">
        <ele>183</ele>
        <time>2011-07-01T09:20:47.000Z</time>
      </trkpt>
      <trkpt lat="48.72947" lon="1.78775">
        <ele>183</ele>
        <time>2011-07-01T09:20:48.000Z</time>
      </trkpt>
      <trkpt lat="48.72956" lon="1.7878">
        <ele>182.80000305176</ele>
        <time>2011-07-01T09:20:54.000Z</time>
      </trkpt>
      <trkpt lat="48.72963" lon="1.78782">
        <ele>182.80000305176</ele>
        <time>2011-07-01T09:20:59.000Z</time>
      </trkpt>
      <trkpt lat="48.72972" lon="1.78783">
        <ele>182.80000305176</ele>
        <time>2011-07-01T09:21:06.000Z</time>
      </trkpt>
      <trkpt lat="48.72979" lon="1.78783">
        <ele>182.60000610352</ele>
        <time>2011-07-01T09:21:11.000Z</time>
      </trkpt>
      <trkpt lat="48.7299" lon="1.78786">
        <ele>182.60000610352</ele>
        <time>2011-07-01T09:21:18.000Z</time>
      </trkpt>
      <trkpt lat="48.72996" lon="1.78787">
        <ele>182.39999389648</ele>
        <time>2011-07-01T09:21:22.000Z</time>
      </trkpt>
      <trkpt lat="48.73005" lon="1.7879">
        <ele>182.39999389648</ele>
        <time>2011-07-01T09:21:29.000Z</time>
      </trkpt>
      <trkpt lat="48.73015" lon="1.78793">
        <ele>182.60000610352</ele>
        <time>2011-07-01T09:21:36.000Z</time>
      </trkpt>
      <trkpt lat="48.73016" lon="1.78793">
        <ele>182.60000610352</ele>
        <time>2011-07-01T09:21:37.000Z</time>
      </trkpt>
      <trkpt lat="48.73027" lon="1.78796">
        <ele>182.60000610352</ele>
        <time>2011-07-01T09:21:45.000Z</time>
      </trkpt>
      <trkpt lat="48.73035" lon="1.78798">
        <ele>182.60000610352</ele>
        <time>2011-07-01T09:21:51.000Z</time>
      </trkpt>
      <trkpt lat="48.73042" lon="1.78799">
        <ele>182.80000305176</ele>
        <time>2011-07-01T09:21:57.000Z</time>
      </trkpt>
      <trkpt lat="48.73047" lon="1.78798">
        <ele>182.80000305176</ele>
        <time>2011-07-01T09:22:01.000Z</time>
      </trkpt>
      <trkpt lat="48.73053" lon="1.788">
        <ele>182.80000305176</ele>
        <time>2011-07-01T09:22:05.000Z</time>
      </trkpt>
      <trkpt lat="48.73061" lon="1.78801">
        <ele>182.80000305176</ele>
        <time>2011-07-01T09:22:11.000Z</time>
      </trkpt>
      <trkpt lat="48.73067" lon="1.78803">
        <ele>182.80000305176</ele>
        <time>2011-07-01T09:22:16.000Z</time>
      </trkpt>
      <trkpt lat="48.73072" lon="1.78803">
        <ele>182.80000305176</ele>
        <time>2011-07-01T09:22:21.000Z</time>
      </trkpt>
      <trkpt lat="48.73082" lon="1.78807">
        <ele>182.80000305176</ele>
        <time>2011-07-01T09:22:28.000Z</time>
      </trkpt>
      <trkpt lat="48.73088" lon="1.78807">
        <ele>182.80000305176</ele>
        <time>2011-07-01T09:22:32.000Z</time>
      </trkpt>
      <trkpt lat="48.73095" lon="1.78809">
        <ele>182.60000610352</ele>
        <time>2011-07-01T09:22:37.000Z</time>
      </trkpt>
      <trkpt lat="48.73106" lon="1.78811">
        <ele>182.19999694824</ele>
        <time>2011-07-01T09:22:46.000Z</time>
      </trkpt>
      <trkpt lat="48.73109" lon="1.78811">
        <ele>182.19999694824</ele>
        <time>2011-07-01T09:22:49.000Z</time>
      </trkpt>
      <trkpt lat="48.73114" lon="1.78813">
        <ele>182</ele>
        <time>2011-07-01T09:22:53.000Z</time>
      </trkpt>
      <trkpt lat="48.73122" lon="1.78814">
        <ele>182</ele>
        <time>2011-07-01T09:23:00.000Z</time>
      </trkpt>
      <trkpt lat="48.7313" lon="1.78814">
        <ele>181.80000305176</ele>
        <time>2011-07-01T09:23:07.000Z</time>
      </trkpt>
      <trkpt lat="48.73142" lon="1.78817">
        <ele>181.60000610352</ele>
        <time>2011-07-01T09:23:14.000Z</time>
      </trkpt>
      <trkpt lat="48.73144" lon="1.78818">
        <ele>181.39999389648</ele>
        <time>2011-07-01T09:23:15.000Z</time>
      </trkpt>
      <trkpt lat="48.73155" lon="1.78816">
        <ele>181.39999389648</ele>
        <time>2011-07-01T09:23:23.000Z</time>
      </trkpt>
      <trkpt lat="48.73156" lon="1.78816">
        <ele>181.19999694824</ele>
        <time>2011-07-01T09:23:24.000Z</time>
      </trkpt>
      <trkpt lat="48.73166" lon="1.78811">
        <ele>181.19999694824</ele>
        <time>2011-07-01T09:23:33.000Z</time>
      </trkpt>
      <trkpt lat="48.7317" lon="1.78812">
        <ele>181</ele>
        <time>2011-07-01T09:23:37.000Z</time>
      </trkpt>
      <trkpt lat="48.73172" lon="1.78816">
        <ele>180.80000305176</ele>
        <time>2011-07-01T09:23:40.000Z</time>
      </trkpt>
      <trkpt lat="48.73183" lon="1.7882">
        <ele>180.19999694824</ele>
        <time>2011-07-01T09:23:48.000Z</time>
      </trkpt>
      <trkpt lat="48.73193" lon="1.78821">
        <ele>179.80000305176</ele>
        <time>2011-07-01T09:23:56.000Z</time>
      </trkpt>
      <trkpt lat="48.732" lon="1.78826">
        <ele>179.39999389648</ele>
        <time>2011-07-01T09:24:02.000Z</time>
      </trkpt>
      <trkpt lat="48.73209" lon="1.78833">
        <ele>178.80000305176</ele>
        <time>2011-07-01T09:24:10.000Z</time>
      </trkpt>
      <trkpt lat="48.73219" lon="1.78846">
        <ele>178.60000610352</ele>
        <time>2011-07-01T09:24:18.000Z</time>
      </trkpt>
      <trkpt lat="48.73228" lon="1.78861">
        <ele>178.19999694824</ele>
        <time>2011-07-01T09:24:26.000Z</time>
      </trkpt>
      <trkpt lat="48.73234" lon="1.78873">
        <ele>178.19999694824</ele>
        <time>2011-07-01T09:24:33.000Z</time>
      </trkpt>
      <trkpt lat="48.73243" lon="1.78888">
        <ele>177.80000305176</ele>
        <time>2011-07-01T09:24:42.000Z</time>
      </trkpt>
      <trkpt lat="48.73252" lon="1.78903">
        <ele>177.60000610352</ele>
        <time>2011-07-01T09:24:51.000Z</time>
      </trkpt>
      <trkpt lat="48.73262" lon="1.7892">
        <ele>176.80000305176</ele>
        <time>2011-07-01T09:25:01.000Z</time>
      </trkpt>
      <trkpt lat="48.73271" lon="1.78935">
        <ele>175.80000305176</ele>
        <time>2011-07-01T09:25:10.000Z</time>
      </trkpt>
      <trkpt lat="48.73277" lon="1.78947">
        <ele>175.19999694824</ele>
        <time>2011-07-01T09:25:17.000Z</time>
      </trkpt>
      <trkpt lat="48.73282" lon="1.7896">
        <ele>174.60000610352</ele>
        <time>2011-07-01T09:25:24.000Z</time>
      </trkpt>
      <trkpt lat="48.73289" lon="1.78973">
        <ele>174</ele>
        <time>2011-07-01T09:25:31.000Z</time>
      </trkpt>
      <trkpt lat="48.73297" lon="1.78992">
        <ele>173.39999389648</ele>
        <time>2011-07-01T09:25:41.000Z</time>
      </trkpt>
      <trkpt lat="48.73303" lon="1.7901">
        <ele>173.39999389648</ele>
        <time>2011-07-01T09:25:49.000Z</time>
      </trkpt>
      <trkpt lat="48.73306" lon="1.7902">
        <ele>173.60000610352</ele>
        <time>2011-07-01T09:25:54.000Z</time>
      </trkpt>
      <trkpt lat="48.73313" lon="1.79036">
        <ele>174</ele>
        <time>2011-07-01T09:26:02.000Z</time>
      </trkpt>
      <trkpt lat="48.7332" lon="1.79052">
        <ele>174.60000610352</ele>
        <time>2011-07-01T09:26:10.000Z</time>
      </trkpt>
      <trkpt lat="48.73324" lon="1.79064">
        <ele>175</ele>
        <time>2011-07-01T09:26:17.000Z</time>
      </trkpt>
      <trkpt lat="48.73324" lon="1.79077">
        <ele>175.39999389648</ele>
        <time>2011-07-01T09:26:24.000Z</time>
      </trkpt>
      <trkpt lat="48.73329" lon="1.79091">
        <ele>176.19999694824</ele>
        <time>2011-07-01T09:26:31.000Z</time>
      </trkpt>
      <trkpt lat="48.73332" lon="1.79104">
        <ele>177</ele>
        <time>2011-07-01T09:26:37.000Z</time>
      </trkpt>
      <trkpt lat="48.73335" lon="1.79115">
        <ele>177.80000305176</ele>
        <time>2011-07-01T09:26:42.000Z</time>
      </trkpt>
      <trkpt lat="48.7334" lon="1.79128">
        <ele>178.60000610352</ele>
        <time>2011-07-01T09:26:48.000Z</time>
      </trkpt>
      <trkpt lat="48.73347" lon="1.79146">
        <ele>179.80000305176</ele>
        <time>2011-07-01T09:26:57.000Z</time>
      </trkpt>
      <trkpt lat="48.73354" lon="1.79165">
        <ele>180.80000305176</ele>
        <time>2011-07-01T09:27:07.000Z</time>
      </trkpt>
      <trkpt lat="48.73361" lon="1.79186">
        <ele>182</ele>
        <time>2011-07-01T09:27:18.000Z</time>
      </trkpt>
      <trkpt lat="48.73369" lon="1.79202">
        <ele>182.80000305176</ele>
        <time>2011-07-01T09:27:27.000Z</time>
      </trkpt>
      <trkpt lat="48.73376" lon="1.79218">
        <ele>183.60000610352</ele>
        <time>2011-07-01T09:27:36.000Z</time>
      </trkpt>
      <trkpt lat="48.7338" lon="1.7923">
        <ele>184.19999694824</ele>
        <time>2011-07-01T09:27:43.000Z</time>
      </trkpt>
      <trkpt lat="48.73388" lon="1.79246">
        <ele>185</ele>
        <time>2011-07-01T09:27:52.000Z</time>
      </trkpt>
      <trkpt lat="48.73396" lon="1.7926">
        <ele>185.60000610352</ele>
        <time>2011-07-01T09:28:00.000Z</time>
      </trkpt>
      <trkpt lat="48.73404" lon="1.79276">
        <ele>186.19999694824</ele>
        <time>2011-07-01T09:28:10.000Z</time>
      </trkpt>
      <trkpt lat="48.73409" lon="1.79286">
        <ele>186.60000610352</ele>
        <time>2011-07-01T09:28:17.000Z</time>
      </trkpt>
      <trkpt lat="48.73411" lon="1.79289">
        <ele>186.80000305176</ele>
        <time>2011-07-01T09:28:19.000Z</time>
      </trkpt>
      <trkpt lat="48.73419" lon="1.79302">
        <ele>187.39999389648</ele>
        <time>2011-07-01T09:28:27.000Z</time>
      </trkpt>
      <trkpt lat="48.73426" lon="1.79312">
        <ele>187.80000305176</ele>
        <time>2011-07-01T09:28:34.000Z</time>
      </trkpt>
      <trkpt lat="48.73434" lon="1.79323">
        <ele>188.39999389648</ele>
        <time>2011-07-01T09:28:43.000Z</time>
      </trkpt>
      <trkpt lat="48.73441" lon="1.7933">
        <ele>188.80000305176</ele>
        <time>2011-07-01T09:28:49.000Z</time>
      </trkpt>
      <trkpt lat="48.7345" lon="1.79337">
        <ele>189</ele>
        <time>2011-07-01T09:28:57.000Z</time>
      </trkpt>
      <trkpt lat="48.73457" lon="1.79342">
        <ele>189.19999694824</ele>
        <time>2011-07-01T09:29:03.000Z</time>
      </trkpt>
      <trkpt lat="48.73468" lon="1.79347">
        <ele>189.39999389648</ele>
        <time>2011-07-01T09:29:12.000Z</time>
      </trkpt>
      <trkpt lat="48.73478" lon="1.79353">
        <ele>189.80000305176</ele>
        <time>2011-07-01T09:29:20.000Z</time>
      </trkpt>
      <trkpt lat="48.73486" lon="1.7936">
        <ele>190.19999694824</ele>
        <time>2011-07-01T09:29:27.000Z</time>
      </trkpt>
      <trkpt lat="48.73497" lon="1.79369">
        <ele>190.60000610352</ele>
        <time>2011-07-01T09:29:35.000Z</time>
      </trkpt>
      <trkpt lat="48.73508" lon="1.79371">
        <ele>190.80000305176</ele>
        <time>2011-07-01T09:29:43.000Z</time>
      </trkpt>
      <trkpt lat="48.73509" lon="1.79372">
        <ele>190.80000305176</ele>
        <time>2011-07-01T09:29:44.000Z</time>
      </trkpt>
      <trkpt lat="48.73514" lon="1.79383">
        <ele>191.39999389648</ele>
        <time>2011-07-01T09:29:49.000Z</time>
      </trkpt>
      <trkpt lat="48.73523" lon="1.79394">
        <ele>191.80000305176</ele>
        <time>2011-07-01T09:29:55.000Z</time>
      </trkpt>
      <trkpt lat="48.7353" lon="1.79406">
        <ele>192.19999694824</ele>
        <time>2011-07-01T09:30:02.000Z</time>
      </trkpt>
      <trkpt lat="48.73535" lon="1.79409">
        <ele>192.19999694824</ele>
        <time>2011-07-01T09:30:06.000Z</time>
      </trkpt>
      <trkpt lat="48.73541" lon="1.79414">
        <ele>192.39999389648</ele>
        <time>2011-07-01T09:30:11.000Z</time>
      </trkpt>
      <trkpt lat="48.73543" lon="1.7942">
        <ele>192.39999389648</ele>
        <time>2011-07-01T09:30:15.000Z</time>
      </trkpt>
      <trkpt lat="48.73555" lon="1.79437">
        <ele>192</ele>
        <time>2011-07-01T09:30:26.000Z</time>
      </trkpt>
      <trkpt lat="48.73572" lon="1.79454">
        <ele>191.60000610352</ele>
        <time>2011-07-01T09:30:32.000Z</time>
      </trkpt>
      <trkpt lat="48.73582" lon="1.79465">
        <ele>191.39999389648</ele>
        <time>2011-07-01T09:30:38.000Z</time>
      </trkpt>
      <trkpt lat="48.73586" lon="1.79469">
        <ele>191.19999694824</ele>
        <time>2011-07-01T09:30:43.000Z</time>
      </trkpt>
      <trkpt lat="48.73591" lon="1.7948">
        <ele>191</ele>
        <time>2011-07-01T09:30:49.000Z</time>
      </trkpt>
      <trkpt lat="48.73594" lon="1.79484">
        <ele>191</ele>
        <time>2011-07-01T09:30:52.000Z</time>
      </trkpt>
      <trkpt lat="48.73601" lon="1.79495">
        <ele>190.80000305176</ele>
        <time>2011-07-01T09:31:00.000Z</time>
      </trkpt>
      <trkpt lat="48.73609" lon="1.79506">
        <ele>190.60000610352</ele>
        <time>2011-07-01T09:31:07.000Z</time>
      </trkpt>
      <trkpt lat="48.73617" lon="1.79516">
        <ele>190.39999389648</ele>
        <time>2011-07-01T09:31:13.000Z</time>
      </trkpt>
      <trkpt lat="48.73625" lon="1.79525">
        <ele>190.39999389648</ele>
        <time>2011-07-01T09:31:19.000Z</time>
      </trkpt>
      <trkpt lat="48.73634" lon="1.79535">
        <ele>190.19999694824</ele>
        <time>2011-07-01T09:31:26.000Z</time>
      </trkpt>
      <trkpt lat="48.7364" lon="1.79544">
        <ele>190.19999694824</ele>
        <time>2011-07-01T09:31:32.000Z</time>
      </trkpt>
      <trkpt lat="48.73646" lon="1.79553">
        <ele>190.19999694824</ele>
        <time>2011-07-01T09:31:39.000Z</time>
      </trkpt>
      <trkpt lat="48.73649" lon="1.79558">
        <ele>190.19999694824</ele>
        <time>2011-07-01T09:31:42.000Z</time>
      </trkpt>
      <trkpt lat="48.73653" lon="1.79564">
        <ele>190</ele>
        <time>2011-07-01T09:31:47.000Z</time>
      </trkpt>
      <trkpt lat="48.73658" lon="1.79574">
        <ele>190</ele>
        <time>2011-07-01T09:31:53.000Z</time>
      </trkpt>
      <trkpt lat="48.73666" lon="1.79585">
        <ele>190</ele>
        <time>2011-07-01T09:32:01.000Z</time>
      </trkpt>
      <trkpt lat="48.73673" lon="1.79594">
        <ele>190.19999694824</ele>
        <time>2011-07-01T09:32:07.000Z</time>
      </trkpt>
      <trkpt lat="48.73681" lon="1.79603">
        <ele>190.39999389648</ele>
        <time>2011-07-01T09:32:14.000Z</time>
      </trkpt>
      <trkpt lat="48.7369" lon="1.79615">
        <ele>190.60000610352</ele>
        <time>2011-07-01T09:32:23.000Z</time>
      </trkpt>
      <trkpt lat="48.73697" lon="1.79624">
        <ele>190.80000305176</ele>
        <time>2011-07-01T09:32:29.000Z</time>
      </trkpt>
      <trkpt lat="48.73705" lon="1.79633">
        <ele>191</ele>
        <time>2011-07-01T09:32:35.000Z</time>
      </trkpt>
      <trkpt lat="48.73711" lon="1.79641">
        <ele>191.19999694824</ele>
        <time>2011-07-01T09:32:41.000Z</time>
      </trkpt>
      <trkpt lat="48.73718" lon="1.7965">
        <ele>191.19999694824</ele>
        <time>2011-07-01T09:32:47.000Z</time>
      </trkpt>
      <trkpt lat="48.73727" lon="1.79661">
        <ele>191.39999389648</ele>
        <time>2011-07-01T09:32:55.000Z</time>
      </trkpt>
      <trkpt lat="48.73736" lon="1.7967">
        <ele>191.60000610352</ele>
        <time>2011-07-01T09:33:02.000Z</time>
      </trkpt>
      <trkpt lat="48.73742" lon="1.7968">
        <ele>191.60000610352</ele>
        <time>2011-07-01T09:33:09.000Z</time>
      </trkpt>
      <trkpt lat="48.7375" lon="1.7969">
        <ele>191.60000610352</ele>
        <time>2011-07-01T09:33:16.000Z</time>
      </trkpt>
      <trkpt lat="48.73757" lon="1.79698">
        <ele>191.80000305176</ele>
        <time>2011-07-01T09:33:22.000Z</time>
      </trkpt>
      <trkpt lat="48.73764" lon="1.79707">
        <ele>192</ele>
        <time>2011-07-01T09:33:28.000Z</time>
      </trkpt>
      <trkpt lat="48.73765" lon="1.79709">
        <ele>192</ele>
        <time>2011-07-01T09:33:29.000Z</time>
      </trkpt>
      <trkpt lat="48.73771" lon="1.79716">
        <ele>192.19999694824</ele>
        <time>2011-07-01T09:33:34.000Z</time>
      </trkpt>
      <trkpt lat="48.73777" lon="1.79726">
        <ele>192.19999694824</ele>
        <time>2011-07-01T09:33:40.000Z</time>
      </trkpt>
      <trkpt lat="48.73784" lon="1.79737">
        <ele>192.39999389648</ele>
        <time>2011-07-01T09:33:47.000Z</time>
      </trkpt>
      <trkpt lat="48.73792" lon="1.79745">
        <ele>192.39999389648</ele>
        <time>2011-07-01T09:33:54.000Z</time>
      </trkpt>
      <trkpt lat="48.73799" lon="1.79754">
        <ele>192.60000610352</ele>
        <time>2011-07-01T09:34:01.000Z</time>
      </trkpt>
      <trkpt lat="48.73805" lon="1.79763">
        <ele>192.39999389648</ele>
        <time>2011-07-01T09:34:08.000Z</time>
      </trkpt>
      <trkpt lat="48.73811" lon="1.79772">
        <ele>192.39999389648</ele>
        <time>2011-07-01T09:34:14.000Z</time>
      </trkpt>
      <trkpt lat="48.73814" lon="1.79776">
        <ele>192.39999389648</ele>
        <time>2011-07-01T09:34:16.000Z</time>
      </trkpt>
      <trkpt lat="48.73825" lon="1.79789">
        <ele>192.19999694824</ele>
        <time>2011-07-01T09:34:24.000Z</time>
      </trkpt>
      <trkpt lat="48.73833" lon="1.798">
        <ele>192</ele>
        <time>2011-07-01T09:34:31.000Z</time>
      </trkpt>
      <trkpt lat="48.73839" lon="1.7981">
        <ele>191.80000305176</ele>
        <time>2011-07-01T09:34:38.000Z</time>
      </trkpt>
      <trkpt lat="48.73849" lon="1.79822">
        <ele>191.60000610352</ele>
        <time>2011-07-01T09:34:47.000Z</time>
      </trkpt>
      <trkpt lat="48.73855" lon="1.79831">
        <ele>191.60000610352</ele>
        <time>2011-07-01T09:34:53.000Z</time>
      </trkpt>
      <trkpt lat="48.73865" lon="1.79842">
        <ele>191.60000610352</ele>
        <time>2011-07-01T09:35:00.000Z</time>
      </trkpt>
      <trkpt lat="48.73873" lon="1.79851">
        <ele>191.60000610352</ele>
        <time>2011-07-01T09:35:06.000Z</time>
      </trkpt>
      <trkpt lat="48.73881" lon="1.79863">
        <ele>191.60000610352</ele>
        <time>2011-07-01T09:35:14.000Z</time>
      </trkpt>
      <trkpt lat="48.7389" lon="1.79872">
        <ele>191.80000305176</ele>
        <time>2011-07-01T09:35:20.000Z</time>
      </trkpt>
      <trkpt lat="48.739" lon="1.79884">
        <ele>191.80000305176</ele>
        <time>2011-07-01T09:35:28.000Z</time>
      </trkpt>
      <trkpt lat="48.73904" lon="1.79888">
        <ele>192</ele>
        <time>2011-07-01T09:35:31.000Z</time>
      </trkpt>
      <trkpt lat="48.7391" lon="1.79895">
        <ele>192</ele>
        <time>2011-07-01T09:35:39.000Z</time>
      </trkpt>
      <trkpt lat="48.73912" lon="1.79897">
        <ele>192</ele>
        <time>2011-07-01T09:35:41.000Z</time>
      </trkpt>
      <trkpt lat="48.73919" lon="1.79907">
        <ele>192.19999694824</ele>
        <time>2011-07-01T09:35:49.000Z</time>
      </trkpt>
      <trkpt lat="48.73928" lon="1.79919">
        <ele>192.19999694824</ele>
        <time>2011-07-01T09:35:57.000Z</time>
      </trkpt>
      <trkpt lat="48.73935" lon="1.79928">
        <ele>192.39999389648</ele>
        <time>2011-07-01T09:36:03.000Z</time>
      </trkpt>
      <trkpt lat="48.73944" lon="1.7994">
        <ele>192.39999389648</ele>
        <time>2011-07-01T09:36:12.000Z</time>
      </trkpt>
      <trkpt lat="48.73954" lon="1.79954">
        <ele>192.60000610352</ele>
        <time>2011-07-01T09:36:21.000Z</time>
      </trkpt>
      <trkpt lat="48.73962" lon="1.79965">
        <ele>192.60000610352</ele>
        <time>2011-07-01T09:36:29.000Z</time>
      </trkpt>
      <trkpt lat="48.73968" lon="1.79974">
        <ele>192.60000610352</ele>
        <time>2011-07-01T09:36:35.000Z</time>
      </trkpt>
      <trkpt lat="48.73975" lon="1.79982">
        <ele>192.60000610352</ele>
        <time>2011-07-01T09:36:41.000Z</time>
      </trkpt>
      <trkpt lat="48.73982" lon="1.79993">
        <ele>192.60000610352</ele>
        <time>2011-07-01T09:36:48.000Z</time>
      </trkpt>
      <trkpt lat="48.73987" lon="1.79998">
        <ele>192.60000610352</ele>
        <time>2011-07-01T09:36:52.000Z</time>
      </trkpt>
      <trkpt lat="48.7399" lon="1.80007">
        <ele>192.39999389648</ele>
        <time>2011-07-01T09:36:57.000Z</time>
      </trkpt>
      <trkpt lat="48.73997" lon="1.80018">
        <ele>192.19999694824</ele>
        <time>2011-07-01T09:37:04.000Z</time>
      </trkpt>
      <trkpt lat="48.74004" lon="1.80027">
        <ele>192</ele>
        <time>2011-07-01T09:37:10.000Z</time>
      </trkpt>
      <trkpt lat="48.74013" lon="1.8003">
        <ele>192.19999694824</ele>
        <time>2011-07-01T09:37:17.000Z</time>
      </trkpt>
      <trkpt lat="48.74014" lon="1.80031">
        <ele>192.19999694824</ele>
        <time>2011-07-01T09:37:18.000Z</time>
      </trkpt>
      <trkpt lat="48.74019" lon="1.8004">
        <ele>192</ele>
        <time>2011-07-01T09:37:24.000Z</time>
      </trkpt>
      <trkpt lat="48.74027" lon="1.8005">
        <ele>192</ele>
        <time>2011-07-01T09:37:31.000Z</time>
      </trkpt>
      <trkpt lat="48.74033" lon="1.8006">
        <ele>191.80000305176</ele>
        <time>2011-07-01T09:37:37.000Z</time>
      </trkpt>
      <trkpt lat="48.74033" lon="1.80062">
        <ele>191.80000305176</ele>
        <time>2011-07-01T09:37:39.000Z</time>
      </trkpt>
      <trkpt lat="48.74038" lon="1.80063">
        <ele>192</ele>
        <time>2011-07-01T09:37:43.000Z</time>
      </trkpt>
      <trkpt lat="48.74048" lon="1.80065">
        <ele>192.19999694824</ele>
        <time>2011-07-01T09:37:52.000Z</time>
      </trkpt>
      <trkpt lat="48.74054" lon="1.80065">
        <ele>192.39999389648</ele>
        <time>2011-07-01T09:37:57.000Z</time>
      </trkpt>
      <trkpt lat="48.74065" lon="1.80071">
        <ele>192.60000610352</ele>
        <time>2011-07-01T09:38:04.000Z</time>
      </trkpt>
      <trkpt lat="48.74073" lon="1.80082">
        <ele>192.60000610352</ele>
        <time>2011-07-01T09:38:11.000Z</time>
      </trkpt>
      <trkpt lat="48.7408" lon="1.80093">
        <ele>192.60000610352</ele>
        <time>2011-07-01T09:38:18.000Z</time>
      </trkpt>
      <trkpt lat="48.74083" lon="1.80096">
        <ele>192.60000610352</ele>
        <time>2011-07-01T09:38:20.000Z</time>
      </trkpt>
      <trkpt lat="48.74094" lon="1.80109">
        <ele>192.60000610352</ele>
        <time>2011-07-01T09:38:27.000Z</time>
      </trkpt>
      <trkpt lat="48.74104" lon="1.80121">
        <ele>192.60000610352</ele>
        <time>2011-07-01T09:38:34.000Z</time>
      </trkpt>
      <trkpt lat="48.74106" lon="1.80123">
        <ele>192.60000610352</ele>
        <time>2011-07-01T09:38:36.000Z</time>
      </trkpt>
      <trkpt lat="48.74114" lon="1.80134">
        <ele>192.60000610352</ele>
        <time>2011-07-01T09:38:45.000Z</time>
      </trkpt>
      <trkpt lat="48.74114" lon="1.80137">
        <ele>192.60000610352</ele>
        <time>2011-07-01T09:38:47.000Z</time>
      </trkpt>
      <trkpt lat="48.7412" lon="1.80143">
        <ele>192.60000610352</ele>
        <time>2011-07-01T09:38:51.000Z</time>
      </trkpt>
      <trkpt lat="48.74126" lon="1.80148">
        <ele>192.80000305176</ele>
        <time>2011-07-01T09:38:55.000Z</time>
      </trkpt>
      <trkpt lat="48.74132" lon="1.80153">
        <ele>192.80000305176</ele>
        <time>2011-07-01T09:38:59.000Z</time>
      </trkpt>
      <trkpt lat="48.7414" lon="1.80162">
        <ele>193</ele>
        <time>2011-07-01T09:39:05.000Z</time>
      </trkpt>
      <trkpt lat="48.7415" lon="1.80174">
        <ele>193.19999694824</ele>
        <time>2011-07-01T09:39:10.000Z</time>
      </trkpt>
      <trkpt lat="48.74151" lon="1.80175">
        <ele>193.39999389648</ele>
        <time>2011-07-01T09:39:11.000Z</time>
      </trkpt>
      <trkpt lat="48.74158" lon="1.80183">
        <ele>193.60000610352</ele>
        <time>2011-07-01T09:39:17.000Z</time>
      </trkpt>
      <trkpt lat="48.74159" lon="1.80185">
        <ele>193.60000610352</ele>
        <time>2011-07-01T09:39:19.000Z</time>
      </trkpt>
      <trkpt lat="48.74167" lon="1.80196">
        <ele>194</ele>
        <time>2011-07-01T09:39:26.000Z</time>
      </trkpt>
      <trkpt lat="48.74174" lon="1.80205">
        <ele>194</ele>
        <time>2011-07-01T09:39:31.000Z</time>
      </trkpt>
      <trkpt lat="48.74177" lon="1.80208">
        <ele>194</ele>
        <time>2011-07-01T09:39:34.000Z</time>
      </trkpt>
      <trkpt lat="48.74188" lon="1.80215">
        <ele>194</ele>
        <time>2011-07-01T09:39:42.000Z</time>
      </trkpt>
      <trkpt lat="48.74196" lon="1.80221">
        <ele>194</ele>
        <time>2011-07-01T09:39:48.000Z</time>
      </trkpt>
      <trkpt lat="48.74202" lon="1.80224">
        <ele>194</ele>
        <time>2011-07-01T09:39:53.000Z</time>
      </trkpt>
      <trkpt lat="48.74203" lon="1.80226">
        <ele>194</ele>
        <time>2011-07-01T09:39:55.000Z</time>
      </trkpt>
      <trkpt lat="48.74214" lon="1.80234">
        <ele>194</ele>
        <time>2011-07-01T09:40:01.000Z</time>
      </trkpt>
      <trkpt lat="48.74217" lon="1.80236">
        <ele>194</ele>
        <time>2011-07-01T09:40:03.000Z</time>
      </trkpt>
      <trkpt lat="48.74223" lon="1.80244">
        <ele>194</ele>
        <time>2011-07-01T09:40:09.000Z</time>
      </trkpt>
      <trkpt lat="48.74227" lon="1.80249">
        <ele>194</ele>
        <time>2011-07-01T09:40:13.000Z</time>
      </trkpt>
      <trkpt lat="48.74232" lon="1.80256">
        <ele>193.80000305176</ele>
        <time>2011-07-01T09:40:18.000Z</time>
      </trkpt>
      <trkpt lat="48.74242" lon="1.80265">
        <ele>193.60000610352</ele>
        <time>2011-07-01T09:40:24.000Z</time>
      </trkpt>
      <trkpt lat="48.74248" lon="1.80272">
        <ele>193.39999389648</ele>
        <time>2011-07-01T09:40:28.000Z</time>
      </trkpt>
      <trkpt lat="48.74255" lon="1.8028">
        <ele>193.19999694824</ele>
        <time>2011-07-01T09:40:33.000Z</time>
      </trkpt>
      <trkpt lat="48.7426" lon="1.80286">
        <ele>193</ele>
        <time>2011-07-01T09:40:38.000Z</time>
      </trkpt>
      <trkpt lat="48.74266" lon="1.80291">
        <ele>192.80000305176</ele>
        <time>2011-07-01T09:40:42.000Z</time>
      </trkpt>
      <trkpt lat="48.74272" lon="1.80298">
        <ele>192.60000610352</ele>
        <time>2011-07-01T09:40:47.000Z</time>
      </trkpt>
      <trkpt lat="48.74279" lon="1.80305">
        <ele>192.60000610352</ele>
        <time>2011-07-01T09:40:54.000Z</time>
      </trkpt>
      <trkpt lat="48.74281" lon="1.80306">
        <ele>192.60000610352</ele>
        <time>2011-07-01T09:40:55.000Z</time>
      </trkpt>
      <trkpt lat="48.74289" lon="1.80313">
        <ele>192.60000610352</ele>
        <time>2011-07-01T09:41:01.000Z</time>
      </trkpt>
      <trkpt lat="48.74292" lon="1.80316">
        <ele>192.60000610352</ele>
        <time>2011-07-01T09:41:03.000Z</time>
      </trkpt>
      <trkpt lat="48.74296" lon="1.80321">
        <ele>192.60000610352</ele>
        <time>2011-07-01T09:41:06.000Z</time>
      </trkpt>
      <trkpt lat="48.74307" lon="1.8033">
        <ele>192.60000610352</ele>
        <time>2011-07-01T09:41:13.000Z</time>
      </trkpt>
      <trkpt lat="48.74315" lon="1.8034">
        <ele>192.60000610352</ele>
        <time>2011-07-01T09:41:20.000Z</time>
      </trkpt>
      <trkpt lat="48.74315" lon="1.80341">
        <ele>192.60000610352</ele>
        <time>2011-07-01T09:41:21.000Z</time>
      </trkpt>
      <trkpt lat="48.74322" lon="1.80346">
        <ele>192.80000305176</ele>
        <time>2011-07-01T09:41:27.000Z</time>
      </trkpt>
      <trkpt lat="48.74329" lon="1.80349">
        <ele>192.80000305176</ele>
        <time>2011-07-01T09:41:32.000Z</time>
      </trkpt>
      <trkpt lat="48.74334" lon="1.80353">
        <ele>192.80000305176</ele>
        <time>2011-07-01T09:41:36.000Z</time>
      </trkpt>
      <trkpt lat="48.74346" lon="1.80362">
        <ele>192.80000305176</ele>
        <time>2011-07-01T09:41:44.000Z</time>
      </trkpt>
      <trkpt lat="48.74358" lon="1.8037">
        <ele>192.80000305176</ele>
        <time>2011-07-01T09:41:51.000Z</time>
      </trkpt>
      <trkpt lat="48.74363" lon="1.80375">
        <ele>192.80000305176</ele>
        <time>2011-07-01T09:41:56.000Z</time>
      </trkpt>
      <trkpt lat="48.74367" lon="1.80377">
        <ele>192.80000305176</ele>
        <time>2011-07-01T09:41:58.000Z</time>
      </trkpt>
      <trkpt lat="48.74376" lon="1.80382">
        <ele>192.60000610352</ele>
        <time>2011-07-01T09:42:04.000Z</time>
      </trkpt>
      <trkpt lat="48.74381" lon="1.80388">
        <ele>192.80000305176</ele>
        <time>2011-07-01T09:42:08.000Z</time>
      </trkpt>
      <trkpt lat="48.74383" lon="1.80391">
        <ele>192.80000305176</ele>
        <time>2011-07-01T09:42:10.000Z</time>
      </trkpt>
      <trkpt lat="48.74384" lon="1.80399">
        <ele>192.80000305176</ele>
        <time>2011-07-01T09:42:14.000Z</time>
      </trkpt>
      <trkpt lat="48.74389" lon="1.80405">
        <ele>192.80000305176</ele>
        <time>2011-07-01T09:42:19.000Z</time>
      </trkpt>
      <trkpt lat="48.74395" lon="1.80419">
        <ele>192.80000305176</ele>
        <time>2011-07-01T09:42:23.000Z</time>
      </trkpt>
      <trkpt lat="48.744" lon="1.80428">
        <ele>192.80000305176</ele>
        <time>2011-07-01T09:42:28.000Z</time>
      </trkpt>
      <trkpt lat="48.74405" lon="1.80438">
        <ele>192.80000305176</ele>
        <time>2011-07-01T09:42:32.000Z</time>
      </trkpt>
      <trkpt lat="48.74405" lon="1.80445">
        <ele>192.80000305176</ele>
        <time>2011-07-01T09:42:36.000Z</time>
      </trkpt>
      <trkpt lat="48.74411" lon="1.80455">
        <ele>192.80000305176</ele>
        <time>2011-07-01T09:42:42.000Z</time>
      </trkpt>
      <trkpt lat="48.74414" lon="1.80459">
        <ele>192.80000305176</ele>
        <time>2011-07-01T09:42:44.000Z</time>
      </trkpt>
      <trkpt lat="48.74419" lon="1.80463">
        <ele>193</ele>
        <time>2011-07-01T09:42:47.000Z</time>
      </trkpt>
      <trkpt lat="48.74419" lon="1.80465">
        <ele>193</ele>
        <time>2011-07-01T09:42:49.000Z</time>
      </trkpt>
      <trkpt lat="48.74421" lon="1.80467">
        <ele>193</ele>
        <time>2011-07-01T09:42:51.000Z</time>
      </trkpt>
      <trkpt lat="48.74428" lon="1.80474">
        <ele>193</ele>
        <time>2011-07-01T09:42:57.000Z</time>
      </trkpt>
      <trkpt lat="48.74432" lon="1.80475">
        <ele>193</ele>
        <time>2011-07-01T09:42:59.000Z</time>
      </trkpt>
      <trkpt lat="48.74439" lon="1.80485">
        <ele>193.19999694824</ele>
        <time>2011-07-01T09:43:05.000Z</time>
      </trkpt>
      <trkpt lat="48.74445" lon="1.80501">
        <ele>193.19999694824</ele>
        <time>2011-07-01T09:43:12.000Z</time>
      </trkpt>
      <trkpt lat="48.74448" lon="1.80514">
        <ele>193</ele>
        <time>2011-07-01T09:43:18.000Z</time>
      </trkpt>
      <trkpt lat="48.74453" lon="1.80524">
        <ele>192.80000305176</ele>
        <time>2011-07-01T09:43:23.000Z</time>
      </trkpt>
      <trkpt lat="48.74456" lon="1.80534">
        <ele>192.80000305176</ele>
        <time>2011-07-01T09:43:28.000Z</time>
      </trkpt>
      <trkpt lat="48.74462" lon="1.80549">
        <ele>192.60000610352</ele>
        <time>2011-07-01T09:43:35.000Z</time>
      </trkpt>
      <trkpt lat="48.74469" lon="1.80563">
        <ele>192.60000610352</ele>
        <time>2011-07-01T09:43:41.000Z</time>
      </trkpt>
      <trkpt lat="48.74473" lon="1.8057">
        <ele>192.39999389648</ele>
        <time>2011-07-01T09:43:44.000Z</time>
      </trkpt>
      <trkpt lat="48.74475" lon="1.80573">
        <ele>192.39999389648</ele>
        <time>2011-07-01T09:43:47.000Z</time>
      </trkpt>
      <trkpt lat="48.74476" lon="1.80576">
        <ele>192.39999389648</ele>
        <time>2011-07-01T09:43:49.000Z</time>
      </trkpt>
      <trkpt lat="48.74479" lon="1.8058">
        <ele>192.39999389648</ele>
        <time>2011-07-01T09:43:53.000Z</time>
      </trkpt>
      <trkpt lat="48.74485" lon="1.80588">
        <ele>192.39999389648</ele>
        <time>2011-07-01T09:43:58.000Z</time>
      </trkpt>
      <trkpt lat="48.74493" lon="1.806">
        <ele>192.60000610352</ele>
        <time>2011-07-01T09:44:06.000Z</time>
      </trkpt>
      <trkpt lat="48.74494" lon="1.80611">
        <ele>192.39999389648</ele>
        <time>2011-07-01T09:44:12.000Z</time>
      </trkpt>
      <trkpt lat="48.74493" lon="1.80616">
        <ele>192.39999389648</ele>
        <time>2011-07-01T09:44:14.000Z</time>
      </trkpt>
      <trkpt lat="48.74492" lon="1.80619">
        <ele>192.19999694824</ele>
        <time>2011-07-01T09:44:16.000Z</time>
      </trkpt>
      <trkpt lat="48.74495" lon="1.80632">
        <ele>192.19999694824</ele>
        <time>2011-07-01T09:44:23.000Z</time>
      </trkpt>
      <trkpt lat="48.74497" lon="1.80653">
        <ele>192</ele>
        <time>2011-07-01T09:44:33.000Z</time>
      </trkpt>
      <trkpt lat="48.74497" lon="1.80655">
        <ele>192</ele>
        <time>2011-07-01T09:44:35.000Z</time>
      </trkpt>
      <trkpt lat="48.74497" lon="1.80655">
        <ele>192</ele>
        <time>2011-07-01T09:44:38.000Z</time>
      </trkpt>
      <trkpt lat="48.74521" lon="1.80693">
        <ele>191.39999389648</ele>
        <time>2011-07-01T09:51:06.000Z</time>
      </trkpt>
      <trkpt lat="48.74526" lon="1.807">
        <ele>191.19999694824</ele>
        <time>2011-07-01T09:51:12.000Z</time>
      </trkpt>
      <trkpt lat="48.74532" lon="1.80705">
        <ele>191.19999694824</ele>
        <time>2011-07-01T09:51:18.000Z</time>
      </trkpt>
      <trkpt lat="48.74538" lon="1.8071">
        <ele>191</ele>
        <time>2011-07-01T09:51:24.000Z</time>
      </trkpt>
      <trkpt lat="48.74544" lon="1.80724">
        <ele>191</ele>
        <time>2011-07-01T09:51:32.000Z</time>
      </trkpt>
      <trkpt lat="48.74548" lon="1.80729">
        <ele>191</ele>
        <time>2011-07-01T09:51:35.000Z</time>
      </trkpt>
      <trkpt lat="48.74556" lon="1.80739">
        <ele>191</ele>
        <time>2011-07-01T09:51:43.000Z</time>
      </trkpt>
      <trkpt lat="48.74565" lon="1.80748">
        <ele>191</ele>
        <time>2011-07-01T09:51:51.000Z</time>
      </trkpt>
      <trkpt lat="48.74568" lon="1.80752">
        <ele>191.19999694824</ele>
        <time>2011-07-01T09:51:54.000Z</time>
      </trkpt>
      <trkpt lat="48.74575" lon="1.80762">
        <ele>191.39999389648</ele>
        <time>2011-07-01T09:52:02.000Z</time>
      </trkpt>
      <trkpt lat="48.74582" lon="1.80773">
        <ele>191.80000305176</ele>
        <time>2011-07-01T09:52:07.000Z</time>
      </trkpt>
      <trkpt lat="48.74595" lon="1.80792">
        <ele>191.80000305176</ele>
        <time>2011-07-01T09:52:14.000Z</time>
      </trkpt>
      <trkpt lat="48.74604" lon="1.80804">
        <ele>191.60000610352</ele>
        <time>2011-07-01T09:52:20.000Z</time>
      </trkpt>
      <trkpt lat="48.74609" lon="1.80818">
        <ele>191.60000610352</ele>
        <time>2011-07-01T09:52:26.000Z</time>
      </trkpt>
      <trkpt lat="48.74615" lon="1.80828">
        <ele>191.39999389648</ele>
        <time>2011-07-01T09:52:33.000Z</time>
      </trkpt>
      <trkpt lat="48.74624" lon="1.80838">
        <ele>191</ele>
        <time>2011-07-01T09:52:42.000Z</time>
      </trkpt>
      <trkpt lat="48.74631" lon="1.8085">
        <ele>190.39999389648</ele>
        <time>2011-07-01T09:52:50.000Z</time>
      </trkpt>
      <trkpt lat="48.74641" lon="1.80863">
        <ele>189.80000305176</ele>
        <time>2011-07-01T09:52:58.000Z</time>
      </trkpt>
      <trkpt lat="48.74647" lon="1.80873">
        <ele>189.39999389648</ele>
        <time>2011-07-01T09:53:04.000Z</time>
      </trkpt>
      <trkpt lat="48.74655" lon="1.80882">
        <ele>188.80000305176</ele>
        <time>2011-07-01T09:53:10.000Z</time>
      </trkpt>
      <trkpt lat="48.74662" lon="1.80893">
        <ele>188.19999694824</ele>
        <time>2011-07-01T09:53:17.000Z</time>
      </trkpt>
      <trkpt lat="48.74667" lon="1.80903">
        <ele>187.80000305176</ele>
        <time>2011-07-01T09:53:23.000Z</time>
      </trkpt>
      <trkpt lat="48.74673" lon="1.80917">
        <ele>187.39999389648</ele>
        <time>2011-07-01T09:53:31.000Z</time>
      </trkpt>
      <trkpt lat="48.74676" lon="1.80927">
        <ele>186.60000610352</ele>
        <time>2011-07-01T09:53:37.000Z</time>
      </trkpt>
      <trkpt lat="48.7468" lon="1.80937">
        <ele>186.19999694824</ele>
        <time>2011-07-01T09:53:44.000Z</time>
      </trkpt>
      <trkpt lat="48.74689" lon="1.80952">
        <ele>185</ele>
        <time>2011-07-01T09:53:53.000Z</time>
      </trkpt>
      <trkpt lat="48.74698" lon="1.80962">
        <ele>184.19999694824</ele>
        <time>2011-07-01T09:53:59.000Z</time>
      </trkpt>
      <trkpt lat="48.74703" lon="1.80974">
        <ele>183.80000305176</ele>
        <time>2011-07-01T09:54:05.000Z</time>
      </trkpt>
      <trkpt lat="48.74704" lon="1.80978">
        <ele>183.80000305176</ele>
        <time>2011-07-01T09:54:07.000Z</time>
      </trkpt>
      <trkpt lat="48.74707" lon="1.80984">
        <ele>183.60000610352</ele>
        <time>2011-07-01T09:54:10.000Z</time>
      </trkpt>
      <trkpt lat="48.7471" lon="1.80988">
        <ele>183.39999389648</ele>
        <time>2011-07-01T09:54:13.000Z</time>
      </trkpt>
      <trkpt lat="48.74718" lon="1.80999">
        <ele>183</ele>
        <time>2011-07-01T09:54:20.000Z</time>
      </trkpt>
      <trkpt lat="48.74721" lon="1.81003">
        <ele>183</ele>
        <time>2011-07-01T09:54:23.000Z</time>
      </trkpt>
      <trkpt lat="48.74727" lon="1.81013">
        <ele>183.19999694824</ele>
        <time>2011-07-01T09:54:29.000Z</time>
      </trkpt>
      <trkpt lat="48.74728" lon="1.81017">
        <ele>183.39999389648</ele>
        <time>2011-07-01T09:54:31.000Z</time>
      </trkpt>
      <trkpt lat="48.74733" lon="1.81027">
        <ele>183.60000610352</ele>
        <time>2011-07-01T09:54:37.000Z</time>
      </trkpt>
      <trkpt lat="48.74736" lon="1.81032">
        <ele>183.80000305176</ele>
        <time>2011-07-01T09:54:40.000Z</time>
      </trkpt>
      <trkpt lat="48.74742" lon="1.81042">
        <ele>184.19999694824</ele>
        <time>2011-07-01T09:54:46.000Z</time>
      </trkpt>
      <trkpt lat="48.74744" lon="1.81047">
        <ele>184.19999694824</ele>
        <time>2011-07-01T09:54:50.000Z</time>
      </trkpt>
      <trkpt lat="48.74746" lon="1.8105">
        <ele>184.39999389648</ele>
        <time>2011-07-01T09:54:52.000Z</time>
      </trkpt>
      <trkpt lat="48.74753" lon="1.81061">
        <ele>184.60000610352</ele>
        <time>2011-07-01T09:54:58.000Z</time>
      </trkpt>
      <trkpt lat="48.74758" lon="1.81072">
        <ele>184.60000610352</ele>
        <time>2011-07-01T09:55:04.000Z</time>
      </trkpt>
      <trkpt lat="48.74764" lon="1.8108">
        <ele>184.60000610352</ele>
        <time>2011-07-01T09:55:09.000Z</time>
      </trkpt>
      <trkpt lat="48.74771" lon="1.81086">
        <ele>184.19999694824</ele>
        <time>2011-07-01T09:55:14.000Z</time>
      </trkpt>
      <trkpt lat="48.7478" lon="1.81093">
        <ele>183.80000305176</ele>
        <time>2011-07-01T09:55:19.000Z</time>
      </trkpt>
      <trkpt lat="48.74785" lon="1.81098">
        <ele>183.39999389648</ele>
        <time>2011-07-01T09:55:23.000Z</time>
      </trkpt>
      <trkpt lat="48.74788" lon="1.81103">
        <ele>183.39999389648</ele>
        <time>2011-07-01T09:55:26.000Z</time>
      </trkpt>
      <trkpt lat="48.74793" lon="1.8111">
        <ele>183</ele>
        <time>2011-07-01T09:55:31.000Z</time>
      </trkpt>
      <trkpt lat="48.74798" lon="1.81117">
        <ele>182.80000305176</ele>
        <time>2011-07-01T09:55:36.000Z</time>
      </trkpt>
      <trkpt lat="48.748" lon="1.81119">
        <ele>182.80000305176</ele>
        <time>2011-07-01T09:55:38.000Z</time>
      </trkpt>
      <trkpt lat="48.74809" lon="1.81128">
        <ele>182.19999694824</ele>
        <time>2011-07-01T09:55:45.000Z</time>
      </trkpt>
      <trkpt lat="48.74813" lon="1.81131">
        <ele>181.80000305176</ele>
        <time>2011-07-01T09:55:47.000Z</time>
      </trkpt>
      <trkpt lat="48.74817" lon="1.81137">
        <ele>181.60000610352</ele>
        <time>2011-07-01T09:55:51.000Z</time>
      </trkpt>
      <trkpt lat="48.74826" lon="1.81147">
        <ele>181.19999694824</ele>
        <time>2011-07-01T09:55:58.000Z</time>
      </trkpt>
      <trkpt lat="48.74834" lon="1.81159">
        <ele>180.60000610352</ele>
        <time>2011-07-01T09:56:06.000Z</time>
      </trkpt>
      <trkpt lat="48.74843" lon="1.81166">
        <ele>180.60000610352</ele>
        <time>2011-07-01T09:56:12.000Z</time>
      </trkpt>
      <trkpt lat="48.7485" lon="1.81175">
        <ele>180.39999389648</ele>
        <time>2011-07-01T09:56:20.000Z</time>
      </trkpt>
      <trkpt lat="48.74852" lon="1.8118">
        <ele>180.60000610352</ele>
        <time>2011-07-01T09:56:24.000Z</time>
      </trkpt>
      <trkpt lat="48.7486" lon="1.81188">
        <ele>180.39999389648</ele>
        <time>2011-07-01T09:56:31.000Z</time>
      </trkpt>
      <trkpt lat="48.74872" lon="1.81198">
        <ele>180</ele>
        <time>2011-07-01T09:56:39.000Z</time>
      </trkpt>
      <trkpt lat="48.74879" lon="1.81203">
        <ele>179.80000305176</ele>
        <time>2011-07-01T09:56:42.000Z</time>
      </trkpt>
      <trkpt lat="48.74882" lon="1.81208">
        <ele>179.80000305176</ele>
        <time>2011-07-01T09:56:45.000Z</time>
      </trkpt>
      <trkpt lat="48.74888" lon="1.81217">
        <ele>179.80000305176</ele>
        <time>2011-07-01T09:56:52.000Z</time>
      </trkpt>
      <trkpt lat="48.74889" lon="1.81218">
        <ele>179.80000305176</ele>
        <time>2011-07-01T09:56:53.000Z</time>
      </trkpt>
      <trkpt lat="48.74898" lon="1.81224">
        <ele>179.39999389648</ele>
        <time>2011-07-01T09:56:59.000Z</time>
      </trkpt>
      <trkpt lat="48.74905" lon="1.81229">
        <ele>179.19999694824</ele>
        <time>2011-07-01T09:57:04.000Z</time>
      </trkpt>
      <trkpt lat="48.74908" lon="1.81233">
        <ele>179</ele>
        <time>2011-07-01T09:57:08.000Z</time>
      </trkpt>
      <trkpt lat="48.74912" lon="1.81236">
        <ele>179</ele>
        <time>2011-07-01T09:57:12.000Z</time>
      </trkpt>
      <trkpt lat="48.74916" lon="1.8124">
        <ele>178.80000305176</ele>
        <time>2011-07-01T09:57:17.000Z</time>
      </trkpt>
      <trkpt lat="48.74921" lon="1.81244">
        <ele>178.80000305176</ele>
        <time>2011-07-01T09:57:23.000Z</time>
      </trkpt>
      <trkpt lat="48.74929" lon="1.81246">
        <ele>178.80000305176</ele>
        <time>2011-07-01T09:57:28.000Z</time>
      </trkpt>
      <trkpt lat="48.74937" lon="1.81251">
        <ele>178.60000610352</ele>
        <time>2011-07-01T09:57:33.000Z</time>
      </trkpt>
      <trkpt lat="48.74943" lon="1.81257">
        <ele>178.60000610352</ele>
        <time>2011-07-01T09:57:40.000Z</time>
      </trkpt>
      <trkpt lat="48.74949" lon="1.81261">
        <ele>178.60000610352</ele>
        <time>2011-07-01T09:57:46.000Z</time>
      </trkpt>
      <trkpt lat="48.74956" lon="1.81267">
        <ele>178.39999389648</ele>
        <time>2011-07-01T09:57:53.000Z</time>
      </trkpt>
      <trkpt lat="48.74966" lon="1.81272">
        <ele>178.19999694824</ele>
        <time>2011-07-01T09:57:59.000Z</time>
      </trkpt>
      <trkpt lat="48.74979" lon="1.81277">
        <ele>178</ele>
        <time>2011-07-01T09:58:07.000Z</time>
      </trkpt>
      <trkpt lat="48.74984" lon="1.81281">
        <ele>177.80000305176</ele>
        <time>2011-07-01T09:58:11.000Z</time>
      </trkpt>
      <trkpt lat="48.74997" lon="1.81288">
        <ele>177.60000610352</ele>
        <time>2011-07-01T09:58:18.000Z</time>
      </trkpt>
      <trkpt lat="48.75004" lon="1.81291">
        <ele>177.19999694824</ele>
        <time>2011-07-01T09:58:23.000Z</time>
      </trkpt>
      <trkpt lat="48.75008" lon="1.81296">
        <ele>177</ele>
        <time>2011-07-01T09:58:29.000Z</time>
      </trkpt>
      <trkpt lat="48.75011" lon="1.81297">
        <ele>177</ele>
        <time>2011-07-01T09:58:31.000Z</time>
      </trkpt>
      <trkpt lat="48.75022" lon="1.81307">
        <ele>176.60000610352</ele>
        <time>2011-07-01T09:58:38.000Z</time>
      </trkpt>
      <trkpt lat="48.75031" lon="1.81312">
        <ele>176.19999694824</ele>
        <time>2011-07-01T09:58:44.000Z</time>
      </trkpt>
      <trkpt lat="48.75037" lon="1.81321">
        <ele>175.80000305176</ele>
        <time>2011-07-01T09:58:50.000Z</time>
      </trkpt>
      <trkpt lat="48.75046" lon="1.81333">
        <ele>175.19999694824</ele>
        <time>2011-07-01T09:58:58.000Z</time>
      </trkpt>
      <trkpt lat="48.75057" lon="1.81339">
        <ele>174.39999389648</ele>
        <time>2011-07-01T09:59:05.000Z</time>
      </trkpt>
      <trkpt lat="48.7506" lon="1.81345">
        <ele>173.80000305176</ele>
        <time>2011-07-01T09:59:10.000Z</time>
      </trkpt>
      <trkpt lat="48.75071" lon="1.81354">
        <ele>172.60000610352</ele>
        <time>2011-07-01T09:59:19.000Z</time>
      </trkpt>
      <trkpt lat="48.75076" lon="1.81361">
        <ele>171.80000305176</ele>
        <time>2011-07-01T09:59:25.000Z</time>
      </trkpt>
      <trkpt lat="48.75081" lon="1.81365">
        <ele>171.39999389648</ele>
        <time>2011-07-01T09:59:29.000Z</time>
      </trkpt>
      <trkpt lat="48.75089" lon="1.81368">
        <ele>170.39999389648</ele>
        <time>2011-07-01T09:59:35.000Z</time>
      </trkpt>
      <trkpt lat="48.75095" lon="1.8137">
        <ele>169.80000305176</ele>
        <time>2011-07-01T09:59:39.000Z</time>
      </trkpt>
      <trkpt lat="48.75098" lon="1.81371">
        <ele>169.39999389648</ele>
        <time>2011-07-01T09:59:41.000Z</time>
      </trkpt>
      <trkpt lat="48.7511" lon="1.81376">
        <ele>168</ele>
        <time>2011-07-01T09:59:48.000Z</time>
      </trkpt>
      <trkpt lat="48.75117" lon="1.81376">
        <ele>167.39999389648</ele>
        <time>2011-07-01T09:59:54.000Z</time>
      </trkpt>
      <trkpt lat="48.75118" lon="1.81376">
        <ele>167.19999694824</ele>
        <time>2011-07-01T09:59:55.000Z</time>
      </trkpt>
      <trkpt lat="48.75123" lon="1.8138">
        <ele>166.39999389648</ele>
        <time>2011-07-01T09:59:59.000Z</time>
      </trkpt>
      <trkpt lat="48.7513" lon="1.81388">
        <ele>165.39999389648</ele>
        <time>2011-07-01T10:00:04.000Z</time>
      </trkpt>
      <trkpt lat="48.7514" lon="1.81391">
        <ele>164.39999389648</ele>
        <time>2011-07-01T10:00:10.000Z</time>
      </trkpt>
      <trkpt lat="48.75146" lon="1.81401">
        <ele>163.19999694824</ele>
        <time>2011-07-01T10:00:16.000Z</time>
      </trkpt>
      <trkpt lat="48.75148" lon="1.81405">
        <ele>162.80000305176</ele>
        <time>2011-07-01T10:00:18.000Z</time>
      </trkpt>
      <trkpt lat="48.75156" lon="1.81411">
        <ele>162</ele>
        <time>2011-07-01T10:00:23.000Z</time>
      </trkpt>
      <trkpt lat="48.75162" lon="1.8142">
        <ele>161</ele>
        <time>2011-07-01T10:00:28.000Z</time>
      </trkpt>
      <trkpt lat="48.75172" lon="1.81427">
        <ele>159.39999389648</ele>
        <time>2011-07-01T10:00:35.000Z</time>
      </trkpt>
      <trkpt lat="48.75174" lon="1.81429">
        <ele>159</ele>
        <time>2011-07-01T10:00:36.000Z</time>
      </trkpt>
      <trkpt lat="48.75179" lon="1.81443">
        <ele>157.60000610352</ele>
        <time>2011-07-01T10:00:43.000Z</time>
      </trkpt>
      <trkpt lat="48.75186" lon="1.81455">
        <ele>156</ele>
        <time>2011-07-01T10:00:49.000Z</time>
      </trkpt>
      <trkpt lat="48.75191" lon="1.81461">
        <ele>155.19999694824</ele>
        <time>2011-07-01T10:00:52.000Z</time>
      </trkpt>
      <trkpt lat="48.75197" lon="1.81476">
        <ele>153.60000610352</ele>
        <time>2011-07-01T10:01:00.000Z</time>
      </trkpt>
      <trkpt lat="48.75202" lon="1.81483">
        <ele>152.80000305176</ele>
        <time>2011-07-01T10:01:04.000Z</time>
      </trkpt>
      <trkpt lat="48.75209" lon="1.81492">
        <ele>151.80000305176</ele>
        <time>2011-07-01T10:01:09.000Z</time>
      </trkpt>
      <trkpt lat="48.75217" lon="1.815">
        <ele>150.80000305176</ele>
        <time>2011-07-01T10:01:15.000Z</time>
      </trkpt>
      <trkpt lat="48.75219" lon="1.81502">
        <ele>150.60000610352</ele>
        <time>2011-07-01T10:01:17.000Z</time>
      </trkpt>
      <trkpt lat="48.75222" lon="1.81505">
        <ele>150.39999389648</ele>
        <time>2011-07-01T10:01:19.000Z</time>
      </trkpt>
      <trkpt lat="48.75225" lon="1.81518">
        <ele>149.60000610352</ele>
        <time>2011-07-01T10:01:26.000Z</time>
      </trkpt>
      <trkpt lat="48.75225" lon="1.81521">
        <ele>149.39999389648</ele>
        <time>2011-07-01T10:01:28.000Z</time>
      </trkpt>
      <trkpt lat="48.75234" lon="1.81533">
        <ele>148.60000610352</ele>
        <time>2011-07-01T10:01:35.000Z</time>
      </trkpt>
      <trkpt lat="48.75241" lon="1.81543">
        <ele>147.80000305176</ele>
        <time>2011-07-01T10:01:41.000Z</time>
      </trkpt>
      <trkpt lat="48.75251" lon="1.81552">
        <ele>147</ele>
        <time>2011-07-01T10:01:49.000Z</time>
      </trkpt>
      <trkpt lat="48.75258" lon="1.81561">
        <ele>146.39999389648</ele>
        <time>2011-07-01T10:01:54.000Z</time>
      </trkpt>
      <trkpt lat="48.75269" lon="1.81571">
        <ele>145.60000610352</ele>
        <time>2011-07-01T10:02:00.000Z</time>
      </trkpt>
      <trkpt lat="48.75273" lon="1.81577">
        <ele>145.19999694824</ele>
        <time>2011-07-01T10:02:03.000Z</time>
      </trkpt>
      <trkpt lat="48.75279" lon="1.81584">
        <ele>144.80000305176</ele>
        <time>2011-07-01T10:02:08.000Z</time>
      </trkpt>
      <trkpt lat="48.7529" lon="1.81595">
        <ele>144</ele>
        <time>2011-07-01T10:02:15.000Z</time>
      </trkpt>
      <trkpt lat="48.75296" lon="1.81607">
        <ele>143.19999694824</ele>
        <time>2011-07-01T10:02:21.000Z</time>
      </trkpt>
      <trkpt lat="48.75299" lon="1.81614">
        <ele>142.80000305176</ele>
        <time>2011-07-01T10:02:24.000Z</time>
      </trkpt>
      <trkpt lat="48.753" lon="1.81628">
        <ele>142.19999694824</ele>
        <time>2011-07-01T10:02:31.000Z</time>
      </trkpt>
      <trkpt lat="48.75305" lon="1.81635">
        <ele>141.80000305176</ele>
        <time>2011-07-01T10:02:35.000Z</time>
      </trkpt>
      <trkpt lat="48.75311" lon="1.81644">
        <ele>141.39999389648</ele>
        <time>2011-07-01T10:02:41.000Z</time>
      </trkpt>
      <trkpt lat="48.75313" lon="1.81647">
        <ele>141.19999694824</ele>
        <time>2011-07-01T10:02:44.000Z</time>
      </trkpt>
      <trkpt lat="48.75318" lon="1.81651">
        <ele>140.80000305176</ele>
        <time>2011-07-01T10:02:49.000Z</time>
      </trkpt>
      <trkpt lat="48.75327" lon="1.8166">
        <ele>140.39999389648</ele>
        <time>2011-07-01T10:02:55.000Z</time>
      </trkpt>
      <trkpt lat="48.75332" lon="1.81668">
        <ele>139.80000305176</ele>
        <time>2011-07-01T10:03:01.000Z</time>
      </trkpt>
      <trkpt lat="48.75332" lon="1.8167">
        <ele>139.80000305176</ele>
        <time>2011-07-01T10:03:02.000Z</time>
      </trkpt>
      <trkpt lat="48.75335" lon="1.81683">
        <ele>138.60000610352</ele>
        <time>2011-07-01T10:03:08.000Z</time>
      </trkpt>
      <trkpt lat="48.75337" lon="1.81694">
        <ele>138</ele>
        <time>2011-07-01T10:03:13.000Z</time>
      </trkpt>
      <trkpt lat="48.75345" lon="1.81699">
        <ele>137.60000610352</ele>
        <time>2011-07-01T10:03:17.000Z</time>
      </trkpt>
      <trkpt lat="48.75349" lon="1.81705">
        <ele>137.39999389648</ele>
        <time>2011-07-01T10:03:21.000Z</time>
      </trkpt>
      <trkpt lat="48.75353" lon="1.81721">
        <ele>136.39999389648</ele>
        <time>2011-07-01T10:03:28.000Z</time>
      </trkpt>
      <trkpt lat="48.75357" lon="1.81731">
        <ele>135.80000305176</ele>
        <time>2011-07-01T10:03:34.000Z</time>
      </trkpt>
      <trkpt lat="48.75358" lon="1.81734">
        <ele>135.80000305176</ele>
        <time>2011-07-01T10:03:36.000Z</time>
      </trkpt>
      <trkpt lat="48.75365" lon="1.81737">
        <ele>135.80000305176</ele>
        <time>2011-07-01T10:03:43.000Z</time>
      </trkpt>
      <trkpt lat="48.75372" lon="1.81746">
        <ele>135.39999389648</ele>
        <time>2011-07-01T10:03:49.000Z</time>
      </trkpt>
      <trkpt lat="48.75375" lon="1.8175">
        <ele>135.39999389648</ele>
        <time>2011-07-01T10:03:51.000Z</time>
      </trkpt>
      <trkpt lat="48.75381" lon="1.81755">
        <ele>135.39999389648</ele>
        <time>2011-07-01T10:03:56.000Z</time>
      </trkpt>
      <trkpt lat="48.75387" lon="1.8176">
        <ele>135.19999694824</ele>
        <time>2011-07-01T10:04:00.000Z</time>
      </trkpt>
      <trkpt lat="48.75389" lon="1.81763">
        <ele>135.19999694824</ele>
        <time>2011-07-01T10:04:02.000Z</time>
      </trkpt>
      <trkpt lat="48.75396" lon="1.81772">
        <ele>134.80000305176</ele>
        <time>2011-07-01T10:04:08.000Z</time>
      </trkpt>
      <trkpt lat="48.75398" lon="1.81776">
        <ele>134.60000610352</ele>
        <time>2011-07-01T10:04:11.000Z</time>
      </trkpt>
      <trkpt lat="48.75408" lon="1.81783">
        <ele>134.39999389648</ele>
        <time>2011-07-01T10:04:17.000Z</time>
      </trkpt>
      <trkpt lat="48.75415" lon="1.81793">
        <ele>133.80000305176</ele>
        <time>2011-07-01T10:04:23.000Z</time>
      </trkpt>
      <trkpt lat="48.75416" lon="1.81795">
        <ele>133.60000610352</ele>
        <time>2011-07-01T10:04:24.000Z</time>
      </trkpt>
      <trkpt lat="48.75418" lon="1.81804">
        <ele>133.19999694824</ele>
        <time>2011-07-01T10:04:29.000Z</time>
      </trkpt>
      <trkpt lat="48.75424" lon="1.8181">
        <ele>134.19999694824</ele>
        <time>2011-07-01T10:04:37.000Z</time>
      </trkpt>
      <trkpt lat="48.75424" lon="1.8181">
        <ele>134.19999694824</ele>
        <time>2011-07-01T10:04:38.000Z</time>
      </trkpt>
      <trkpt lat="48.75424" lon="1.81801">
        <ele>135</ele>
        <time>2011-07-01T10:04:44.000Z</time>
      </trkpt>
      <trkpt lat="48.75424" lon="1.81786">
        <ele>136.19999694824</ele>
        <time>2011-07-01T10:04:51.000Z</time>
      </trkpt>
      <trkpt lat="48.75424" lon="1.81777">
        <ele>136.80000305176</ele>
        <time>2011-07-01T10:04:56.000Z</time>
      </trkpt>
      <trkpt lat="48.75424" lon="1.81766">
        <ele>137.60000610352</ele>
        <time>2011-07-01T10:05:01.000Z</time>
      </trkpt>
      <trkpt lat="48.75424" lon="1.81758">
        <ele>138.19999694824</ele>
        <time>2011-07-01T10:05:05.000Z</time>
      </trkpt>
      <trkpt lat="48.75424" lon="1.81743">
        <ele>139</ele>
        <time>2011-07-01T10:05:13.000Z</time>
      </trkpt>
      <trkpt lat="48.75423" lon="1.81732">
        <ele>138.80000305176</ele>
        <time>2011-07-01T10:05:18.000Z</time>
      </trkpt>
      <trkpt lat="48.75422" lon="1.81718">
        <ele>139.19999694824</ele>
        <time>2011-07-01T10:05:25.000Z</time>
      </trkpt>
      <trkpt lat="48.75423" lon="1.81717">
        <ele>139.39999389648</ele>
        <time>2011-07-01T10:05:26.000Z</time>
      </trkpt>
      <trkpt lat="48.75426" lon="1.8171">
        <ele>140.19999694824</ele>
        <time>2011-07-01T10:05:30.000Z</time>
      </trkpt>
      <trkpt lat="48.75418" lon="1.81701">
        <ele>138.60000610352</ele>
        <time>2011-07-01T10:05:35.000Z</time>
      </trkpt>
      <trkpt lat="48.75415" lon="1.81686">
        <ele>138.39999389648</ele>
        <time>2011-07-01T10:05:43.000Z</time>
      </trkpt>
      <trkpt lat="48.75417" lon="1.81671">
        <ele>138.80000305176</ele>
        <time>2011-07-01T10:05:49.000Z</time>
      </trkpt>
      <trkpt lat="48.75417" lon="1.81662">
        <ele>139</ele>
        <time>2011-07-01T10:05:53.000Z</time>
      </trkpt>
      <trkpt lat="48.75417" lon="1.81642">
        <ele>139.39999389648</ele>
        <time>2011-07-01T10:06:01.000Z</time>
      </trkpt>
      <trkpt lat="48.75417" lon="1.8164">
        <ele>139.39999389648</ele>
        <time>2011-07-01T10:06:02.000Z</time>
      </trkpt>
      <trkpt lat="48.75419" lon="1.81627">
        <ele>140</ele>
        <time>2011-07-01T10:06:08.000Z</time>
      </trkpt>
      <trkpt lat="48.75421" lon="1.81607">
        <ele>140.60000610352</ele>
        <time>2011-07-01T10:06:16.000Z</time>
      </trkpt>
      <trkpt lat="48.75421" lon="1.81606">
        <ele>140.60000610352</ele>
        <time>2011-07-01T10:06:17.000Z</time>
      </trkpt>
      <trkpt lat="48.75424" lon="1.81594">
        <ele>141.39999389648</ele>
        <time>2011-07-01T10:06:23.000Z</time>
      </trkpt>
      <trkpt lat="48.75427" lon="1.81589">
        <ele>142</ele>
        <time>2011-07-01T10:06:26.000Z</time>
      </trkpt>
      <trkpt lat="48.75428" lon="1.81589">
        <ele>142.19999694824</ele>
        <time>2011-07-01T10:06:29.000Z</time>
      </trkpt>
      <trkpt lat="48.75431" lon="1.8158">
        <ele>142.80000305176</ele>
        <time>2011-07-01T10:06:37.000Z</time>
      </trkpt>
      <trkpt lat="48.75434" lon="1.81565">
        <ele>143.39999389648</ele>
        <time>2011-07-01T10:06:43.000Z</time>
      </trkpt>
      <trkpt lat="48.75434" lon="1.81563">
        <ele>143.39999389648</ele>
        <time>2011-07-01T10:06:44.000Z</time>
      </trkpt>
      <trkpt lat="48.75434" lon="1.81553">
        <ele>143.60000610352</ele>
        <time>2011-07-01T10:06:48.000Z</time>
      </trkpt>
      <trkpt lat="48.75442" lon="1.81535">
        <ele>144.80000305176</ele>
        <time>2011-07-01T10:06:57.000Z</time>
      </trkpt>
      <trkpt lat="48.75446" lon="1.81524">
        <ele>145.39999389648</ele>
        <time>2011-07-01T10:07:03.000Z</time>
      </trkpt>
      <trkpt lat="48.7545" lon="1.81514">
        <ele>145.60000610352</ele>
        <time>2011-07-01T10:07:09.000Z</time>
      </trkpt>
      <trkpt lat="48.75452" lon="1.81505">
        <ele>145.80000305176</ele>
        <time>2011-07-01T10:07:13.000Z</time>
      </trkpt>
      <trkpt lat="48.75454" lon="1.81502">
        <ele>146</ele>
        <time>2011-07-01T10:07:15.000Z</time>
      </trkpt>
      <trkpt lat="48.75455" lon="1.81492">
        <ele>146.19999694824</ele>
        <time>2011-07-01T10:07:19.000Z</time>
      </trkpt>
      <trkpt lat="48.75457" lon="1.81479">
        <ele>146.60000610352</ele>
        <time>2011-07-01T10:07:25.000Z</time>
      </trkpt>
      <trkpt lat="48.75458" lon="1.81472">
        <ele>146.80000305176</ele>
        <time>2011-07-01T10:07:28.000Z</time>
      </trkpt>
      <trkpt lat="48.7546" lon="1.81462">
        <ele>147</ele>
        <time>2011-07-01T10:07:33.000Z</time>
      </trkpt>
      <trkpt lat="48.75465" lon="1.81449">
        <ele>147.39999389648</ele>
        <time>2011-07-01T10:07:39.000Z</time>
      </trkpt>
      <trkpt lat="48.75472" lon="1.81439">
        <ele>147.60000610352</ele>
        <time>2011-07-01T10:07:45.000Z</time>
      </trkpt>
      <trkpt lat="48.75477" lon="1.8143">
        <ele>147.80000305176</ele>
        <time>2011-07-01T10:07:50.000Z</time>
      </trkpt>
      <trkpt lat="48.75479" lon="1.81419">
        <ele>147.60000610352</ele>
        <time>2011-07-01T10:07:56.000Z</time>
      </trkpt>
      <trkpt lat="48.7548" lon="1.81414">
        <ele>147.60000610352</ele>
        <time>2011-07-01T10:08:01.000Z</time>
      </trkpt>
      <trkpt lat="48.75483" lon="1.8141">
        <ele>147.60000610352</ele>
        <time>2011-07-01T10:08:04.000Z</time>
      </trkpt>
      <trkpt lat="48.75488" lon="1.81399">
        <ele>147.60000610352</ele>
        <time>2011-07-01T10:08:10.000Z</time>
      </trkpt>
      <trkpt lat="48.75497" lon="1.81387">
        <ele>147.60000610352</ele>
        <time>2011-07-01T10:08:18.000Z</time>
      </trkpt>
      <trkpt lat="48.75501" lon="1.81382">
        <ele>147.60000610352</ele>
        <time>2011-07-01T10:08:21.000Z</time>
      </trkpt>
      <trkpt lat="48.75509" lon="1.81371">
        <ele>148.80000305176</ele>
        <time>2011-07-01T10:08:28.000Z</time>
      </trkpt>
      <trkpt lat="48.75517" lon="1.81363">
        <ele>149.80000305176</ele>
        <time>2011-07-01T10:08:33.000Z</time>
      </trkpt>
      <trkpt lat="48.75522" lon="1.81352">
        <ele>150</ele>
        <time>2011-07-01T10:08:40.000Z</time>
      </trkpt>
      <trkpt lat="48.75526" lon="1.81341">
        <ele>149.80000305176</ele>
        <time>2011-07-01T10:08:47.000Z</time>
      </trkpt>
      <trkpt lat="48.75534" lon="1.81332">
        <ele>150.19999694824</ele>
        <time>2011-07-01T10:08:53.000Z</time>
      </trkpt>
      <trkpt lat="48.75539" lon="1.8132">
        <ele>150.60000610352</ele>
        <time>2011-07-01T10:09:00.000Z</time>
      </trkpt>
      <trkpt lat="48.75544" lon="1.81308">
        <ele>150.80000305176</ele>
        <time>2011-07-01T10:09:07.000Z</time>
      </trkpt>
      <trkpt lat="48.75545" lon="1.81304">
        <ele>150.80000305176</ele>
        <time>2011-07-01T10:09:09.000Z</time>
      </trkpt>
      <trkpt lat="48.75548" lon="1.81297">
        <ele>150.80000305176</ele>
        <time>2011-07-01T10:09:13.000Z</time>
      </trkpt>
      <trkpt lat="48.75555" lon="1.81288">
        <ele>150.80000305176</ele>
        <time>2011-07-01T10:09:20.000Z</time>
      </trkpt>
      <trkpt lat="48.7556" lon="1.81279">
        <ele>150.39999389648</ele>
        <time>2011-07-01T10:09:26.000Z</time>
      </trkpt>
      <trkpt lat="48.75567" lon="1.8127">
        <ele>150</ele>
        <time>2011-07-01T10:09:32.000Z</time>
      </trkpt>
      <trkpt lat="48.75568" lon="1.81268">
        <ele>149.80000305176</ele>
        <time>2011-07-01T10:09:33.000Z</time>
      </trkpt>
      <trkpt lat="48.75572" lon="1.81263">
        <ele>149.39999389648</ele>
        <time>2011-07-01T10:09:36.000Z</time>
      </trkpt>
      <trkpt lat="48.75576" lon="1.81255">
        <ele>148.80000305176</ele>
        <time>2011-07-01T10:09:42.000Z</time>
      </trkpt>
      <trkpt lat="48.75585" lon="1.81243">
        <ele>148.80000305176</ele>
        <time>2011-07-01T10:09:50.000Z</time>
      </trkpt>
      <trkpt lat="48.75591" lon="1.81235">
        <ele>150.60000610352</ele>
        <time>2011-07-01T10:09:55.000Z</time>
      </trkpt>
      <trkpt lat="48.75601" lon="1.81226">
        <ele>153.19999694824</ele>
        <time>2011-07-01T10:10:03.000Z</time>
      </trkpt>
      <trkpt lat="48.75602" lon="1.81225">
        <ele>153.39999389648</ele>
        <time>2011-07-01T10:10:04.000Z</time>
      </trkpt>
      <trkpt lat="48.75603" lon="1.81218">
        <ele>153.80000305176</ele>
        <time>2011-07-01T10:10:10.000Z</time>
      </trkpt>
      <trkpt lat="48.756" lon="1.81215">
        <ele>153.39999389648</ele>
        <time>2011-07-01T10:10:23.000Z</time>
      </trkpt>
      <trkpt lat="48.75606" lon="1.8121">
        <ele>154.39999389648</ele>
        <time>2011-07-01T10:10:33.000Z</time>
      </trkpt>
      <trkpt lat="48.75615" lon="1.81203">
        <ele>156</ele>
        <time>2011-07-01T10:11:08.000Z</time>
      </trkpt>
      <trkpt lat="48.75617" lon="1.81193">
        <ele>156.39999389648</ele>
        <time>2011-07-01T10:11:12.000Z</time>
      </trkpt>
      <trkpt lat="48.75617" lon="1.81189">
        <ele>156.60000610352</ele>
        <time>2011-07-01T10:11:17.000Z</time>
      </trkpt>
      <trkpt lat="48.75619" lon="1.81174">
        <ele>156.80000305176</ele>
        <time>2011-07-01T10:11:40.000Z</time>
      </trkpt>
      <trkpt lat="48.75624" lon="1.81166">
        <ele>157.39999389648</ele>
        <time>2011-07-01T10:11:45.000Z</time>
      </trkpt>
      <trkpt lat="48.75633" lon="1.81158">
        <ele>158</ele>
        <time>2011-07-01T10:11:52.000Z</time>
      </trkpt>
      <trkpt lat="48.75636" lon="1.81148">
        <ele>158.19999694824</ele>
        <time>2011-07-01T10:11:57.000Z</time>
      </trkpt>
      <trkpt lat="48.75643" lon="1.81139">
        <ele>158.60000610352</ele>
        <time>2011-07-01T10:12:03.000Z</time>
      </trkpt>
      <trkpt lat="48.75645" lon="1.81136">
        <ele>158.60000610352</ele>
        <time>2011-07-01T10:12:05.000Z</time>
      </trkpt>
      <trkpt lat="48.75647" lon="1.81124">
        <ele>158.60000610352</ele>
        <time>2011-07-01T10:12:12.000Z</time>
      </trkpt>
      <trkpt lat="48.7565" lon="1.81114">
        <ele>158.39999389648</ele>
        <time>2011-07-01T10:12:17.000Z</time>
      </trkpt>
      <trkpt lat="48.75653" lon="1.81106">
        <ele>158.39999389648</ele>
        <time>2011-07-01T10:12:22.000Z</time>
      </trkpt>
      <trkpt lat="48.75654" lon="1.81101">
        <ele>158.39999389648</ele>
        <time>2011-07-01T10:12:24.000Z</time>
      </trkpt>
      <trkpt lat="48.75659" lon="1.8109">
        <ele>158</ele>
        <time>2011-07-01T10:12:31.000Z</time>
      </trkpt>
      <trkpt lat="48.75659" lon="1.81088">
        <ele>158</ele>
        <time>2011-07-01T10:12:32.000Z</time>
      </trkpt>
      <trkpt lat="48.75662" lon="1.81084">
        <ele>158</ele>
        <time>2011-07-01T10:12:36.000Z</time>
      </trkpt>
      <trkpt lat="48.75662" lon="1.81077">
        <ele>157.80000305176</ele>
        <time>2011-07-01T10:12:40.000Z</time>
      </trkpt>
      <trkpt lat="48.75669" lon="1.81062">
        <ele>158</ele>
        <time>2011-07-01T10:12:48.000Z</time>
      </trkpt>
      <trkpt lat="48.75667" lon="1.81054">
        <ele>157.60000610352</ele>
        <time>2011-07-01T10:12:52.000Z</time>
      </trkpt>
      <trkpt lat="48.75672" lon="1.81044">
        <ele>158.39999389648</ele>
        <time>2011-07-01T10:12:57.000Z</time>
      </trkpt>
      <trkpt lat="48.75682" lon="1.8103">
        <ele>159.80000305176</ele>
        <time>2011-07-01T10:13:06.000Z</time>
      </trkpt>
      <trkpt lat="48.75684" lon="1.81027">
        <ele>160</ele>
        <time>2011-07-01T10:13:08.000Z</time>
      </trkpt>
      <trkpt lat="48.75689" lon="1.8102">
        <ele>160.60000610352</ele>
        <time>2011-07-01T10:13:13.000Z</time>
      </trkpt>
      <trkpt lat="48.7569" lon="1.81016">
        <ele>160.60000610352</ele>
        <time>2011-07-01T10:13:15.000Z</time>
      </trkpt>
      <trkpt lat="48.75696" lon="1.81009">
        <ele>161</ele>
        <time>2011-07-01T10:13:20.000Z</time>
      </trkpt>
      <trkpt lat="48.75702" lon="1.81003">
        <ele>161.39999389648</ele>
        <time>2011-07-01T10:13:25.000Z</time>
      </trkpt>
      <trkpt lat="48.75709" lon="1.80995">
        <ele>161.80000305176</ele>
        <time>2011-07-01T10:13:31.000Z</time>
      </trkpt>
      <trkpt lat="48.75711" lon="1.80992">
        <ele>162</ele>
        <time>2011-07-01T10:13:33.000Z</time>
      </trkpt>
      <trkpt lat="48.75719" lon="1.80981">
        <ele>162.39999389648</ele>
        <time>2011-07-01T10:13:42.000Z</time>
      </trkpt>
      <trkpt lat="48.75725" lon="1.80971">
        <ele>162.60000610352</ele>
        <time>2011-07-01T10:13:49.000Z</time>
      </trkpt>
      <trkpt lat="48.75726" lon="1.8097">
        <ele>162.60000610352</ele>
        <time>2011-07-01T10:13:50.000Z</time>
      </trkpt>
      <trkpt lat="48.75727" lon="1.80966">
        <ele>162.60000610352</ele>
        <time>2011-07-01T10:13:53.000Z</time>
      </trkpt>
      <trkpt lat="48.75733" lon="1.80958">
        <ele>162.60000610352</ele>
        <time>2011-07-01T10:14:01.000Z</time>
      </trkpt>
      <trkpt lat="48.75733" lon="1.80955">
        <ele>162.60000610352</ele>
        <time>2011-07-01T10:14:03.000Z</time>
      </trkpt>
      <trkpt lat="48.75735" lon="1.80947">
        <ele>162.19999694824</ele>
        <time>2011-07-01T10:14:07.000Z</time>
      </trkpt>
      <trkpt lat="48.75738" lon="1.80935">
        <ele>161.60000610352</ele>
        <time>2011-07-01T10:14:13.000Z</time>
      </trkpt>
      <trkpt lat="48.7574" lon="1.80931">
        <ele>161.60000610352</ele>
        <time>2011-07-01T10:14:15.000Z</time>
      </trkpt>
      <trkpt lat="48.75743" lon="1.80918">
        <ele>160.80000305176</ele>
        <time>2011-07-01T10:14:21.000Z</time>
      </trkpt>
      <trkpt lat="48.75747" lon="1.80912">
        <ele>160.80000305176</ele>
        <time>2011-07-01T10:14:25.000Z</time>
      </trkpt>
      <trkpt lat="48.75753" lon="1.80911">
        <ele>161.39999389648</ele>
        <time>2011-07-01T10:14:29.000Z</time>
      </trkpt>
      <trkpt lat="48.75758" lon="1.80908">
        <ele>162.39999389648</ele>
        <time>2011-07-01T10:14:33.000Z</time>
      </trkpt>
      <trkpt lat="48.75762" lon="1.80899">
        <ele>163</ele>
        <time>2011-07-01T10:14:39.000Z</time>
      </trkpt>
      <trkpt lat="48.75763" lon="1.80895">
        <ele>163</ele>
        <time>2011-07-01T10:14:41.000Z</time>
      </trkpt>
      <trkpt lat="48.75771" lon="1.80882">
        <ele>164.19999694824</ele>
        <time>2011-07-01T10:14:49.000Z</time>
      </trkpt>
      <trkpt lat="48.75775" lon="1.80871">
        <ele>164.39999389648</ele>
        <time>2011-07-01T10:14:56.000Z</time>
      </trkpt>
      <trkpt lat="48.75774" lon="1.80853">
        <ele>163.80000305176</ele>
        <time>2011-07-01T10:15:03.000Z</time>
      </trkpt>
      <trkpt lat="48.75776" lon="1.80841">
        <ele>163.60000610352</ele>
        <time>2011-07-01T10:15:09.000Z</time>
      </trkpt>
      <trkpt lat="48.75779" lon="1.80832">
        <ele>163.60000610352</ele>
        <time>2011-07-01T10:15:14.000Z</time>
      </trkpt>
      <trkpt lat="48.75783" lon="1.8082">
        <ele>164.19999694824</ele>
        <time>2011-07-01T10:15:22.000Z</time>
      </trkpt>
      <trkpt lat="48.7579" lon="1.80815">
        <ele>165</ele>
        <time>2011-07-01T10:15:28.000Z</time>
      </trkpt>
      <trkpt lat="48.75794" lon="1.80807">
        <ele>165.19999694824</ele>
        <time>2011-07-01T10:15:33.000Z</time>
      </trkpt>
      <trkpt lat="48.75794" lon="1.80806">
        <ele>165.19999694824</ele>
        <time>2011-07-01T10:15:34.000Z</time>
      </trkpt>
      <trkpt lat="48.75795" lon="1.80802">
        <ele>165.19999694824</ele>
        <time>2011-07-01T10:15:36.000Z</time>
      </trkpt>
      <trkpt lat="48.75797" lon="1.808">
        <ele>165.39999389648</ele>
        <time>2011-07-01T10:15:38.000Z</time>
      </trkpt>
      <trkpt lat="48.75802" lon="1.80789">
        <ele>165.80000305176</ele>
        <time>2011-07-01T10:15:46.000Z</time>
      </trkpt>
      <trkpt lat="48.75807" lon="1.80778">
        <ele>166</ele>
        <time>2011-07-01T10:15:53.000Z</time>
      </trkpt>
      <trkpt lat="48.7581" lon="1.80765">
        <ele>166</ele>
        <time>2011-07-01T10:16:00.000Z</time>
      </trkpt>
      <trkpt lat="48.75811" lon="1.80752">
        <ele>165.80000305176</ele>
        <time>2011-07-01T10:16:07.000Z</time>
      </trkpt>
      <trkpt lat="48.75814" lon="1.80733">
        <ele>165.80000305176</ele>
        <time>2011-07-01T10:16:16.000Z</time>
      </trkpt>
      <trkpt lat="48.75816" lon="1.80714">
        <ele>166</ele>
        <time>2011-07-01T10:16:24.000Z</time>
      </trkpt>
      <trkpt lat="48.7582" lon="1.80702">
        <ele>166.19999694824</ele>
        <time>2011-07-01T10:16:30.000Z</time>
      </trkpt>
      <trkpt lat="48.75823" lon="1.80688">
        <ele>166.39999389648</ele>
        <time>2011-07-01T10:16:36.000Z</time>
      </trkpt>
      <trkpt lat="48.75832" lon="1.8068">
        <ele>167</ele>
        <time>2011-07-01T10:16:42.000Z</time>
      </trkpt>
      <trkpt lat="48.75835" lon="1.80677">
        <ele>167.39999389648</ele>
        <time>2011-07-01T10:16:44.000Z</time>
      </trkpt>
      <trkpt lat="48.7584" lon="1.8067">
        <ele>168.19999694824</ele>
        <time>2011-07-01T10:16:49.000Z</time>
      </trkpt>
      <trkpt lat="48.75844" lon="1.80663">
        <ele>168.80000305176</ele>
        <time>2011-07-01T10:16:55.000Z</time>
      </trkpt>
      <trkpt lat="48.75844" lon="1.80663">
        <ele>169</ele>
        <time>2011-07-01T10:16:58.000Z</time>
      </trkpt>
      <trkpt lat="48.75837" lon="1.80661">
        <ele>167.60000610352</ele>
        <time>2011-07-01T10:17:13.000Z</time>
      </trkpt>
      <trkpt lat="48.75832" lon="1.80659">
        <ele>166.80000305176</ele>
        <time>2011-07-01T10:17:17.000Z</time>
      </trkpt>
      <trkpt lat="48.75826" lon="1.80648">
        <ele>166.19999694824</ele>
        <time>2011-07-01T10:17:25.000Z</time>
      </trkpt>
      <trkpt lat="48.75822" lon="1.80633">
        <ele>165.80000305176</ele>
        <time>2011-07-01T10:17:32.000Z</time>
      </trkpt>
      <trkpt lat="48.75821" lon="1.80628">
        <ele>165.80000305176</ele>
        <time>2011-07-01T10:17:35.000Z</time>
      </trkpt>
      <trkpt lat="48.75821" lon="1.80614">
        <ele>165.60000610352</ele>
        <time>2011-07-01T10:17:42.000Z</time>
      </trkpt>
      <trkpt lat="48.75822" lon="1.8061">
        <ele>165.60000610352</ele>
        <time>2011-07-01T10:17:44.000Z</time>
      </trkpt>
      <trkpt lat="48.75823" lon="1.80597">
        <ele>165.60000610352</ele>
        <time>2011-07-01T10:17:50.000Z</time>
      </trkpt>
      <trkpt lat="48.75822" lon="1.80589">
        <ele>165.60000610352</ele>
        <time>2011-07-01T10:17:54.000Z</time>
      </trkpt>
      <trkpt lat="48.75821" lon="1.80585">
        <ele>165.39999389648</ele>
        <time>2011-07-01T10:17:57.000Z</time>
      </trkpt>
      <trkpt lat="48.7582" lon="1.80584">
        <ele>165.39999389648</ele>
        <time>2011-07-01T10:18:00.000Z</time>
      </trkpt>
      <trkpt lat="48.75817" lon="1.80562">
        <ele>164.80000305176</ele>
        <time>2011-07-01T10:18:34.000Z</time>
      </trkpt>
      <trkpt lat="48.75815" lon="1.80548">
        <ele>164.39999389648</ele>
        <time>2011-07-01T10:18:40.000Z</time>
      </trkpt>
      <trkpt lat="48.75812" lon="1.80538">
        <ele>164.19999694824</ele>
        <time>2011-07-01T10:18:47.000Z</time>
      </trkpt>
      <trkpt lat="48.75812" lon="1.80538">
        <ele>164.19999694824</ele>
        <time>2011-07-01T10:18:49.000Z</time>
      </trkpt>
      <trkpt lat="48.75817" lon="1.80529">
        <ele>164.19999694824</ele>
        <time>2011-07-01T10:20:07.000Z</time>
      </trkpt>
      <trkpt lat="48.75828" lon="1.80517">
        <ele>164.19999694824</ele>
        <time>2011-07-01T10:20:16.000Z</time>
      </trkpt>
      <trkpt lat="48.75836" lon="1.80499">
        <ele>164.19999694824</ele>
        <time>2011-07-01T10:20:26.000Z</time>
      </trkpt>
      <trkpt lat="48.75838" lon="1.80487">
        <ele>165</ele>
        <time>2011-07-01T10:20:32.000Z</time>
      </trkpt>
      <trkpt lat="48.75837" lon="1.80482">
        <ele>165</ele>
        <time>2011-07-01T10:20:35.000Z</time>
      </trkpt>
      <trkpt lat="48.75831" lon="1.80473">
        <ele>164.39999389648</ele>
        <time>2011-07-01T10:20:42.000Z</time>
      </trkpt>
      <trkpt lat="48.75822" lon="1.80465">
        <ele>164.39999389648</ele>
        <time>2011-07-01T10:20:48.000Z</time>
      </trkpt>
      <trkpt lat="48.75816" lon="1.80464">
        <ele>164.19999694824</ele>
        <time>2011-07-01T10:20:53.000Z</time>
      </trkpt>
      <trkpt lat="48.75808" lon="1.80463">
        <ele>164</ele>
        <time>2011-07-01T10:21:00.000Z</time>
      </trkpt>
      <trkpt lat="48.75806" lon="1.80465">
        <ele>164</ele>
        <time>2011-07-01T10:21:05.000Z</time>
      </trkpt>
      <trkpt lat="48.75798" lon="1.80464">
        <ele>163.80000305176</ele>
        <time>2011-07-01T10:26:55.000Z</time>
      </trkpt>
      <trkpt lat="48.75803" lon="1.80457">
        <ele>164</ele>
        <time>2011-07-01T10:27:00.000Z</time>
      </trkpt>
      <trkpt lat="48.75805" lon="1.80446">
        <ele>164.39999389648</ele>
        <time>2011-07-01T10:27:06.000Z</time>
      </trkpt>
      <trkpt lat="48.75808" lon="1.80436">
        <ele>164.60000610352</ele>
        <time>2011-07-01T10:27:13.000Z</time>
      </trkpt>
      <trkpt lat="48.75808" lon="1.80436">
        <ele>164.60000610352</ele>
        <time>2011-07-01T10:27:14.000Z</time>
      </trkpt>
      <trkpt lat="48.75817" lon="1.80428">
        <ele>165</ele>
        <time>2011-07-01T10:27:28.000Z</time>
      </trkpt>
      <trkpt lat="48.75824" lon="1.80423">
        <ele>165.39999389648</ele>
        <time>2011-07-01T10:27:31.000Z</time>
      </trkpt>
      <trkpt lat="48.75827" lon="1.80419">
        <ele>165.60000610352</ele>
        <time>2011-07-01T10:27:33.000Z</time>
      </trkpt>
      <trkpt lat="48.75831" lon="1.80406">
        <ele>166.60000610352</ele>
        <time>2011-07-01T10:27:40.000Z</time>
      </trkpt>
      <trkpt lat="48.75834" lon="1.80393">
        <ele>167.60000610352</ele>
        <time>2011-07-01T10:27:48.000Z</time>
      </trkpt>
      <trkpt lat="48.75835" lon="1.80385">
        <ele>168.19999694824</ele>
        <time>2011-07-01T10:27:53.000Z</time>
      </trkpt>
      <trkpt lat="48.75837" lon="1.80374">
        <ele>169.19999694824</ele>
        <time>2011-07-01T10:27:59.000Z</time>
      </trkpt>
      <trkpt lat="48.75842" lon="1.80361">
        <ele>170.19999694824</ele>
        <time>2011-07-01T10:28:07.000Z</time>
      </trkpt>
      <trkpt lat="48.75844" lon="1.80342">
        <ele>171.39999389648</ele>
        <time>2011-07-01T10:28:17.000Z</time>
      </trkpt>
      <trkpt lat="48.75846" lon="1.80328">
        <ele>172</ele>
        <time>2011-07-01T10:28:25.000Z</time>
      </trkpt>
      <trkpt lat="48.75846" lon="1.80326">
        <ele>172.19999694824</ele>
        <time>2011-07-01T10:28:26.000Z</time>
      </trkpt>
      <trkpt lat="48.75847" lon="1.80317">
        <ele>172.39999389648</ele>
        <time>2011-07-01T10:28:32.000Z</time>
      </trkpt>
      <trkpt lat="48.75848" lon="1.80315">
        <ele>172.60000610352</ele>
        <time>2011-07-01T10:28:33.000Z</time>
      </trkpt>
      <trkpt lat="48.75849" lon="1.80305">
        <ele>172.80000305176</ele>
        <time>2011-07-01T10:28:38.000Z</time>
      </trkpt>
      <trkpt lat="48.75851" lon="1.80293">
        <ele>173.19999694824</ele>
        <time>2011-07-01T10:28:43.000Z</time>
      </trkpt>
      <trkpt lat="48.75853" lon="1.8028">
        <ele>173.60000610352</ele>
        <time>2011-07-01T10:28:49.000Z</time>
      </trkpt>
      <trkpt lat="48.75853" lon="1.80278">
        <ele>173.80000305176</ele>
        <time>2011-07-01T10:28:50.000Z</time>
      </trkpt>
      <trkpt lat="48.75855" lon="1.80259">
        <ele>174.39999389648</ele>
        <time>2011-07-01T10:28:59.000Z</time>
      </trkpt>
      <trkpt lat="48.75855" lon="1.8025">
        <ele>174.60000610352</ele>
        <time>2011-07-01T10:29:04.000Z</time>
      </trkpt>
      <trkpt lat="48.75858" lon="1.80233">
        <ele>174.60000610352</ele>
        <time>2011-07-01T10:29:12.000Z</time>
      </trkpt>
      <trkpt lat="48.75859" lon="1.80217">
        <ele>174.60000610352</ele>
        <time>2011-07-01T10:29:20.000Z</time>
      </trkpt>
      <trkpt lat="48.7586" lon="1.8021">
        <ele>174.80000305176</ele>
        <time>2011-07-01T10:29:24.000Z</time>
      </trkpt>
      <trkpt lat="48.75861" lon="1.80201">
        <ele>174.80000305176</ele>
        <time>2011-07-01T10:29:30.000Z</time>
      </trkpt>
      <trkpt lat="48.75863" lon="1.80185">
        <ele>174.80000305176</ele>
        <time>2011-07-01T10:29:38.000Z</time>
      </trkpt>
      <trkpt lat="48.75865" lon="1.80171">
        <ele>175</ele>
        <time>2011-07-01T10:29:45.000Z</time>
      </trkpt>
      <trkpt lat="48.75867" lon="1.80158">
        <ele>175.39999389648</ele>
        <time>2011-07-01T10:29:52.000Z</time>
      </trkpt>
      <trkpt lat="48.75868" lon="1.80149">
        <ele>175.80000305176</ele>
        <time>2011-07-01T10:29:57.000Z</time>
      </trkpt>
      <trkpt lat="48.75869" lon="1.80128">
        <ele>176.39999389648</ele>
        <time>2011-07-01T10:30:07.000Z</time>
      </trkpt>
      <trkpt lat="48.7587" lon="1.8012">
        <ele>176.80000305176</ele>
        <time>2011-07-01T10:30:11.000Z</time>
      </trkpt>
      <trkpt lat="48.75871" lon="1.8011">
        <ele>177</ele>
        <time>2011-07-01T10:30:16.000Z</time>
      </trkpt>
      <trkpt lat="48.75871" lon="1.80095">
        <ele>177.60000610352</ele>
        <time>2011-07-01T10:30:23.000Z</time>
      </trkpt>
      <trkpt lat="48.75874" lon="1.80081">
        <ele>178</ele>
        <time>2011-07-01T10:30:30.000Z</time>
      </trkpt>
      <trkpt lat="48.75874" lon="1.80072">
        <ele>178.19999694824</ele>
        <time>2011-07-01T10:30:34.000Z</time>
      </trkpt>
      <trkpt lat="48.75876" lon="1.8006">
        <ele>178.60000610352</ele>
        <time>2011-07-01T10:30:40.000Z</time>
      </trkpt>
      <trkpt lat="48.75879" lon="1.80045">
        <ele>179</ele>
        <time>2011-07-01T10:30:47.000Z</time>
      </trkpt>
      <trkpt lat="48.75882" lon="1.80031">
        <ele>179.60000610352</ele>
        <time>2011-07-01T10:30:54.000Z</time>
      </trkpt>
      <trkpt lat="48.75886" lon="1.80021">
        <ele>179.80000305176</ele>
        <time>2011-07-01T10:31:00.000Z</time>
      </trkpt>
      <trkpt lat="48.75887" lon="1.80017">
        <ele>180</ele>
        <time>2011-07-01T10:31:02.000Z</time>
      </trkpt>
      <trkpt lat="48.75892" lon="1.80002">
        <ele>180.60000610352</ele>
        <time>2011-07-01T10:31:10.000Z</time>
      </trkpt>
      <trkpt lat="48.7589" lon="1.79991">
        <ele>180.80000305176</ele>
        <time>2011-07-01T10:31:15.000Z</time>
      </trkpt>
      <trkpt lat="48.75891" lon="1.79974">
        <ele>181</ele>
        <time>2011-07-01T10:31:23.000Z</time>
      </trkpt>
      <trkpt lat="48.75892" lon="1.7997">
        <ele>181.19999694824</ele>
        <time>2011-07-01T10:31:25.000Z</time>
      </trkpt>
      <trkpt lat="48.75892" lon="1.79952">
        <ele>181.39999389648</ele>
        <time>2011-07-01T10:31:33.000Z</time>
      </trkpt>
      <trkpt lat="48.75893" lon="1.79945">
        <ele>181.60000610352</ele>
        <time>2011-07-01T10:31:36.000Z</time>
      </trkpt>
      <trkpt lat="48.75895" lon="1.79925">
        <ele>182</ele>
        <time>2011-07-01T10:31:45.000Z</time>
      </trkpt>
      <trkpt lat="48.75897" lon="1.7991">
        <ele>182.19999694824</ele>
        <time>2011-07-01T10:31:52.000Z</time>
      </trkpt>
      <trkpt lat="48.759" lon="1.79896">
        <ele>182.39999389648</ele>
        <time>2011-07-01T10:31:59.000Z</time>
      </trkpt>
      <trkpt lat="48.75901" lon="1.79893">
        <ele>182.39999389648</ele>
        <time>2011-07-01T10:32:01.000Z</time>
      </trkpt>
      <trkpt lat="48.75904" lon="1.79872">
        <ele>182.60000610352</ele>
        <time>2011-07-01T10:32:11.000Z</time>
      </trkpt>
      <trkpt lat="48.75905" lon="1.7987">
        <ele>182.60000610352</ele>
        <time>2011-07-01T10:32:12.000Z</time>
      </trkpt>
      <trkpt lat="48.75906" lon="1.79865">
        <ele>182.60000610352</ele>
        <time>2011-07-01T10:32:15.000Z</time>
      </trkpt>
      <trkpt lat="48.75907" lon="1.79856">
        <ele>182.60000610352</ele>
        <time>2011-07-01T10:32:19.000Z</time>
      </trkpt>
      <trkpt lat="48.7591" lon="1.79842">
        <ele>182.80000305176</ele>
        <time>2011-07-01T10:32:23.000Z</time>
      </trkpt>
      <trkpt lat="48.75911" lon="1.79815">
        <ele>183.19999694824</ele>
        <time>2011-07-01T10:32:29.000Z</time>
      </trkpt>
      <trkpt lat="48.75915" lon="1.79797">
        <ele>183.80000305176</ele>
        <time>2011-07-01T10:32:33.000Z</time>
      </trkpt>
      <trkpt lat="48.75919" lon="1.7977">
        <ele>184.39999389648</ele>
        <time>2011-07-01T10:32:39.000Z</time>
      </trkpt>
      <trkpt lat="48.75922" lon="1.79744">
        <ele>185</ele>
        <time>2011-07-01T10:32:44.000Z</time>
      </trkpt>
      <trkpt lat="48.75921" lon="1.79718">
        <ele>185.39999389648</ele>
        <time>2011-07-01T10:32:49.000Z</time>
      </trkpt>
      <trkpt lat="48.75926" lon="1.79694">
        <ele>185.80000305176</ele>
        <time>2011-07-01T10:32:54.000Z</time>
      </trkpt>
      <trkpt lat="48.75927" lon="1.79672">
        <ele>186.19999694824</ele>
        <time>2011-07-01T10:32:58.000Z</time>
      </trkpt>
      <trkpt lat="48.75929" lon="1.79641">
        <ele>186.39999389648</ele>
        <time>2011-07-01T10:33:04.000Z</time>
      </trkpt>
      <trkpt lat="48.75932" lon="1.79611">
        <ele>186.39999389648</ele>
        <time>2011-07-01T10:33:09.000Z</time>
      </trkpt>
      <trkpt lat="48.75937" lon="1.79581">
        <ele>186.60000610352</ele>
        <time>2011-07-01T10:33:14.000Z</time>
      </trkpt>
      <trkpt lat="48.75939" lon="1.79551">
        <ele>187</ele>
        <time>2011-07-01T10:33:19.000Z</time>
      </trkpt>
      <trkpt lat="48.75947" lon="1.79525">
        <ele>187.39999389648</ele>
        <time>2011-07-01T10:33:24.000Z</time>
      </trkpt>
      <trkpt lat="48.7595" lon="1.79505">
        <ele>187.60000610352</ele>
        <time>2011-07-01T10:33:28.000Z</time>
      </trkpt>
      <trkpt lat="48.75947" lon="1.79471">
        <ele>188</ele>
        <time>2011-07-01T10:33:34.000Z</time>
      </trkpt>
      <trkpt lat="48.75945" lon="1.79444">
        <ele>188.19999694824</ele>
        <time>2011-07-01T10:33:39.000Z</time>
      </trkpt>
      <trkpt lat="48.75943" lon="1.79405">
        <ele>188.39999389648</ele>
        <time>2011-07-01T10:33:46.000Z</time>
      </trkpt>
      <trkpt lat="48.75941" lon="1.79373">
        <ele>188.39999389648</ele>
        <time>2011-07-01T10:33:52.000Z</time>
      </trkpt>
      <trkpt lat="48.75941" lon="1.79345">
        <ele>188.19999694824</ele>
        <time>2011-07-01T10:33:57.000Z</time>
      </trkpt>
      <trkpt lat="48.7594" lon="1.79317">
        <ele>188.39999389648</ele>
        <time>2011-07-01T10:34:01.000Z</time>
      </trkpt>
      <trkpt lat="48.75934" lon="1.79268">
        <ele>189</ele>
        <time>2011-07-01T10:34:07.000Z</time>
      </trkpt>
      <trkpt lat="48.75931" lon="1.79244">
        <ele>189.39999389648</ele>
        <time>2011-07-01T10:34:10.000Z</time>
      </trkpt>
      <trkpt lat="48.75929" lon="1.7921">
        <ele>190</ele>
        <time>2011-07-01T10:34:14.000Z</time>
      </trkpt>
      <trkpt lat="48.75925" lon="1.7917">
        <ele>191</ele>
        <time>2011-07-01T10:34:18.000Z</time>
      </trkpt>
      <trkpt lat="48.75923" lon="1.79152">
        <ele>191</ele>
        <time>2011-07-01T10:34:20.000Z</time>
      </trkpt>
      <trkpt lat="48.75921" lon="1.79124">
        <ele>191</ele>
        <time>2011-07-01T10:34:23.000Z</time>
      </trkpt>
      <trkpt lat="48.7592" lon="1.79066">
        <ele>191</ele>
        <time>2011-07-01T10:34:29.000Z</time>
      </trkpt>
      <trkpt lat="48.75918" lon="1.79046">
        <ele>191</ele>
        <time>2011-07-01T10:34:31.000Z</time>
      </trkpt>
      <trkpt lat="48.75916" lon="1.78997">
        <ele>191</ele>
        <time>2011-07-01T10:34:37.000Z</time>
      </trkpt>
      <trkpt lat="48.75914" lon="1.78965">
        <ele>191.60000610352</ele>
        <time>2011-07-01T10:34:43.000Z</time>
      </trkpt>
      <trkpt lat="48.75916" lon="1.78958">
        <ele>191.80000305176</ele>
        <time>2011-07-01T10:34:48.000Z</time>
      </trkpt>
      <trkpt lat="48.75916" lon="1.78953">
        <ele>192</ele>
        <time>2011-07-01T10:34:54.000Z</time>
      </trkpt>
      <trkpt lat="48.75916" lon="1.78953">
        <ele>192</ele>
        <time>2011-07-01T10:34:59.000Z</time>
      </trkpt>
      <trkpt lat="48.75917" lon="1.78947">
        <ele>192.19999694824</ele>
        <time>2011-07-01T10:35:04.000Z</time>
      </trkpt>
      <trkpt lat="48.75918" lon="1.78944">
        <ele>192.19999694824</ele>
        <time>2011-07-01T10:35:05.000Z</time>
      </trkpt>
      <trkpt lat="48.7592" lon="1.78927">
        <ele>192.60000610352</ele>
        <time>2011-07-01T10:35:10.000Z</time>
      </trkpt>
      <trkpt lat="48.75922" lon="1.78901">
        <ele>193</ele>
        <time>2011-07-01T10:35:16.000Z</time>
      </trkpt>
      <trkpt lat="48.75918" lon="1.78878">
        <ele>193.39999389648</ele>
        <time>2011-07-01T10:35:20.000Z</time>
      </trkpt>
      <trkpt lat="48.75914" lon="1.78847">
        <ele>193.60000610352</ele>
        <time>2011-07-01T10:35:25.000Z</time>
      </trkpt>
      <trkpt lat="48.75913" lon="1.78815">
        <ele>193.80000305176</ele>
        <time>2011-07-01T10:35:31.000Z</time>
      </trkpt>
      <trkpt lat="48.75911" lon="1.78794">
        <ele>193.80000305176</ele>
        <time>2011-07-01T10:35:35.000Z</time>
      </trkpt>
      <trkpt lat="48.75911" lon="1.78776">
        <ele>193.80000305176</ele>
        <time>2011-07-01T10:35:39.000Z</time>
      </trkpt>
      <trkpt lat="48.75913" lon="1.78751">
        <ele>193.80000305176</ele>
        <time>2011-07-01T10:35:44.000Z</time>
      </trkpt>
      <trkpt lat="48.75913" lon="1.78722">
        <ele>193</ele>
        <time>2011-07-01T10:35:49.000Z</time>
      </trkpt>
      <trkpt lat="48.75913" lon="1.78704">
        <ele>192.19999694824</ele>
        <time>2011-07-01T10:35:53.000Z</time>
      </trkpt>
      <trkpt lat="48.75911" lon="1.78677">
        <ele>191.39999389648</ele>
        <time>2011-07-01T10:35:58.000Z</time>
      </trkpt>
      <trkpt lat="48.75908" lon="1.78649">
        <ele>191.39999389648</ele>
        <time>2011-07-01T10:36:03.000Z</time>
      </trkpt>
      <trkpt lat="48.75906" lon="1.78618">
        <ele>192</ele>
        <time>2011-07-01T10:36:09.000Z</time>
      </trkpt>
      <trkpt lat="48.75902" lon="1.78597">
        <ele>192.39999389648</ele>
        <time>2011-07-01T10:36:13.000Z</time>
      </trkpt>
      <trkpt lat="48.75902" lon="1.7857">
        <ele>193</ele>
        <time>2011-07-01T10:36:18.000Z</time>
      </trkpt>
      <trkpt lat="48.75899" lon="1.78547">
        <ele>193.60000610352</ele>
        <time>2011-07-01T10:36:22.000Z</time>
      </trkpt>
      <trkpt lat="48.75896" lon="1.78524">
        <ele>194</ele>
        <time>2011-07-01T10:36:26.000Z</time>
      </trkpt>
      <trkpt lat="48.75896" lon="1.78494">
        <ele>194.60000610352</ele>
        <time>2011-07-01T10:36:31.000Z</time>
      </trkpt>
      <trkpt lat="48.75894" lon="1.78458">
        <ele>194.80000305176</ele>
        <time>2011-07-01T10:36:37.000Z</time>
      </trkpt>
      <trkpt lat="48.75893" lon="1.78451">
        <ele>194.80000305176</ele>
        <time>2011-07-01T10:36:38.000Z</time>
      </trkpt>
      <trkpt lat="48.75889" lon="1.78414">
        <ele>195</ele>
        <time>2011-07-01T10:36:44.000Z</time>
      </trkpt>
      <trkpt lat="48.75888" lon="1.78401">
        <ele>195</ele>
        <time>2011-07-01T10:36:46.000Z</time>
      </trkpt>
      <trkpt lat="48.75888" lon="1.78369">
        <ele>195</ele>
        <time>2011-07-01T10:36:52.000Z</time>
      </trkpt>
      <trkpt lat="48.75885" lon="1.78347">
        <ele>195</ele>
        <time>2011-07-01T10:36:56.000Z</time>
      </trkpt>
      <trkpt lat="48.75885" lon="1.78323">
        <ele>195</ele>
        <time>2011-07-01T10:37:01.000Z</time>
      </trkpt>
      <trkpt lat="48.75882" lon="1.78289">
        <ele>195</ele>
        <time>2011-07-01T10:37:07.000Z</time>
      </trkpt>
      <trkpt lat="48.75877" lon="1.78254">
        <ele>195</ele>
        <time>2011-07-01T10:37:13.000Z</time>
      </trkpt>
      <trkpt lat="48.75875" lon="1.78225">
        <ele>195</ele>
        <time>2011-07-01T10:37:18.000Z</time>
      </trkpt>
      <trkpt lat="48.75878" lon="1.78195">
        <ele>195.19999694824</ele>
        <time>2011-07-01T10:37:24.000Z</time>
      </trkpt>
      <trkpt lat="48.7588" lon="1.78165">
        <ele>195.39999389648</ele>
        <time>2011-07-01T10:37:30.000Z</time>
      </trkpt>
      <trkpt lat="48.75879" lon="1.78131">
        <ele>195.19999694824</ele>
        <time>2011-07-01T10:37:36.000Z</time>
      </trkpt>
      <trkpt lat="48.75877" lon="1.78098">
        <ele>195</ele>
        <time>2011-07-01T10:37:42.000Z</time>
      </trkpt>
      <trkpt lat="48.75874" lon="1.78063">
        <ele>195</ele>
        <time>2011-07-01T10:37:48.000Z</time>
      </trkpt>
      <trkpt lat="48.75872" lon="1.78038">
        <ele>195.19999694824</ele>
        <time>2011-07-01T10:37:53.000Z</time>
      </trkpt>
      <trkpt lat="48.75869" lon="1.78011">
        <ele>195.19999694824</ele>
        <time>2011-07-01T10:37:58.000Z</time>
      </trkpt>
      <trkpt lat="48.75866" lon="1.77976">
        <ele>195</ele>
        <time>2011-07-01T10:38:04.000Z</time>
      </trkpt>
      <trkpt lat="48.75866" lon="1.77945">
        <ele>194.80000305176</ele>
        <time>2011-07-01T10:38:10.000Z</time>
      </trkpt>
      <trkpt lat="48.75866" lon="1.77919">
        <ele>194.60000610352</ele>
        <time>2011-07-01T10:38:16.000Z</time>
      </trkpt>
      <trkpt lat="48.75866" lon="1.77906">
        <ele>194.60000610352</ele>
        <time>2011-07-01T10:38:21.000Z</time>
      </trkpt>
      <trkpt lat="48.75867" lon="1.77898">
        <ele>194.60000610352</ele>
        <time>2011-07-01T10:38:25.000Z</time>
      </trkpt>
      <trkpt lat="48.75869" lon="1.77895">
        <ele>194.60000610352</ele>
        <time>2011-07-01T10:38:27.000Z</time>
      </trkpt>
      <trkpt lat="48.7587" lon="1.77885">
        <ele>194.60000610352</ele>
        <time>2011-07-01T10:38:32.000Z</time>
      </trkpt>
      <trkpt lat="48.75866" lon="1.77871">
        <ele>194.80000305176</ele>
        <time>2011-07-01T10:38:39.000Z</time>
      </trkpt>
      <trkpt lat="48.75866" lon="1.77863">
        <ele>194.80000305176</ele>
        <time>2011-07-01T10:38:43.000Z</time>
      </trkpt>
      <trkpt lat="48.75866" lon="1.77851">
        <ele>195</ele>
        <time>2011-07-01T10:38:49.000Z</time>
      </trkpt>
      <trkpt lat="48.75867" lon="1.77842">
        <ele>195</ele>
        <time>2011-07-01T10:38:53.000Z</time>
      </trkpt>
      <trkpt lat="48.75867" lon="1.7783">
        <ele>195</ele>
        <time>2011-07-01T10:38:59.000Z</time>
      </trkpt>
      <trkpt lat="48.75864" lon="1.77819">
        <ele>195</ele>
        <time>2011-07-01T10:39:04.000Z</time>
      </trkpt>
      <trkpt lat="48.75865" lon="1.7781">
        <ele>195</ele>
        <time>2011-07-01T10:39:08.000Z</time>
      </trkpt>
      <trkpt lat="48.75864" lon="1.77798">
        <ele>194.80000305176</ele>
        <time>2011-07-01T10:39:16.000Z</time>
      </trkpt>
      <trkpt lat="48.75865" lon="1.77794">
        <ele>194.80000305176</ele>
        <time>2011-07-01T10:39:19.000Z</time>
      </trkpt>
      <trkpt lat="48.75865" lon="1.77784">
        <ele>194.60000610352</ele>
        <time>2011-07-01T10:39:25.000Z</time>
      </trkpt>
      <trkpt lat="48.75864" lon="1.77767">
        <ele>194.39999389648</ele>
        <time>2011-07-01T10:39:35.000Z</time>
      </trkpt>
      <trkpt lat="48.75865" lon="1.77754">
        <ele>194.39999389648</ele>
        <time>2011-07-01T10:39:43.000Z</time>
      </trkpt>
      <trkpt lat="48.75865" lon="1.77752">
        <ele>194.39999389648</ele>
        <time>2011-07-01T10:39:44.000Z</time>
      </trkpt>
      <trkpt lat="48.75864" lon="1.77738">
        <ele>194</ele>
        <time>2011-07-01T10:39:52.000Z</time>
      </trkpt>
      <trkpt lat="48.75862" lon="1.77724">
        <ele>193.60000610352</ele>
        <time>2011-07-01T10:40:00.000Z</time>
      </trkpt>
      <trkpt lat="48.75862" lon="1.77722">
        <ele>193.60000610352</ele>
        <time>2011-07-01T10:40:01.000Z</time>
      </trkpt>
      <trkpt lat="48.7586" lon="1.77711">
        <ele>193.19999694824</ele>
        <time>2011-07-01T10:40:08.000Z</time>
      </trkpt>
      <trkpt lat="48.75859" lon="1.77705">
        <ele>193.19999694824</ele>
        <time>2011-07-01T10:40:14.000Z</time>
      </trkpt>
      <trkpt lat="48.75856" lon="1.77691">
        <ele>192.80000305176</ele>
        <time>2011-07-01T10:40:21.000Z</time>
      </trkpt>
      <trkpt lat="48.75855" lon="1.77682">
        <ele>192.60000610352</ele>
        <time>2011-07-01T10:40:26.000Z</time>
      </trkpt>
      <trkpt lat="48.75853" lon="1.77671">
        <ele>192.19999694824</ele>
        <time>2011-07-01T10:40:32.000Z</time>
      </trkpt>
      <trkpt lat="48.75853" lon="1.77665">
        <ele>192.19999694824</ele>
        <time>2011-07-01T10:40:35.000Z</time>
      </trkpt>
      <trkpt lat="48.75854" lon="1.77653">
        <ele>192.19999694824</ele>
        <time>2011-07-01T10:40:41.000Z</time>
      </trkpt>
      <trkpt lat="48.75854" lon="1.77637">
        <ele>192.19999694824</ele>
        <time>2011-07-01T10:40:49.000Z</time>
      </trkpt>
      <trkpt lat="48.75851" lon="1.77619">
        <ele>192.19999694824</ele>
        <time>2011-07-01T10:40:56.000Z</time>
      </trkpt>
      <trkpt lat="48.75849" lon="1.77609">
        <ele>192.19999694824</ele>
        <time>2011-07-01T10:41:01.000Z</time>
      </trkpt>
      <trkpt lat="48.75849" lon="1.77596">
        <ele>192.19999694824</ele>
        <time>2011-07-01T10:41:07.000Z</time>
      </trkpt>
      <trkpt lat="48.75845" lon="1.77583">
        <ele>192.19999694824</ele>
        <time>2011-07-01T10:41:13.000Z</time>
      </trkpt>
      <trkpt lat="48.75845" lon="1.77573">
        <ele>192</ele>
        <time>2011-07-01T10:41:19.000Z</time>
      </trkpt>
      <trkpt lat="48.75845" lon="1.77559">
        <ele>191.80000305176</ele>
        <time>2011-07-01T10:41:26.000Z</time>
      </trkpt>
      <trkpt lat="48.75845" lon="1.77557">
        <ele>191.80000305176</ele>
        <time>2011-07-01T10:41:27.000Z</time>
      </trkpt>
      <trkpt lat="48.75845" lon="1.77549">
        <ele>191.60000610352</ele>
        <time>2011-07-01T10:41:31.000Z</time>
      </trkpt>
      <trkpt lat="48.75842" lon="1.77535">
        <ele>191.39999389648</ele>
        <time>2011-07-01T10:41:39.000Z</time>
      </trkpt>
      <trkpt lat="48.75839" lon="1.7752">
        <ele>191.19999694824</ele>
        <time>2011-07-01T10:41:46.000Z</time>
      </trkpt>
      <trkpt lat="48.75836" lon="1.775">
        <ele>190.80000305176</ele>
        <time>2011-07-01T10:41:55.000Z</time>
      </trkpt>
      <trkpt lat="48.75835" lon="1.77495">
        <ele>190.80000305176</ele>
        <time>2011-07-01T10:41:57.000Z</time>
      </trkpt>
      <trkpt lat="48.75834" lon="1.77486">
        <ele>190.80000305176</ele>
        <time>2011-07-01T10:42:01.000Z</time>
      </trkpt>
      <trkpt lat="48.75834" lon="1.77482">
        <ele>190.60000610352</ele>
        <time>2011-07-01T10:42:03.000Z</time>
      </trkpt>
      <trkpt lat="48.75832" lon="1.77472">
        <ele>190.60000610352</ele>
        <time>2011-07-01T10:42:08.000Z</time>
      </trkpt>
      <trkpt lat="48.7583" lon="1.77451">
        <ele>190.19999694824</ele>
        <time>2011-07-01T10:42:18.000Z</time>
      </trkpt>
      <trkpt lat="48.7583" lon="1.77432">
        <ele>190</ele>
        <time>2011-07-01T10:42:28.000Z</time>
      </trkpt>
      <trkpt lat="48.75828" lon="1.77415">
        <ele>189.80000305176</ele>
        <time>2011-07-01T10:42:36.000Z</time>
      </trkpt>
      <trkpt lat="48.75828" lon="1.77405">
        <ele>189.80000305176</ele>
        <time>2011-07-01T10:42:42.000Z</time>
      </trkpt>
      <trkpt lat="48.75826" lon="1.77387">
        <ele>189.80000305176</ele>
        <time>2011-07-01T10:42:51.000Z</time>
      </trkpt>
      <trkpt lat="48.75826" lon="1.77374">
        <ele>189.80000305176</ele>
        <time>2011-07-01T10:42:57.000Z</time>
      </trkpt>
      <trkpt lat="48.75825" lon="1.77365">
        <ele>189.80000305176</ele>
        <time>2011-07-01T10:43:01.000Z</time>
      </trkpt>
      <trkpt lat="48.75823" lon="1.77357">
        <ele>189.60000610352</ele>
        <time>2011-07-01T10:43:05.000Z</time>
      </trkpt>
      <trkpt lat="48.7582" lon="1.77341">
        <ele>189.60000610352</ele>
        <time>2011-07-01T10:43:12.000Z</time>
      </trkpt>
      <trkpt lat="48.75819" lon="1.77336">
        <ele>189.60000610352</ele>
        <time>2011-07-01T10:43:15.000Z</time>
      </trkpt>
      <trkpt lat="48.7582" lon="1.77325">
        <ele>189.80000305176</ele>
        <time>2011-07-01T10:43:20.000Z</time>
      </trkpt>
      <trkpt lat="48.75817" lon="1.77308">
        <ele>189.80000305176</ele>
        <time>2011-07-01T10:43:27.000Z</time>
      </trkpt>
      <trkpt lat="48.75812" lon="1.77289">
        <ele>190</ele>
        <time>2011-07-01T10:43:34.000Z</time>
      </trkpt>
      <trkpt lat="48.75805" lon="1.77268">
        <ele>189.80000305176</ele>
        <time>2011-07-01T10:43:42.000Z</time>
      </trkpt>
      <trkpt lat="48.75804" lon="1.77264">
        <ele>189.60000610352</ele>
        <time>2011-07-01T10:43:44.000Z</time>
      </trkpt>
      <trkpt lat="48.75805" lon="1.77257">
        <ele>189.80000305176</ele>
        <time>2011-07-01T10:43:48.000Z</time>
      </trkpt>
      <trkpt lat="48.75805" lon="1.77254">
        <ele>189.80000305176</ele>
        <time>2011-07-01T10:43:50.000Z</time>
      </trkpt>
      <trkpt lat="48.75804" lon="1.77241">
        <ele>189.80000305176</ele>
        <time>2011-07-01T10:43:56.000Z</time>
      </trkpt>
      <trkpt lat="48.75803" lon="1.77224">
        <ele>190</ele>
        <time>2011-07-01T10:44:04.000Z</time>
      </trkpt>
      <trkpt lat="48.75803" lon="1.77208">
        <ele>190</ele>
        <time>2011-07-01T10:44:12.000Z</time>
      </trkpt>
      <trkpt lat="48.75803" lon="1.77193">
        <ele>190.19999694824</ele>
        <time>2011-07-01T10:44:19.000Z</time>
      </trkpt>
      <trkpt lat="48.75802" lon="1.77177">
        <ele>190.19999694824</ele>
        <time>2011-07-01T10:44:27.000Z</time>
      </trkpt>
      <trkpt lat="48.75801" lon="1.77172">
        <ele>190.19999694824</ele>
        <time>2011-07-01T10:44:29.000Z</time>
      </trkpt>
      <trkpt lat="48.758" lon="1.77158">
        <ele>190</ele>
        <time>2011-07-01T10:44:35.000Z</time>
      </trkpt>
      <trkpt lat="48.758" lon="1.77135">
        <ele>190</ele>
        <time>2011-07-01T10:44:46.000Z</time>
      </trkpt>
      <trkpt lat="48.75797" lon="1.77115">
        <ele>189.80000305176</ele>
        <time>2011-07-01T10:44:55.000Z</time>
      </trkpt>
      <trkpt lat="48.75795" lon="1.771">
        <ele>189.60000610352</ele>
        <time>2011-07-01T10:45:02.000Z</time>
      </trkpt>
      <trkpt lat="48.75795" lon="1.77083">
        <ele>189.60000610352</ele>
        <time>2011-07-01T10:45:10.000Z</time>
      </trkpt>
      <trkpt lat="48.75795" lon="1.77066">
        <ele>189.39999389648</ele>
        <time>2011-07-01T10:45:18.000Z</time>
      </trkpt>
      <trkpt lat="48.75793" lon="1.77055">
        <ele>189.39999389648</ele>
        <time>2011-07-01T10:45:24.000Z</time>
      </trkpt>
      <trkpt lat="48.75792" lon="1.77051">
        <ele>189.19999694824</ele>
        <time>2011-07-01T10:45:26.000Z</time>
      </trkpt>
      <trkpt lat="48.7579" lon="1.77042">
        <ele>189</ele>
        <time>2011-07-01T10:45:30.000Z</time>
      </trkpt>
      <trkpt lat="48.75788" lon="1.77034">
        <ele>188.80000305176</ele>
        <time>2011-07-01T10:45:34.000Z</time>
      </trkpt>
      <trkpt lat="48.75787" lon="1.77019">
        <ele>188.60000610352</ele>
        <time>2011-07-01T10:45:42.000Z</time>
      </trkpt>
      <trkpt lat="48.75787" lon="1.77017">
        <ele>188.60000610352</ele>
        <time>2011-07-01T10:45:43.000Z</time>
      </trkpt>
      <trkpt lat="48.75784" lon="1.77003">
        <ele>188.39999389648</ele>
        <time>2011-07-01T10:45:50.000Z</time>
      </trkpt>
      <trkpt lat="48.75781" lon="1.76988">
        <ele>188</ele>
        <time>2011-07-01T10:45:57.000Z</time>
      </trkpt>
      <trkpt lat="48.7578" lon="1.76982">
        <ele>188</ele>
        <time>2011-07-01T10:46:00.000Z</time>
      </trkpt>
      <trkpt lat="48.75781" lon="1.76962">
        <ele>188</ele>
        <time>2011-07-01T10:46:10.000Z</time>
      </trkpt>
      <trkpt lat="48.7578" lon="1.76948">
        <ele>187.80000305176</ele>
        <time>2011-07-01T10:46:17.000Z</time>
      </trkpt>
      <trkpt lat="48.75779" lon="1.76944">
        <ele>187.80000305176</ele>
        <time>2011-07-01T10:46:19.000Z</time>
      </trkpt>
      <trkpt lat="48.75776" lon="1.76922">
        <ele>187.39999389648</ele>
        <time>2011-07-01T10:46:30.000Z</time>
      </trkpt>
      <trkpt lat="48.75775" lon="1.76917">
        <ele>187.39999389648</ele>
        <time>2011-07-01T10:46:33.000Z</time>
      </trkpt>
      <trkpt lat="48.75775" lon="1.76903">
        <ele>187.60000610352</ele>
        <time>2011-07-01T10:46:39.000Z</time>
      </trkpt>
      <trkpt lat="48.75776" lon="1.76884">
        <ele>188.19999694824</ele>
        <time>2011-07-01T10:46:48.000Z</time>
      </trkpt>
      <trkpt lat="48.75776" lon="1.76883">
        <ele>188.19999694824</ele>
        <time>2011-07-01T10:46:49.000Z</time>
      </trkpt>
      <trkpt lat="48.75774" lon="1.76869">
        <ele>188.39999389648</ele>
        <time>2011-07-01T10:46:57.000Z</time>
      </trkpt>
      <trkpt lat="48.75766" lon="1.76857">
        <ele>188.19999694824</ele>
        <time>2011-07-01T10:47:06.000Z</time>
      </trkpt>
      <trkpt lat="48.75755" lon="1.76848">
        <ele>187.80000305176</ele>
        <time>2011-07-01T10:47:15.000Z</time>
      </trkpt>
      <trkpt lat="48.75748" lon="1.76846">
        <ele>187.60000610352</ele>
        <time>2011-07-01T10:47:22.000Z</time>
      </trkpt>
      <trkpt lat="48.75737" lon="1.7684">
        <ele>187.19999694824</ele>
        <time>2011-07-01T10:47:30.000Z</time>
      </trkpt>
      <trkpt lat="48.75729" lon="1.76836">
        <ele>187</ele>
        <time>2011-07-01T10:47:36.000Z</time>
      </trkpt>
      <trkpt lat="48.7572" lon="1.76834">
        <ele>186.80000305176</ele>
        <time>2011-07-01T10:47:42.000Z</time>
      </trkpt>
      <trkpt lat="48.75711" lon="1.76836">
        <ele>186.39999389648</ele>
        <time>2011-07-01T10:47:48.000Z</time>
      </trkpt>
      <trkpt lat="48.75701" lon="1.76833">
        <ele>186.19999694824</ele>
        <time>2011-07-01T10:47:55.000Z</time>
      </trkpt>
      <trkpt lat="48.75692" lon="1.76829">
        <ele>186</ele>
        <time>2011-07-01T10:48:02.000Z</time>
      </trkpt>
      <trkpt lat="48.75685" lon="1.76823">
        <ele>186</ele>
        <time>2011-07-01T10:48:07.000Z</time>
      </trkpt>
      <trkpt lat="48.75664" lon="1.76816">
        <ele>185.39999389648</ele>
        <time>2011-07-01T10:48:14.000Z</time>
      </trkpt>
      <trkpt lat="48.75638" lon="1.76808">
        <ele>185.60000610352</ele>
        <time>2011-07-01T10:48:21.000Z</time>
      </trkpt>
      <trkpt lat="48.75617" lon="1.76805">
        <ele>185.80000305176</ele>
        <time>2011-07-01T10:48:26.000Z</time>
      </trkpt>
      <trkpt lat="48.75605" lon="1.76801">
        <ele>185.80000305176</ele>
        <time>2011-07-01T10:48:29.000Z</time>
      </trkpt>
      <trkpt lat="48.75597" lon="1.768">
        <ele>185.80000305176</ele>
        <time>2011-07-01T10:48:31.000Z</time>
      </trkpt>
      <trkpt lat="48.75576" lon="1.76794">
        <ele>185.80000305176</ele>
        <time>2011-07-01T10:48:37.000Z</time>
      </trkpt>
      <trkpt lat="48.75558" lon="1.76791">
        <ele>185.80000305176</ele>
        <time>2011-07-01T10:48:42.000Z</time>
      </trkpt>
      <trkpt lat="48.75542" lon="1.76785">
        <ele>186</ele>
        <time>2011-07-01T10:48:46.000Z</time>
      </trkpt>
      <trkpt lat="48.75531" lon="1.76782">
        <ele>186</ele>
        <time>2011-07-01T10:48:49.000Z</time>
      </trkpt>
      <trkpt lat="48.7551" lon="1.76772">
        <ele>186.60000610352</ele>
        <time>2011-07-01T10:48:55.000Z</time>
      </trkpt>
      <trkpt lat="48.75489" lon="1.76767">
        <ele>187</ele>
        <time>2011-07-01T10:49:00.000Z</time>
      </trkpt>
      <trkpt lat="48.75472" lon="1.76763">
        <ele>187.19999694824</ele>
        <time>2011-07-01T10:49:04.000Z</time>
      </trkpt>
      <trkpt lat="48.75459" lon="1.76759">
        <ele>187.39999389648</ele>
        <time>2011-07-01T10:49:08.000Z</time>
      </trkpt>
      <trkpt lat="48.75441" lon="1.76754">
        <ele>187.80000305176</ele>
        <time>2011-07-01T10:49:13.000Z</time>
      </trkpt>
      <trkpt lat="48.75423" lon="1.76746">
        <ele>188</ele>
        <time>2011-07-01T10:49:17.000Z</time>
      </trkpt>
      <trkpt lat="48.75407" lon="1.76741">
        <ele>188</ele>
        <time>2011-07-01T10:49:20.000Z</time>
      </trkpt>
      <trkpt lat="48.75383" lon="1.76732">
        <ele>187.80000305176</ele>
        <time>2011-07-01T10:49:25.000Z</time>
      </trkpt>
      <trkpt lat="48.75365" lon="1.76728">
        <ele>187.39999389648</ele>
        <time>2011-07-01T10:49:29.000Z</time>
      </trkpt>
      <trkpt lat="48.75345" lon="1.76721">
        <ele>187.19999694824</ele>
        <time>2011-07-01T10:49:34.000Z</time>
      </trkpt>
      <trkpt lat="48.75341" lon="1.76719">
        <ele>187.19999694824</ele>
        <time>2011-07-01T10:49:35.000Z</time>
      </trkpt>
      <trkpt lat="48.75321" lon="1.76712">
        <ele>186.80000305176</ele>
        <time>2011-07-01T10:49:40.000Z</time>
      </trkpt>
      <trkpt lat="48.7531" lon="1.7671">
        <ele>186.60000610352</ele>
        <time>2011-07-01T10:49:43.000Z</time>
      </trkpt>
      <trkpt lat="48.75301" lon="1.76708">
        <ele>186.39999389648</ele>
        <time>2011-07-01T10:49:45.000Z</time>
      </trkpt>
      <trkpt lat="48.7527" lon="1.76698">
        <ele>186</ele>
        <time>2011-07-01T10:49:52.000Z</time>
      </trkpt>
      <trkpt lat="48.7525" lon="1.76689">
        <ele>185.80000305176</ele>
        <time>2011-07-01T10:49:57.000Z</time>
      </trkpt>
      <trkpt lat="48.75241" lon="1.76686">
        <ele>186.39999389648</ele>
        <time>2011-07-01T10:49:59.000Z</time>
      </trkpt>
      <trkpt lat="48.75212" lon="1.76676">
        <ele>188.19999694824</ele>
        <time>2011-07-01T10:50:06.000Z</time>
      </trkpt>
      <trkpt lat="48.752" lon="1.76672">
        <ele>189</ele>
        <time>2011-07-01T10:50:09.000Z</time>
      </trkpt>
      <trkpt lat="48.75176" lon="1.76666">
        <ele>190.39999389648</ele>
        <time>2011-07-01T10:50:15.000Z</time>
      </trkpt>
      <trkpt lat="48.75156" lon="1.76658">
        <ele>191.60000610352</ele>
        <time>2011-07-01T10:50:20.000Z</time>
      </trkpt>
      <trkpt lat="48.75141" lon="1.76655">
        <ele>192.19999694824</ele>
        <time>2011-07-01T10:50:25.000Z</time>
      </trkpt>
      <trkpt lat="48.7513" lon="1.76654">
        <ele>192.60000610352</ele>
        <time>2011-07-01T10:50:30.000Z</time>
      </trkpt>
      <trkpt lat="48.75121" lon="1.7665">
        <ele>193</ele>
        <time>2011-07-01T10:50:36.000Z</time>
      </trkpt>
      <trkpt lat="48.75109" lon="1.76651">
        <ele>193.19999694824</ele>
        <time>2011-07-01T10:50:43.000Z</time>
      </trkpt>
      <trkpt lat="48.75097" lon="1.76652">
        <ele>193.60000610352</ele>
        <time>2011-07-01T10:50:51.000Z</time>
      </trkpt>
      <trkpt lat="48.75092" lon="1.76654">
        <ele>193.80000305176</ele>
        <time>2011-07-01T10:50:56.000Z</time>
      </trkpt>
      <trkpt lat="48.75085" lon="1.76654">
        <ele>194</ele>
        <time>2011-07-01T10:51:02.000Z</time>
      </trkpt>
      <trkpt lat="48.75074" lon="1.7665">
        <ele>194</ele>
        <time>2011-07-01T10:51:10.000Z</time>
      </trkpt>
      <trkpt lat="48.75065" lon="1.76644">
        <ele>194.19999694824</ele>
        <time>2011-07-01T10:51:15.000Z</time>
      </trkpt>
      <trkpt lat="48.75055" lon="1.76642">
        <ele>194.19999694824</ele>
        <time>2011-07-01T10:51:20.000Z</time>
      </trkpt>
      <trkpt lat="48.75048" lon="1.76637">
        <ele>194.19999694824</ele>
        <time>2011-07-01T10:51:26.000Z</time>
      </trkpt>
      <trkpt lat="48.7504" lon="1.76631">
        <ele>194.19999694824</ele>
        <time>2011-07-01T10:51:32.000Z</time>
      </trkpt>
      <trkpt lat="48.75036" lon="1.76626">
        <ele>194.19999694824</ele>
        <time>2011-07-01T10:51:38.000Z</time>
      </trkpt>
      <trkpt lat="48.75022" lon="1.7662">
        <ele>194</ele>
        <time>2011-07-01T10:51:46.000Z</time>
      </trkpt>
      <trkpt lat="48.75011" lon="1.76616">
        <ele>194</ele>
        <time>2011-07-01T10:51:52.000Z</time>
      </trkpt>
      <trkpt lat="48.75002" lon="1.76618">
        <ele>194</ele>
        <time>2011-07-01T10:51:58.000Z</time>
      </trkpt>
      <trkpt lat="48.74992" lon="1.76611">
        <ele>193.80000305176</ele>
        <time>2011-07-01T10:52:05.000Z</time>
      </trkpt>
      <trkpt lat="48.74983" lon="1.76608">
        <ele>193.80000305176</ele>
        <time>2011-07-01T10:52:11.000Z</time>
      </trkpt>
      <trkpt lat="48.74971" lon="1.76608">
        <ele>193.80000305176</ele>
        <time>2011-07-01T10:52:18.000Z</time>
      </trkpt>
      <trkpt lat="48.74961" lon="1.76604">
        <ele>193.80000305176</ele>
        <time>2011-07-01T10:52:24.000Z</time>
      </trkpt>
      <trkpt lat="48.7495" lon="1.76603">
        <ele>193.80000305176</ele>
        <time>2011-07-01T10:52:30.000Z</time>
      </trkpt>
      <trkpt lat="48.74942" lon="1.76603">
        <ele>193.80000305176</ele>
        <time>2011-07-01T10:52:37.000Z</time>
      </trkpt>
      <trkpt lat="48.74931" lon="1.76603">
        <ele>193.80000305176</ele>
        <time>2011-07-01T10:52:43.000Z</time>
      </trkpt>
      <trkpt lat="48.74929" lon="1.76603">
        <ele>193.60000610352</ele>
        <time>2011-07-01T10:52:44.000Z</time>
      </trkpt>
      <trkpt lat="48.74921" lon="1.76597">
        <ele>193.80000305176</ele>
        <time>2011-07-01T10:52:50.000Z</time>
      </trkpt>
      <trkpt lat="48.74914" lon="1.76596">
        <ele>193.80000305176</ele>
        <time>2011-07-01T10:52:53.000Z</time>
      </trkpt>
      <trkpt lat="48.74904" lon="1.76594">
        <ele>193.60000610352</ele>
        <time>2011-07-01T10:52:59.000Z</time>
      </trkpt>
      <trkpt lat="48.74893" lon="1.76587">
        <ele>193.60000610352</ele>
        <time>2011-07-01T10:53:05.000Z</time>
      </trkpt>
      <trkpt lat="48.74883" lon="1.76583">
        <ele>193.39999389648</ele>
        <time>2011-07-01T10:53:11.000Z</time>
      </trkpt>
      <trkpt lat="48.74874" lon="1.7658">
        <ele>193.39999389648</ele>
        <time>2011-07-01T10:53:17.000Z</time>
      </trkpt>
      <trkpt lat="48.74861" lon="1.76575">
        <ele>193.19999694824</ele>
        <time>2011-07-01T10:53:24.000Z</time>
      </trkpt>
      <trkpt lat="48.7485" lon="1.7657">
        <ele>193.19999694824</ele>
        <time>2011-07-01T10:53:31.000Z</time>
      </trkpt>
      <trkpt lat="48.74841" lon="1.76568">
        <ele>193</ele>
        <time>2011-07-01T10:53:37.000Z</time>
      </trkpt>
      <trkpt lat="48.74832" lon="1.76563">
        <ele>192.80000305176</ele>
        <time>2011-07-01T10:53:43.000Z</time>
      </trkpt>
      <trkpt lat="48.74823" lon="1.7656">
        <ele>192.60000610352</ele>
        <time>2011-07-01T10:53:49.000Z</time>
      </trkpt>
      <trkpt lat="48.74812" lon="1.76558">
        <ele>192.19999694824</ele>
        <time>2011-07-01T10:53:55.000Z</time>
      </trkpt>
      <trkpt lat="48.74802" lon="1.76554">
        <ele>191.80000305176</ele>
        <time>2011-07-01T10:54:02.000Z</time>
      </trkpt>
      <trkpt lat="48.74795" lon="1.76551">
        <ele>191.60000610352</ele>
        <time>2011-07-01T10:54:09.000Z</time>
      </trkpt>
      <trkpt lat="48.74794" lon="1.76551">
        <ele>191.39999389648</ele>
        <time>2011-07-01T10:54:10.000Z</time>
      </trkpt>
      <trkpt lat="48.74785" lon="1.76554">
        <ele>191.19999694824</ele>
        <time>2011-07-01T10:54:27.000Z</time>
      </trkpt>
      <trkpt lat="48.74773" lon="1.76548">
        <ele>190.80000305176</ele>
        <time>2011-07-01T10:54:33.000Z</time>
      </trkpt>
      <trkpt lat="48.74766" lon="1.76545">
        <ele>190.39999389648</ele>
        <time>2011-07-01T10:54:39.000Z</time>
      </trkpt>
      <trkpt lat="48.7476" lon="1.76544">
        <ele>190.19999694824</ele>
        <time>2011-07-01T10:54:44.000Z</time>
      </trkpt>
      <trkpt lat="48.74748" lon="1.7654">
        <ele>189.80000305176</ele>
        <time>2011-07-01T10:54:52.000Z</time>
      </trkpt>
      <trkpt lat="48.7474" lon="1.76538">
        <ele>189.80000305176</ele>
        <time>2011-07-01T10:54:58.000Z</time>
      </trkpt>
      <trkpt lat="48.7473" lon="1.76535">
        <ele>189.80000305176</ele>
        <time>2011-07-01T10:55:05.000Z</time>
      </trkpt>
      <trkpt lat="48.74725" lon="1.76535">
        <ele>189.80000305176</ele>
        <time>2011-07-01T10:55:09.000Z</time>
      </trkpt>
      <trkpt lat="48.74716" lon="1.76532">
        <ele>189.80000305176</ele>
        <time>2011-07-01T10:55:15.000Z</time>
      </trkpt>
      <trkpt lat="48.74713" lon="1.76531">
        <ele>189.80000305176</ele>
        <time>2011-07-01T10:55:17.000Z</time>
      </trkpt>
      <trkpt lat="48.74702" lon="1.76526">
        <ele>189.60000610352</ele>
        <time>2011-07-01T10:55:25.000Z</time>
      </trkpt>
      <trkpt lat="48.74694" lon="1.76524">
        <ele>189.60000610352</ele>
        <time>2011-07-01T10:55:31.000Z</time>
      </trkpt>
      <trkpt lat="48.74685" lon="1.7652">
        <ele>189.39999389648</ele>
        <time>2011-07-01T10:55:37.000Z</time>
      </trkpt>
      <trkpt lat="48.74668" lon="1.76515">
        <ele>189.19999694824</ele>
        <time>2011-07-01T10:55:46.000Z</time>
      </trkpt>
      <trkpt lat="48.74651" lon="1.76509">
        <ele>188.39999389648</ele>
        <time>2011-07-01T10:55:55.000Z</time>
      </trkpt>
      <trkpt lat="48.74642" lon="1.76504">
        <ele>187.80000305176</ele>
        <time>2011-07-01T10:56:02.000Z</time>
      </trkpt>
      <trkpt lat="48.74628" lon="1.76497">
        <ele>187</ele>
        <time>2011-07-01T10:56:10.000Z</time>
      </trkpt>
      <trkpt lat="48.74624" lon="1.76498">
        <ele>186.80000305176</ele>
        <time>2011-07-01T10:56:16.000Z</time>
      </trkpt>
      <trkpt lat="48.74619" lon="1.76503">
        <ele>186.60000610352</ele>
        <time>2011-07-01T10:57:01.000Z</time>
      </trkpt>
      <trkpt lat="48.74615" lon="1.76518">
        <ele>186.80000305176</ele>
        <time>2011-07-01T10:57:07.000Z</time>
      </trkpt>
      <trkpt lat="48.74607" lon="1.76533">
        <ele>186.80000305176</ele>
        <time>2011-07-01T10:57:16.000Z</time>
      </trkpt>
      <trkpt lat="48.74601" lon="1.76547">
        <ele>186.80000305176</ele>
        <time>2011-07-01T10:57:25.000Z</time>
      </trkpt>
      <trkpt lat="48.74595" lon="1.76558">
        <ele>186.80000305176</ele>
        <time>2011-07-01T10:57:31.000Z</time>
      </trkpt>
      <trkpt lat="48.7459" lon="1.7657">
        <ele>187</ele>
        <time>2011-07-01T10:57:38.000Z</time>
      </trkpt>
      <trkpt lat="48.74581" lon="1.76582">
        <ele>186.60000610352</ele>
        <time>2011-07-01T10:57:45.000Z</time>
      </trkpt>
      <trkpt lat="48.74578" lon="1.76588">
        <ele>186.39999389648</ele>
        <time>2011-07-01T10:57:48.000Z</time>
      </trkpt>
      <trkpt lat="48.74571" lon="1.76597">
        <ele>186</ele>
        <time>2011-07-01T10:57:54.000Z</time>
      </trkpt>
      <trkpt lat="48.74569" lon="1.76601">
        <ele>185.80000305176</ele>
        <time>2011-07-01T10:57:56.000Z</time>
      </trkpt>
      <trkpt lat="48.74559" lon="1.76612">
        <ele>185</ele>
        <time>2011-07-01T10:58:04.000Z</time>
      </trkpt>
      <trkpt lat="48.7455" lon="1.76622">
        <ele>184.60000610352</ele>
        <time>2011-07-01T10:58:11.000Z</time>
      </trkpt>
      <trkpt lat="48.74544" lon="1.76634">
        <ele>184.39999389648</ele>
        <time>2011-07-01T10:58:18.000Z</time>
      </trkpt>
      <trkpt lat="48.74532" lon="1.76652">
        <ele>183.80000305176</ele>
        <time>2011-07-01T10:58:28.000Z</time>
      </trkpt>
      <trkpt lat="48.74525" lon="1.76664">
        <ele>183.60000610352</ele>
        <time>2011-07-01T10:58:35.000Z</time>
      </trkpt>
      <trkpt lat="48.74516" lon="1.76674">
        <ele>183.39999389648</ele>
        <time>2011-07-01T10:58:42.000Z</time>
      </trkpt>
      <trkpt lat="48.7451" lon="1.76685">
        <ele>183.60000610352</ele>
        <time>2011-07-01T10:58:49.000Z</time>
      </trkpt>
      <trkpt lat="48.745" lon="1.76699">
        <ele>183.80000305176</ele>
        <time>2011-07-01T10:58:57.000Z</time>
      </trkpt>
      <trkpt lat="48.74491" lon="1.76711">
        <ele>183.19999694824</ele>
        <time>2011-07-01T10:59:04.000Z</time>
      </trkpt>
      <trkpt lat="48.74478" lon="1.76726">
        <ele>182.39999389648</ele>
        <time>2011-07-01T10:59:14.000Z</time>
      </trkpt>
      <trkpt lat="48.74475" lon="1.7673">
        <ele>182.19999694824</ele>
        <time>2011-07-01T10:59:19.000Z</time>
      </trkpt>
      <trkpt lat="48.74467" lon="1.76742">
        <ele>182</ele>
        <time>2011-07-01T10:59:33.000Z</time>
      </trkpt>
      <trkpt lat="48.74458" lon="1.76753">
        <ele>181.60000610352</ele>
        <time>2011-07-01T10:59:40.000Z</time>
      </trkpt>
      <trkpt lat="48.74451" lon="1.76766">
        <ele>181.19999694824</ele>
        <time>2011-07-01T10:59:47.000Z</time>
      </trkpt>
      <trkpt lat="48.74448" lon="1.76774">
        <ele>181.19999694824</ele>
        <time>2011-07-01T10:59:52.000Z</time>
      </trkpt>
      <trkpt lat="48.74443" lon="1.76785">
        <ele>181.19999694824</ele>
        <time>2011-07-01T10:59:58.000Z</time>
      </trkpt>
      <trkpt lat="48.74432" lon="1.76796">
        <ele>180.80000305176</ele>
        <time>2011-07-01T11:00:06.000Z</time>
      </trkpt>
      <trkpt lat="48.74424" lon="1.76807">
        <ele>180.60000610352</ele>
        <time>2011-07-01T11:00:13.000Z</time>
      </trkpt>
      <trkpt lat="48.74415" lon="1.76817">
        <ele>180.39999389648</ele>
        <time>2011-07-01T11:00:20.000Z</time>
      </trkpt>
      <trkpt lat="48.74408" lon="1.76829">
        <ele>179.60000610352</ele>
        <time>2011-07-01T11:00:27.000Z</time>
      </trkpt>
      <trkpt lat="48.74404" lon="1.76839">
        <ele>179.39999389648</ele>
        <time>2011-07-01T11:00:33.000Z</time>
      </trkpt>
      <trkpt lat="48.744" lon="1.76849">
        <ele>178.80000305176</ele>
        <time>2011-07-01T11:00:38.000Z</time>
      </trkpt>
      <trkpt lat="48.74395" lon="1.76858">
        <ele>178.39999389648</ele>
        <time>2011-07-01T11:00:42.000Z</time>
      </trkpt>
      <trkpt lat="48.74393" lon="1.76869">
        <ele>178.39999389648</ele>
        <time>2011-07-01T11:00:48.000Z</time>
      </trkpt>
      <trkpt lat="48.74387" lon="1.76881">
        <ele>178.19999694824</ele>
        <time>2011-07-01T11:00:55.000Z</time>
      </trkpt>
      <trkpt lat="48.7438" lon="1.76892">
        <ele>177.60000610352</ele>
        <time>2011-07-01T11:01:01.000Z</time>
      </trkpt>
      <trkpt lat="48.74369" lon="1.76906">
        <ele>176.80000305176</ele>
        <time>2011-07-01T11:01:10.000Z</time>
      </trkpt>
      <trkpt lat="48.7436" lon="1.76916">
        <ele>176.39999389648</ele>
        <time>2011-07-01T11:01:17.000Z</time>
      </trkpt>
      <trkpt lat="48.74355" lon="1.76926">
        <ele>176</ele>
        <time>2011-07-01T11:01:24.000Z</time>
      </trkpt>
      <trkpt lat="48.74348" lon="1.76937">
        <ele>175.60000610352</ele>
        <time>2011-07-01T11:01:30.000Z</time>
      </trkpt>
      <trkpt lat="48.74341" lon="1.7695">
        <ele>175.39999389648</ele>
        <time>2011-07-01T11:01:37.000Z</time>
      </trkpt>
      <trkpt lat="48.74335" lon="1.7697">
        <ele>175.60000610352</ele>
        <time>2011-07-01T11:01:47.000Z</time>
      </trkpt>
      <trkpt lat="48.7433" lon="1.76987">
        <ele>175.60000610352</ele>
        <time>2011-07-01T11:01:55.000Z</time>
      </trkpt>
      <trkpt lat="48.74328" lon="1.77006">
        <ele>175.80000305176</ele>
        <time>2011-07-01T11:02:04.000Z</time>
      </trkpt>
      <trkpt lat="48.74328" lon="1.77021">
        <ele>176.19999694824</ele>
        <time>2011-07-01T11:02:12.000Z</time>
      </trkpt>
      <trkpt lat="48.74326" lon="1.77034">
        <ele>176.39999389648</ele>
        <time>2011-07-01T11:02:20.000Z</time>
      </trkpt>
      <trkpt lat="48.74325" lon="1.77041">
        <ele>176.39999389648</ele>
        <time>2011-07-01T11:02:26.000Z</time>
      </trkpt>
      <trkpt lat="48.74322" lon="1.7706">
        <ele>176.39999389648</ele>
        <time>2011-07-01T11:02:34.000Z</time>
      </trkpt>
      <trkpt lat="48.7432" lon="1.77078">
        <ele>176.39999389648</ele>
        <time>2011-07-01T11:02:42.000Z</time>
      </trkpt>
      <trkpt lat="48.74318" lon="1.77097">
        <ele>176.39999389648</ele>
        <time>2011-07-01T11:02:51.000Z</time>
      </trkpt>
      <trkpt lat="48.74317" lon="1.77117">
        <ele>176.39999389648</ele>
        <time>2011-07-01T11:03:00.000Z</time>
      </trkpt>
      <trkpt lat="48.74314" lon="1.7714">
        <ele>176</ele>
        <time>2011-07-01T11:03:11.000Z</time>
      </trkpt>
      <trkpt lat="48.74309" lon="1.77157">
        <ele>175.60000610352</ele>
        <time>2011-07-01T11:03:19.000Z</time>
      </trkpt>
      <trkpt lat="48.74306" lon="1.77166">
        <ele>175.19999694824</ele>
        <time>2011-07-01T11:03:24.000Z</time>
      </trkpt>
      <trkpt lat="48.74302" lon="1.77176">
        <ele>175.19999694824</ele>
        <time>2011-07-01T11:03:29.000Z</time>
      </trkpt>
      <trkpt lat="48.74298" lon="1.77187">
        <ele>175.39999389648</ele>
        <time>2011-07-01T11:03:35.000Z</time>
      </trkpt>
      <trkpt lat="48.74293" lon="1.772">
        <ele>175.60000610352</ele>
        <time>2011-07-01T11:03:41.000Z</time>
      </trkpt>
      <trkpt lat="48.74291" lon="1.77211">
        <ele>176</ele>
        <time>2011-07-01T11:03:46.000Z</time>
      </trkpt>
      <trkpt lat="48.74289" lon="1.77227">
        <ele>176.80000305176</ele>
        <time>2011-07-01T11:03:53.000Z</time>
      </trkpt>
      <trkpt lat="48.74288" lon="1.77229">
        <ele>176.80000305176</ele>
        <time>2011-07-01T11:03:54.000Z</time>
      </trkpt>
      <trkpt lat="48.74284" lon="1.77244">
        <ele>177.60000610352</ele>
        <time>2011-07-01T11:04:01.000Z</time>
      </trkpt>
      <trkpt lat="48.74276" lon="1.77255">
        <ele>177.80000305176</ele>
        <time>2011-07-01T11:04:09.000Z</time>
      </trkpt>
      <trkpt lat="48.74269" lon="1.77267">
        <ele>178.19999694824</ele>
        <time>2011-07-01T11:04:16.000Z</time>
      </trkpt>
      <trkpt lat="48.74259" lon="1.77278">
        <ele>178.60000610352</ele>
        <time>2011-07-01T11:04:24.000Z</time>
      </trkpt>
      <trkpt lat="48.74251" lon="1.77285">
        <ele>178.80000305176</ele>
        <time>2011-07-01T11:04:32.000Z</time>
      </trkpt>
      <trkpt lat="48.74251" lon="1.77284">
        <ele>178.80000305176</ele>
        <time>2011-07-01T11:04:35.000Z</time>
      </trkpt>
      <trkpt lat="48.74246" lon="1.77289">
        <ele>178.80000305176</ele>
        <time>2011-07-01T11:04:42.000Z</time>
      </trkpt>
      <trkpt lat="48.74239" lon="1.77296">
        <ele>178.80000305176</ele>
        <time>2011-07-01T11:04:47.000Z</time>
      </trkpt>
      <trkpt lat="48.74232" lon="1.77302">
        <ele>178.60000610352</ele>
        <time>2011-07-01T11:04:52.000Z</time>
      </trkpt>
      <trkpt lat="48.74224" lon="1.77308">
        <ele>178.60000610352</ele>
        <time>2011-07-01T11:04:58.000Z</time>
      </trkpt>
      <trkpt lat="48.74215" lon="1.77311">
        <ele>178.19999694824</ele>
        <time>2011-07-01T11:05:05.000Z</time>
      </trkpt>
      <trkpt lat="48.74207" lon="1.77311">
        <ele>177.60000610352</ele>
        <time>2011-07-01T11:05:11.000Z</time>
      </trkpt>
      <trkpt lat="48.74204" lon="1.77311">
        <ele>177.19999694824</ele>
        <time>2011-07-01T11:05:13.000Z</time>
      </trkpt>
      <trkpt lat="48.74193" lon="1.77304">
        <ele>175.60000610352</ele>
        <time>2011-07-01T11:05:20.000Z</time>
      </trkpt>
      <trkpt lat="48.74182" lon="1.77301">
        <ele>174.39999389648</ele>
        <time>2011-07-01T11:05:27.000Z</time>
      </trkpt>
      <trkpt lat="48.74176" lon="1.77297">
        <ele>173.39999389648</ele>
        <time>2011-07-01T11:05:32.000Z</time>
      </trkpt>
      <trkpt lat="48.74169" lon="1.77296">
        <ele>172.80000305176</ele>
        <time>2011-07-01T11:05:36.000Z</time>
      </trkpt>
      <trkpt lat="48.74157" lon="1.77299">
        <ele>172</ele>
        <time>2011-07-01T11:05:43.000Z</time>
      </trkpt>
      <trkpt lat="48.74156" lon="1.773">
        <ele>171.80000305176</ele>
        <time>2011-07-01T11:05:44.000Z</time>
      </trkpt>
      <trkpt lat="48.74146" lon="1.77314">
        <ele>172.39999389648</ele>
        <time>2011-07-01T11:05:54.000Z</time>
      </trkpt>
      <trkpt lat="48.74144" lon="1.77316">
        <ele>172.39999389648</ele>
        <time>2011-07-01T11:05:58.000Z</time>
      </trkpt>
      <trkpt lat="48.74142" lon="1.77323">
        <ele>173</ele>
        <time>2011-07-01T11:06:07.000Z</time>
      </trkpt>
      <trkpt lat="48.74139" lon="1.77331">
        <ele>173.19999694824</ele>
        <time>2011-07-01T11:06:10.000Z</time>
      </trkpt>
      <trkpt lat="48.74131" lon="1.77343">
        <ele>172.39999389648</ele>
        <time>2011-07-01T11:06:18.000Z</time>
      </trkpt>
      <trkpt lat="48.74124" lon="1.77351">
        <ele>171.60000610352</ele>
        <time>2011-07-01T11:06:24.000Z</time>
      </trkpt>
      <trkpt lat="48.74122" lon="1.77352">
        <ele>171.39999389648</ele>
        <time>2011-07-01T11:06:28.000Z</time>
      </trkpt>
      <trkpt lat="48.74118" lon="1.77357">
        <ele>170.80000305176</ele>
        <time>2011-07-01T11:06:34.000Z</time>
      </trkpt>
      <trkpt lat="48.74116" lon="1.77362">
        <ele>170.39999389648</ele>
        <time>2011-07-01T11:06:36.000Z</time>
      </trkpt>
      <trkpt lat="48.74109" lon="1.77378">
        <ele>169.39999389648</ele>
        <time>2011-07-01T11:06:45.000Z</time>
      </trkpt>
      <trkpt lat="48.74105" lon="1.77385">
        <ele>169</ele>
        <time>2011-07-01T11:06:49.000Z</time>
      </trkpt>
      <trkpt lat="48.74102" lon="1.77401">
        <ele>168.39999389648</ele>
        <time>2011-07-01T11:06:56.000Z</time>
      </trkpt>
      <trkpt lat="48.74102" lon="1.77403">
        <ele>168.19999694824</ele>
        <time>2011-07-01T11:06:57.000Z</time>
      </trkpt>
      <trkpt lat="48.74099" lon="1.7742">
        <ele>167.80000305176</ele>
        <time>2011-07-01T11:07:05.000Z</time>
      </trkpt>
      <trkpt lat="48.74098" lon="1.77422">
        <ele>167.60000610352</ele>
        <time>2011-07-01T11:07:06.000Z</time>
      </trkpt>
      <trkpt lat="48.74095" lon="1.77433">
        <ele>166.80000305176</ele>
        <time>2011-07-01T11:07:12.000Z</time>
      </trkpt>
      <trkpt lat="48.74091" lon="1.77448">
        <ele>166</ele>
        <time>2011-07-01T11:07:19.000Z</time>
      </trkpt>
      <trkpt lat="48.74087" lon="1.77458">
        <ele>165.39999389648</ele>
        <time>2011-07-01T11:07:24.000Z</time>
      </trkpt>
      <trkpt lat="48.74078" lon="1.77476">
        <ele>164.80000305176</ele>
        <time>2011-07-01T11:07:34.000Z</time>
      </trkpt>
      <trkpt lat="48.74071" lon="1.77495">
        <ele>165</ele>
        <time>2011-07-01T11:07:43.000Z</time>
      </trkpt>
      <trkpt lat="48.74063" lon="1.77509">
        <ele>165.19999694824</ele>
        <time>2011-07-01T11:07:50.000Z</time>
      </trkpt>
      <trkpt lat="48.74056" lon="1.7752">
        <ele>165.39999389648</ele>
        <time>2011-07-01T11:07:57.000Z</time>
      </trkpt>
      <trkpt lat="48.74044" lon="1.77526">
        <ele>166.19999694824</ele>
        <time>2011-07-01T11:08:05.000Z</time>
      </trkpt>
      <trkpt lat="48.74044" lon="1.77526">
        <ele>166.19999694824</ele>
        <time>2011-07-01T11:08:06.000Z</time>
      </trkpt>
      <trkpt lat="48.74036" lon="1.77525">
        <ele>166.80000305176</ele>
        <time>2011-07-01T11:08:12.000Z</time>
      </trkpt>
      <trkpt lat="48.74031" lon="1.77526">
        <ele>167.19999694824</ele>
        <time>2011-07-01T11:08:15.000Z</time>
      </trkpt>
      <trkpt lat="48.74018" lon="1.77529">
        <ele>168.19999694824</ele>
        <time>2011-07-01T11:08:22.000Z</time>
      </trkpt>
      <trkpt lat="48.74013" lon="1.77529">
        <ele>168.60000610352</ele>
        <time>2011-07-01T11:08:25.000Z</time>
      </trkpt>
      <trkpt lat="48.74003" lon="1.77529">
        <ele>169.39999389648</ele>
        <time>2011-07-01T11:08:31.000Z</time>
      </trkpt>
      <trkpt lat="48.73993" lon="1.77531">
        <ele>169.39999389648</ele>
        <time>2011-07-01T11:08:37.000Z</time>
      </trkpt>
      <trkpt lat="48.7398" lon="1.77531">
        <ele>169.39999389648</ele>
        <time>2011-07-01T11:08:44.000Z</time>
      </trkpt>
      <trkpt lat="48.7397" lon="1.77527">
        <ele>169.19999694824</ele>
        <time>2011-07-01T11:08:50.000Z</time>
      </trkpt>
      <trkpt lat="48.7396" lon="1.77524">
        <ele>169</ele>
        <time>2011-07-01T11:08:56.000Z</time>
      </trkpt>
      <trkpt lat="48.73954" lon="1.77525">
        <ele>169</ele>
        <time>2011-07-01T11:09:01.000Z</time>
      </trkpt>
      <trkpt lat="48.73945" lon="1.77525">
        <ele>168.80000305176</ele>
        <time>2011-07-01T11:09:07.000Z</time>
      </trkpt>
      <trkpt lat="48.73931" lon="1.77521">
        <ele>168.39999389648</ele>
        <time>2011-07-01T11:09:15.000Z</time>
      </trkpt>
      <trkpt lat="48.7392" lon="1.77516">
        <ele>168</ele>
        <time>2011-07-01T11:09:22.000Z</time>
      </trkpt>
      <trkpt lat="48.73909" lon="1.77509">
        <ele>167</ele>
        <time>2011-07-01T11:09:29.000Z</time>
      </trkpt>
      <trkpt lat="48.73907" lon="1.77507">
        <ele>166.60000610352</ele>
        <time>2011-07-01T11:09:32.000Z</time>
      </trkpt>
      <trkpt lat="48.73902" lon="1.77503">
        <ele>166.19999694824</ele>
        <time>2011-07-01T11:09:34.000Z</time>
      </trkpt>
      <trkpt lat="48.73894" lon="1.77496">
        <ele>165.60000610352</ele>
        <time>2011-07-01T11:09:39.000Z</time>
      </trkpt>
      <trkpt lat="48.73885" lon="1.77482">
        <ele>165.39999389648</ele>
        <time>2011-07-01T11:09:45.000Z</time>
      </trkpt>
      <trkpt lat="48.73881" lon="1.77472">
        <ele>165.39999389648</ele>
        <time>2011-07-01T11:09:51.000Z</time>
      </trkpt>
      <trkpt lat="48.73874" lon="1.7746">
        <ele>165.39999389648</ele>
        <time>2011-07-01T11:09:58.000Z</time>
      </trkpt>
      <trkpt lat="48.73874" lon="1.77458">
        <ele>165.39999389648</ele>
        <time>2011-07-01T11:09:59.000Z</time>
      </trkpt>
      <trkpt lat="48.73868" lon="1.7745">
        <ele>165.39999389648</ele>
        <time>2011-07-01T11:10:05.000Z</time>
      </trkpt>
      <trkpt lat="48.73862" lon="1.77444">
        <ele>165.19999694824</ele>
        <time>2011-07-01T11:10:11.000Z</time>
      </trkpt>
      <trkpt lat="48.73855" lon="1.77434">
        <ele>165.19999694824</ele>
        <time>2011-07-01T11:10:17.000Z</time>
      </trkpt>
      <trkpt lat="48.73852" lon="1.77431">
        <ele>165.19999694824</ele>
        <time>2011-07-01T11:10:21.000Z</time>
      </trkpt>
      <trkpt lat="48.73851" lon="1.7742">
        <ele>165.39999389648</ele>
        <time>2011-07-01T11:12:00.000Z</time>
      </trkpt>
      <trkpt lat="48.73843" lon="1.7741">
        <ele>165.39999389648</ele>
        <time>2011-07-01T11:12:06.000Z</time>
      </trkpt>
      <trkpt lat="48.7384" lon="1.77407">
        <ele>165.39999389648</ele>
        <time>2011-07-01T11:12:10.000Z</time>
      </trkpt>
      <trkpt lat="48.73834" lon="1.77399">
        <ele>165.60000610352</ele>
        <time>2011-07-01T11:12:15.000Z</time>
      </trkpt>
      <trkpt lat="48.73826" lon="1.77392">
        <ele>166.39999389648</ele>
        <time>2011-07-01T11:12:20.000Z</time>
      </trkpt>
      <trkpt lat="48.73824" lon="1.7739">
        <ele>166.60000610352</ele>
        <time>2011-07-01T11:12:22.000Z</time>
      </trkpt>
      <trkpt lat="48.73818" lon="1.77386">
        <ele>167.19999694824</ele>
        <time>2011-07-01T11:12:26.000Z</time>
      </trkpt>
      <trkpt lat="48.73812" lon="1.77377">
        <ele>167.80000305176</ele>
        <time>2011-07-01T11:12:32.000Z</time>
      </trkpt>
      <trkpt lat="48.7381" lon="1.77375">
        <ele>168.19999694824</ele>
        <time>2011-07-01T11:12:36.000Z</time>
      </trkpt>
      <trkpt lat="48.73811" lon="1.77373">
        <ele>168</ele>
        <time>2011-07-01T11:12:46.000Z</time>
      </trkpt>
      <trkpt lat="48.73815" lon="1.77366">
        <ele>168</ele>
        <time>2011-07-01T11:12:49.000Z</time>
      </trkpt>
      <trkpt lat="48.73819" lon="1.77359">
        <ele>168</ele>
        <time>2011-07-01T11:12:55.000Z</time>
      </trkpt>
      <trkpt lat="48.73827" lon="1.7736">
        <ele>167.39999389648</ele>
        <time>2011-07-01T11:13:00.000Z</time>
      </trkpt>
      <trkpt lat="48.73829" lon="1.77356">
        <ele>167.39999389648</ele>
        <time>2011-07-01T11:13:06.000Z</time>
      </trkpt>
      <trkpt lat="48.73838" lon="1.77346">
        <ele>167.39999389648</ele>
        <time>2011-07-01T11:13:14.000Z</time>
      </trkpt>
      <trkpt lat="48.73843" lon="1.77331">
        <ele>167.39999389648</ele>
        <time>2011-07-01T11:13:22.000Z</time>
      </trkpt>
      <trkpt lat="48.73846" lon="1.77316">
        <ele>167.19999694824</ele>
        <time>2011-07-01T11:13:30.000Z</time>
      </trkpt>
      <trkpt lat="48.7385" lon="1.77305">
        <ele>167</ele>
        <time>2011-07-01T11:13:36.000Z</time>
      </trkpt>
      <trkpt lat="48.73857" lon="1.77296">
        <ele>166.60000610352</ele>
        <time>2011-07-01T11:13:42.000Z</time>
      </trkpt>
      <trkpt lat="48.7386" lon="1.77288">
        <ele>166.19999694824</ele>
        <time>2011-07-01T11:13:47.000Z</time>
      </trkpt>
      <trkpt lat="48.73865" lon="1.77278">
        <ele>165.80000305176</ele>
        <time>2011-07-01T11:13:54.000Z</time>
      </trkpt>
      <trkpt lat="48.73872" lon="1.77268">
        <ele>165.19999694824</ele>
        <time>2011-07-01T11:14:01.000Z</time>
      </trkpt>
      <trkpt lat="48.73882" lon="1.77258">
        <ele>164.39999389648</ele>
        <time>2011-07-01T11:14:08.000Z</time>
      </trkpt>
      <trkpt lat="48.73888" lon="1.77246">
        <ele>164</ele>
        <time>2011-07-01T11:14:15.000Z</time>
      </trkpt>
      <trkpt lat="48.73896" lon="1.77243">
        <ele>163.39999389648</ele>
        <time>2011-07-01T11:14:21.000Z</time>
      </trkpt>
      <trkpt lat="48.73902" lon="1.77239">
        <ele>163.19999694824</ele>
        <time>2011-07-01T11:14:27.000Z</time>
      </trkpt>
      <trkpt lat="48.73912" lon="1.77237">
        <ele>162.39999389648</ele>
        <time>2011-07-01T11:14:33.000Z</time>
      </trkpt>
      <trkpt lat="48.73915" lon="1.77233">
        <ele>162.19999694824</ele>
        <time>2011-07-01T11:14:37.000Z</time>
      </trkpt>
      <trkpt lat="48.7392" lon="1.77224">
        <ele>162.19999694824</ele>
        <time>2011-07-01T11:14:43.000Z</time>
      </trkpt>
      <trkpt lat="48.73924" lon="1.77218">
        <ele>162</ele>
        <time>2011-07-01T11:14:47.000Z</time>
      </trkpt>
      <trkpt lat="48.73935" lon="1.77214">
        <ele>161.80000305176</ele>
        <time>2011-07-01T11:14:53.000Z</time>
      </trkpt>
      <trkpt lat="48.73939" lon="1.77212">
        <ele>161.60000610352</ele>
        <time>2011-07-01T11:14:55.000Z</time>
      </trkpt>
      <trkpt lat="48.73949" lon="1.77208">
        <ele>161.19999694824</ele>
        <time>2011-07-01T11:15:02.000Z</time>
      </trkpt>
      <trkpt lat="48.73959" lon="1.77201">
        <ele>160.80000305176</ele>
        <time>2011-07-01T11:15:09.000Z</time>
      </trkpt>
      <trkpt lat="48.73968" lon="1.77195">
        <ele>160</ele>
        <time>2011-07-01T11:15:16.000Z</time>
      </trkpt>
      <trkpt lat="48.73976" lon="1.77189">
        <ele>159.39999389648</ele>
        <time>2011-07-01T11:15:22.000Z</time>
      </trkpt>
      <trkpt lat="48.73984" lon="1.77182">
        <ele>158.80000305176</ele>
        <time>2011-07-01T11:15:28.000Z</time>
      </trkpt>
      <trkpt lat="48.73986" lon="1.77179">
        <ele>158.39999389648</ele>
        <time>2011-07-01T11:15:30.000Z</time>
      </trkpt>
      <trkpt lat="48.73992" lon="1.7717">
        <ele>157.60000610352</ele>
        <time>2011-07-01T11:15:36.000Z</time>
      </trkpt>
      <trkpt lat="48.74" lon="1.7716">
        <ele>157</ele>
        <time>2011-07-01T11:15:42.000Z</time>
      </trkpt>
      <trkpt lat="48.74006" lon="1.77148">
        <ele>157</ele>
        <time>2011-07-01T11:15:49.000Z</time>
      </trkpt>
      <trkpt lat="48.74013" lon="1.77134">
        <ele>156.80000305176</ele>
        <time>2011-07-01T11:15:57.000Z</time>
      </trkpt>
      <trkpt lat="48.7402" lon="1.7712">
        <ele>156.80000305176</ele>
        <time>2011-07-01T11:16:05.000Z</time>
      </trkpt>
      <trkpt lat="48.74027" lon="1.7711">
        <ele>156.39999389648</ele>
        <time>2011-07-01T11:16:12.000Z</time>
      </trkpt>
      <trkpt lat="48.74028" lon="1.77108">
        <ele>156.39999389648</ele>
        <time>2011-07-01T11:16:13.000Z</time>
      </trkpt>
      <trkpt lat="48.74038" lon="1.77099">
        <ele>156</ele>
        <time>2011-07-01T11:16:19.000Z</time>
      </trkpt>
      <trkpt lat="48.74045" lon="1.77087">
        <ele>155.80000305176</ele>
        <time>2011-07-01T11:16:26.000Z</time>
      </trkpt>
      <trkpt lat="48.74054" lon="1.77074">
        <ele>155.39999389648</ele>
        <time>2011-07-01T11:16:34.000Z</time>
      </trkpt>
      <trkpt lat="48.74055" lon="1.77073">
        <ele>155.39999389648</ele>
        <time>2011-07-01T11:16:35.000Z</time>
      </trkpt>
      <trkpt lat="48.74061" lon="1.77059">
        <ele>155</ele>
        <time>2011-07-01T11:16:43.000Z</time>
      </trkpt>
      <trkpt lat="48.7407" lon="1.77043">
        <ele>154.60000610352</ele>
        <time>2011-07-01T11:16:53.000Z</time>
      </trkpt>
      <trkpt lat="48.74077" lon="1.7703">
        <ele>154.19999694824</ele>
        <time>2011-07-01T11:17:00.000Z</time>
      </trkpt>
      <trkpt lat="48.74086" lon="1.77015">
        <ele>153.80000305176</ele>
        <time>2011-07-01T11:17:09.000Z</time>
      </trkpt>
      <trkpt lat="48.74086" lon="1.77015">
        <ele>153.80000305176</ele>
        <time>2011-07-01T11:17:11.000Z</time>
      </trkpt>
      <trkpt lat="48.7409" lon="1.77008">
        <ele>153.80000305176</ele>
        <time>2011-07-01T11:17:18.000Z</time>
      </trkpt>
      <trkpt lat="48.74095" lon="1.76996">
        <ele>153.60000610352</ele>
        <time>2011-07-01T11:17:24.000Z</time>
      </trkpt>
      <trkpt lat="48.74105" lon="1.76979">
        <ele>153.39999389648</ele>
        <time>2011-07-01T11:17:34.000Z</time>
      </trkpt>
      <trkpt lat="48.74117" lon="1.76959">
        <ele>153</ele>
        <time>2011-07-01T11:17:45.000Z</time>
      </trkpt>
      <trkpt lat="48.74124" lon="1.76946">
        <ele>153</ele>
        <time>2011-07-01T11:17:53.000Z</time>
      </trkpt>
      <trkpt lat="48.74131" lon="1.76929">
        <ele>152.80000305176</ele>
        <time>2011-07-01T11:18:02.000Z</time>
      </trkpt>
      <trkpt lat="48.74135" lon="1.76918">
        <ele>152.60000610352</ele>
        <time>2011-07-01T11:18:08.000Z</time>
      </trkpt>
      <trkpt lat="48.74142" lon="1.76905">
        <ele>152.60000610352</ele>
        <time>2011-07-01T11:18:16.000Z</time>
      </trkpt>
      <trkpt lat="48.74148" lon="1.76888">
        <ele>152.39999389648</ele>
        <time>2011-07-01T11:18:25.000Z</time>
      </trkpt>
      <trkpt lat="48.74156" lon="1.76869">
        <ele>151.80000305176</ele>
        <time>2011-07-01T11:18:35.000Z</time>
      </trkpt>
      <trkpt lat="48.74163" lon="1.76853">
        <ele>151.39999389648</ele>
        <time>2011-07-01T11:18:44.000Z</time>
      </trkpt>
      <trkpt lat="48.7417" lon="1.76837">
        <ele>151</ele>
        <time>2011-07-01T11:18:53.000Z</time>
      </trkpt>
      <trkpt lat="48.74179" lon="1.76817">
        <ele>151.19999694824</ele>
        <time>2011-07-01T11:19:03.000Z</time>
      </trkpt>
      <trkpt lat="48.74183" lon="1.76802">
        <ele>151.39999389648</ele>
        <time>2011-07-01T11:19:10.000Z</time>
      </trkpt>
      <trkpt lat="48.7419" lon="1.76787">
        <ele>151.60000610352</ele>
        <time>2011-07-01T11:19:18.000Z</time>
      </trkpt>
      <trkpt lat="48.74195" lon="1.76772">
        <ele>151.39999389648</ele>
        <time>2011-07-01T11:19:26.000Z</time>
      </trkpt>
      <trkpt lat="48.74195" lon="1.76769">
        <ele>151.39999389648</ele>
        <time>2011-07-01T11:19:31.000Z</time>
      </trkpt>
      <trkpt lat="48.74194" lon="1.76768">
        <ele>151.60000610352</ele>
        <time>2011-07-01T11:19:37.000Z</time>
      </trkpt>
      <trkpt lat="48.74191" lon="1.76765">
        <ele>151.60000610352</ele>
        <time>2011-07-01T11:19:42.000Z</time>
      </trkpt>
      <trkpt lat="48.74191" lon="1.76765">
        <ele>151.60000610352</ele>
        <time>2011-07-01T11:19:43.000Z</time>
      </trkpt>
      <trkpt lat="48.74201" lon="1.7676">
        <ele>151.19999694824</ele>
        <time>2011-07-01T11:21:08.000Z</time>
      </trkpt>
      <trkpt lat="48.74203" lon="1.76748">
        <ele>151.19999694824</ele>
        <time>2011-07-01T11:21:13.000Z</time>
      </trkpt>
      <trkpt lat="48.74206" lon="1.76738">
        <ele>151</ele>
        <time>2011-07-01T11:21:18.000Z</time>
      </trkpt>
      <trkpt lat="48.74208" lon="1.76728">
        <ele>150.80000305176</ele>
        <time>2011-07-01T11:21:24.000Z</time>
      </trkpt>
      <trkpt lat="48.74209" lon="1.76717">
        <ele>150.60000610352</ele>
        <time>2011-07-01T11:21:30.000Z</time>
      </trkpt>
      <trkpt lat="48.74209" lon="1.76717">
        <ele>150.60000610352</ele>
        <time>2011-07-01T11:21:32.000Z</time>
      </trkpt>
      <trkpt lat="48.74211" lon="1.76708">
        <ele>150.60000610352</ele>
        <time>2011-07-01T11:21:38.000Z</time>
      </trkpt>
      <trkpt lat="48.74212" lon="1.76706">
        <ele>150.60000610352</ele>
        <time>2011-07-01T11:21:39.000Z</time>
      </trkpt>
      <trkpt lat="48.74216" lon="1.76691">
        <ele>150.19999694824</ele>
        <time>2011-07-01T11:21:46.000Z</time>
      </trkpt>
      <trkpt lat="48.74216" lon="1.76683">
        <ele>150.19999694824</ele>
        <time>2011-07-01T11:21:49.000Z</time>
      </trkpt>
      <trkpt lat="48.74218" lon="1.76669">
        <ele>150</ele>
        <time>2011-07-01T11:21:56.000Z</time>
      </trkpt>
      <trkpt lat="48.74218" lon="1.76665">
        <ele>150</ele>
        <time>2011-07-01T11:21:58.000Z</time>
      </trkpt>
      <trkpt lat="48.74222" lon="1.76652">
        <ele>150</ele>
        <time>2011-07-01T11:22:05.000Z</time>
      </trkpt>
      <trkpt lat="48.74226" lon="1.7664">
        <ele>150</ele>
        <time>2011-07-01T11:22:12.000Z</time>
      </trkpt>
      <trkpt lat="48.7423" lon="1.76628">
        <ele>150</ele>
        <time>2011-07-01T11:22:19.000Z</time>
      </trkpt>
      <trkpt lat="48.7423" lon="1.76625">
        <ele>150</ele>
        <time>2011-07-01T11:22:21.000Z</time>
      </trkpt>
      <trkpt lat="48.74233" lon="1.76612">
        <ele>150</ele>
        <time>2011-07-01T11:22:28.000Z</time>
      </trkpt>
      <trkpt lat="48.74233" lon="1.7661">
        <ele>150</ele>
        <time>2011-07-01T11:22:29.000Z</time>
      </trkpt>
      <trkpt lat="48.74233" lon="1.76602">
        <ele>150.19999694824</ele>
        <time>2011-07-01T11:22:33.000Z</time>
      </trkpt>
      <trkpt lat="48.74234" lon="1.76594">
        <ele>150.19999694824</ele>
        <time>2011-07-01T11:22:39.000Z</time>
      </trkpt>
      <trkpt lat="48.74235" lon="1.76589">
        <ele>150.19999694824</ele>
        <time>2011-07-01T11:22:43.000Z</time>
      </trkpt>
      <trkpt lat="48.74237" lon="1.76586">
        <ele>150.19999694824</ele>
        <time>2011-07-01T11:22:45.000Z</time>
      </trkpt>
      <trkpt lat="48.74238" lon="1.76578">
        <ele>150.39999389648</ele>
        <time>2011-07-01T11:22:49.000Z</time>
      </trkpt>
      <trkpt lat="48.74239" lon="1.76568">
        <ele>150.60000610352</ele>
        <time>2011-07-01T11:22:54.000Z</time>
      </trkpt>
      <trkpt lat="48.7424" lon="1.76549">
        <ele>151</ele>
        <time>2011-07-01T11:23:03.000Z</time>
      </trkpt>
      <trkpt lat="48.74242" lon="1.76539">
        <ele>151.19999694824</ele>
        <time>2011-07-01T11:23:08.000Z</time>
      </trkpt>
      <trkpt lat="48.74241" lon="1.76531">
        <ele>151.39999389648</ele>
        <time>2011-07-01T11:23:13.000Z</time>
      </trkpt>
      <trkpt lat="48.74239" lon="1.76526">
        <ele>151.60000610352</ele>
        <time>2011-07-01T11:23:16.000Z</time>
      </trkpt>
      <trkpt lat="48.74236" lon="1.76518">
        <ele>151.80000305176</ele>
        <time>2011-07-01T11:23:20.000Z</time>
      </trkpt>
      <trkpt lat="48.74229" lon="1.765">
        <ele>152.39999389648</ele>
        <time>2011-07-01T11:23:29.000Z</time>
      </trkpt>
      <trkpt lat="48.74224" lon="1.76489">
        <ele>152.80000305176</ele>
        <time>2011-07-01T11:23:37.000Z</time>
      </trkpt>
      <trkpt lat="48.74218" lon="1.76478">
        <ele>153.39999389648</ele>
        <time>2011-07-01T11:23:44.000Z</time>
      </trkpt>
      <trkpt lat="48.74214" lon="1.76467">
        <ele>153.80000305176</ele>
        <time>2011-07-01T11:23:51.000Z</time>
      </trkpt>
      <trkpt lat="48.7421" lon="1.76462">
        <ele>154.19999694824</ele>
        <time>2011-07-01T11:23:54.000Z</time>
      </trkpt>
      <trkpt lat="48.74209" lon="1.76452">
        <ele>154.60000610352</ele>
        <time>2011-07-01T11:23:58.000Z</time>
      </trkpt>
      <trkpt lat="48.74207" lon="1.76436">
        <ele>155.19999694824</ele>
        <time>2011-07-01T11:24:04.000Z</time>
      </trkpt>
      <trkpt lat="48.74207" lon="1.76428">
        <ele>155.60000610352</ele>
        <time>2011-07-01T11:24:07.000Z</time>
      </trkpt>
      <trkpt lat="48.74209" lon="1.76415">
        <ele>156</ele>
        <time>2011-07-01T11:24:13.000Z</time>
      </trkpt>
      <trkpt lat="48.74216" lon="1.76398">
        <ele>156.19999694824</ele>
        <time>2011-07-01T11:24:21.000Z</time>
      </trkpt>
      <trkpt lat="48.74217" lon="1.76396">
        <ele>156.19999694824</ele>
        <time>2011-07-01T11:24:22.000Z</time>
      </trkpt>
      <trkpt lat="48.74219" lon="1.76388">
        <ele>156.19999694824</ele>
        <time>2011-07-01T11:24:26.000Z</time>
      </trkpt>
      <trkpt lat="48.74221" lon="1.76383">
        <ele>156.19999694824</ele>
        <time>2011-07-01T11:24:29.000Z</time>
      </trkpt>
      <trkpt lat="48.7422" lon="1.76377">
        <ele>156.60000610352</ele>
        <time>2011-07-01T11:24:33.000Z</time>
      </trkpt>
      <trkpt lat="48.74215" lon="1.76372">
        <ele>157.39999389648</ele>
        <time>2011-07-01T11:24:39.000Z</time>
      </trkpt>
      <trkpt lat="48.74206" lon="1.76368">
        <ele>158.39999389648</ele>
        <time>2011-07-01T11:24:46.000Z</time>
      </trkpt>
      <trkpt lat="48.74196" lon="1.76365">
        <ele>159.80000305176</ele>
        <time>2011-07-01T11:24:54.000Z</time>
      </trkpt>
      <trkpt lat="48.74189" lon="1.76363">
        <ele>160.80000305176</ele>
        <time>2011-07-01T11:24:59.000Z</time>
      </trkpt>
      <trkpt lat="48.74182" lon="1.76361">
        <ele>161.80000305176</ele>
        <time>2011-07-01T11:25:06.000Z</time>
      </trkpt>
      <trkpt lat="48.74172" lon="1.76362">
        <ele>162.80000305176</ele>
        <time>2011-07-01T11:25:15.000Z</time>
      </trkpt>
      <trkpt lat="48.74165" lon="1.7636">
        <ele>164</ele>
        <time>2011-07-01T11:25:22.000Z</time>
      </trkpt>
      <trkpt lat="48.74156" lon="1.76358">
        <ele>165.19999694824</ele>
        <time>2011-07-01T11:25:30.000Z</time>
      </trkpt>
      <trkpt lat="48.7415" lon="1.76356">
        <ele>166.19999694824</ele>
        <time>2011-07-01T11:25:35.000Z</time>
      </trkpt>
      <trkpt lat="48.74143" lon="1.76354">
        <ele>167.39999389648</ele>
        <time>2011-07-01T11:25:40.000Z</time>
      </trkpt>
      <trkpt lat="48.74135" lon="1.76351">
        <ele>168.60000610352</ele>
        <time>2011-07-01T11:25:46.000Z</time>
      </trkpt>
      <trkpt lat="48.74128" lon="1.76348">
        <ele>169.60000610352</ele>
        <time>2011-07-01T11:25:52.000Z</time>
      </trkpt>
      <trkpt lat="48.74119" lon="1.7635">
        <ele>170.60000610352</ele>
        <time>2011-07-01T11:25:59.000Z</time>
      </trkpt>
      <trkpt lat="48.74111" lon="1.76351">
        <ele>171.60000610352</ele>
        <time>2011-07-01T11:26:05.000Z</time>
      </trkpt>
      <trkpt lat="48.74104" lon="1.7635">
        <ele>172.60000610352</ele>
        <time>2011-07-01T11:26:11.000Z</time>
      </trkpt>
      <trkpt lat="48.74096" lon="1.76348">
        <ele>173.60000610352</ele>
        <time>2011-07-01T11:26:18.000Z</time>
      </trkpt>
      <trkpt lat="48.74095" lon="1.76347">
        <ele>173.80000305176</ele>
        <time>2011-07-01T11:26:19.000Z</time>
      </trkpt>
      <trkpt lat="48.74088" lon="1.76348">
        <ele>174.80000305176</ele>
        <time>2011-07-01T11:26:24.000Z</time>
      </trkpt>
      <trkpt lat="48.74077" lon="1.76347">
        <ele>175.80000305176</ele>
        <time>2011-07-01T11:26:32.000Z</time>
      </trkpt>
      <trkpt lat="48.74069" lon="1.76347">
        <ele>176.39999389648</ele>
        <time>2011-07-01T11:26:39.000Z</time>
      </trkpt>
      <trkpt lat="48.74067" lon="1.76348">
        <ele>176.39999389648</ele>
        <time>2011-07-01T11:26:40.000Z</time>
      </trkpt>
      <trkpt lat="48.74059" lon="1.76349">
        <ele>176.80000305176</ele>
        <time>2011-07-01T11:26:47.000Z</time>
      </trkpt>
      <trkpt lat="48.74053" lon="1.76349">
        <ele>177.19999694824</ele>
        <time>2011-07-01T11:26:51.000Z</time>
      </trkpt>
      <trkpt lat="48.74046" lon="1.76352">
        <ele>177.60000610352</ele>
        <time>2011-07-01T11:26:57.000Z</time>
      </trkpt>
      <trkpt lat="48.74035" lon="1.76354">
        <ele>178.19999694824</ele>
        <time>2011-07-01T11:27:06.000Z</time>
      </trkpt>
      <trkpt lat="48.74022" lon="1.76356">
        <ele>179</ele>
        <time>2011-07-01T11:27:15.000Z</time>
      </trkpt>
      <trkpt lat="48.74014" lon="1.76359">
        <ele>179.39999389648</ele>
        <time>2011-07-01T11:27:22.000Z</time>
      </trkpt>
      <trkpt lat="48.74003" lon="1.76363">
        <ele>180</ele>
        <time>2011-07-01T11:27:30.000Z</time>
      </trkpt>
      <trkpt lat="48.73994" lon="1.76365">
        <ele>180.19999694824</ele>
        <time>2011-07-01T11:27:37.000Z</time>
      </trkpt>
      <trkpt lat="48.73984" lon="1.76366">
        <ele>180.39999389648</ele>
        <time>2011-07-01T11:27:44.000Z</time>
      </trkpt>
      <trkpt lat="48.73974" lon="1.76368">
        <ele>180.39999389648</ele>
        <time>2011-07-01T11:27:51.000Z</time>
      </trkpt>
      <trkpt lat="48.73963" lon="1.76369">
        <ele>180.60000610352</ele>
        <time>2011-07-01T11:27:59.000Z</time>
      </trkpt>
      <trkpt lat="48.73949" lon="1.76371">
        <ele>180.80000305176</ele>
        <time>2011-07-01T11:28:08.000Z</time>
      </trkpt>
      <trkpt lat="48.73935" lon="1.76372">
        <ele>181</ele>
        <time>2011-07-01T11:28:18.000Z</time>
      </trkpt>
      <trkpt lat="48.7392" lon="1.76375">
        <ele>181.39999389648</ele>
        <time>2011-07-01T11:28:29.000Z</time>
      </trkpt>
      <trkpt lat="48.73912" lon="1.76379">
        <ele>181.60000610352</ele>
        <time>2011-07-01T11:28:36.000Z</time>
      </trkpt>
      <trkpt lat="48.73903" lon="1.7638">
        <ele>181.80000305176</ele>
        <time>2011-07-01T11:28:42.000Z</time>
      </trkpt>
      <trkpt lat="48.7389" lon="1.76381">
        <ele>182</ele>
        <time>2011-07-01T11:28:50.000Z</time>
      </trkpt>
      <trkpt lat="48.73883" lon="1.76382">
        <ele>182.19999694824</ele>
        <time>2011-07-01T11:28:55.000Z</time>
      </trkpt>
      <trkpt lat="48.73877" lon="1.76384">
        <ele>182.19999694824</ele>
        <time>2011-07-01T11:28:59.000Z</time>
      </trkpt>
      <trkpt lat="48.73866" lon="1.76387">
        <ele>182.60000610352</ele>
        <time>2011-07-01T11:29:07.000Z</time>
      </trkpt>
      <trkpt lat="48.73853" lon="1.76389">
        <ele>182.80000305176</ele>
        <time>2011-07-01T11:29:16.000Z</time>
      </trkpt>
      <trkpt lat="48.73843" lon="1.76389">
        <ele>183</ele>
        <time>2011-07-01T11:29:23.000Z</time>
      </trkpt>
      <trkpt lat="48.73832" lon="1.76391">
        <ele>183.39999389648</ele>
        <time>2011-07-01T11:29:31.000Z</time>
      </trkpt>
      <trkpt lat="48.73824" lon="1.76393">
        <ele>183.60000610352</ele>
        <time>2011-07-01T11:29:38.000Z</time>
      </trkpt>
      <trkpt lat="48.73813" lon="1.76395">
        <ele>184</ele>
        <time>2011-07-01T11:29:46.000Z</time>
      </trkpt>
      <trkpt lat="48.73812" lon="1.76395">
        <ele>184.19999694824</ele>
        <time>2011-07-01T11:29:47.000Z</time>
      </trkpt>
      <trkpt lat="48.73806" lon="1.76395">
        <ele>184.19999694824</ele>
        <time>2011-07-01T11:29:52.000Z</time>
      </trkpt>
      <trkpt lat="48.73806" lon="1.76394">
        <ele>184.19999694824</ele>
        <time>2011-07-01T11:29:55.000Z</time>
      </trkpt>
      <trkpt lat="48.73811" lon="1.76384">
        <ele>184</ele>
        <time>2011-07-01T11:30:08.000Z</time>
      </trkpt>
      <trkpt lat="48.73812" lon="1.76378">
        <ele>183.80000305176</ele>
        <time>2011-07-01T11:30:10.000Z</time>
      </trkpt>
      <trkpt lat="48.73813" lon="1.76375">
        <ele>183.80000305176</ele>
        <time>2011-07-01T11:30:12.000Z</time>
      </trkpt>
      <trkpt lat="48.73815" lon="1.76358">
        <ele>183.39999389648</ele>
        <time>2011-07-01T11:30:19.000Z</time>
      </trkpt>
      <trkpt lat="48.73818" lon="1.76332">
        <ele>182.80000305176</ele>
        <time>2011-07-01T11:30:25.000Z</time>
      </trkpt>
      <trkpt lat="48.7382" lon="1.76306">
        <ele>183</ele>
        <time>2011-07-01T11:30:31.000Z</time>
      </trkpt>
      <trkpt lat="48.73825" lon="1.76276">
        <ele>183</ele>
        <time>2011-07-01T11:30:37.000Z</time>
      </trkpt>
      <trkpt lat="48.73831" lon="1.76249">
        <ele>183</ele>
        <time>2011-07-01T11:30:42.000Z</time>
      </trkpt>
      <trkpt lat="48.73836" lon="1.76219">
        <ele>183.60000610352</ele>
        <time>2011-07-01T11:30:47.000Z</time>
      </trkpt>
      <trkpt lat="48.7384" lon="1.762">
        <ele>183.80000305176</ele>
        <time>2011-07-01T11:30:50.000Z</time>
      </trkpt>
      <trkpt lat="48.73847" lon="1.76172">
        <ele>184.19999694824</ele>
        <time>2011-07-01T11:30:55.000Z</time>
      </trkpt>
      <trkpt lat="48.73854" lon="1.76142">
        <ele>184.60000610352</ele>
        <time>2011-07-01T11:31:00.000Z</time>
      </trkpt>
      <trkpt lat="48.73866" lon="1.76098">
        <ele>185.39999389648</ele>
        <time>2011-07-01T11:31:08.000Z</time>
      </trkpt>
      <trkpt lat="48.73871" lon="1.76069">
        <ele>185.80000305176</ele>
        <time>2011-07-01T11:31:13.000Z</time>
      </trkpt>
      <trkpt lat="48.73877" lon="1.7603">
        <ele>186</ele>
        <time>2011-07-01T11:31:20.000Z</time>
      </trkpt>
      <trkpt lat="48.73886" lon="1.75982">
        <ele>185.60000610352</ele>
        <time>2011-07-01T11:31:28.000Z</time>
      </trkpt>
      <trkpt lat="48.73892" lon="1.7595">
        <ele>184.80000305176</ele>
        <time>2011-07-01T11:31:32.000Z</time>
      </trkpt>
      <trkpt lat="48.73893" lon="1.75943">
        <ele>184.60000610352</ele>
        <time>2011-07-01T11:31:33.000Z</time>
      </trkpt>
      <trkpt lat="48.73903" lon="1.75892">
        <ele>184</ele>
        <time>2011-07-01T11:31:39.000Z</time>
      </trkpt>
      <trkpt lat="48.73914" lon="1.75835">
        <ele>183.80000305176</ele>
        <time>2011-07-01T11:31:45.000Z</time>
      </trkpt>
      <trkpt lat="48.73919" lon="1.75809">
        <ele>183.19999694824</ele>
        <time>2011-07-01T11:31:48.000Z</time>
      </trkpt>
      <trkpt lat="48.73926" lon="1.75762">
        <ele>181.80000305176</ele>
        <time>2011-07-01T11:31:53.000Z</time>
      </trkpt>
      <trkpt lat="48.73933" lon="1.75739">
        <ele>181.39999389648</ele>
        <time>2011-07-01T11:31:56.000Z</time>
      </trkpt>
      <trkpt lat="48.73942" lon="1.75701">
        <ele>181.19999694824</ele>
        <time>2011-07-01T11:32:01.000Z</time>
      </trkpt>
      <trkpt lat="48.73946" lon="1.75678">
        <ele>181.19999694824</ele>
        <time>2011-07-01T11:32:04.000Z</time>
      </trkpt>
      <trkpt lat="48.7395" lon="1.75638">
        <ele>181</ele>
        <time>2011-07-01T11:32:10.000Z</time>
      </trkpt>
      <trkpt lat="48.73941" lon="1.75626">
        <ele>181.60000610352</ele>
        <time>2011-07-01T11:32:13.000Z</time>
      </trkpt>
      <trkpt lat="48.73936" lon="1.75624">
        <ele>181.80000305176</ele>
        <time>2011-07-01T11:32:14.000Z</time>
      </trkpt>
      <trkpt lat="48.73921" lon="1.75616">
        <ele>182.60000610352</ele>
        <time>2011-07-01T11:32:17.000Z</time>
      </trkpt>
      <trkpt lat="48.7391" lon="1.75612">
        <ele>183</ele>
        <time>2011-07-01T11:32:19.000Z</time>
      </trkpt>
      <trkpt lat="48.73885" lon="1.75607">
        <ele>183.19999694824</ele>
        <time>2011-07-01T11:32:23.000Z</time>
      </trkpt>
      <trkpt lat="48.73868" lon="1.75599">
        <ele>183.39999389648</ele>
        <time>2011-07-01T11:32:26.000Z</time>
      </trkpt>
      <trkpt lat="48.73849" lon="1.75591">
        <ele>183.80000305176</ele>
        <time>2011-07-01T11:32:29.000Z</time>
      </trkpt>
      <trkpt lat="48.73838" lon="1.75588">
        <ele>183.80000305176</ele>
        <time>2011-07-01T11:32:31.000Z</time>
      </trkpt>
      <trkpt lat="48.73815" lon="1.75582">
        <ele>183.60000610352</ele>
        <time>2011-07-01T11:32:36.000Z</time>
      </trkpt>
      <trkpt lat="48.73796" lon="1.75578">
        <ele>183.39999389648</ele>
        <time>2011-07-01T11:32:41.000Z</time>
      </trkpt>
      <trkpt lat="48.73781" lon="1.75574">
        <ele>183.19999694824</ele>
        <time>2011-07-01T11:32:45.000Z</time>
      </trkpt>
      <trkpt lat="48.73757" lon="1.75567">
        <ele>183.19999694824</ele>
        <time>2011-07-01T11:32:52.000Z</time>
      </trkpt>
      <trkpt lat="48.73746" lon="1.75563">
        <ele>183.19999694824</ele>
        <time>2011-07-01T11:32:58.000Z</time>
      </trkpt>
      <trkpt lat="48.73737" lon="1.75559">
        <ele>183.39999389648</ele>
        <time>2011-07-01T11:33:05.000Z</time>
      </trkpt>
      <trkpt lat="48.73727" lon="1.75551">
        <ele>183.60000610352</ele>
        <time>2011-07-01T11:33:12.000Z</time>
      </trkpt>
      <trkpt lat="48.7372" lon="1.75547">
        <ele>183.80000305176</ele>
        <time>2011-07-01T11:33:18.000Z</time>
      </trkpt>
      <trkpt lat="48.73719" lon="1.75547">
        <ele>183.80000305176</ele>
        <time>2011-07-01T11:33:19.000Z</time>
      </trkpt>
      <trkpt lat="48.73718" lon="1.75547">
        <ele>183.80000305176</ele>
        <time>2011-07-01T11:33:21.000Z</time>
      </trkpt>
      <trkpt lat="48.73712" lon="1.75549">
        <ele>184</ele>
        <time>2011-07-01T11:33:26.000Z</time>
      </trkpt>
      <trkpt lat="48.73705" lon="1.75552">
        <ele>184</ele>
        <time>2011-07-01T11:33:31.000Z</time>
      </trkpt>
      <trkpt lat="48.73703" lon="1.75552">
        <ele>184</ele>
        <time>2011-07-01T11:33:32.000Z</time>
      </trkpt>
      <trkpt lat="48.73697" lon="1.7555">
        <ele>184.19999694824</ele>
        <time>2011-07-01T11:33:37.000Z</time>
      </trkpt>
      <trkpt lat="48.73689" lon="1.75547">
        <ele>184.39999389648</ele>
        <time>2011-07-01T11:33:43.000Z</time>
      </trkpt>
      <trkpt lat="48.73678" lon="1.75543">
        <ele>184.60000610352</ele>
        <time>2011-07-01T11:33:51.000Z</time>
      </trkpt>
      <trkpt lat="48.73666" lon="1.75539">
        <ele>185</ele>
        <time>2011-07-01T11:33:56.000Z</time>
      </trkpt>
      <trkpt lat="48.73652" lon="1.7554">
        <ele>185.19999694824</ele>
        <time>2011-07-01T11:34:01.000Z</time>
      </trkpt>
      <trkpt lat="48.73636" lon="1.75543">
        <ele>185.60000610352</ele>
        <time>2011-07-01T11:34:06.000Z</time>
      </trkpt>
      <trkpt lat="48.73618" lon="1.75548">
        <ele>186.19999694824</ele>
        <time>2011-07-01T11:34:11.000Z</time>
      </trkpt>
      <trkpt lat="48.73602" lon="1.75554">
        <ele>187</ele>
        <time>2011-07-01T11:34:15.000Z</time>
      </trkpt>
      <trkpt lat="48.73593" lon="1.75558">
        <ele>187.60000610352</ele>
        <time>2011-07-01T11:34:17.000Z</time>
      </trkpt>
      <trkpt lat="48.73567" lon="1.75571">
        <ele>188.60000610352</ele>
        <time>2011-07-01T11:34:22.000Z</time>
      </trkpt>
      <trkpt lat="48.73545" lon="1.75584">
        <ele>188.60000610352</ele>
        <time>2011-07-01T11:34:26.000Z</time>
      </trkpt>
      <trkpt lat="48.7354" lon="1.75587">
        <ele>188.39999389648</ele>
        <time>2011-07-01T11:34:27.000Z</time>
      </trkpt>
      <trkpt lat="48.7353" lon="1.75593">
        <ele>188</ele>
        <time>2011-07-01T11:34:29.000Z</time>
      </trkpt>
      <trkpt lat="48.7352" lon="1.756">
        <ele>187.80000305176</ele>
        <time>2011-07-01T11:34:31.000Z</time>
      </trkpt>
      <trkpt lat="48.73499" lon="1.7562">
        <ele>187.39999389648</ele>
        <time>2011-07-01T11:34:35.000Z</time>
      </trkpt>
      <trkpt lat="48.73461" lon="1.75645">
        <ele>187.19999694824</ele>
        <time>2011-07-01T11:34:40.000Z</time>
      </trkpt>
      <trkpt lat="48.73433" lon="1.75662">
        <ele>187</ele>
        <time>2011-07-01T11:34:45.000Z</time>
      </trkpt>
      <trkpt lat="48.73426" lon="1.75666">
        <ele>187</ele>
        <time>2011-07-01T11:34:46.000Z</time>
      </trkpt>
      <trkpt lat="48.73401" lon="1.75688">
        <ele>186.39999389648</ele>
        <time>2011-07-01T11:34:51.000Z</time>
      </trkpt>
      <trkpt lat="48.73395" lon="1.75692">
        <ele>186.39999389648</ele>
        <time>2011-07-01T11:34:52.000Z</time>
      </trkpt>
      <trkpt lat="48.73361" lon="1.75721">
        <ele>185.60000610352</ele>
        <time>2011-07-01T11:34:57.000Z</time>
      </trkpt>
      <trkpt lat="48.73311" lon="1.75754">
        <ele>184.60000610352</ele>
        <time>2011-07-01T11:35:03.000Z</time>
      </trkpt>
      <trkpt lat="48.73268" lon="1.75786">
        <ele>183.19999694824</ele>
        <time>2011-07-01T11:35:09.000Z</time>
      </trkpt>
      <trkpt lat="48.73263" lon="1.7579">
        <ele>183</ele>
        <time>2011-07-01T11:35:10.000Z</time>
      </trkpt>
      <trkpt lat="48.73243" lon="1.75804">
        <ele>182.60000610352</ele>
        <time>2011-07-01T11:35:14.000Z</time>
      </trkpt>
      <trkpt lat="48.73218" lon="1.75821">
        <ele>182.39999389648</ele>
        <time>2011-07-01T11:35:20.000Z</time>
      </trkpt>
      <trkpt lat="48.73212" lon="1.75828">
        <ele>182.39999389648</ele>
        <time>2011-07-01T11:35:22.000Z</time>
      </trkpt>
      <trkpt lat="48.73195" lon="1.75841">
        <ele>182.80000305176</ele>
        <time>2011-07-01T11:35:27.000Z</time>
      </trkpt>
      <trkpt lat="48.73175" lon="1.75852">
        <ele>183.19999694824</ele>
        <time>2011-07-01T11:35:33.000Z</time>
      </trkpt>
      <trkpt lat="48.7317" lon="1.75857">
        <ele>183.39999389648</ele>
        <time>2011-07-01T11:35:35.000Z</time>
      </trkpt>
      <trkpt lat="48.73148" lon="1.7587">
        <ele>183.39999389648</ele>
        <time>2011-07-01T11:35:43.000Z</time>
      </trkpt>
      <trkpt lat="48.73137" lon="1.75876">
        <ele>183.19999694824</ele>
        <time>2011-07-01T11:35:47.000Z</time>
      </trkpt>
      <trkpt lat="48.73123" lon="1.75887">
        <ele>183.19999694824</ele>
        <time>2011-07-01T11:35:52.000Z</time>
      </trkpt>
      <trkpt lat="48.73115" lon="1.75898">
        <ele>183.19999694824</ele>
        <time>2011-07-01T11:35:56.000Z</time>
      </trkpt>
      <trkpt lat="48.73094" lon="1.75914">
        <ele>183.19999694824</ele>
        <time>2011-07-01T11:36:03.000Z</time>
      </trkpt>
      <trkpt lat="48.73075" lon="1.75931">
        <ele>182.60000610352</ele>
        <time>2011-07-01T11:36:10.000Z</time>
      </trkpt>
      <trkpt lat="48.73054" lon="1.7595">
        <ele>181.80000305176</ele>
        <time>2011-07-01T11:36:17.000Z</time>
      </trkpt>
      <trkpt lat="48.73039" lon="1.7596">
        <ele>181</ele>
        <time>2011-07-01T11:36:22.000Z</time>
      </trkpt>
      <trkpt lat="48.73034" lon="1.75952">
        <ele>181</ele>
        <time>2011-07-01T11:36:27.000Z</time>
      </trkpt>
      <trkpt lat="48.7304" lon="1.75937">
        <ele>181.39999389648</ele>
        <time>2011-07-01T11:36:31.000Z</time>
      </trkpt>
      <trkpt lat="48.73042" lon="1.75919">
        <ele>181.80000305176</ele>
        <time>2011-07-01T11:36:35.000Z</time>
      </trkpt>
      <trkpt lat="48.73042" lon="1.75897">
        <ele>181.80000305176</ele>
        <time>2011-07-01T11:36:39.000Z</time>
      </trkpt>
      <trkpt lat="48.73043" lon="1.75847">
        <ele>181.80000305176</ele>
        <time>2011-07-01T11:36:48.000Z</time>
      </trkpt>
      <trkpt lat="48.73043" lon="1.75827">
        <ele>181.80000305176</ele>
        <time>2011-07-01T11:36:52.000Z</time>
      </trkpt>
      <trkpt lat="48.73045" lon="1.7581">
        <ele>181.60000610352</ele>
        <time>2011-07-01T11:36:55.000Z</time>
      </trkpt>
      <trkpt lat="48.73045" lon="1.75782">
        <ele>181.19999694824</ele>
        <time>2011-07-01T11:37:00.000Z</time>
      </trkpt>
      <trkpt lat="48.73046" lon="1.7575">
        <ele>181</ele>
        <time>2011-07-01T11:37:06.000Z</time>
      </trkpt>
      <trkpt lat="48.73049" lon="1.75713">
        <ele>181</ele>
        <time>2011-07-01T11:37:13.000Z</time>
      </trkpt>
      <trkpt lat="48.73051" lon="1.75686">
        <ele>181</ele>
        <time>2011-07-01T11:37:18.000Z</time>
      </trkpt>
      <trkpt lat="48.73053" lon="1.7566">
        <ele>181.19999694824</ele>
        <time>2011-07-01T11:37:23.000Z</time>
      </trkpt>
      <trkpt lat="48.73055" lon="1.75626">
        <ele>181.80000305176</ele>
        <time>2011-07-01T11:37:30.000Z</time>
      </trkpt>
      <trkpt lat="48.73058" lon="1.75591">
        <ele>182.60000610352</ele>
        <time>2011-07-01T11:37:37.000Z</time>
      </trkpt>
      <trkpt lat="48.7306" lon="1.75555">
        <ele>182.60000610352</ele>
        <time>2011-07-01T11:37:44.000Z</time>
      </trkpt>
      <trkpt lat="48.73063" lon="1.75521">
        <ele>182.60000610352</ele>
        <time>2011-07-01T11:37:51.000Z</time>
      </trkpt>
      <trkpt lat="48.73064" lon="1.75498">
        <ele>182.39999389648</ele>
        <time>2011-07-01T11:37:56.000Z</time>
      </trkpt>
      <trkpt lat="48.73066" lon="1.75476">
        <ele>181.39999389648</ele>
        <time>2011-07-01T11:38:02.000Z</time>
      </trkpt>
      <trkpt lat="48.73065" lon="1.75468">
        <ele>181</ele>
        <time>2011-07-01T11:38:06.000Z</time>
      </trkpt>
      <trkpt lat="48.73063" lon="1.7546">
        <ele>180.39999389648</ele>
        <time>2011-07-01T11:38:10.000Z</time>
      </trkpt>
      <trkpt lat="48.73063" lon="1.75445">
        <ele>179.60000610352</ele>
        <time>2011-07-01T11:38:18.000Z</time>
      </trkpt>
      <trkpt lat="48.73062" lon="1.75426">
        <ele>178.60000610352</ele>
        <time>2011-07-01T11:38:28.000Z</time>
      </trkpt>
      <trkpt lat="48.73063" lon="1.75413">
        <ele>178</ele>
        <time>2011-07-01T11:38:34.000Z</time>
      </trkpt>
      <trkpt lat="48.73066" lon="1.75404">
        <ele>177.80000305176</ele>
        <time>2011-07-01T11:38:39.000Z</time>
      </trkpt>
      <trkpt lat="48.73064" lon="1.75392">
        <ele>177</ele>
        <time>2011-07-01T11:38:45.000Z</time>
      </trkpt>
      <trkpt lat="48.73064" lon="1.75377">
        <ele>176</ele>
        <time>2011-07-01T11:38:52.000Z</time>
      </trkpt>
      <trkpt lat="48.73064" lon="1.75369">
        <ele>175.80000305176</ele>
        <time>2011-07-01T11:38:55.000Z</time>
      </trkpt>
      <trkpt lat="48.73068" lon="1.75356">
        <ele>175.39999389648</ele>
        <time>2011-07-01T11:39:02.000Z</time>
      </trkpt>
      <trkpt lat="48.73068" lon="1.75354">
        <ele>175.39999389648</ele>
        <time>2011-07-01T11:39:03.000Z</time>
      </trkpt>
      <trkpt lat="48.7307" lon="1.75337">
        <ele>174.60000610352</ele>
        <time>2011-07-01T11:39:11.000Z</time>
      </trkpt>
      <trkpt lat="48.7307" lon="1.75335">
        <ele>174.60000610352</ele>
        <time>2011-07-01T11:39:12.000Z</time>
      </trkpt>
      <trkpt lat="48.73071" lon="1.75321">
        <ele>173.80000305176</ele>
        <time>2011-07-01T11:39:18.000Z</time>
      </trkpt>
      <trkpt lat="48.73067" lon="1.75314">
        <ele>172.80000305176</ele>
        <time>2011-07-01T11:39:23.000Z</time>
      </trkpt>
      <trkpt lat="48.73066" lon="1.75307">
        <ele>172.19999694824</ele>
        <time>2011-07-01T11:39:26.000Z</time>
      </trkpt>
      <trkpt lat="48.73066" lon="1.75305">
        <ele>172</ele>
        <time>2011-07-01T11:39:27.000Z</time>
      </trkpt>
      <trkpt lat="48.73066" lon="1.75299">
        <ele>171.80000305176</ele>
        <time>2011-07-01T11:39:30.000Z</time>
      </trkpt>
      <trkpt lat="48.73065" lon="1.75292">
        <ele>171.19999694824</ele>
        <time>2011-07-01T11:39:34.000Z</time>
      </trkpt>
      <trkpt lat="48.73064" lon="1.75278">
        <ele>170</ele>
        <time>2011-07-01T11:39:40.000Z</time>
      </trkpt>
      <trkpt lat="48.73065" lon="1.75264">
        <ele>169.19999694824</ele>
        <time>2011-07-01T11:39:46.000Z</time>
      </trkpt>
      <trkpt lat="48.73067" lon="1.75247">
        <ele>168.19999694824</ele>
        <time>2011-07-01T11:39:53.000Z</time>
      </trkpt>
      <trkpt lat="48.73068" lon="1.75226">
        <ele>166.80000305176</ele>
        <time>2011-07-01T11:40:02.000Z</time>
      </trkpt>
      <trkpt lat="48.73068" lon="1.75209">
        <ele>165.60000610352</ele>
        <time>2011-07-01T11:40:09.000Z</time>
      </trkpt>
      <trkpt lat="48.73069" lon="1.75202">
        <ele>165.19999694824</ele>
        <time>2011-07-01T11:40:12.000Z</time>
      </trkpt>
      <trkpt lat="48.73071" lon="1.75187">
        <ele>164.39999389648</ele>
        <time>2011-07-01T11:40:18.000Z</time>
      </trkpt>
      <trkpt lat="48.73072" lon="1.75177">
        <ele>163.60000610352</ele>
        <time>2011-07-01T11:40:23.000Z</time>
      </trkpt>
      <trkpt lat="48.7307" lon="1.75161">
        <ele>162.19999694824</ele>
        <time>2011-07-01T11:40:30.000Z</time>
      </trkpt>
      <trkpt lat="48.7307" lon="1.75158">
        <ele>162</ele>
        <time>2011-07-01T11:40:31.000Z</time>
      </trkpt>
      <trkpt lat="48.73069" lon="1.75147">
        <ele>161</ele>
        <time>2011-07-01T11:40:36.000Z</time>
      </trkpt>
      <trkpt lat="48.73068" lon="1.75137">
        <ele>160.19999694824</ele>
        <time>2011-07-01T11:40:41.000Z</time>
      </trkpt>
      <trkpt lat="48.73068" lon="1.75132">
        <ele>159.80000305176</ele>
        <time>2011-07-01T11:40:43.000Z</time>
      </trkpt>
      <trkpt lat="48.73069" lon="1.75126">
        <ele>159.19999694824</ele>
        <time>2011-07-01T11:40:46.000Z</time>
      </trkpt>
      <trkpt lat="48.73069" lon="1.75108">
        <ele>158</ele>
        <time>2011-07-01T11:40:54.000Z</time>
      </trkpt>
      <trkpt lat="48.73068" lon="1.75088">
        <ele>156.39999389648</ele>
        <time>2011-07-01T11:41:01.000Z</time>
      </trkpt>
      <trkpt lat="48.73067" lon="1.75068">
        <ele>155.39999389648</ele>
        <time>2011-07-01T11:41:10.000Z</time>
      </trkpt>
      <trkpt lat="48.73067" lon="1.75048">
        <ele>154.60000610352</ele>
        <time>2011-07-01T11:41:19.000Z</time>
      </trkpt>
      <trkpt lat="48.73067" lon="1.75045">
        <ele>154.39999389648</ele>
        <time>2011-07-01T11:41:20.000Z</time>
      </trkpt>
      <trkpt lat="48.73068" lon="1.75036">
        <ele>154.19999694824</ele>
        <time>2011-07-01T11:41:25.000Z</time>
      </trkpt>
      <trkpt lat="48.73069" lon="1.75015">
        <ele>153.39999389648</ele>
        <time>2011-07-01T11:41:34.000Z</time>
      </trkpt>
      <trkpt lat="48.7307" lon="1.75001">
        <ele>153</ele>
        <time>2011-07-01T11:41:40.000Z</time>
      </trkpt>
      <trkpt lat="48.73072" lon="1.74984">
        <ele>152.60000610352</ele>
        <time>2011-07-01T11:41:48.000Z</time>
      </trkpt>
      <trkpt lat="48.73071" lon="1.74963">
        <ele>151.80000305176</ele>
        <time>2011-07-01T11:41:57.000Z</time>
      </trkpt>
      <trkpt lat="48.73068" lon="1.74949">
        <ele>151.19999694824</ele>
        <time>2011-07-01T11:42:04.000Z</time>
      </trkpt>
      <trkpt lat="48.73065" lon="1.74938">
        <ele>150.60000610352</ele>
        <time>2011-07-01T11:42:10.000Z</time>
      </trkpt>
      <trkpt lat="48.73063" lon="1.74925">
        <ele>150.19999694824</ele>
        <time>2011-07-01T11:42:16.000Z</time>
      </trkpt>
      <trkpt lat="48.73058" lon="1.74915">
        <ele>149.60000610352</ele>
        <time>2011-07-01T11:42:22.000Z</time>
      </trkpt>
      <trkpt lat="48.73057" lon="1.74901">
        <ele>149.19999694824</ele>
        <time>2011-07-01T11:42:28.000Z</time>
      </trkpt>
      <trkpt lat="48.73059" lon="1.7489">
        <ele>149</ele>
        <time>2011-07-01T11:42:34.000Z</time>
      </trkpt>
      <trkpt lat="48.73064" lon="1.74877">
        <ele>148.60000610352</ele>
        <time>2011-07-01T11:42:41.000Z</time>
      </trkpt>
      <trkpt lat="48.73066" lon="1.74864">
        <ele>148.19999694824</ele>
        <time>2011-07-01T11:42:47.000Z</time>
      </trkpt>
      <trkpt lat="48.73062" lon="1.74848">
        <ele>147.60000610352</ele>
        <time>2011-07-01T11:42:54.000Z</time>
      </trkpt>
      <trkpt lat="48.73058" lon="1.74827">
        <ele>147.19999694824</ele>
        <time>2011-07-01T11:43:02.000Z</time>
      </trkpt>
      <trkpt lat="48.73055" lon="1.74808">
        <ele>147.19999694824</ele>
        <time>2011-07-01T11:43:10.000Z</time>
      </trkpt>
      <trkpt lat="48.73051" lon="1.74789">
        <ele>147.19999694824</ele>
        <time>2011-07-01T11:43:19.000Z</time>
      </trkpt>
      <trkpt lat="48.73049" lon="1.74775">
        <ele>147.39999389648</ele>
        <time>2011-07-01T11:43:26.000Z</time>
      </trkpt>
      <trkpt lat="48.73046" lon="1.74759">
        <ele>147.39999389648</ele>
        <time>2011-07-01T11:43:33.000Z</time>
      </trkpt>
      <trkpt lat="48.73045" lon="1.74749">
        <ele>147.39999389648</ele>
        <time>2011-07-01T11:43:38.000Z</time>
      </trkpt>
      <trkpt lat="48.73042" lon="1.74732">
        <ele>147</ele>
        <time>2011-07-01T11:43:46.000Z</time>
      </trkpt>
      <trkpt lat="48.73041" lon="1.74715">
        <ele>146.80000305176</ele>
        <time>2011-07-01T11:43:54.000Z</time>
      </trkpt>
      <trkpt lat="48.7304" lon="1.74706">
        <ele>146.60000610352</ele>
        <time>2011-07-01T11:43:59.000Z</time>
      </trkpt>
      <trkpt lat="48.73037" lon="1.74691">
        <ele>146.39999389648</ele>
        <time>2011-07-01T11:44:08.000Z</time>
      </trkpt>
      <trkpt lat="48.73031" lon="1.74678">
        <ele>146.39999389648</ele>
        <time>2011-07-01T11:44:15.000Z</time>
      </trkpt>
      <trkpt lat="48.73024" lon="1.74665">
        <ele>146.19999694824</ele>
        <time>2011-07-01T11:44:22.000Z</time>
      </trkpt>
      <trkpt lat="48.73017" lon="1.74651">
        <ele>145.80000305176</ele>
        <time>2011-07-01T11:44:30.000Z</time>
      </trkpt>
      <trkpt lat="48.73011" lon="1.74639">
        <ele>145.60000610352</ele>
        <time>2011-07-01T11:44:37.000Z</time>
      </trkpt>
      <trkpt lat="48.73001" lon="1.74623">
        <ele>145.39999389648</ele>
        <time>2011-07-01T11:44:46.000Z</time>
      </trkpt>
      <trkpt lat="48.72994" lon="1.74614">
        <ele>144.80000305176</ele>
        <time>2011-07-01T11:44:52.000Z</time>
      </trkpt>
      <trkpt lat="48.72982" lon="1.74602">
        <ele>144.19999694824</ele>
        <time>2011-07-01T11:45:01.000Z</time>
      </trkpt>
      <trkpt lat="48.72976" lon="1.7459">
        <ele>143.80000305176</ele>
        <time>2011-07-01T11:45:08.000Z</time>
      </trkpt>
      <trkpt lat="48.72976" lon="1.74588">
        <ele>143.80000305176</ele>
        <time>2011-07-01T11:45:11.000Z</time>
      </trkpt>
      <trkpt lat="48.72974" lon="1.74581">
        <ele>143.60000610352</ele>
        <time>2011-07-01T11:45:17.000Z</time>
      </trkpt>
      <trkpt lat="48.72969" lon="1.74562">
        <ele>143.39999389648</ele>
        <time>2011-07-01T11:45:25.000Z</time>
      </trkpt>
      <trkpt lat="48.72966" lon="1.74551">
        <ele>143.19999694824</ele>
        <time>2011-07-01T11:45:31.000Z</time>
      </trkpt>
      <trkpt lat="48.72965" lon="1.74548">
        <ele>143.19999694824</ele>
        <time>2011-07-01T11:45:32.000Z</time>
      </trkpt>
      <trkpt lat="48.72966" lon="1.74537">
        <ele>143</ele>
        <time>2011-07-01T11:45:37.000Z</time>
      </trkpt>
      <trkpt lat="48.72972" lon="1.74524">
        <ele>142.80000305176</ele>
        <time>2011-07-01T11:45:45.000Z</time>
      </trkpt>
      <trkpt lat="48.7298" lon="1.74513">
        <ele>142.60000610352</ele>
        <time>2011-07-01T11:45:53.000Z</time>
      </trkpt>
      <trkpt lat="48.72985" lon="1.74503">
        <ele>142.39999389648</ele>
        <time>2011-07-01T11:45:59.000Z</time>
      </trkpt>
      <trkpt lat="48.72992" lon="1.74494">
        <ele>142</ele>
        <time>2011-07-01T11:46:06.000Z</time>
      </trkpt>
      <trkpt lat="48.73001" lon="1.7449">
        <ele>141.80000305176</ele>
        <time>2011-07-01T11:46:13.000Z</time>
      </trkpt>
      <trkpt lat="48.73014" lon="1.74481">
        <ele>141.39999389648</ele>
        <time>2011-07-01T11:46:22.000Z</time>
      </trkpt>
      <trkpt lat="48.73024" lon="1.74475">
        <ele>141.19999694824</ele>
        <time>2011-07-01T11:46:28.000Z</time>
      </trkpt>
      <trkpt lat="48.73032" lon="1.74471">
        <ele>141</ele>
        <time>2011-07-01T11:46:33.000Z</time>
      </trkpt>
      <trkpt lat="48.73041" lon="1.74462">
        <ele>140.60000610352</ele>
        <time>2011-07-01T11:46:40.000Z</time>
      </trkpt>
      <trkpt lat="48.73042" lon="1.7446">
        <ele>140.60000610352</ele>
        <time>2011-07-01T11:46:41.000Z</time>
      </trkpt>
      <trkpt lat="48.73042" lon="1.74441">
        <ele>140.60000610352</ele>
        <time>2011-07-01T11:46:49.000Z</time>
      </trkpt>
      <trkpt lat="48.7304" lon="1.74432">
        <ele>140.60000610352</ele>
        <time>2011-07-01T11:46:54.000Z</time>
      </trkpt>
      <trkpt lat="48.73038" lon="1.74416">
        <ele>140.39999389648</ele>
        <time>2011-07-01T11:47:01.000Z</time>
      </trkpt>
      <trkpt lat="48.73037" lon="1.744">
        <ele>140.60000610352</ele>
        <time>2011-07-01T11:47:09.000Z</time>
      </trkpt>
      <trkpt lat="48.73036" lon="1.74384">
        <ele>140.60000610352</ele>
        <time>2011-07-01T11:47:16.000Z</time>
      </trkpt>
      <trkpt lat="48.73036" lon="1.74364">
        <ele>140.80000305176</ele>
        <time>2011-07-01T11:47:25.000Z</time>
      </trkpt>
      <trkpt lat="48.73034" lon="1.74348">
        <ele>141</ele>
        <time>2011-07-01T11:47:33.000Z</time>
      </trkpt>
      <trkpt lat="48.73034" lon="1.74333">
        <ele>141</ele>
        <time>2011-07-01T11:47:41.000Z</time>
      </trkpt>
      <trkpt lat="48.7303" lon="1.74312">
        <ele>141.19999694824</ele>
        <time>2011-07-01T11:47:50.000Z</time>
      </trkpt>
      <trkpt lat="48.73027" lon="1.74296">
        <ele>141.39999389648</ele>
        <time>2011-07-01T11:47:58.000Z</time>
      </trkpt>
      <trkpt lat="48.73024" lon="1.74278">
        <ele>141.60000610352</ele>
        <time>2011-07-01T11:48:05.000Z</time>
      </trkpt>
      <trkpt lat="48.73024" lon="1.74261">
        <ele>141.60000610352</ele>
        <time>2011-07-01T11:48:13.000Z</time>
      </trkpt>
      <trkpt lat="48.73023" lon="1.74244">
        <ele>141.60000610352</ele>
        <time>2011-07-01T11:48:21.000Z</time>
      </trkpt>
      <trkpt lat="48.73017" lon="1.74223">
        <ele>141.39999389648</ele>
        <time>2011-07-01T11:48:30.000Z</time>
      </trkpt>
      <trkpt lat="48.73015" lon="1.74207">
        <ele>141.19999694824</ele>
        <time>2011-07-01T11:48:36.000Z</time>
      </trkpt>
      <trkpt lat="48.73014" lon="1.74192">
        <ele>141</ele>
        <time>2011-07-01T11:48:43.000Z</time>
      </trkpt>
      <trkpt lat="48.73014" lon="1.74188">
        <ele>141</ele>
        <time>2011-07-01T11:48:45.000Z</time>
      </trkpt>
      <trkpt lat="48.73013" lon="1.74182">
        <ele>141</ele>
        <time>2011-07-01T11:48:48.000Z</time>
      </trkpt>
      <trkpt lat="48.73013" lon="1.74174">
        <ele>140.80000305176</ele>
        <time>2011-07-01T11:48:52.000Z</time>
      </trkpt>
      <trkpt lat="48.7301" lon="1.74157">
        <ele>140.60000610352</ele>
        <time>2011-07-01T11:48:59.000Z</time>
      </trkpt>
      <trkpt lat="48.73009" lon="1.74141">
        <ele>140.19999694824</ele>
        <time>2011-07-01T11:49:06.000Z</time>
      </trkpt>
      <trkpt lat="48.73009" lon="1.74125">
        <ele>139.80000305176</ele>
        <time>2011-07-01T11:49:13.000Z</time>
      </trkpt>
      <trkpt lat="48.73008" lon="1.7411">
        <ele>139.39999389648</ele>
        <time>2011-07-01T11:49:20.000Z</time>
      </trkpt>
      <trkpt lat="48.73006" lon="1.74089">
        <ele>139</ele>
        <time>2011-07-01T11:49:29.000Z</time>
      </trkpt>
      <trkpt lat="48.73004" lon="1.74074">
        <ele>138.80000305176</ele>
        <time>2011-07-01T11:49:36.000Z</time>
      </trkpt>
      <trkpt lat="48.73003" lon="1.74052">
        <ele>138.39999389648</ele>
        <time>2011-07-01T11:49:46.000Z</time>
      </trkpt>
      <trkpt lat="48.73004" lon="1.74037">
        <ele>138.19999694824</ele>
        <time>2011-07-01T11:49:53.000Z</time>
      </trkpt>
      <trkpt lat="48.73004" lon="1.74024">
        <ele>138.19999694824</ele>
        <time>2011-07-01T11:49:59.000Z</time>
      </trkpt>
      <trkpt lat="48.73004" lon="1.74">
        <ele>137.80000305176</ele>
        <time>2011-07-01T11:50:09.000Z</time>
      </trkpt>
      <trkpt lat="48.73002" lon="1.7398">
        <ele>137.80000305176</ele>
        <time>2011-07-01T11:50:18.000Z</time>
      </trkpt>
      <trkpt lat="48.73" lon="1.73964">
        <ele>137.80000305176</ele>
        <time>2011-07-01T11:50:25.000Z</time>
      </trkpt>
      <trkpt lat="48.73" lon="1.7395">
        <ele>137.80000305176</ele>
        <time>2011-07-01T11:50:32.000Z</time>
      </trkpt>
      <trkpt lat="48.72997" lon="1.73939">
        <ele>137.80000305176</ele>
        <time>2011-07-01T11:50:38.000Z</time>
      </trkpt>
      <trkpt lat="48.7299" lon="1.73928">
        <ele>137.80000305176</ele>
        <time>2011-07-01T11:50:45.000Z</time>
      </trkpt>
      <trkpt lat="48.72982" lon="1.73917">
        <ele>137.60000610352</ele>
        <time>2011-07-01T11:50:52.000Z</time>
      </trkpt>
      <trkpt lat="48.72979" lon="1.73915">
        <ele>137.60000610352</ele>
        <time>2011-07-01T11:50:54.000Z</time>
      </trkpt>
      <trkpt lat="48.72973" lon="1.7391">
        <ele>137.39999389648</ele>
        <time>2011-07-01T11:51:00.000Z</time>
      </trkpt>
      <trkpt lat="48.72966" lon="1.73902">
        <ele>137.19999694824</ele>
        <time>2011-07-01T11:51:07.000Z</time>
      </trkpt>
      <trkpt lat="48.7296" lon="1.73894">
        <ele>136.80000305176</ele>
        <time>2011-07-01T11:51:14.000Z</time>
      </trkpt>
      <trkpt lat="48.72951" lon="1.73884">
        <ele>136.60000610352</ele>
        <time>2011-07-01T11:51:23.000Z</time>
      </trkpt>
      <trkpt lat="48.72943" lon="1.73877">
        <ele>136.19999694824</ele>
        <time>2011-07-01T11:51:29.000Z</time>
      </trkpt>
      <trkpt lat="48.72933" lon="1.73868">
        <ele>136</ele>
        <time>2011-07-01T11:51:36.000Z</time>
      </trkpt>
      <trkpt lat="48.72919" lon="1.73855">
        <ele>135.39999389648</ele>
        <time>2011-07-01T11:51:47.000Z</time>
      </trkpt>
      <trkpt lat="48.72913" lon="1.73848">
        <ele>135.19999694824</ele>
        <time>2011-07-01T11:51:52.000Z</time>
      </trkpt>
      <trkpt lat="48.72901" lon="1.73833">
        <ele>134.80000305176</ele>
        <time>2011-07-01T11:52:03.000Z</time>
      </trkpt>
      <trkpt lat="48.72892" lon="1.73824">
        <ele>134.80000305176</ele>
        <time>2011-07-01T11:52:11.000Z</time>
      </trkpt>
      <trkpt lat="48.72889" lon="1.73822">
        <ele>134.80000305176</ele>
        <time>2011-07-01T11:52:13.000Z</time>
      </trkpt>
      <trkpt lat="48.72883" lon="1.73814">
        <ele>134.60000610352</ele>
        <time>2011-07-01T11:52:19.000Z</time>
      </trkpt>
      <trkpt lat="48.7287" lon="1.73802">
        <ele>134.39999389648</ele>
        <time>2011-07-01T11:52:29.000Z</time>
      </trkpt>
      <trkpt lat="48.72861" lon="1.73793">
        <ele>134</ele>
        <time>2011-07-01T11:52:36.000Z</time>
      </trkpt>
      <trkpt lat="48.72848" lon="1.73778">
        <ele>133.60000610352</ele>
        <time>2011-07-01T11:52:46.000Z</time>
      </trkpt>
      <trkpt lat="48.72841" lon="1.73771">
        <ele>133.39999389648</ele>
        <time>2011-07-01T11:52:53.000Z</time>
      </trkpt>
      <trkpt lat="48.72833" lon="1.73762">
        <ele>133.19999694824</ele>
        <time>2011-07-01T11:53:00.000Z</time>
      </trkpt>
      <trkpt lat="48.72824" lon="1.73753">
        <ele>132.80000305176</ele>
        <time>2011-07-01T11:53:07.000Z</time>
      </trkpt>
      <trkpt lat="48.72814" lon="1.73743">
        <ele>132.39999389648</ele>
        <time>2011-07-01T11:53:15.000Z</time>
      </trkpt>
      <trkpt lat="48.72801" lon="1.73731">
        <ele>132</ele>
        <time>2011-07-01T11:53:25.000Z</time>
      </trkpt>
      <trkpt lat="48.7279" lon="1.73719">
        <ele>131.60000610352</ele>
        <time>2011-07-01T11:53:34.000Z</time>
      </trkpt>
      <trkpt lat="48.72783" lon="1.73711">
        <ele>131.39999389648</ele>
        <time>2011-07-01T11:53:40.000Z</time>
      </trkpt>
      <trkpt lat="48.72774" lon="1.73701">
        <ele>131.19999694824</ele>
        <time>2011-07-01T11:53:47.000Z</time>
      </trkpt>
      <trkpt lat="48.72767" lon="1.73693">
        <ele>131.19999694824</ele>
        <time>2011-07-01T11:53:54.000Z</time>
      </trkpt>
      <trkpt lat="48.72754" lon="1.7368">
        <ele>131</ele>
        <time>2011-07-01T11:54:04.000Z</time>
      </trkpt>
      <trkpt lat="48.72747" lon="1.73674">
        <ele>131</ele>
        <time>2011-07-01T11:54:10.000Z</time>
      </trkpt>
      <trkpt lat="48.7274" lon="1.73667">
        <ele>130.80000305176</ele>
        <time>2011-07-01T11:54:16.000Z</time>
      </trkpt>
      <trkpt lat="48.72732" lon="1.73659">
        <ele>130.39999389648</ele>
        <time>2011-07-01T11:54:23.000Z</time>
      </trkpt>
      <trkpt lat="48.72722" lon="1.73647">
        <ele>130</ele>
        <time>2011-07-01T11:54:32.000Z</time>
      </trkpt>
      <trkpt lat="48.72713" lon="1.73636">
        <ele>129.60000610352</ele>
        <time>2011-07-01T11:54:40.000Z</time>
      </trkpt>
      <trkpt lat="48.72711" lon="1.73629">
        <ele>129.19999694824</ele>
        <time>2011-07-01T11:54:44.000Z</time>
      </trkpt>
      <trkpt lat="48.72706" lon="1.73625">
        <ele>129.19999694824</ele>
        <time>2011-07-01T11:54:50.000Z</time>
      </trkpt>
      <trkpt lat="48.72701" lon="1.73622">
        <ele>129</ele>
        <time>2011-07-01T11:54:58.000Z</time>
      </trkpt>
      <trkpt lat="48.72692" lon="1.73615">
        <ele>128.80000305176</ele>
        <time>2011-07-01T11:55:04.000Z</time>
      </trkpt>
      <trkpt lat="48.72692" lon="1.73615">
        <ele>128.80000305176</ele>
        <time>2011-07-01T11:55:06.000Z</time>
      </trkpt>
      <trkpt lat="48.72686" lon="1.7361">
        <ele>128.60000610352</ele>
        <time>2011-07-01T11:55:13.000Z</time>
      </trkpt>
      <trkpt lat="48.72685" lon="1.73609">
        <ele>128.60000610352</ele>
        <time>2011-07-01T11:55:14.000Z</time>
      </trkpt>
      <trkpt lat="48.72681" lon="1.73607">
        <ele>128.60000610352</ele>
        <time>2011-07-01T11:55:16.000Z</time>
      </trkpt>
      <trkpt lat="48.72672" lon="1.73595">
        <ele>128.19999694824</ele>
        <time>2011-07-01T11:55:24.000Z</time>
      </trkpt>
      <trkpt lat="48.72667" lon="1.73589">
        <ele>128</ele>
        <time>2011-07-01T11:55:28.000Z</time>
      </trkpt>
      <trkpt lat="48.72657" lon="1.7358">
        <ele>127.80000305176</ele>
        <time>2011-07-01T11:55:36.000Z</time>
      </trkpt>
      <trkpt lat="48.72645" lon="1.7357">
        <ele>127.80000305176</ele>
        <time>2011-07-01T11:55:45.000Z</time>
      </trkpt>
      <trkpt lat="48.72634" lon="1.73559">
        <ele>127.80000305176</ele>
        <time>2011-07-01T11:55:54.000Z</time>
      </trkpt>
      <trkpt lat="48.72621" lon="1.73545">
        <ele>127.59999847412</ele>
        <time>2011-07-01T11:56:05.000Z</time>
      </trkpt>
      <trkpt lat="48.7261" lon="1.73535">
        <ele>127.59999847412</ele>
        <time>2011-07-01T11:56:14.000Z</time>
      </trkpt>
      <trkpt lat="48.72602" lon="1.73526">
        <ele>127.40000152588</ele>
        <time>2011-07-01T11:56:22.000Z</time>
      </trkpt>
      <trkpt lat="48.72595" lon="1.73517">
        <ele>127.19999694824</ele>
        <time>2011-07-01T11:56:30.000Z</time>
      </trkpt>
      <trkpt lat="48.72586" lon="1.7351">
        <ele>127</ele>
        <time>2011-07-01T11:56:37.000Z</time>
      </trkpt>
      <trkpt lat="48.72578" lon="1.73497">
        <ele>127.19999694824</ele>
        <time>2011-07-01T11:56:45.000Z</time>
      </trkpt>
      <trkpt lat="48.72569" lon="1.73489">
        <ele>127.40000152588</ele>
        <time>2011-07-01T11:56:52.000Z</time>
      </trkpt>
      <trkpt lat="48.72561" lon="1.73478">
        <ele>127.80000305176</ele>
        <time>2011-07-01T11:56:59.000Z</time>
      </trkpt>
      <trkpt lat="48.72552" lon="1.73471">
        <ele>128</ele>
        <time>2011-07-01T11:57:05.000Z</time>
      </trkpt>
      <trkpt lat="48.72545" lon="1.73466">
        <ele>128.19999694824</ele>
        <time>2011-07-01T11:57:11.000Z</time>
      </trkpt>
      <trkpt lat="48.72535" lon="1.73462">
        <ele>128.39999389648</ele>
        <time>2011-07-01T11:57:18.000Z</time>
      </trkpt>
      <trkpt lat="48.72526" lon="1.73459">
        <ele>128.60000610352</ele>
        <time>2011-07-01T11:57:25.000Z</time>
      </trkpt>
      <trkpt lat="48.72514" lon="1.73457">
        <ele>128.80000305176</ele>
        <time>2011-07-01T11:57:34.000Z</time>
      </trkpt>
      <trkpt lat="48.72504" lon="1.73456">
        <ele>128.80000305176</ele>
        <time>2011-07-01T11:57:41.000Z</time>
      </trkpt>
      <trkpt lat="48.72493" lon="1.73454">
        <ele>128.60000610352</ele>
        <time>2011-07-01T11:57:49.000Z</time>
      </trkpt>
      <trkpt lat="48.72482" lon="1.73452">
        <ele>128.19999694824</ele>
        <time>2011-07-01T11:57:57.000Z</time>
      </trkpt>
      <trkpt lat="48.72473" lon="1.7345">
        <ele>128</ele>
        <time>2011-07-01T11:58:03.000Z</time>
      </trkpt>
      <trkpt lat="48.72461" lon="1.73447">
        <ele>127.40000152588</ele>
        <time>2011-07-01T11:58:10.000Z</time>
      </trkpt>
      <trkpt lat="48.72452" lon="1.73445">
        <ele>127.19999694824</ele>
        <time>2011-07-01T11:58:16.000Z</time>
      </trkpt>
      <trkpt lat="48.7244" lon="1.73441">
        <ele>126.80000305176</ele>
        <time>2011-07-01T11:58:24.000Z</time>
      </trkpt>
      <trkpt lat="48.72429" lon="1.73437">
        <ele>126.40000152588</ele>
        <time>2011-07-01T11:58:31.000Z</time>
      </trkpt>
      <trkpt lat="48.72428" lon="1.73437">
        <ele>126.40000152588</ele>
        <time>2011-07-01T11:58:32.000Z</time>
      </trkpt>
      <trkpt lat="48.72418" lon="1.73434">
        <ele>126</ele>
        <time>2011-07-01T11:58:39.000Z</time>
      </trkpt>
      <trkpt lat="48.7241" lon="1.73432">
        <ele>126</ele>
        <time>2011-07-01T11:58:45.000Z</time>
      </trkpt>
      <trkpt lat="48.72401" lon="1.73431">
        <ele>126.19999694824</ele>
        <time>2011-07-01T11:58:51.000Z</time>
      </trkpt>
      <trkpt lat="48.72392" lon="1.7343">
        <ele>126.40000152588</ele>
        <time>2011-07-01T11:58:57.000Z</time>
      </trkpt>
      <trkpt lat="48.72383" lon="1.73427">
        <ele>126.59999847412</ele>
        <time>2011-07-01T11:59:03.000Z</time>
      </trkpt>
      <trkpt lat="48.72376" lon="1.73424">
        <ele>126.80000305176</ele>
        <time>2011-07-01T11:59:08.000Z</time>
      </trkpt>
      <trkpt lat="48.72364" lon="1.73419">
        <ele>127.19999694824</ele>
        <time>2011-07-01T11:59:16.000Z</time>
      </trkpt>
      <trkpt lat="48.72354" lon="1.73417">
        <ele>127.40000152588</ele>
        <time>2011-07-01T11:59:23.000Z</time>
      </trkpt>
      <trkpt lat="48.72343" lon="1.73415">
        <ele>127.59999847412</ele>
        <time>2011-07-01T11:59:31.000Z</time>
      </trkpt>
      <trkpt lat="48.72334" lon="1.73417">
        <ele>127.80000305176</ele>
        <time>2011-07-01T11:59:37.000Z</time>
      </trkpt>
      <trkpt lat="48.72328" lon="1.73415">
        <ele>127.80000305176</ele>
        <time>2011-07-01T11:59:41.000Z</time>
      </trkpt>
      <trkpt lat="48.72324" lon="1.7341">
        <ele>127.80000305176</ele>
        <time>2011-07-01T11:59:45.000Z</time>
      </trkpt>
      <trkpt lat="48.72322" lon="1.73408">
        <ele>127.80000305176</ele>
        <time>2011-07-01T11:59:47.000Z</time>
      </trkpt>
      <trkpt lat="48.72312" lon="1.7341">
        <ele>127.80000305176</ele>
        <time>2011-07-01T11:59:54.000Z</time>
      </trkpt>
      <trkpt lat="48.7231" lon="1.7341">
        <ele>127.80000305176</ele>
        <time>2011-07-01T11:59:55.000Z</time>
      </trkpt>
      <trkpt lat="48.723" lon="1.73404">
        <ele>127.80000305176</ele>
        <time>2011-07-01T12:00:03.000Z</time>
      </trkpt>
      <trkpt lat="48.72291" lon="1.73403">
        <ele>127.80000305176</ele>
        <time>2011-07-01T12:00:09.000Z</time>
      </trkpt>
      <trkpt lat="48.72284" lon="1.73405">
        <ele>127.80000305176</ele>
        <time>2011-07-01T12:00:15.000Z</time>
      </trkpt>
      <trkpt lat="48.72273" lon="1.73398">
        <ele>127.80000305176</ele>
        <time>2011-07-01T12:00:23.000Z</time>
      </trkpt>
      <trkpt lat="48.72266" lon="1.73395">
        <ele>127.80000305176</ele>
        <time>2011-07-01T12:00:29.000Z</time>
      </trkpt>
      <trkpt lat="48.72255" lon="1.73393">
        <ele>127.80000305176</ele>
        <time>2011-07-01T12:00:37.000Z</time>
      </trkpt>
      <trkpt lat="48.72245" lon="1.73391">
        <ele>127.80000305176</ele>
        <time>2011-07-01T12:00:43.000Z</time>
      </trkpt>
      <trkpt lat="48.72234" lon="1.73394">
        <ele>127.59999847412</ele>
        <time>2011-07-01T12:00:51.000Z</time>
      </trkpt>
      <trkpt lat="48.72223" lon="1.73395">
        <ele>127.40000152588</ele>
        <time>2011-07-01T12:00:59.000Z</time>
      </trkpt>
      <trkpt lat="48.72214" lon="1.73395">
        <ele>127.19999694824</ele>
        <time>2011-07-01T12:01:06.000Z</time>
      </trkpt>
      <trkpt lat="48.72208" lon="1.73395">
        <ele>127.19999694824</ele>
        <time>2011-07-01T12:01:11.000Z</time>
      </trkpt>
      <trkpt lat="48.72198" lon="1.73397">
        <ele>127</ele>
        <time>2011-07-01T12:01:18.000Z</time>
      </trkpt>
      <trkpt lat="48.72187" lon="1.734">
        <ele>126.80000305176</ele>
        <time>2011-07-01T12:01:26.000Z</time>
      </trkpt>
      <trkpt lat="48.72178" lon="1.73401">
        <ele>126.80000305176</ele>
        <time>2011-07-01T12:01:31.000Z</time>
      </trkpt>
      <trkpt lat="48.72169" lon="1.73402">
        <ele>126.59999847412</ele>
        <time>2011-07-01T12:01:38.000Z</time>
      </trkpt>
      <trkpt lat="48.72166" lon="1.73401">
        <ele>126.59999847412</ele>
        <time>2011-07-01T12:01:40.000Z</time>
      </trkpt>
      <trkpt lat="48.72154" lon="1.73403">
        <ele>127</ele>
        <time>2011-07-01T12:01:48.000Z</time>
      </trkpt>
      <trkpt lat="48.72146" lon="1.73403">
        <ele>127.40000152588</ele>
        <time>2011-07-01T12:01:53.000Z</time>
      </trkpt>
      <trkpt lat="48.72141" lon="1.73405">
        <ele>127.59999847412</ele>
        <time>2011-07-01T12:01:58.000Z</time>
      </trkpt>
      <trkpt lat="48.72137" lon="1.73403">
        <ele>127.59999847412</ele>
        <time>2011-07-01T12:02:01.000Z</time>
      </trkpt>
      <trkpt lat="48.72131" lon="1.73405">
        <ele>128</ele>
        <time>2011-07-01T12:02:05.000Z</time>
      </trkpt>
      <trkpt lat="48.7212" lon="1.73406">
        <ele>128.39999389648</ele>
        <time>2011-07-01T12:02:13.000Z</time>
      </trkpt>
      <trkpt lat="48.72107" lon="1.73412">
        <ele>129</ele>
        <time>2011-07-01T12:02:22.000Z</time>
      </trkpt>
      <trkpt lat="48.72098" lon="1.73416">
        <ele>129.39999389648</ele>
        <time>2011-07-01T12:02:29.000Z</time>
      </trkpt>
      <trkpt lat="48.72087" lon="1.73416">
        <ele>129.80000305176</ele>
        <time>2011-07-01T12:02:36.000Z</time>
      </trkpt>
      <trkpt lat="48.72078" lon="1.73419">
        <ele>129.80000305176</ele>
        <time>2011-07-01T12:02:43.000Z</time>
      </trkpt>
      <trkpt lat="48.7207" lon="1.7342">
        <ele>129.80000305176</ele>
        <time>2011-07-01T12:02:48.000Z</time>
      </trkpt>
      <trkpt lat="48.72066" lon="1.73418">
        <ele>129.80000305176</ele>
        <time>2011-07-01T12:02:50.000Z</time>
      </trkpt>
      <trkpt lat="48.72051" lon="1.7342">
        <ele>130</ele>
        <time>2011-07-01T12:02:55.000Z</time>
      </trkpt>
      <trkpt lat="48.72029" lon="1.73428">
        <ele>130</ele>
        <time>2011-07-01T12:03:02.000Z</time>
      </trkpt>
      <trkpt lat="48.72015" lon="1.73432">
        <ele>130.19999694824</ele>
        <time>2011-07-01T12:03:06.000Z</time>
      </trkpt>
      <trkpt lat="48.71993" lon="1.73442">
        <ele>130.39999389648</ele>
        <time>2011-07-01T12:03:12.000Z</time>
      </trkpt>
      <trkpt lat="48.71976" lon="1.73447">
        <ele>130.60000610352</ele>
        <time>2011-07-01T12:03:16.000Z</time>
      </trkpt>
      <trkpt lat="48.71963" lon="1.7345">
        <ele>130.60000610352</ele>
        <time>2011-07-01T12:03:19.000Z</time>
      </trkpt>
      <trkpt lat="48.71947" lon="1.73453">
        <ele>130.80000305176</ele>
        <time>2011-07-01T12:03:23.000Z</time>
      </trkpt>
      <trkpt lat="48.71924" lon="1.73457">
        <ele>130.80000305176</ele>
        <time>2011-07-01T12:03:29.000Z</time>
      </trkpt>
      <trkpt lat="48.71906" lon="1.73462">
        <ele>131.19999694824</ele>
        <time>2011-07-01T12:03:34.000Z</time>
      </trkpt>
      <trkpt lat="48.71883" lon="1.73468">
        <ele>132</ele>
        <time>2011-07-01T12:03:40.000Z</time>
      </trkpt>
      <trkpt lat="48.71862" lon="1.7347">
        <ele>132.39999389648</ele>
        <time>2011-07-01T12:03:46.000Z</time>
      </trkpt>
      <trkpt lat="48.71838" lon="1.73473">
        <ele>133.19999694824</ele>
        <time>2011-07-01T12:03:52.000Z</time>
      </trkpt>
      <trkpt lat="48.71816" lon="1.73478">
        <ele>134.19999694824</ele>
        <time>2011-07-01T12:03:57.000Z</time>
      </trkpt>
      <trkpt lat="48.71799" lon="1.7348">
        <ele>134.80000305176</ele>
        <time>2011-07-01T12:04:01.000Z</time>
      </trkpt>
      <trkpt lat="48.71786" lon="1.73486">
        <ele>135.39999389648</ele>
        <time>2011-07-01T12:04:04.000Z</time>
      </trkpt>
      <trkpt lat="48.71767" lon="1.73495">
        <ele>136.19999694824</ele>
        <time>2011-07-01T12:04:09.000Z</time>
      </trkpt>
      <trkpt lat="48.71756" lon="1.73499">
        <ele>136.60000610352</ele>
        <time>2011-07-01T12:04:11.000Z</time>
      </trkpt>
      <trkpt lat="48.71718" lon="1.73505">
        <ele>138.19999694824</ele>
        <time>2011-07-01T12:04:17.000Z</time>
      </trkpt>
      <trkpt lat="48.71668" lon="1.73516">
        <ele>139.80000305176</ele>
        <time>2011-07-01T12:04:24.000Z</time>
      </trkpt>
      <trkpt lat="48.71619" lon="1.7353">
        <ele>142.39999389648</ele>
        <time>2011-07-01T12:04:31.000Z</time>
      </trkpt>
      <trkpt lat="48.71583" lon="1.73538">
        <ele>144.39999389648</ele>
        <time>2011-07-01T12:04:36.000Z</time>
      </trkpt>
      <trkpt lat="48.71533" lon="1.7355">
        <ele>150</ele>
        <time>2011-07-01T12:04:43.000Z</time>
      </trkpt>
      <trkpt lat="48.715" lon="1.73557">
        <ele>154</ele>
        <time>2011-07-01T12:04:48.000Z</time>
      </trkpt>
      <trkpt lat="48.71494" lon="1.73558">
        <ele>154.60000610352</ele>
        <time>2011-07-01T12:04:49.000Z</time>
      </trkpt>
      <trkpt lat="48.71473" lon="1.73562">
        <ele>157</ele>
        <time>2011-07-01T12:04:53.000Z</time>
      </trkpt>
      <trkpt lat="48.71455" lon="1.73569">
        <ele>158.80000305176</ele>
        <time>2011-07-01T12:04:58.000Z</time>
      </trkpt>
      <trkpt lat="48.71453" lon="1.7357">
        <ele>159</ele>
        <time>2011-07-01T12:04:59.000Z</time>
      </trkpt>
      <trkpt lat="48.71439" lon="1.73574">
        <ele>160.19999694824</ele>
        <time>2011-07-01T12:05:06.000Z</time>
      </trkpt>
      <trkpt lat="48.71426" lon="1.73576">
        <ele>161.39999389648</ele>
        <time>2011-07-01T12:05:12.000Z</time>
      </trkpt>
      <trkpt lat="48.71407" lon="1.7358">
        <ele>163.19999694824</ele>
        <time>2011-07-01T12:05:19.000Z</time>
      </trkpt>
      <trkpt lat="48.71391" lon="1.73582">
        <ele>164.80000305176</ele>
        <time>2011-07-01T12:05:25.000Z</time>
      </trkpt>
      <trkpt lat="48.71382" lon="1.73576">
        <ele>166</ele>
        <time>2011-07-01T12:05:31.000Z</time>
      </trkpt>
      <trkpt lat="48.71376" lon="1.73566">
        <ele>167.39999389648</ele>
        <time>2011-07-01T12:05:37.000Z</time>
      </trkpt>
      <trkpt lat="48.71369" lon="1.73558">
        <ele>168.60000610352</ele>
        <time>2011-07-01T12:05:43.000Z</time>
      </trkpt>
      <trkpt lat="48.7136" lon="1.73548">
        <ele>170.39999389648</ele>
        <time>2011-07-01T12:05:51.000Z</time>
      </trkpt>
      <trkpt lat="48.71352" lon="1.7354">
        <ele>171.80000305176</ele>
        <time>2011-07-01T12:05:58.000Z</time>
      </trkpt>
      <trkpt lat="48.71345" lon="1.73531">
        <ele>173.19999694824</ele>
        <time>2011-07-01T12:06:05.000Z</time>
      </trkpt>
      <trkpt lat="48.71343" lon="1.7353">
        <ele>173.60000610352</ele>
        <time>2011-07-01T12:06:07.000Z</time>
      </trkpt>
      <trkpt lat="48.71336" lon="1.73532">
        <ele>174.39999389648</ele>
        <time>2011-07-01T12:06:13.000Z</time>
      </trkpt>
      <trkpt lat="48.7133" lon="1.73535">
        <ele>174.60000610352</ele>
        <time>2011-07-01T12:06:18.000Z</time>
      </trkpt>
      <trkpt lat="48.71325" lon="1.73538">
        <ele>175.19999694824</ele>
        <time>2011-07-01T12:06:22.000Z</time>
      </trkpt>
      <trkpt lat="48.71319" lon="1.7354">
        <ele>175.60000610352</ele>
        <time>2011-07-01T12:06:27.000Z</time>
      </trkpt>
      <trkpt lat="48.71315" lon="1.73542">
        <ele>176</ele>
        <time>2011-07-01T12:06:30.000Z</time>
      </trkpt>
      <trkpt lat="48.71309" lon="1.73548">
        <ele>176.39999389648</ele>
        <time>2011-07-01T12:06:37.000Z</time>
      </trkpt>
      <trkpt lat="48.71308" lon="1.73561">
        <ele>176</ele>
        <time>2011-07-01T12:06:45.000Z</time>
      </trkpt>
      <trkpt lat="48.71306" lon="1.73569">
        <ele>176</ele>
        <time>2011-07-01T12:06:49.000Z</time>
      </trkpt>
      <trkpt lat="48.71299" lon="1.73583">
        <ele>176.60000610352</ele>
        <time>2011-07-01T12:06:57.000Z</time>
      </trkpt>
      <trkpt lat="48.71292" lon="1.73594">
        <ele>177.60000610352</ele>
        <time>2011-07-01T12:07:04.000Z</time>
      </trkpt>
      <trkpt lat="48.71285" lon="1.73601">
        <ele>178.39999389648</ele>
        <time>2011-07-01T12:07:11.000Z</time>
      </trkpt>
      <trkpt lat="48.71278" lon="1.73609">
        <ele>179.39999389648</ele>
        <time>2011-07-01T12:07:18.000Z</time>
      </trkpt>
      <trkpt lat="48.71269" lon="1.73612">
        <ele>181</ele>
        <time>2011-07-01T12:07:25.000Z</time>
      </trkpt>
      <trkpt lat="48.71256" lon="1.73618">
        <ele>183</ele>
        <time>2011-07-01T12:07:35.000Z</time>
      </trkpt>
      <trkpt lat="48.71245" lon="1.73619">
        <ele>183.80000305176</ele>
        <time>2011-07-01T12:07:42.000Z</time>
      </trkpt>
      <trkpt lat="48.71234" lon="1.73618">
        <ele>183.60000610352</ele>
        <time>2011-07-01T12:07:50.000Z</time>
      </trkpt>
      <trkpt lat="48.71223" lon="1.73616">
        <ele>183.19999694824</ele>
        <time>2011-07-01T12:07:57.000Z</time>
      </trkpt>
      <trkpt lat="48.71213" lon="1.73609">
        <ele>182.80000305176</ele>
        <time>2011-07-01T12:08:04.000Z</time>
      </trkpt>
      <trkpt lat="48.71204" lon="1.73604">
        <ele>182.39999389648</ele>
        <time>2011-07-01T12:08:11.000Z</time>
      </trkpt>
      <trkpt lat="48.71198" lon="1.73613">
        <ele>182.19999694824</ele>
        <time>2011-07-01T12:08:17.000Z</time>
      </trkpt>
      <trkpt lat="48.71188" lon="1.73625">
        <ele>182</ele>
        <time>2011-07-01T12:08:25.000Z</time>
      </trkpt>
      <trkpt lat="48.71178" lon="1.73635">
        <ele>182</ele>
        <time>2011-07-01T12:08:34.000Z</time>
      </trkpt>
      <trkpt lat="48.71165" lon="1.73649">
        <ele>182.19999694824</ele>
        <time>2011-07-01T12:08:45.000Z</time>
      </trkpt>
      <trkpt lat="48.71156" lon="1.73656">
        <ele>182</ele>
        <time>2011-07-01T12:08:52.000Z</time>
      </trkpt>
      <trkpt lat="48.71147" lon="1.73666">
        <ele>182</ele>
        <time>2011-07-01T12:09:00.000Z</time>
      </trkpt>
      <trkpt lat="48.71136" lon="1.73678">
        <ele>181.80000305176</ele>
        <time>2011-07-01T12:09:09.000Z</time>
      </trkpt>
      <trkpt lat="48.71125" lon="1.73691">
        <ele>181.60000610352</ele>
        <time>2011-07-01T12:09:18.000Z</time>
      </trkpt>
      <trkpt lat="48.71117" lon="1.737">
        <ele>181.60000610352</ele>
        <time>2011-07-01T12:09:25.000Z</time>
      </trkpt>
      <trkpt lat="48.71107" lon="1.7371">
        <ele>181.60000610352</ele>
        <time>2011-07-01T12:09:33.000Z</time>
      </trkpt>
      <trkpt lat="48.71096" lon="1.73721">
        <ele>181.80000305176</ele>
        <time>2011-07-01T12:09:42.000Z</time>
      </trkpt>
      <trkpt lat="48.71084" lon="1.73734">
        <ele>182.19999694824</ele>
        <time>2011-07-01T12:09:52.000Z</time>
      </trkpt>
      <trkpt lat="48.71077" lon="1.73739">
        <ele>182.19999694824</ele>
        <time>2011-07-01T12:09:58.000Z</time>
      </trkpt>
      <trkpt lat="48.71065" lon="1.73749">
        <ele>182.39999389648</ele>
        <time>2011-07-01T12:10:07.000Z</time>
      </trkpt>
      <trkpt lat="48.71054" lon="1.73761">
        <ele>182.19999694824</ele>
        <time>2011-07-01T12:10:16.000Z</time>
      </trkpt>
      <trkpt lat="48.71043" lon="1.73773">
        <ele>182</ele>
        <time>2011-07-01T12:10:25.000Z</time>
      </trkpt>
      <trkpt lat="48.71036" lon="1.73783">
        <ele>182</ele>
        <time>2011-07-01T12:10:32.000Z</time>
      </trkpt>
      <trkpt lat="48.71028" lon="1.73792">
        <ele>182</ele>
        <time>2011-07-01T12:10:39.000Z</time>
      </trkpt>
      <trkpt lat="48.71019" lon="1.73802">
        <ele>182.19999694824</ele>
        <time>2011-07-01T12:10:45.000Z</time>
      </trkpt>
      <trkpt lat="48.71011" lon="1.7381">
        <ele>182.39999389648</ele>
        <time>2011-07-01T12:10:51.000Z</time>
      </trkpt>
      <trkpt lat="48.71008" lon="1.73819">
        <ele>182.60000610352</ele>
        <time>2011-07-01T12:10:57.000Z</time>
      </trkpt>
      <trkpt lat="48.71003" lon="1.73837">
        <ele>183</ele>
        <time>2011-07-01T12:11:05.000Z</time>
      </trkpt>
      <trkpt lat="48.71" lon="1.73854">
        <ele>183.39999389648</ele>
        <time>2011-07-01T12:11:12.000Z</time>
      </trkpt>
      <trkpt lat="48.70994" lon="1.7387">
        <ele>183.60000610352</ele>
        <time>2011-07-01T12:11:21.000Z</time>
      </trkpt>
      <trkpt lat="48.70993" lon="1.73872">
        <ele>183.60000610352</ele>
        <time>2011-07-01T12:11:22.000Z</time>
      </trkpt>
      <trkpt lat="48.70989" lon="1.73893">
        <ele>184</ele>
        <time>2011-07-01T12:11:31.000Z</time>
      </trkpt>
      <trkpt lat="48.70983" lon="1.73911">
        <ele>184.39999389648</ele>
        <time>2011-07-01T12:11:39.000Z</time>
      </trkpt>
      <trkpt lat="48.70979" lon="1.73931">
        <ele>184</ele>
        <time>2011-07-01T12:11:48.000Z</time>
      </trkpt>
      <trkpt lat="48.70975" lon="1.73951">
        <ele>183.39999389648</ele>
        <time>2011-07-01T12:11:57.000Z</time>
      </trkpt>
      <trkpt lat="48.70972" lon="1.73968">
        <ele>183</ele>
        <time>2011-07-01T12:12:05.000Z</time>
      </trkpt>
      <trkpt lat="48.70969" lon="1.73982">
        <ele>182.60000610352</ele>
        <time>2011-07-01T12:12:13.000Z</time>
      </trkpt>
      <trkpt lat="48.70967" lon="1.73996">
        <ele>182.39999389648</ele>
        <time>2011-07-01T12:12:21.000Z</time>
      </trkpt>
      <trkpt lat="48.70966" lon="1.74003">
        <ele>182.39999389648</ele>
        <time>2011-07-01T12:12:25.000Z</time>
      </trkpt>
      <trkpt lat="48.70963" lon="1.7401">
        <ele>182.39999389648</ele>
        <time>2011-07-01T12:12:30.000Z</time>
      </trkpt>
      <trkpt lat="48.70959" lon="1.74019">
        <ele>182.39999389648</ele>
        <time>2011-07-01T12:12:35.000Z</time>
      </trkpt>
      <trkpt lat="48.70955" lon="1.74032">
        <ele>182.39999389648</ele>
        <time>2011-07-01T12:12:41.000Z</time>
      </trkpt>
      <trkpt lat="48.70954" lon="1.74037">
        <ele>182.39999389648</ele>
        <time>2011-07-01T12:12:44.000Z</time>
      </trkpt>
      <trkpt lat="48.70952" lon="1.74051">
        <ele>182.39999389648</ele>
        <time>2011-07-01T12:12:51.000Z</time>
      </trkpt>
      <trkpt lat="48.70949" lon="1.74063">
        <ele>182.60000610352</ele>
        <time>2011-07-01T12:12:57.000Z</time>
      </trkpt>
      <trkpt lat="48.70946" lon="1.74077">
        <ele>182.60000610352</ele>
        <time>2011-07-01T12:13:02.000Z</time>
      </trkpt>
      <trkpt lat="48.70941" lon="1.74099">
        <ele>182.39999389648</ele>
        <time>2011-07-01T12:13:11.000Z</time>
      </trkpt>
      <trkpt lat="48.70938" lon="1.7411">
        <ele>182.39999389648</ele>
        <time>2011-07-01T12:13:16.000Z</time>
      </trkpt>
      <trkpt lat="48.70936" lon="1.74125">
        <ele>182.39999389648</ele>
        <time>2011-07-01T12:13:23.000Z</time>
      </trkpt>
      <trkpt lat="48.70934" lon="1.74139">
        <ele>182.39999389648</ele>
        <time>2011-07-01T12:13:30.000Z</time>
      </trkpt>
      <trkpt lat="48.70933" lon="1.74146">
        <ele>182.39999389648</ele>
        <time>2011-07-01T12:13:34.000Z</time>
      </trkpt>
      <trkpt lat="48.7093" lon="1.74163">
        <ele>182.39999389648</ele>
        <time>2011-07-01T12:13:42.000Z</time>
      </trkpt>
      <trkpt lat="48.70928" lon="1.74176">
        <ele>182.19999694824</ele>
        <time>2011-07-01T12:13:48.000Z</time>
      </trkpt>
      <trkpt lat="48.70924" lon="1.74192">
        <ele>182</ele>
        <time>2011-07-01T12:13:56.000Z</time>
      </trkpt>
      <trkpt lat="48.70921" lon="1.74208">
        <ele>181.80000305176</ele>
        <time>2011-07-01T12:14:03.000Z</time>
      </trkpt>
      <trkpt lat="48.70916" lon="1.74228">
        <ele>181.39999389648</ele>
        <time>2011-07-01T12:14:12.000Z</time>
      </trkpt>
      <trkpt lat="48.70911" lon="1.74243">
        <ele>181</ele>
        <time>2011-07-01T12:14:19.000Z</time>
      </trkpt>
      <trkpt lat="48.70908" lon="1.74254">
        <ele>180.60000610352</ele>
        <time>2011-07-01T12:14:25.000Z</time>
      </trkpt>
      <trkpt lat="48.70902" lon="1.74265">
        <ele>179.80000305176</ele>
        <time>2011-07-01T12:14:32.000Z</time>
      </trkpt>
      <trkpt lat="48.70899" lon="1.74274">
        <ele>179.39999389648</ele>
        <time>2011-07-01T12:14:37.000Z</time>
      </trkpt>
      <trkpt lat="48.70893" lon="1.74285">
        <ele>178.80000305176</ele>
        <time>2011-07-01T12:14:44.000Z</time>
      </trkpt>
      <trkpt lat="48.70888" lon="1.74294">
        <ele>178.19999694824</ele>
        <time>2011-07-01T12:14:49.000Z</time>
      </trkpt>
      <trkpt lat="48.70881" lon="1.74307">
        <ele>177.60000610352</ele>
        <time>2011-07-01T12:14:57.000Z</time>
      </trkpt>
      <trkpt lat="48.7087" lon="1.74325">
        <ele>176.80000305176</ele>
        <time>2011-07-01T12:15:07.000Z</time>
      </trkpt>
      <trkpt lat="48.70862" lon="1.74342">
        <ele>176.39999389648</ele>
        <time>2011-07-01T12:15:16.000Z</time>
      </trkpt>
      <trkpt lat="48.70859" lon="1.74349">
        <ele>176.39999389648</ele>
        <time>2011-07-01T12:15:20.000Z</time>
      </trkpt>
      <trkpt lat="48.70858" lon="1.7435">
        <ele>176.39999389648</ele>
        <time>2011-07-01T12:15:23.000Z</time>
      </trkpt>
      <trkpt lat="48.70854" lon="1.74357">
        <ele>176.39999389648</ele>
        <time>2011-07-01T12:15:39.000Z</time>
      </trkpt>
      <trkpt lat="48.70851" lon="1.74361">
        <ele>176.39999389648</ele>
        <time>2011-07-01T12:15:41.000Z</time>
      </trkpt>
      <trkpt lat="48.70838" lon="1.7438">
        <ele>176.19999694824</ele>
        <time>2011-07-01T12:15:53.000Z</time>
      </trkpt>
      <trkpt lat="48.70828" lon="1.74393">
        <ele>176.39999389648</ele>
        <time>2011-07-01T12:16:02.000Z</time>
      </trkpt>
      <trkpt lat="48.70816" lon="1.74404">
        <ele>176.60000610352</ele>
        <time>2011-07-01T12:16:11.000Z</time>
      </trkpt>
      <trkpt lat="48.70811" lon="1.74406">
        <ele>176.60000610352</ele>
        <time>2011-07-01T12:16:15.000Z</time>
      </trkpt>
      <trkpt lat="48.70795" lon="1.74417">
        <ele>176.80000305176</ele>
        <time>2011-07-01T12:16:27.000Z</time>
      </trkpt>
      <trkpt lat="48.70785" lon="1.74424">
        <ele>177</ele>
        <time>2011-07-01T12:16:35.000Z</time>
      </trkpt>
      <trkpt lat="48.70773" lon="1.74432">
        <ele>177.19999694824</ele>
        <time>2011-07-01T12:16:44.000Z</time>
      </trkpt>
      <trkpt lat="48.70765" lon="1.74438">
        <ele>177.39999389648</ele>
        <time>2011-07-01T12:16:50.000Z</time>
      </trkpt>
      <trkpt lat="48.70755" lon="1.74444">
        <ele>177.39999389648</ele>
        <time>2011-07-01T12:16:58.000Z</time>
      </trkpt>
      <trkpt lat="48.70744" lon="1.74451">
        <ele>177.80000305176</ele>
        <time>2011-07-01T12:17:06.000Z</time>
      </trkpt>
      <trkpt lat="48.7074" lon="1.74452">
        <ele>177.80000305176</ele>
        <time>2011-07-01T12:17:09.000Z</time>
      </trkpt>
      <trkpt lat="48.70734" lon="1.74461">
        <ele>178</ele>
        <time>2011-07-01T12:17:16.000Z</time>
      </trkpt>
      <trkpt lat="48.70734" lon="1.74463">
        <ele>178</ele>
        <time>2011-07-01T12:17:17.000Z</time>
      </trkpt>
      <trkpt lat="48.70734" lon="1.74474">
        <ele>177.80000305176</ele>
        <time>2011-07-01T12:17:23.000Z</time>
      </trkpt>
      <trkpt lat="48.70742" lon="1.74481">
        <ele>177.39999389648</ele>
        <time>2011-07-01T12:17:30.000Z</time>
      </trkpt>
      <trkpt lat="48.70746" lon="1.74484">
        <ele>177.19999694824</ele>
        <time>2011-07-01T12:17:33.000Z</time>
      </trkpt>
      <trkpt lat="48.7076" lon="1.745">
        <ele>176.80000305176</ele>
        <time>2011-07-01T12:17:45.000Z</time>
      </trkpt>
      <trkpt lat="48.70768" lon="1.74509">
        <ele>176.60000610352</ele>
        <time>2011-07-01T12:17:53.000Z</time>
      </trkpt>
      <trkpt lat="48.70775" lon="1.74519">
        <ele>176.60000610352</ele>
        <time>2011-07-01T12:18:00.000Z</time>
      </trkpt>
      <trkpt lat="48.70783" lon="1.7453">
        <ele>176.60000610352</ele>
        <time>2011-07-01T12:18:07.000Z</time>
      </trkpt>
      <trkpt lat="48.70789" lon="1.74537">
        <ele>176.39999389648</ele>
        <time>2011-07-01T12:18:12.000Z</time>
      </trkpt>
      <trkpt lat="48.70796" lon="1.74545">
        <ele>176.39999389648</ele>
        <time>2011-07-01T12:18:18.000Z</time>
      </trkpt>
      <trkpt lat="48.70805" lon="1.74557">
        <ele>176.19999694824</ele>
        <time>2011-07-01T12:18:26.000Z</time>
      </trkpt>
      <trkpt lat="48.70813" lon="1.74569">
        <ele>176.19999694824</ele>
        <time>2011-07-01T12:18:34.000Z</time>
      </trkpt>
      <trkpt lat="48.70814" lon="1.7457">
        <ele>176.19999694824</ele>
        <time>2011-07-01T12:18:37.000Z</time>
      </trkpt>
      <trkpt lat="48.70818" lon="1.74576">
        <ele>176</ele>
        <time>2011-07-01T12:18:43.000Z</time>
      </trkpt>
      <trkpt lat="48.70825" lon="1.74585">
        <ele>176</ele>
        <time>2011-07-01T12:18:48.000Z</time>
      </trkpt>
      <trkpt lat="48.70832" lon="1.74594">
        <ele>176</ele>
        <time>2011-07-01T12:18:54.000Z</time>
      </trkpt>
      <trkpt lat="48.70838" lon="1.74601">
        <ele>175.80000305176</ele>
        <time>2011-07-01T12:18:59.000Z</time>
      </trkpt>
      <trkpt lat="48.70844" lon="1.74609">
        <ele>175.80000305176</ele>
        <time>2011-07-01T12:19:05.000Z</time>
      </trkpt>
      <trkpt lat="48.7085" lon="1.74618">
        <ele>175.80000305176</ele>
        <time>2011-07-01T12:19:11.000Z</time>
      </trkpt>
      <trkpt lat="48.70857" lon="1.74629">
        <ele>175.80000305176</ele>
        <time>2011-07-01T12:19:18.000Z</time>
      </trkpt>
      <trkpt lat="48.70859" lon="1.74632">
        <ele>175.80000305176</ele>
        <time>2011-07-01T12:19:20.000Z</time>
      </trkpt>
      <trkpt lat="48.70862" lon="1.74641">
        <ele>175.80000305176</ele>
        <time>2011-07-01T12:19:25.000Z</time>
      </trkpt>
      <trkpt lat="48.70866" lon="1.74648">
        <ele>175.80000305176</ele>
        <time>2011-07-01T12:19:29.000Z</time>
      </trkpt>
      <trkpt lat="48.70877" lon="1.74661">
        <ele>175.80000305176</ele>
        <time>2011-07-01T12:19:38.000Z</time>
      </trkpt>
      <trkpt lat="48.70885" lon="1.74674">
        <ele>176.19999694824</ele>
        <time>2011-07-01T12:19:46.000Z</time>
      </trkpt>
      <trkpt lat="48.70894" lon="1.74684">
        <ele>176.39999389648</ele>
        <time>2011-07-01T12:19:53.000Z</time>
      </trkpt>
      <trkpt lat="48.70906" lon="1.74699">
        <ele>176.80000305176</ele>
        <time>2011-07-01T12:20:03.000Z</time>
      </trkpt>
      <trkpt lat="48.7092" lon="1.74716">
        <ele>177.19999694824</ele>
        <time>2011-07-01T12:20:15.000Z</time>
      </trkpt>
      <trkpt lat="48.70931" lon="1.74731">
        <ele>177.60000610352</ele>
        <time>2011-07-01T12:20:25.000Z</time>
      </trkpt>
      <trkpt lat="48.70939" lon="1.74743">
        <ele>177.80000305176</ele>
        <time>2011-07-01T12:20:32.000Z</time>
      </trkpt>
      <trkpt lat="48.70951" lon="1.74759">
        <ele>178</ele>
        <time>2011-07-01T12:20:43.000Z</time>
      </trkpt>
      <trkpt lat="48.70963" lon="1.74773">
        <ele>178</ele>
        <time>2011-07-01T12:20:53.000Z</time>
      </trkpt>
      <trkpt lat="48.70967" lon="1.74777">
        <ele>178</ele>
        <time>2011-07-01T12:20:57.000Z</time>
      </trkpt>
      <trkpt lat="48.70971" lon="1.74785">
        <ele>178.19999694824</ele>
        <time>2011-07-01T12:21:01.000Z</time>
      </trkpt>
      <trkpt lat="48.70977" lon="1.74792">
        <ele>178.19999694824</ele>
        <time>2011-07-01T12:21:07.000Z</time>
      </trkpt>
      <trkpt lat="48.70991" lon="1.748">
        <ele>178.39999389648</ele>
        <time>2011-07-01T12:21:16.000Z</time>
      </trkpt>
      <trkpt lat="48.70998" lon="1.74808">
        <ele>178.60000610352</ele>
        <time>2011-07-01T12:21:23.000Z</time>
      </trkpt>
      <trkpt lat="48.70999" lon="1.74808">
        <ele>178.60000610352</ele>
        <time>2011-07-01T12:21:27.000Z</time>
      </trkpt>
      <trkpt lat="48.70999" lon="1.74813">
        <ele>178.60000610352</ele>
        <time>2011-07-01T12:21:51.000Z</time>
      </trkpt>
      <trkpt lat="48.70999" lon="1.74812">
        <ele>178.60000610352</ele>
        <time>2011-07-01T12:21:52.000Z</time>
      </trkpt>
      <trkpt lat="48.71005" lon="1.74815">
        <ele>178.39999389648</ele>
        <time>2011-07-01T12:22:49.000Z</time>
      </trkpt>
      <trkpt lat="48.71009" lon="1.74823">
        <ele>178.19999694824</ele>
        <time>2011-07-01T12:22:53.000Z</time>
      </trkpt>
      <trkpt lat="48.71011" lon="1.74828">
        <ele>178.19999694824</ele>
        <time>2011-07-01T12:22:56.000Z</time>
      </trkpt>
      <trkpt lat="48.71011" lon="1.74834">
        <ele>178.19999694824</ele>
        <time>2011-07-01T12:22:59.000Z</time>
      </trkpt>
      <trkpt lat="48.71012" lon="1.74847">
        <ele>178.19999694824</ele>
        <time>2011-07-01T12:23:04.000Z</time>
      </trkpt>
      <trkpt lat="48.71011" lon="1.7485">
        <ele>178.39999389648</ele>
        <time>2011-07-01T12:23:06.000Z</time>
      </trkpt>
      <trkpt lat="48.71003" lon="1.74865">
        <ele>178.80000305176</ele>
        <time>2011-07-01T12:23:14.000Z</time>
      </trkpt>
      <trkpt lat="48.70996" lon="1.74876">
        <ele>178.80000305176</ele>
        <time>2011-07-01T12:23:23.000Z</time>
      </trkpt>
      <trkpt lat="48.70994" lon="1.74878">
        <ele>178.80000305176</ele>
        <time>2011-07-01T12:23:25.000Z</time>
      </trkpt>
      <trkpt lat="48.70993" lon="1.74881">
        <ele>178.60000610352</ele>
        <time>2011-07-01T12:23:27.000Z</time>
      </trkpt>
      <trkpt lat="48.70986" lon="1.74889">
        <ele>178.39999389648</ele>
        <time>2011-07-01T12:23:33.000Z</time>
      </trkpt>
      <trkpt lat="48.70981" lon="1.74896">
        <ele>178.19999694824</ele>
        <time>2011-07-01T12:23:38.000Z</time>
      </trkpt>
      <trkpt lat="48.70974" lon="1.74906">
        <ele>177.80000305176</ele>
        <time>2011-07-01T12:23:45.000Z</time>
      </trkpt>
      <trkpt lat="48.7097" lon="1.7491">
        <ele>177.60000610352</ele>
        <time>2011-07-01T12:23:48.000Z</time>
      </trkpt>
      <trkpt lat="48.70963" lon="1.7492">
        <ele>177</ele>
        <time>2011-07-01T12:23:57.000Z</time>
      </trkpt>
      <trkpt lat="48.70958" lon="1.74925">
        <ele>176.80000305176</ele>
        <time>2011-07-01T12:24:01.000Z</time>
      </trkpt>
      <trkpt lat="48.70954" lon="1.74933">
        <ele>176.60000610352</ele>
        <time>2011-07-01T12:24:06.000Z</time>
      </trkpt>
      <trkpt lat="48.70953" lon="1.74934">
        <ele>176.60000610352</ele>
        <time>2011-07-01T12:24:07.000Z</time>
      </trkpt>
      <trkpt lat="48.70948" lon="1.74942">
        <ele>176.19999694824</ele>
        <time>2011-07-01T12:24:14.000Z</time>
      </trkpt>
      <trkpt lat="48.70943" lon="1.74951">
        <ele>176</ele>
        <time>2011-07-01T12:24:20.000Z</time>
      </trkpt>
      <trkpt lat="48.70939" lon="1.74961">
        <ele>175.80000305176</ele>
        <time>2011-07-01T12:24:26.000Z</time>
      </trkpt>
      <trkpt lat="48.70935" lon="1.74968">
        <ele>175.60000610352</ele>
        <time>2011-07-01T12:24:31.000Z</time>
      </trkpt>
      <trkpt lat="48.70931" lon="1.74977">
        <ele>175.39999389648</ele>
        <time>2011-07-01T12:24:36.000Z</time>
      </trkpt>
      <trkpt lat="48.70928" lon="1.74984">
        <ele>175.39999389648</ele>
        <time>2011-07-01T12:24:41.000Z</time>
      </trkpt>
      <trkpt lat="48.70923" lon="1.74991">
        <ele>175.19999694824</ele>
        <time>2011-07-01T12:24:45.000Z</time>
      </trkpt>
      <trkpt lat="48.70917" lon="1.75003">
        <ele>174.80000305176</ele>
        <time>2011-07-01T12:24:51.000Z</time>
      </trkpt>
      <trkpt lat="48.70913" lon="1.75012">
        <ele>174.80000305176</ele>
        <time>2011-07-01T12:24:57.000Z</time>
      </trkpt>
      <trkpt lat="48.70909" lon="1.75019">
        <ele>174.60000610352</ele>
        <time>2011-07-01T12:25:02.000Z</time>
      </trkpt>
      <trkpt lat="48.70906" lon="1.75026">
        <ele>174.60000610352</ele>
        <time>2011-07-01T12:25:06.000Z</time>
      </trkpt>
      <trkpt lat="48.70903" lon="1.75033">
        <ele>174.60000610352</ele>
        <time>2011-07-01T12:25:10.000Z</time>
      </trkpt>
      <trkpt lat="48.70901" lon="1.75038">
        <ele>174.39999389648</ele>
        <time>2011-07-01T12:25:13.000Z</time>
      </trkpt>
      <trkpt lat="48.70898" lon="1.75044">
        <ele>174.39999389648</ele>
        <time>2011-07-01T12:25:18.000Z</time>
      </trkpt>
      <trkpt lat="48.70897" lon="1.75045">
        <ele>174.39999389648</ele>
        <time>2011-07-01T12:25:19.000Z</time>
      </trkpt>
      <trkpt lat="48.70892" lon="1.75059">
        <ele>174.19999694824</ele>
        <time>2011-07-01T12:25:27.000Z</time>
      </trkpt>
      <trkpt lat="48.70886" lon="1.75069">
        <ele>174</ele>
        <time>2011-07-01T12:25:33.000Z</time>
      </trkpt>
      <trkpt lat="48.70884" lon="1.75075">
        <ele>174</ele>
        <time>2011-07-01T12:25:37.000Z</time>
      </trkpt>
      <trkpt lat="48.70883" lon="1.75076">
        <ele>174</ele>
        <time>2011-07-01T12:25:40.000Z</time>
      </trkpt>
      <trkpt lat="48.70876" lon="1.75083">
        <ele>174</ele>
        <time>2011-07-01T12:26:27.000Z</time>
      </trkpt>
      <trkpt lat="48.70875" lon="1.75085">
        <ele>174</ele>
        <time>2011-07-01T12:26:29.000Z</time>
      </trkpt>
      <trkpt lat="48.70863" lon="1.75111">
        <ele>174</ele>
        <time>2011-07-01T12:26:51.000Z</time>
      </trkpt>
      <trkpt lat="48.70861" lon="1.75116">
        <ele>174</ele>
        <time>2011-07-01T12:26:53.000Z</time>
      </trkpt>
      <trkpt lat="48.7086" lon="1.75119">
        <ele>174</ele>
        <time>2011-07-01T12:26:55.000Z</time>
      </trkpt>
      <trkpt lat="48.70856" lon="1.75125">
        <ele>174</ele>
        <time>2011-07-01T12:27:00.000Z</time>
      </trkpt>
      <trkpt lat="48.70853" lon="1.75134">
        <ele>174</ele>
        <time>2011-07-01T12:27:05.000Z</time>
      </trkpt>
      <trkpt lat="48.7085" lon="1.75144">
        <ele>174</ele>
        <time>2011-07-01T12:27:12.000Z</time>
      </trkpt>
      <trkpt lat="48.70845" lon="1.75154">
        <ele>174</ele>
        <time>2011-07-01T12:27:19.000Z</time>
      </trkpt>
      <trkpt lat="48.70843" lon="1.75157">
        <ele>174</ele>
        <time>2011-07-01T12:27:21.000Z</time>
      </trkpt>
      <trkpt lat="48.70839" lon="1.75167">
        <ele>174</ele>
        <time>2011-07-01T12:27:28.000Z</time>
      </trkpt>
      <trkpt lat="48.70834" lon="1.7518">
        <ele>174</ele>
        <time>2011-07-01T12:27:37.000Z</time>
      </trkpt>
      <trkpt lat="48.70833" lon="1.75181">
        <ele>173.80000305176</ele>
        <time>2011-07-01T12:27:38.000Z</time>
      </trkpt>
      <trkpt lat="48.70831" lon="1.75182">
        <ele>173.80000305176</ele>
        <time>2011-07-01T12:27:42.000Z</time>
      </trkpt>
      <trkpt lat="48.70821" lon="1.75207">
        <ele>173.80000305176</ele>
        <time>2011-07-01T12:28:04.000Z</time>
      </trkpt>
      <trkpt lat="48.70821" lon="1.75209">
        <ele>173.80000305176</ele>
        <time>2011-07-01T12:28:05.000Z</time>
      </trkpt>
      <trkpt lat="48.70817" lon="1.75218">
        <ele>173.80000305176</ele>
        <time>2011-07-01T12:28:10.000Z</time>
      </trkpt>
      <trkpt lat="48.70817" lon="1.7522">
        <ele>173.80000305176</ele>
        <time>2011-07-01T12:28:11.000Z</time>
      </trkpt>
      <trkpt lat="48.70812" lon="1.75228">
        <ele>173.60000610352</ele>
        <time>2011-07-01T12:28:17.000Z</time>
      </trkpt>
      <trkpt lat="48.70809" lon="1.75234">
        <ele>173.60000610352</ele>
        <time>2011-07-01T12:28:21.000Z</time>
      </trkpt>
      <trkpt lat="48.70806" lon="1.75243">
        <ele>173.60000610352</ele>
        <time>2011-07-01T12:28:26.000Z</time>
      </trkpt>
      <trkpt lat="48.70803" lon="1.7525">
        <ele>173.60000610352</ele>
        <time>2011-07-01T12:28:30.000Z</time>
      </trkpt>
      <trkpt lat="48.70802" lon="1.75255">
        <ele>173.60000610352</ele>
        <time>2011-07-01T12:28:34.000Z</time>
      </trkpt>
      <trkpt lat="48.70799" lon="1.75261">
        <ele>173.39999389648</ele>
        <time>2011-07-01T12:28:38.000Z</time>
      </trkpt>
      <trkpt lat="48.70796" lon="1.75269">
        <ele>173.39999389648</ele>
        <time>2011-07-01T12:28:44.000Z</time>
      </trkpt>
      <trkpt lat="48.70794" lon="1.75272">
        <ele>173.39999389648</ele>
        <time>2011-07-01T12:28:46.000Z</time>
      </trkpt>
      <trkpt lat="48.7079" lon="1.75281">
        <ele>173.39999389648</ele>
        <time>2011-07-01T12:28:53.000Z</time>
      </trkpt>
      <trkpt lat="48.70788" lon="1.75286">
        <ele>173.39999389648</ele>
        <time>2011-07-01T12:28:59.000Z</time>
      </trkpt>
      <trkpt lat="48.70785" lon="1.75292">
        <ele>173.39999389648</ele>
        <time>2011-07-01T12:29:04.000Z</time>
      </trkpt>
      <trkpt lat="48.70785" lon="1.75292">
        <ele>173.39999389648</ele>
        <time>2011-07-01T12:29:07.000Z</time>
      </trkpt>
      <trkpt lat="48.70779" lon="1.75305">
        <ele>173.19999694824</ele>
        <time>2011-07-01T12:29:37.000Z</time>
      </trkpt>
      <trkpt lat="48.70774" lon="1.75317">
        <ele>173.19999694824</ele>
        <time>2011-07-01T12:29:43.000Z</time>
      </trkpt>
      <trkpt lat="48.7077" lon="1.75328">
        <ele>173.19999694824</ele>
        <time>2011-07-01T12:29:50.000Z</time>
      </trkpt>
      <trkpt lat="48.70766" lon="1.75337">
        <ele>173</ele>
        <time>2011-07-01T12:29:55.000Z</time>
      </trkpt>
      <trkpt lat="48.70762" lon="1.75348">
        <ele>172.80000305176</ele>
        <time>2011-07-01T12:30:02.000Z</time>
      </trkpt>
      <trkpt lat="48.7076" lon="1.75358">
        <ele>172.80000305176</ele>
        <time>2011-07-01T12:30:08.000Z</time>
      </trkpt>
      <trkpt lat="48.70756" lon="1.75368">
        <ele>172.60000610352</ele>
        <time>2011-07-01T12:30:14.000Z</time>
      </trkpt>
      <trkpt lat="48.70753" lon="1.75375">
        <ele>172.39999389648</ele>
        <time>2011-07-01T12:30:18.000Z</time>
      </trkpt>
      <trkpt lat="48.70751" lon="1.7538">
        <ele>172.39999389648</ele>
        <time>2011-07-01T12:30:21.000Z</time>
      </trkpt>
      <trkpt lat="48.70748" lon="1.75384">
        <ele>172.19999694824</ele>
        <time>2011-07-01T12:30:25.000Z</time>
      </trkpt>
      <trkpt lat="48.70744" lon="1.75395">
        <ele>172</ele>
        <time>2011-07-01T12:30:33.000Z</time>
      </trkpt>
      <trkpt lat="48.70738" lon="1.75409">
        <ele>171.80000305176</ele>
        <time>2011-07-01T12:30:42.000Z</time>
      </trkpt>
      <trkpt lat="48.70733" lon="1.7542">
        <ele>171.60000610352</ele>
        <time>2011-07-01T12:30:49.000Z</time>
      </trkpt>
      <trkpt lat="48.70728" lon="1.75432">
        <ele>171.60000610352</ele>
        <time>2011-07-01T12:30:56.000Z</time>
      </trkpt>
      <trkpt lat="48.7072" lon="1.75451">
        <ele>171.60000610352</ele>
        <time>2011-07-01T12:31:08.000Z</time>
      </trkpt>
      <trkpt lat="48.70712" lon="1.75471">
        <ele>171.60000610352</ele>
        <time>2011-07-01T12:31:19.000Z</time>
      </trkpt>
      <trkpt lat="48.70707" lon="1.75483">
        <ele>171.80000305176</ele>
        <time>2011-07-01T12:31:26.000Z</time>
      </trkpt>
      <trkpt lat="48.707" lon="1.75496">
        <ele>172</ele>
        <time>2011-07-01T12:31:35.000Z</time>
      </trkpt>
      <trkpt lat="48.70695" lon="1.7551">
        <ele>172.39999389648</ele>
        <time>2011-07-01T12:31:44.000Z</time>
      </trkpt>
      <trkpt lat="48.70689" lon="1.75525">
        <ele>172.80000305176</ele>
        <time>2011-07-01T12:31:53.000Z</time>
      </trkpt>
      <trkpt lat="48.70683" lon="1.75538">
        <ele>173.39999389648</ele>
        <time>2011-07-01T12:32:01.000Z</time>
      </trkpt>
      <trkpt lat="48.70677" lon="1.75554">
        <ele>173.80000305176</ele>
        <time>2011-07-01T12:32:11.000Z</time>
      </trkpt>
      <trkpt lat="48.7067" lon="1.75567">
        <ele>174.39999389648</ele>
        <time>2011-07-01T12:32:20.000Z</time>
      </trkpt>
      <trkpt lat="48.70667" lon="1.75577">
        <ele>174.80000305176</ele>
        <time>2011-07-01T12:32:27.000Z</time>
      </trkpt>
      <trkpt lat="48.70663" lon="1.75582">
        <ele>175.19999694824</ele>
        <time>2011-07-01T12:32:32.000Z</time>
      </trkpt>
      <trkpt lat="48.7066" lon="1.75588">
        <ele>175.60000610352</ele>
        <time>2011-07-01T12:32:36.000Z</time>
      </trkpt>
      <trkpt lat="48.70656" lon="1.75596">
        <ele>176</ele>
        <time>2011-07-01T12:32:41.000Z</time>
      </trkpt>
      <trkpt lat="48.70654" lon="1.75609">
        <ele>176.19999694824</ele>
        <time>2011-07-01T12:32:49.000Z</time>
      </trkpt>
      <trkpt lat="48.7065" lon="1.75617">
        <ele>176.60000610352</ele>
        <time>2011-07-01T12:32:54.000Z</time>
      </trkpt>
      <trkpt lat="48.70649" lon="1.75618">
        <ele>176.80000305176</ele>
        <time>2011-07-01T12:32:55.000Z</time>
      </trkpt>
      <trkpt lat="48.70645" lon="1.75627">
        <ele>177.19999694824</ele>
        <time>2011-07-01T12:33:03.000Z</time>
      </trkpt>
      <trkpt lat="48.70643" lon="1.75641">
        <ele>177.60000610352</ele>
        <time>2011-07-01T12:33:10.000Z</time>
      </trkpt>
      <trkpt lat="48.70643" lon="1.7565">
        <ele>177.60000610352</ele>
        <time>2011-07-01T12:33:14.000Z</time>
      </trkpt>
      <trkpt lat="48.70647" lon="1.75661">
        <ele>177.19999694824</ele>
        <time>2011-07-01T12:33:21.000Z</time>
      </trkpt>
      <trkpt lat="48.70652" lon="1.75671">
        <ele>176.60000610352</ele>
        <time>2011-07-01T12:33:27.000Z</time>
      </trkpt>
      <trkpt lat="48.70656" lon="1.75677">
        <ele>176</ele>
        <time>2011-07-01T12:33:33.000Z</time>
      </trkpt>
      <trkpt lat="48.70662" lon="1.75683">
        <ele>175.19999694824</ele>
        <time>2011-07-01T12:33:38.000Z</time>
      </trkpt>
      <trkpt lat="48.70668" lon="1.75691">
        <ele>174.60000610352</ele>
        <time>2011-07-01T12:33:45.000Z</time>
      </trkpt>
      <trkpt lat="48.70674" lon="1.75697">
        <ele>174.39999389648</ele>
        <time>2011-07-01T12:33:51.000Z</time>
      </trkpt>
      <trkpt lat="48.70679" lon="1.75705">
        <ele>174.19999694824</ele>
        <time>2011-07-01T12:33:57.000Z</time>
      </trkpt>
      <trkpt lat="48.70688" lon="1.75715">
        <ele>174</ele>
        <time>2011-07-01T12:34:06.000Z</time>
      </trkpt>
      <trkpt lat="48.7069" lon="1.75716">
        <ele>174</ele>
        <time>2011-07-01T12:34:07.000Z</time>
      </trkpt>
      <trkpt lat="48.70695" lon="1.75722">
        <ele>174</ele>
        <time>2011-07-01T12:34:13.000Z</time>
      </trkpt>
      <trkpt lat="48.70699" lon="1.7573">
        <ele>174</ele>
        <time>2011-07-01T12:34:18.000Z</time>
      </trkpt>
      <trkpt lat="48.70703" lon="1.75732">
        <ele>174</ele>
        <time>2011-07-01T12:34:21.000Z</time>
      </trkpt>
      <trkpt lat="48.7071" lon="1.75741">
        <ele>173.80000305176</ele>
        <time>2011-07-01T12:34:27.000Z</time>
      </trkpt>
      <trkpt lat="48.70718" lon="1.75751">
        <ele>173.80000305176</ele>
        <time>2011-07-01T12:34:34.000Z</time>
      </trkpt>
      <trkpt lat="48.70724" lon="1.75759">
        <ele>173.80000305176</ele>
        <time>2011-07-01T12:34:41.000Z</time>
      </trkpt>
      <trkpt lat="48.70725" lon="1.75759">
        <ele>173.80000305176</ele>
        <time>2011-07-01T12:34:42.000Z</time>
      </trkpt>
      <trkpt lat="48.70727" lon="1.75763">
        <ele>173.60000610352</ele>
        <time>2011-07-01T12:34:47.000Z</time>
      </trkpt>
    </trkseg>
  </trk>
</gpx>